<?xml version="1.0" encoding="UTF-8" standalone="no" ?>
<gpx xmlns="http://www.topografix.com/GPX/1/1" xmlns:xsi="http://www.w3.org/2001/XMLSchema-instance" xsi:schemaLocation="http://www.topografix.com/GPX/1/1 http://www.topografix.com/GPX/1/1/gpx.xsd" version="1.1" creator="VisuGPX - https://www.visugpx.com">
  <metadata>
    <name>gr36</name>
  </metadata>
  <trk>
    <name><![CDATA[gr36_3]]></name>
    <trkseg>
      <trkpt lat="43.21076" lon="2.35065">
        <ele>110.926</ele>
        <time>2019-10-31T20:56:34Z</time>
      </trkpt>
      <trkpt lat="43.2106" lon="2.35074">
        <ele>111.208</ele>
        <time>2019-10-31T20:56:54Z</time>
      </trkpt>
      <trkpt lat="43.21055" lon="2.35543">
        <ele>105.032</ele>
        <time>2019-10-31T20:57:14Z</time>
      </trkpt>
      <trkpt lat="43.21108" lon="2.35545">
        <ele>104.488</ele>
        <time>2019-10-31T20:57:34Z</time>
      </trkpt>
      <trkpt lat="43.21092" lon="2.35711">
        <ele>102.073</ele>
        <time>2019-10-31T20:57:54Z</time>
      </trkpt>
      <trkpt lat="43.21036" lon="2.35814">
        <ele>100.016</ele>
        <time>2019-10-31T20:58:14Z</time>
      </trkpt>
      <trkpt lat="43.20994" lon="2.36047">
        <ele>100.262</ele>
        <time>2019-10-31T20:58:34Z</time>
      </trkpt>
      <trkpt lat="43.20936" lon="2.36026">
        <ele>102.034</ele>
        <time>2019-10-31T20:58:54Z</time>
      </trkpt>
      <trkpt lat="43.20899" lon="2.36061">
        <ele>102.09</ele>
        <time>2019-10-31T20:59:14Z</time>
      </trkpt>
      <trkpt lat="43.20783" lon="2.36118">
        <ele>103.019</ele>
        <time>2019-10-31T20:59:34Z</time>
      </trkpt>
      <trkpt lat="43.20708" lon="2.3613">
        <ele>105.032</ele>
        <time>2019-10-31T20:59:54Z</time>
      </trkpt>
      <trkpt lat="43.20683" lon="2.36226">
        <ele>114.892</ele>
        <time>2019-10-31T21:00:14Z</time>
      </trkpt>
      <trkpt lat="43.20605" lon="2.36222">
        <ele>124.211</ele>
        <time>2019-10-31T21:00:34Z</time>
      </trkpt>
      <trkpt lat="43.20643" lon="2.36279">
        <ele>139.908</ele>
        <time>2019-10-31T21:00:54Z</time>
      </trkpt>
      <trkpt lat="43.20607" lon="2.36267">
        <ele>138.439</ele>
        <time>2019-10-31T21:01:14Z</time>
      </trkpt>
      <trkpt lat="43.20596" lon="2.36285">
        <ele>143.265</ele>
        <time>2019-10-31T21:01:34Z</time>
      </trkpt>
      <trkpt lat="43.2055" lon="2.36282">
        <ele>144.39</ele>
        <time>2019-10-31T21:01:54Z</time>
      </trkpt>
      <trkpt lat="43.20544" lon="2.36318">
        <ele>147.443</ele>
        <time>2019-10-31T21:02:14Z</time>
      </trkpt>
      <trkpt lat="43.20507" lon="2.36328">
        <ele>147.059</ele>
        <time>2019-10-31T21:02:34Z</time>
      </trkpt>
      <trkpt lat="43.20507" lon="2.3635">
        <ele>148.561</ele>
        <time>2019-10-31T21:02:54Z</time>
      </trkpt>
      <trkpt lat="43.20511" lon="2.36376">
        <ele>149.717</ele>
        <time>2019-10-31T21:03:14Z</time>
      </trkpt>
      <trkpt lat="43.20515" lon="2.36409">
        <ele>149.726</ele>
        <time>2019-10-31T21:03:34Z</time>
      </trkpt>
      <trkpt lat="43.20542" lon="2.36454">
        <ele>150.097</ele>
        <time>2019-10-31T21:03:54Z</time>
      </trkpt>
      <trkpt lat="43.20561" lon="2.36459">
        <ele>150.023</ele>
        <time>2019-10-31T21:04:14Z</time>
      </trkpt>
      <trkpt lat="43.20596" lon="2.3645">
        <ele>150.025</ele>
        <time>2019-10-31T21:04:34Z</time>
      </trkpt>
      <trkpt lat="43.20646" lon="2.36468">
        <ele>149.908</ele>
        <time>2019-10-31T21:04:54Z</time>
      </trkpt>
      <trkpt lat="43.20655" lon="2.36493">
        <ele>149.665</ele>
        <time>2019-10-31T21:05:14Z</time>
      </trkpt>
      <trkpt lat="43.20693" lon="2.36504">
        <ele>147.991</ele>
        <time>2019-10-31T21:05:34Z</time>
      </trkpt>
      <trkpt lat="43.20684" lon="2.36567">
        <ele>144.536</ele>
        <time>2019-10-31T21:05:54Z</time>
      </trkpt>
      <trkpt lat="43.20665" lon="2.36576">
        <ele>142.349</ele>
        <time>2019-10-31T21:06:14Z</time>
      </trkpt>
      <trkpt lat="43.20652" lon="2.36599">
        <ele>139.755</ele>
        <time>2019-10-31T21:06:34Z</time>
      </trkpt>
      <trkpt lat="43.20644" lon="2.36663">
        <ele>137.847</ele>
        <time>2019-10-31T21:06:54Z</time>
      </trkpt>
      <trkpt lat="43.20578" lon="2.36681">
        <ele>143.393</ele>
        <time>2019-10-31T21:07:14Z</time>
      </trkpt>
      <trkpt lat="43.20554" lon="2.36667">
        <ele>146.322</ele>
        <time>2019-10-31T21:07:34Z</time>
      </trkpt>
      <trkpt lat="43.20539" lon="2.36634">
        <ele>146.686</ele>
        <time>2019-10-31T21:07:54Z</time>
      </trkpt>
      <trkpt lat="43.20521" lon="2.36598">
        <ele>146.76</ele>
        <time>2019-10-31T21:08:14Z</time>
      </trkpt>
      <trkpt lat="43.20483" lon="2.36572">
        <ele>145.126</ele>
        <time>2019-10-31T21:08:34Z</time>
      </trkpt>
      <trkpt lat="43.20446" lon="2.36593">
        <ele>144.808</ele>
        <time>2019-10-31T21:08:54Z</time>
      </trkpt>
      <trkpt lat="43.20419" lon="2.36642">
        <ele>146.454</ele>
        <time>2019-10-31T21:09:14Z</time>
      </trkpt>
      <trkpt lat="43.20394" lon="2.36767">
        <ele>151.84</ele>
        <time>2019-10-31T21:09:34Z</time>
      </trkpt>
      <trkpt lat="43.20352" lon="2.36902">
        <ele>154.535</ele>
        <time>2019-10-31T21:09:54Z</time>
      </trkpt>
      <trkpt lat="43.20315" lon="2.36978">
        <ele>155.968</ele>
        <time>2019-10-31T21:10:14Z</time>
      </trkpt>
      <trkpt lat="43.20249" lon="2.37055">
        <ele>159.034</ele>
        <time>2019-10-31T21:10:34Z</time>
      </trkpt>
      <trkpt lat="43.20208" lon="2.37083">
        <ele>159.076</ele>
        <time>2019-10-31T21:10:54Z</time>
      </trkpt>
      <trkpt lat="43.20149" lon="2.37084">
        <ele>157.842</ele>
        <time>2019-10-31T21:11:14Z</time>
      </trkpt>
      <trkpt lat="43.20123" lon="2.37052">
        <ele>153.831</ele>
        <time>2019-10-31T21:11:34Z</time>
      </trkpt>
      <trkpt lat="43.20064" lon="2.37094">
        <ele>153.559</ele>
        <time>2019-10-31T21:11:54Z</time>
      </trkpt>
      <trkpt lat="43.20076" lon="2.37138">
        <ele>160.003</ele>
        <time>2019-10-31T21:12:14Z</time>
      </trkpt>
      <trkpt lat="43.20065" lon="2.3718">
        <ele>165.623</ele>
        <time>2019-10-31T21:12:34Z</time>
      </trkpt>
      <trkpt lat="43.20031" lon="2.37227">
        <ele>166.208</ele>
        <time>2019-10-31T21:12:54Z</time>
      </trkpt>
      <trkpt lat="43.20008" lon="2.37338">
        <ele>168.381</ele>
        <time>2019-10-31T21:13:14Z</time>
      </trkpt>
      <trkpt lat="43.19956" lon="2.37481">
        <ele>167.427</ele>
        <time>2019-10-31T21:13:34Z</time>
      </trkpt>
      <trkpt lat="43.19796" lon="2.37839">
        <ele>189.852</ele>
        <time>2019-10-31T21:13:54Z</time>
      </trkpt>
      <trkpt lat="43.19774" lon="2.38">
        <ele>201.485</ele>
        <time>2019-10-31T21:14:14Z</time>
      </trkpt>
      <trkpt lat="43.19751" lon="2.38044">
        <ele>202.951</ele>
        <time>2019-10-31T21:14:34Z</time>
      </trkpt>
      <trkpt lat="43.19737" lon="2.38102">
        <ele>205.273</ele>
        <time>2019-10-31T21:14:54Z</time>
      </trkpt>
      <trkpt lat="43.19701" lon="2.38089">
        <ele>215.719</ele>
        <time>2019-10-31T21:15:14Z</time>
      </trkpt>
      <trkpt lat="43.1962" lon="2.38175">
        <ele>226.018</ele>
        <time>2019-10-31T21:15:34Z</time>
      </trkpt>
      <trkpt lat="43.1954" lon="2.38271">
        <ele>230.926</ele>
        <time>2019-10-31T21:15:54Z</time>
      </trkpt>
      <trkpt lat="43.19501" lon="2.38302">
        <ele>237.047</ele>
        <time>2019-10-31T21:16:14Z</time>
      </trkpt>
      <trkpt lat="43.19468" lon="2.38362">
        <ele>238.311</ele>
        <time>2019-10-31T21:16:34Z</time>
      </trkpt>
      <trkpt lat="43.19417" lon="2.38414">
        <ele>240.208</ele>
        <time>2019-10-31T21:16:54Z</time>
      </trkpt>
      <trkpt lat="43.19334" lon="2.38535">
        <ele>248.748</ele>
        <time>2019-10-31T21:17:14Z</time>
      </trkpt>
      <trkpt lat="43.19298" lon="2.38579">
        <ele>249.474</ele>
        <time>2019-10-31T21:17:34Z</time>
      </trkpt>
      <trkpt lat="43.19284" lon="2.38626">
        <ele>249.769</ele>
        <time>2019-10-31T21:17:54Z</time>
      </trkpt>
      <trkpt lat="43.19251" lon="2.38649">
        <ele>251.052</ele>
        <time>2019-10-31T21:18:14Z</time>
      </trkpt>
      <trkpt lat="43.19163" lon="2.38758">
        <ele>255.048</ele>
        <time>2019-10-31T21:18:34Z</time>
      </trkpt>
      <trkpt lat="43.19072" lon="2.3884">
        <ele>246.58</ele>
        <time>2019-10-31T21:18:54Z</time>
      </trkpt>
      <trkpt lat="43.19017" lon="2.38875">
        <ele>243.636</ele>
        <time>2019-10-31T21:19:14Z</time>
      </trkpt>
      <trkpt lat="43.18978" lon="2.39039">
        <ele>236.845</ele>
        <time>2019-10-31T21:19:34Z</time>
      </trkpt>
      <trkpt lat="43.18933" lon="2.39206">
        <ele>226.825</ele>
        <time>2019-10-31T21:19:54Z</time>
      </trkpt>
      <trkpt lat="43.1893" lon="2.39322">
        <ele>222.326</ele>
        <time>2019-10-31T21:20:14Z</time>
      </trkpt>
      <trkpt lat="43.18949" lon="2.39753">
        <ele>202.508</ele>
        <time>2019-10-31T21:20:34Z</time>
      </trkpt>
      <trkpt lat="43.18991" lon="2.39868">
        <ele>194.408</ele>
        <time>2019-10-31T21:20:54Z</time>
      </trkpt>
      <trkpt lat="43.18877" lon="2.39938">
        <ele>201.198</ele>
        <time>2019-10-31T21:21:14Z</time>
      </trkpt>
      <trkpt lat="43.18849" lon="2.39987">
        <ele>201.454</ele>
        <time>2019-10-31T21:21:34Z</time>
      </trkpt>
      <trkpt lat="43.18839" lon="2.40055">
        <ele>200.699</ele>
        <time>2019-10-31T21:21:54Z</time>
      </trkpt>
      <trkpt lat="43.18847" lon="2.40185">
        <ele>200.362</ele>
        <time>2019-10-31T21:22:14Z</time>
      </trkpt>
      <trkpt lat="43.18829" lon="2.40231">
        <ele>198.928</ele>
        <time>2019-10-31T21:22:34Z</time>
      </trkpt>
      <trkpt lat="43.188" lon="2.40265">
        <ele>197.59</ele>
        <time>2019-10-31T21:22:54Z</time>
      </trkpt>
      <trkpt lat="43.18678" lon="2.40315">
        <ele>208.156</ele>
        <time>2019-10-31T21:23:14Z</time>
      </trkpt>
      <trkpt lat="43.18698" lon="2.4039">
        <ele>206.455</ele>
        <time>2019-10-31T21:23:34Z</time>
      </trkpt>
      <trkpt lat="43.18728" lon="2.4047">
        <ele>197.514</ele>
        <time>2019-10-31T21:23:54Z</time>
      </trkpt>
      <trkpt lat="43.1871" lon="2.4059">
        <ele>189.654</ele>
        <time>2019-10-31T21:24:14Z</time>
      </trkpt>
      <trkpt lat="43.18713" lon="2.40694">
        <ele>183.809</ele>
        <time>2019-10-31T21:24:34Z</time>
      </trkpt>
      <trkpt lat="43.1865" lon="2.40883">
        <ele>174.908</ele>
        <time>2019-10-31T21:24:54Z</time>
      </trkpt>
      <trkpt lat="43.18634" lon="2.40976">
        <ele>168.937</ele>
        <time>2019-10-31T21:25:14Z</time>
      </trkpt>
      <trkpt lat="43.18612" lon="2.41023">
        <ele>166.453</ele>
        <time>2019-10-31T21:25:34Z</time>
      </trkpt>
      <trkpt lat="43.18484" lon="2.41181">
        <ele>161.388</ele>
        <time>2019-10-31T21:25:54Z</time>
      </trkpt>
      <trkpt lat="43.18434" lon="2.41288">
        <ele>161.391</ele>
        <time>2019-10-31T21:26:14Z</time>
      </trkpt>
      <trkpt lat="43.18324" lon="2.41332">
        <ele>169.447</ele>
        <time>2019-10-31T21:26:34Z</time>
      </trkpt>
      <trkpt lat="43.18294" lon="2.41355">
        <ele>168.159</ele>
        <time>2019-10-31T21:26:54Z</time>
      </trkpt>
      <trkpt lat="43.18266" lon="2.41359">
        <ele>166.255</ele>
        <time>2019-10-31T21:27:14Z</time>
      </trkpt>
      <trkpt lat="43.18262" lon="2.414">
        <ele>163.664</ele>
        <time>2019-10-31T21:27:34Z</time>
      </trkpt>
      <trkpt lat="43.18288" lon="2.41447">
        <ele>162.227</ele>
        <time>2019-10-31T21:27:54Z</time>
      </trkpt>
      <trkpt lat="43.18231" lon="2.4152">
        <ele>157.668</ele>
        <time>2019-10-31T21:28:14Z</time>
      </trkpt>
      <trkpt lat="43.18238" lon="2.41616">
        <ele>151.514</ele>
        <time>2019-10-31T21:28:34Z</time>
      </trkpt>
      <trkpt lat="43.18229" lon="2.41642">
        <ele>150.308</ele>
        <time>2019-10-31T21:28:54Z</time>
      </trkpt>
      <trkpt lat="43.1821" lon="2.41633">
        <ele>148.588</ele>
        <time>2019-10-31T21:29:14Z</time>
      </trkpt>
      <trkpt lat="43.18155" lon="2.41542">
        <ele>144.244</ele>
        <time>2019-10-31T21:29:34Z</time>
      </trkpt>
      <trkpt lat="43.18114" lon="2.41566">
        <ele>142.249</ele>
        <time>2019-10-31T21:29:54Z</time>
      </trkpt>
      <trkpt lat="43.18091" lon="2.41595">
        <ele>141.882</ele>
        <time>2019-10-31T21:30:14Z</time>
      </trkpt>
      <trkpt lat="43.18041" lon="2.41615">
        <ele>144.978</ele>
        <time>2019-10-31T21:30:34Z</time>
      </trkpt>
      <trkpt lat="43.18004" lon="2.41652">
        <ele>142.88</ele>
        <time>2019-10-31T21:30:54Z</time>
      </trkpt>
      <trkpt lat="43.17951" lon="2.41756">
        <ele>140.056</ele>
        <time>2019-10-31T21:31:14Z</time>
      </trkpt>
      <trkpt lat="43.17916" lon="2.41782">
        <ele>140.885</ele>
        <time>2019-10-31T21:31:34Z</time>
      </trkpt>
      <trkpt lat="43.17856" lon="2.41766">
        <ele>144.067</ele>
        <time>2019-10-31T21:31:54Z</time>
      </trkpt>
      <trkpt lat="43.17815" lon="2.41787">
        <ele>141.881</ele>
        <time>2019-10-31T21:32:14Z</time>
      </trkpt>
      <trkpt lat="43.17859" lon="2.41877">
        <ele>142.419</ele>
        <time>2019-10-31T21:32:34Z</time>
      </trkpt>
      <trkpt lat="43.17907" lon="2.41883">
        <ele>149.108</ele>
        <time>2019-10-31T21:32:54Z</time>
      </trkpt>
      <trkpt lat="43.18012" lon="2.41798">
        <ele>142.142</ele>
        <time>2019-10-31T21:33:14Z</time>
      </trkpt>
      <trkpt lat="43.18049" lon="2.4175">
        <ele>141.538</ele>
        <time>2019-10-31T21:33:34Z</time>
      </trkpt>
      <trkpt lat="43.18076" lon="2.41746">
        <ele>141.713</ele>
        <time>2019-10-31T21:33:54Z</time>
      </trkpt>
      <trkpt lat="43.1814" lon="2.418">
        <ele>144.116</ele>
        <time>2019-10-31T21:34:14Z</time>
      </trkpt>
      <trkpt lat="43.18158" lon="2.41854">
        <ele>143.622</ele>
        <time>2019-10-31T21:34:34Z</time>
      </trkpt>
      <trkpt lat="43.18134" lon="2.41992">
        <ele>145.364</ele>
        <time>2019-10-31T21:34:54Z</time>
      </trkpt>
      <trkpt lat="43.18121" lon="2.42014">
        <ele>146.95</ele>
        <time>2019-10-31T21:35:14Z</time>
      </trkpt>
      <trkpt lat="43.18135" lon="2.42087">
        <ele>146.479</ele>
        <time>2019-10-31T21:35:34Z</time>
      </trkpt>
      <trkpt lat="43.18163" lon="2.42106">
        <ele>148.268</ele>
        <time>2019-10-31T21:35:54Z</time>
      </trkpt>
      <trkpt lat="43.18183" lon="2.42086">
        <ele>146.342</ele>
        <time>2019-10-31T21:36:14Z</time>
      </trkpt>
      <trkpt lat="43.18223" lon="2.42098">
        <ele>147.926</ele>
        <time>2019-10-31T21:36:34Z</time>
      </trkpt>
      <trkpt lat="43.18174" lon="2.4212">
        <ele>149.208</ele>
        <time>2019-10-31T21:36:54Z</time>
      </trkpt>
      <trkpt lat="43.18148" lon="2.42199">
        <ele>150.832</ele>
        <time>2019-10-31T21:37:14Z</time>
      </trkpt>
      <trkpt lat="43.18127" lon="2.42213">
        <ele>152.018</ele>
        <time>2019-10-31T21:37:34Z</time>
      </trkpt>
      <trkpt lat="43.18055" lon="2.42345">
        <ele>160.383</ele>
        <time>2019-10-31T21:37:54Z</time>
      </trkpt>
      <trkpt lat="43.18033" lon="2.42366">
        <ele>161.716</ele>
        <time>2019-10-31T21:38:14Z</time>
      </trkpt>
      <trkpt lat="43.17958" lon="2.42534">
        <ele>157.432</ele>
        <time>2019-10-31T21:38:34Z</time>
      </trkpt>
      <trkpt lat="43.17913" lon="2.42538">
        <ele>157.794</ele>
        <time>2019-10-31T21:38:54Z</time>
      </trkpt>
      <trkpt lat="43.17867" lon="2.42569">
        <ele>159.13</ele>
        <time>2019-10-31T21:39:14Z</time>
      </trkpt>
      <trkpt lat="43.17845" lon="2.42613">
        <ele>156.489</ele>
        <time>2019-10-31T21:39:34Z</time>
      </trkpt>
      <trkpt lat="43.17784" lon="2.42642">
        <ele>159.992</ele>
        <time>2019-10-31T21:39:54Z</time>
      </trkpt>
      <trkpt lat="43.17765" lon="2.42704">
        <ele>159.773</ele>
        <time>2019-10-31T21:40:14Z</time>
      </trkpt>
      <trkpt lat="43.17664" lon="2.42712">
        <ele>166.72</ele>
        <time>2019-10-31T21:40:34Z</time>
      </trkpt>
      <trkpt lat="43.17657" lon="2.42792">
        <ele>165.208</ele>
        <time>2019-10-31T21:40:54Z</time>
      </trkpt>
      <trkpt lat="43.17623" lon="2.42786">
        <ele>171.695</ele>
        <time>2019-10-31T21:41:14Z</time>
      </trkpt>
      <trkpt lat="43.17609" lon="2.42812">
        <ele>171.561</ele>
        <time>2019-10-31T21:41:34Z</time>
      </trkpt>
      <trkpt lat="43.1758" lon="2.42838">
        <ele>174.126</ele>
        <time>2019-10-31T21:41:54Z</time>
      </trkpt>
      <trkpt lat="43.17585" lon="2.42903">
        <ele>176.379</ele>
        <time>2019-10-31T21:42:14Z</time>
      </trkpt>
      <trkpt lat="43.17569" lon="2.42969">
        <ele>181.325</ele>
        <time>2019-10-31T21:42:34Z</time>
      </trkpt>
      <trkpt lat="43.17567" lon="2.43034">
        <ele>181.797</ele>
        <time>2019-10-31T21:42:54Z</time>
      </trkpt>
      <trkpt lat="43.17543" lon="2.43086">
        <ele>183.273</ele>
        <time>2019-10-31T21:43:14Z</time>
      </trkpt>
      <trkpt lat="43.17481" lon="2.43127">
        <ele>185.522</ele>
        <time>2019-10-31T21:43:34Z</time>
      </trkpt>
      <trkpt lat="43.17456" lon="2.43187">
        <ele>184.011</ele>
        <time>2019-10-31T21:43:54Z</time>
      </trkpt>
      <trkpt lat="43.17428" lon="2.43244">
        <ele>178.921</ele>
        <time>2019-10-31T21:44:14Z</time>
      </trkpt>
      <trkpt lat="43.17417" lon="2.43329">
        <ele>174.203</ele>
        <time>2019-10-31T21:44:34Z</time>
      </trkpt>
      <trkpt lat="43.17373" lon="2.43391">
        <ele>178.208</ele>
        <time>2019-10-31T21:44:54Z</time>
      </trkpt>
      <trkpt lat="43.17373" lon="2.43482">
        <ele>179.017</ele>
        <time>2019-10-31T21:45:14Z</time>
      </trkpt>
      <trkpt lat="43.17356" lon="2.43552">
        <ele>180.673</ele>
        <time>2019-10-31T21:45:34Z</time>
      </trkpt>
      <trkpt lat="43.17351" lon="2.43587">
        <ele>184.258</ele>
        <time>2019-10-31T21:45:54Z</time>
      </trkpt>
      <trkpt lat="43.17315" lon="2.43737">
        <ele>200.741</ele>
        <time>2019-10-31T21:46:14Z</time>
      </trkpt>
      <trkpt lat="43.17268" lon="2.43771">
        <ele>204.737</ele>
        <time>2019-10-31T21:46:34Z</time>
      </trkpt>
      <trkpt lat="43.17253" lon="2.43808">
        <ele>203.099</ele>
        <time>2019-10-31T21:46:54Z</time>
      </trkpt>
      <trkpt lat="43.17267" lon="2.43952">
        <ele>208.525</ele>
        <time>2019-10-31T21:47:14Z</time>
      </trkpt>
      <trkpt lat="43.1725" lon="2.44013">
        <ele>208.554</ele>
        <time>2019-10-31T21:47:34Z</time>
      </trkpt>
      <trkpt lat="43.17221" lon="2.44052">
        <ele>208.056</ele>
        <time>2019-10-31T21:47:54Z</time>
      </trkpt>
      <trkpt lat="43.17153" lon="2.4407">
        <ele>205.659</ele>
        <time>2019-10-31T21:48:14Z</time>
      </trkpt>
      <trkpt lat="43.17126" lon="2.4407">
        <ele>203.814</ele>
        <time>2019-10-31T21:48:34Z</time>
      </trkpt>
      <trkpt lat="43.17082" lon="2.44135">
        <ele>201.008</ele>
        <time>2019-10-31T21:48:54Z</time>
      </trkpt>
      <trkpt lat="43.1706" lon="2.44197">
        <ele>199.161</ele>
        <time>2019-10-31T21:49:14Z</time>
      </trkpt>
      <trkpt lat="43.17025" lon="2.44231">
        <ele>197.637</ele>
        <time>2019-10-31T21:49:34Z</time>
      </trkpt>
      <trkpt lat="43.16988" lon="2.44249">
        <ele>194.282</ele>
        <time>2019-10-31T21:49:54Z</time>
      </trkpt>
      <trkpt lat="43.16953" lon="2.44256">
        <ele>190.815</ele>
        <time>2019-10-31T21:50:14Z</time>
      </trkpt>
      <trkpt lat="43.16928" lon="2.44287">
        <ele>191.521</ele>
        <time>2019-10-31T21:50:34Z</time>
      </trkpt>
      <trkpt lat="43.16934" lon="2.44379">
        <ele>188.573</ele>
        <time>2019-10-31T21:50:54Z</time>
      </trkpt>
      <trkpt lat="43.1692" lon="2.44413">
        <ele>189.649</ele>
        <time>2019-10-31T21:51:14Z</time>
      </trkpt>
      <trkpt lat="43.16839" lon="2.44498">
        <ele>198.368</ele>
        <time>2019-10-31T21:51:34Z</time>
      </trkpt>
      <trkpt lat="43.16755" lon="2.44498">
        <ele>201.964</ele>
        <time>2019-10-31T21:51:54Z</time>
      </trkpt>
      <trkpt lat="43.16685" lon="2.44514">
        <ele>209.406</ele>
        <time>2019-10-31T21:52:14Z</time>
      </trkpt>
      <trkpt lat="43.16674" lon="2.44558">
        <ele>209.816</ele>
        <time>2019-10-31T21:52:34Z</time>
      </trkpt>
      <trkpt lat="43.16646" lon="2.44596">
        <ele>206.408</ele>
        <time>2019-10-31T21:52:54Z</time>
      </trkpt>
      <trkpt lat="43.16616" lon="2.4461">
        <ele>198.472</ele>
        <time>2019-10-31T21:53:14Z</time>
      </trkpt>
      <trkpt lat="43.16593" lon="2.44592">
        <ele>197.428</ele>
        <time>2019-10-31T21:53:34Z</time>
      </trkpt>
      <trkpt lat="43.16531" lon="2.44573">
        <ele>191.293</ele>
        <time>2019-10-31T21:53:54Z</time>
      </trkpt>
      <trkpt lat="43.16482" lon="2.44542">
        <ele>189.416</ele>
        <time>2019-10-31T21:54:14Z</time>
      </trkpt>
      <trkpt lat="43.16446" lon="2.44545">
        <ele>186.822</ele>
        <time>2019-10-31T21:54:34Z</time>
      </trkpt>
      <trkpt lat="43.16427" lon="2.44592">
        <ele>183.954</ele>
        <time>2019-10-31T21:54:54Z</time>
      </trkpt>
      <trkpt lat="43.16405" lon="2.44597">
        <ele>182.28</ele>
        <time>2019-10-31T21:55:14Z</time>
      </trkpt>
      <trkpt lat="43.16417" lon="2.44674">
        <ele>182.049</ele>
        <time>2019-10-31T21:55:34Z</time>
      </trkpt>
      <trkpt lat="43.16433" lon="2.44698">
        <ele>180.751</ele>
        <time>2019-10-31T21:55:54Z</time>
      </trkpt>
      <trkpt lat="43.16393" lon="2.44695">
        <ele>179.401</ele>
        <time>2019-10-31T21:56:14Z</time>
      </trkpt>
      <trkpt lat="43.16374" lon="2.44726">
        <ele>176.011</ele>
        <time>2019-10-31T21:56:34Z</time>
      </trkpt>
      <trkpt lat="43.16337" lon="2.44729">
        <ele>173.008</ele>
        <time>2019-10-31T21:56:54Z</time>
      </trkpt>
      <trkpt lat="43.16319" lon="2.44758">
        <ele>170.151</ele>
        <time>2019-10-31T21:57:14Z</time>
      </trkpt>
      <trkpt lat="43.16317" lon="2.44809">
        <ele>174.597</ele>
        <time>2019-10-31T21:57:34Z</time>
      </trkpt>
      <trkpt lat="43.16361" lon="2.44971">
        <ele>188.992</ele>
        <time>2019-10-31T21:57:54Z</time>
      </trkpt>
      <trkpt lat="43.16356" lon="2.45015">
        <ele>189.865</ele>
        <time>2019-10-31T21:58:14Z</time>
      </trkpt>
      <trkpt lat="43.16305" lon="2.44961">
        <ele>194.941</ele>
        <time>2019-10-31T21:58:34Z</time>
      </trkpt>
      <trkpt lat="43.16293" lon="2.44944">
        <ele>196.833</ele>
        <time>2019-10-31T21:58:54Z</time>
      </trkpt>
      <trkpt lat="43.16266" lon="2.44927">
        <ele>195.889</ele>
        <time>2019-10-31T21:59:14Z</time>
      </trkpt>
      <trkpt lat="43.16215" lon="2.4488">
        <ele>193.978</ele>
        <time>2019-10-31T21:59:34Z</time>
      </trkpt>
      <trkpt lat="43.16134" lon="2.44755">
        <ele>191.717</ele>
        <time>2019-10-31T21:59:54Z</time>
      </trkpt>
      <trkpt lat="43.16114" lon="2.4475">
        <ele>195.587</ele>
        <time>2019-10-31T22:00:14Z</time>
      </trkpt>
      <trkpt lat="43.16102" lon="2.44678">
        <ele>204.215</ele>
        <time>2019-10-31T22:00:34Z</time>
      </trkpt>
      <trkpt lat="43.16083" lon="2.44696">
        <ele>206.808</ele>
        <time>2019-10-31T22:00:54Z</time>
      </trkpt>
      <trkpt lat="43.16043" lon="2.44698">
        <ele>215.627</ele>
        <time>2019-10-31T22:01:14Z</time>
      </trkpt>
      <trkpt lat="43.16004" lon="2.44732">
        <ele>218.793</ele>
        <time>2019-10-31T22:01:34Z</time>
      </trkpt>
      <trkpt lat="43.15956" lon="2.44763">
        <ele>229.988</ele>
        <time>2019-10-31T22:01:54Z</time>
      </trkpt>
      <trkpt lat="43.15983" lon="2.44688">
        <ele>233.081</ele>
        <time>2019-10-31T22:02:14Z</time>
      </trkpt>
      <trkpt lat="43.15933" lon="2.44622">
        <ele>242.097</ele>
        <time>2019-10-31T22:02:34Z</time>
      </trkpt>
      <trkpt lat="43.15907" lon="2.44711">
        <ele>252.329</ele>
        <time>2019-10-31T22:02:54Z</time>
      </trkpt>
      <trkpt lat="43.15886" lon="2.44724">
        <ele>256.385</ele>
        <time>2019-10-31T22:03:14Z</time>
      </trkpt>
      <trkpt lat="43.1586" lon="2.44695">
        <ele>258.134</ele>
        <time>2019-10-31T22:03:34Z</time>
      </trkpt>
      <trkpt lat="43.15824" lon="2.44693">
        <ele>263.327</ele>
        <time>2019-10-31T22:03:54Z</time>
      </trkpt>
      <trkpt lat="43.15778" lon="2.44643">
        <ele>265.268</ele>
        <time>2019-10-31T22:04:14Z</time>
      </trkpt>
      <trkpt lat="43.15768" lon="2.44599">
        <ele>261.514</ele>
        <time>2019-10-31T22:04:34Z</time>
      </trkpt>
      <trkpt lat="43.15727" lon="2.44586">
        <ele>264.308</ele>
        <time>2019-10-31T22:04:54Z</time>
      </trkpt>
      <trkpt lat="43.15717" lon="2.44501">
        <ele>259.868</ele>
        <time>2019-10-31T22:05:14Z</time>
      </trkpt>
      <trkpt lat="43.15698" lon="2.44431">
        <ele>256.624</ele>
        <time>2019-10-31T22:05:34Z</time>
      </trkpt>
      <trkpt lat="43.15661" lon="2.44407">
        <ele>259.119</ele>
        <time>2019-10-31T22:05:54Z</time>
      </trkpt>
      <trkpt lat="43.15608" lon="2.4433">
        <ele>247.892</ele>
        <time>2019-10-31T22:06:14Z</time>
      </trkpt>
      <trkpt lat="43.15521" lon="2.44298">
        <ele>246.728</ele>
        <time>2019-10-31T22:06:34Z</time>
      </trkpt>
      <trkpt lat="43.15497" lon="2.44308">
        <ele>247.06</ele>
        <time>2019-10-31T22:06:54Z</time>
      </trkpt>
      <trkpt lat="43.15457" lon="2.44365">
        <ele>249.396</ele>
        <time>2019-10-31T22:07:14Z</time>
      </trkpt>
      <trkpt lat="43.15437" lon="2.44374">
        <ele>250.555</ele>
        <time>2019-10-31T22:07:34Z</time>
      </trkpt>
      <trkpt lat="43.15417" lon="2.44327">
        <ele>248.323</ele>
        <time>2019-10-31T22:07:54Z</time>
      </trkpt>
      <trkpt lat="43.15354" lon="2.44285">
        <ele>246.883</ele>
        <time>2019-10-31T22:08:14Z</time>
      </trkpt>
      <trkpt lat="43.15223" lon="2.44285">
        <ele>236.611</ele>
        <time>2019-10-31T22:08:34Z</time>
      </trkpt>
      <trkpt lat="43.15209" lon="2.44319">
        <ele>232.408</ele>
        <time>2019-10-31T22:08:54Z</time>
      </trkpt>
      <trkpt lat="43.15216" lon="2.4435">
        <ele>231.828</ele>
        <time>2019-10-31T22:09:14Z</time>
      </trkpt>
      <trkpt lat="43.15207" lon="2.4441">
        <ele>228.234</ele>
        <time>2019-10-31T22:09:34Z</time>
      </trkpt>
      <trkpt lat="43.15235" lon="2.44558">
        <ele>222.929</ele>
        <time>2019-10-31T22:09:54Z</time>
      </trkpt>
      <trkpt lat="43.15223" lon="2.44604">
        <ele>216.492</ele>
        <time>2019-10-31T22:10:14Z</time>
      </trkpt>
      <trkpt lat="43.15221" lon="2.44669">
        <ele>217.858</ele>
        <time>2019-10-31T22:10:34Z</time>
      </trkpt>
      <trkpt lat="43.15204" lon="2.44711">
        <ele>215.64</ele>
        <time>2019-10-31T22:10:54Z</time>
      </trkpt>
      <trkpt lat="43.15187" lon="2.44742">
        <ele>209.796</ele>
        <time>2019-10-31T22:11:14Z</time>
      </trkpt>
      <trkpt lat="43.15185" lon="2.44826">
        <ele>207.185</ele>
        <time>2019-10-31T22:11:34Z</time>
      </trkpt>
      <trkpt lat="43.15211" lon="2.44952">
        <ele>199.451</ele>
        <time>2019-10-31T22:11:54Z</time>
      </trkpt>
      <trkpt lat="43.15247" lon="2.45004">
        <ele>198.201</ele>
        <time>2019-10-31T22:12:14Z</time>
      </trkpt>
      <trkpt lat="43.15289" lon="2.45036">
        <ele>198.411</ele>
        <time>2019-10-31T22:12:34Z</time>
      </trkpt>
      <trkpt lat="43.15313" lon="2.45124">
        <ele>189.208</ele>
        <time>2019-10-31T22:12:54Z</time>
      </trkpt>
      <trkpt lat="43.15382" lon="2.45179">
        <ele>191.631</ele>
        <time>2019-10-31T22:13:14Z</time>
      </trkpt>
      <trkpt lat="43.15401" lon="2.4522">
        <ele>188.647</ele>
        <time>2019-10-31T22:13:34Z</time>
      </trkpt>
      <trkpt lat="43.15449" lon="2.45269">
        <ele>187.292</ele>
        <time>2019-10-31T22:13:54Z</time>
      </trkpt>
      <trkpt lat="43.15449" lon="2.4535">
        <ele>176.115</ele>
        <time>2019-10-31T22:14:14Z</time>
      </trkpt>
      <trkpt lat="43.15538" lon="2.45402">
        <ele>174.561</ele>
        <time>2019-10-31T22:14:34Z</time>
      </trkpt>
      <trkpt lat="43.15544" lon="2.45438">
        <ele>168.983</ele>
        <time>2019-10-31T22:14:54Z</time>
      </trkpt>
      <trkpt lat="43.15527" lon="2.45443">
        <ele>168.249</ele>
        <time>2019-10-31T22:15:14Z</time>
      </trkpt>
      <trkpt lat="43.15504" lon="2.4541">
        <ele>171.428</ele>
        <time>2019-10-31T22:15:34Z</time>
      </trkpt>
      <trkpt lat="43.15482" lon="2.45409">
        <ele>170.155</ele>
        <time>2019-10-31T22:15:54Z</time>
      </trkpt>
      <trkpt lat="43.15477" lon="2.45433">
        <ele>166.607</ele>
        <time>2019-10-31T22:16:14Z</time>
      </trkpt>
      <trkpt lat="43.15534" lon="2.45522">
        <ele>161.417</ele>
        <time>2019-10-31T22:16:34Z</time>
      </trkpt>
      <trkpt lat="43.1559" lon="2.45623">
        <ele>154.308</ele>
        <time>2019-10-31T22:16:54Z</time>
      </trkpt>
      <trkpt lat="43.15578" lon="2.457">
        <ele>150.521</ele>
        <time>2019-10-31T22:17:14Z</time>
      </trkpt>
      <trkpt lat="43.15583" lon="2.45776">
        <ele>149.017</ele>
        <time>2019-10-31T22:17:34Z</time>
      </trkpt>
      <trkpt lat="43.15564" lon="2.45804">
        <ele>149.042</ele>
        <time>2019-10-31T22:17:54Z</time>
      </trkpt>
      <trkpt lat="43.15565" lon="2.45843">
        <ele>149.085</ele>
        <time>2019-10-31T22:18:14Z</time>
      </trkpt>
      <trkpt lat="43.15585" lon="2.45893">
        <ele>149.221</ele>
        <time>2019-10-31T22:18:34Z</time>
      </trkpt>
      <trkpt lat="43.15621" lon="2.45918">
        <ele>152.133</ele>
        <time>2019-10-31T22:18:54Z</time>
      </trkpt>
      <trkpt lat="43.1566" lon="2.45879">
        <ele>148.849</ele>
        <time>2019-10-31T22:19:14Z</time>
      </trkpt>
      <trkpt lat="43.15666" lon="2.45918">
        <ele>153.148</ele>
        <time>2019-10-31T22:19:34Z</time>
      </trkpt>
      <trkpt lat="43.15666" lon="2.45955">
        <ele>158.157</ele>
        <time>2019-10-31T22:19:54Z</time>
      </trkpt>
      <trkpt lat="43.1568" lon="2.45994">
        <ele>161.9</ele>
        <time>2019-10-31T22:20:14Z</time>
      </trkpt>
      <trkpt lat="43.15815" lon="2.45949">
        <ele>154.12</ele>
        <time>2019-10-31T22:20:34Z</time>
      </trkpt>
      <trkpt lat="43.15847" lon="2.45978">
        <ele>157.808</ele>
        <time>2019-10-31T22:20:54Z</time>
      </trkpt>
      <trkpt lat="43.15851" lon="2.46028">
        <ele>161.481</ele>
        <time>2019-10-31T22:21:14Z</time>
      </trkpt>
      <trkpt lat="43.1584" lon="2.4607">
        <ele>167.027</ele>
        <time>2019-10-31T22:21:34Z</time>
      </trkpt>
      <trkpt lat="43.15863" lon="2.46126">
        <ele>170.122</ele>
        <time>2019-10-31T22:21:54Z</time>
      </trkpt>
      <trkpt lat="43.15838" lon="2.46179">
        <ele>178.155</ele>
        <time>2019-10-31T22:22:14Z</time>
      </trkpt>
      <trkpt lat="43.15857" lon="2.46214">
        <ele>180.451</ele>
        <time>2019-10-31T22:22:34Z</time>
      </trkpt>
      <trkpt lat="43.15867" lon="2.46251">
        <ele>185.233</ele>
        <time>2019-10-31T22:22:54Z</time>
      </trkpt>
      <trkpt lat="43.15899" lon="2.46282">
        <ele>190.089</ele>
        <time>2019-10-31T22:23:14Z</time>
      </trkpt>
      <trkpt lat="43.15928" lon="2.46288">
        <ele>191.478</ele>
        <time>2019-10-31T22:23:34Z</time>
      </trkpt>
      <trkpt lat="43.15947" lon="2.46332">
        <ele>196.023</ele>
        <time>2019-10-31T22:23:54Z</time>
      </trkpt>
      <trkpt lat="43.16113" lon="2.46357">
        <ele>206.683</ele>
        <time>2019-10-31T22:24:14Z</time>
      </trkpt>
      <trkpt lat="43.16162" lon="2.46306">
        <ele>200.411</ele>
        <time>2019-10-31T22:24:34Z</time>
      </trkpt>
      <trkpt lat="43.16171" lon="2.46329">
        <ele>201.108</ele>
        <time>2019-10-31T22:24:54Z</time>
      </trkpt>
      <trkpt lat="43.1619" lon="2.46336">
        <ele>202.848</ele>
        <time>2019-10-31T22:25:14Z</time>
      </trkpt>
      <trkpt lat="43.16219" lon="2.46433">
        <ele>212.494</ele>
        <time>2019-10-31T22:25:34Z</time>
      </trkpt>
      <trkpt lat="43.1622" lon="2.46472">
        <ele>215.749</ele>
        <time>2019-10-31T22:25:54Z</time>
      </trkpt>
      <trkpt lat="43.16245" lon="2.4651">
        <ele>221.362</ele>
        <time>2019-10-31T22:26:14Z</time>
      </trkpt>
      <trkpt lat="43.1626" lon="2.46565">
        <ele>226.068</ele>
        <time>2019-10-31T22:26:34Z</time>
      </trkpt>
      <trkpt lat="43.16262" lon="2.46619">
        <ele>230.82</ele>
        <time>2019-10-31T22:26:54Z</time>
      </trkpt>
      <trkpt lat="43.16279" lon="2.46687">
        <ele>238.076</ele>
        <time>2019-10-31T22:27:14Z</time>
      </trkpt>
      <trkpt lat="43.16277" lon="2.46788">
        <ele>248.055</ele>
        <time>2019-10-31T22:27:34Z</time>
      </trkpt>
      <trkpt lat="43.16283" lon="2.46856">
        <ele>253.956</ele>
        <time>2019-10-31T22:27:54Z</time>
      </trkpt>
      <trkpt lat="43.16279" lon="2.47015">
        <ele>270.659</ele>
        <time>2019-10-31T22:28:14Z</time>
      </trkpt>
      <trkpt lat="43.16272" lon="2.47048">
        <ele>273.614</ele>
        <time>2019-10-31T22:28:34Z</time>
      </trkpt>
      <trkpt lat="43.16281" lon="2.47105">
        <ele>279.208</ele>
        <time>2019-10-31T22:28:54Z</time>
      </trkpt>
      <trkpt lat="43.16271" lon="2.47222">
        <ele>289.211</ele>
        <time>2019-10-31T22:29:14Z</time>
      </trkpt>
      <trkpt lat="43.1631" lon="2.4724">
        <ele>292.597</ele>
        <time>2019-10-31T22:29:34Z</time>
      </trkpt>
      <trkpt lat="43.16353" lon="2.47282">
        <ele>298.052</ele>
        <time>2019-10-31T22:29:54Z</time>
      </trkpt>
      <trkpt lat="43.16391" lon="2.47344">
        <ele>304.895</ele>
        <time>2019-10-31T22:30:14Z</time>
      </trkpt>
      <trkpt lat="43.16434" lon="2.47355">
        <ele>307.751</ele>
        <time>2019-10-31T22:30:34Z</time>
      </trkpt>
      <trkpt lat="43.16461" lon="2.47412">
        <ele>313.283</ele>
        <time>2019-10-31T22:30:54Z</time>
      </trkpt>
      <trkpt lat="43.16472" lon="2.47489">
        <ele>320.219</ele>
        <time>2019-10-31T22:31:14Z</time>
      </trkpt>
      <trkpt lat="43.16509" lon="2.47541">
        <ele>325.288</ele>
        <time>2019-10-31T22:31:34Z</time>
      </trkpt>
      <trkpt lat="43.16529" lon="2.47547">
        <ele>326.416</ele>
        <time>2019-10-31T22:31:54Z</time>
      </trkpt>
      <trkpt lat="43.16587" lon="2.47619">
        <ele>334.576</ele>
        <time>2019-10-31T22:32:14Z</time>
      </trkpt>
      <trkpt lat="43.16599" lon="2.47659">
        <ele>337.513</ele>
        <time>2019-10-31T22:32:34Z</time>
      </trkpt>
      <trkpt lat="43.16598" lon="2.47698">
        <ele>340.308</ele>
        <time>2019-10-31T22:32:54Z</time>
      </trkpt>
      <trkpt lat="43.16608" lon="2.47713">
        <ele>341.387</ele>
        <time>2019-10-31T22:33:14Z</time>
      </trkpt>
      <trkpt lat="43.16614" lon="2.47791">
        <ele>345.943</ele>
        <time>2019-10-31T22:33:34Z</time>
      </trkpt>
      <trkpt lat="43.16638" lon="2.47846">
        <ele>349.558</ele>
        <time>2019-10-31T22:33:54Z</time>
      </trkpt>
      <trkpt lat="43.16674" lon="2.47902">
        <ele>352.271</ele>
        <time>2019-10-31T22:34:14Z</time>
      </trkpt>
      <trkpt lat="43.16712" lon="2.47975">
        <ele>354.567</ele>
        <time>2019-10-31T22:34:34Z</time>
      </trkpt>
      <trkpt lat="43.16713" lon="2.48032">
        <ele>356.539</ele>
        <time>2019-10-31T22:34:54Z</time>
      </trkpt>
      <trkpt lat="43.16729" lon="2.48063">
        <ele>356.875</ele>
        <time>2019-10-31T22:35:14Z</time>
      </trkpt>
      <trkpt lat="43.1673" lon="2.48093">
        <ele>357.824</ele>
        <time>2019-10-31T22:35:34Z</time>
      </trkpt>
      <trkpt lat="43.16762" lon="2.481">
        <ele>354.953</ele>
        <time>2019-10-31T22:35:54Z</time>
      </trkpt>
      <trkpt lat="43.16771" lon="2.48142">
        <ele>355.804</ele>
        <time>2019-10-31T22:36:14Z</time>
      </trkpt>
      <trkpt lat="43.16769" lon="2.48168">
        <ele>357.114</ele>
        <time>2019-10-31T22:36:34Z</time>
      </trkpt>
      <trkpt lat="43.16788" lon="2.48194">
        <ele>356.908</ele>
        <time>2019-10-31T22:36:54Z</time>
      </trkpt>
      <trkpt lat="43.16756" lon="2.48302">
        <ele>362.651</ele>
        <time>2019-10-31T22:37:14Z</time>
      </trkpt>
      <trkpt lat="43.16738" lon="2.48293">
        <ele>363.687</ele>
        <time>2019-10-31T22:37:34Z</time>
      </trkpt>
      <trkpt lat="43.16714" lon="2.48321">
        <ele>366.122</ele>
        <time>2019-10-31T22:37:54Z</time>
      </trkpt>
      <trkpt lat="43.16717" lon="2.48355">
        <ele>367.185</ele>
        <time>2019-10-31T22:38:14Z</time>
      </trkpt>
      <trkpt lat="43.16727" lon="2.48364">
        <ele>366.851</ele>
        <time>2019-10-31T22:38:34Z</time>
      </trkpt>
      <trkpt lat="43.16729" lon="2.48381">
        <ele>367.213</ele>
        <time>2019-10-31T22:38:54Z</time>
      </trkpt>
      <trkpt lat="43.16751" lon="2.48389">
        <ele>365.929</ele>
        <time>2019-10-31T22:39:14Z</time>
      </trkpt>
      <trkpt lat="43.16755" lon="2.48404">
        <ele>366.288</ele>
        <time>2019-10-31T22:39:34Z</time>
      </trkpt>
      <trkpt lat="43.16769" lon="2.48404">
        <ele>365.265</ele>
        <time>2019-10-31T22:39:54Z</time>
      </trkpt>
      <trkpt lat="43.16778" lon="2.48424">
        <ele>365.068</ele>
        <time>2019-10-31T22:40:14Z</time>
      </trkpt>
      <trkpt lat="43.16797" lon="2.48427">
        <ele>363.814</ele>
        <time>2019-10-31T22:40:34Z</time>
      </trkpt>
      <trkpt lat="43.16807" lon="2.48441">
        <ele>363.708</ele>
        <time>2019-10-31T22:40:54Z</time>
      </trkpt>
      <trkpt lat="43.16824" lon="2.48448">
        <ele>362.822</ele>
        <time>2019-10-31T22:41:14Z</time>
      </trkpt>
      <trkpt lat="43.16843" lon="2.48437">
        <ele>361.388</ele>
        <time>2019-10-31T22:41:34Z</time>
      </trkpt>
      <trkpt lat="43.16864" lon="2.48457">
        <ele>360.323</ele>
        <time>2019-10-31T22:41:54Z</time>
      </trkpt>
      <trkpt lat="43.16869" lon="2.4847">
        <ele>360.336</ele>
        <time>2019-10-31T22:42:14Z</time>
      </trkpt>
      <trkpt lat="43.16888" lon="2.48489">
        <ele>359.132</ele>
        <time>2019-10-31T22:42:34Z</time>
      </trkpt>
      <trkpt lat="43.16888" lon="2.4851">
        <ele>358.834</ele>
        <time>2019-10-31T22:42:54Z</time>
      </trkpt>
      <trkpt lat="43.16907" lon="2.48533">
        <ele>354.41</ele>
        <time>2019-10-31T22:43:14Z</time>
      </trkpt>
      <trkpt lat="43.1692" lon="2.48531">
        <ele>352.259</ele>
        <time>2019-10-31T22:43:34Z</time>
      </trkpt>
      <trkpt lat="43.16925" lon="2.48558">
        <ele>349.885</ele>
        <time>2019-10-31T22:43:54Z</time>
      </trkpt>
      <trkpt lat="43.1694" lon="2.48578">
        <ele>346.889</ele>
        <time>2019-10-31T22:44:14Z</time>
      </trkpt>
      <trkpt lat="43.16976" lon="2.48568">
        <ele>342.017</ele>
        <time>2019-10-31T22:44:34Z</time>
      </trkpt>
      <trkpt lat="43.16992" lon="2.48585">
        <ele>339.008</ele>
        <time>2019-10-31T22:44:54Z</time>
      </trkpt>
      <trkpt lat="43.1702" lon="2.4858">
        <ele>327.774</ele>
        <time>2019-10-31T22:45:14Z</time>
      </trkpt>
      <trkpt lat="43.17042" lon="2.48583">
        <ele>317.32</ele>
        <time>2019-10-31T22:45:34Z</time>
      </trkpt>
      <trkpt lat="43.17049" lon="2.48522">
        <ele>305.215</ele>
        <time>2019-10-31T22:45:54Z</time>
      </trkpt>
      <trkpt lat="43.17064" lon="2.48503">
        <ele>297.018</ele>
        <time>2019-10-31T22:46:14Z</time>
      </trkpt>
      <trkpt lat="43.1709" lon="2.48513">
        <ele>291.184</ele>
        <time>2019-10-31T22:46:34Z</time>
      </trkpt>
      <trkpt lat="43.17099" lon="2.48575">
        <ele>293.166</ele>
        <time>2019-10-31T22:46:54Z</time>
      </trkpt>
      <trkpt lat="43.17091" lon="2.48679">
        <ele>284.042</ele>
        <time>2019-10-31T22:47:14Z</time>
      </trkpt>
      <trkpt lat="43.17064" lon="2.48737">
        <ele>279.151</ele>
        <time>2019-10-31T22:47:34Z</time>
      </trkpt>
      <trkpt lat="43.17039" lon="2.4877">
        <ele>281.835</ele>
        <time>2019-10-31T22:47:54Z</time>
      </trkpt>
      <trkpt lat="43.1701" lon="2.48843">
        <ele>280.686</ele>
        <time>2019-10-31T22:48:14Z</time>
      </trkpt>
      <trkpt lat="43.17052" lon="2.48798">
        <ele>271.414</ele>
        <time>2019-10-31T22:48:34Z</time>
      </trkpt>
      <trkpt lat="43.1706" lon="2.4887">
        <ele>260.808</ele>
        <time>2019-10-31T22:48:54Z</time>
      </trkpt>
      <trkpt lat="43.17054" lon="2.48894">
        <ele>260.849</ele>
        <time>2019-10-31T22:49:14Z</time>
      </trkpt>
      <trkpt lat="43.17057" lon="2.48907">
        <ele>257.875</ele>
        <time>2019-10-31T22:49:34Z</time>
      </trkpt>
      <trkpt lat="43.17076" lon="2.48921">
        <ele>249.64</ele>
        <time>2019-10-31T22:49:54Z</time>
      </trkpt>
      <trkpt lat="43.17096" lon="2.48907">
        <ele>242.593</ele>
        <time>2019-10-31T22:50:14Z</time>
      </trkpt>
      <trkpt lat="43.17123" lon="2.48925">
        <ele>230.079</ele>
        <time>2019-10-31T22:50:34Z</time>
      </trkpt>
      <trkpt lat="43.17112" lon="2.48982">
        <ele>235.031</ele>
        <time>2019-10-31T22:50:54Z</time>
      </trkpt>
      <trkpt lat="43.17097" lon="2.49023">
        <ele>239.347</ele>
        <time>2019-10-31T22:51:14Z</time>
      </trkpt>
      <trkpt lat="43.17097" lon="2.49037">
        <ele>239.736</ele>
        <time>2019-10-31T22:51:34Z</time>
      </trkpt>
      <trkpt lat="43.17093" lon="2.49055">
        <ele>240.012</ele>
        <time>2019-10-31T22:51:54Z</time>
      </trkpt>
      <trkpt lat="43.17098" lon="2.49065">
        <ele>241.032</ele>
        <time>2019-10-31T22:52:14Z</time>
      </trkpt>
      <trkpt lat="43.17095" lon="2.49079">
        <ele>242.605</ele>
        <time>2019-10-31T22:52:34Z</time>
      </trkpt>
      <trkpt lat="43.17101" lon="2.49083">
        <ele>242.908</ele>
        <time>2019-10-31T22:52:54Z</time>
      </trkpt>
      <trkpt lat="43.17104" lon="2.49096">
        <ele>244.757</ele>
        <time>2019-10-31T22:53:14Z</time>
      </trkpt>
      <trkpt lat="43.17148" lon="2.49116">
        <ele>245.423</ele>
        <time>2019-10-31T22:53:34Z</time>
      </trkpt>
      <trkpt lat="43.1716" lon="2.49142">
        <ele>248.798</ele>
        <time>2019-10-31T22:53:54Z</time>
      </trkpt>
      <trkpt lat="43.17179" lon="2.49143">
        <ele>247.311</ele>
        <time>2019-10-31T22:54:14Z</time>
      </trkpt>
      <trkpt lat="43.17219" lon="2.49149">
        <ele>246.137</ele>
        <time>2019-10-31T22:54:34Z</time>
      </trkpt>
      <trkpt lat="43.17233" lon="2.49161">
        <ele>246.379</ele>
        <time>2019-10-31T22:54:54Z</time>
      </trkpt>
      <trkpt lat="43.17246" lon="2.49205">
        <ele>255.865</ele>
        <time>2019-10-31T22:55:14Z</time>
      </trkpt>
      <trkpt lat="43.17258" lon="2.4923">
        <ele>257.944</ele>
        <time>2019-10-31T22:55:34Z</time>
      </trkpt>
      <trkpt lat="43.17259" lon="2.49249">
        <ele>260.714</ele>
        <time>2019-10-31T22:55:54Z</time>
      </trkpt>
      <trkpt lat="43.17247" lon="2.49288">
        <ele>266.554</ele>
        <time>2019-10-31T22:56:14Z</time>
      </trkpt>
      <trkpt lat="43.17253" lon="2.49336">
        <ele>257.809</ele>
        <time>2019-10-31T22:56:34Z</time>
      </trkpt>
      <trkpt lat="43.17238" lon="2.49362">
        <ele>255.008</ele>
        <time>2019-10-31T22:56:54Z</time>
      </trkpt>
      <trkpt lat="43.17233" lon="2.49375">
        <ele>252.267</ele>
        <time>2019-10-31T22:57:14Z</time>
      </trkpt>
      <trkpt lat="43.17207" lon="2.4939">
        <ele>255.243</ele>
        <time>2019-10-31T22:57:34Z</time>
      </trkpt>
      <trkpt lat="43.17191" lon="2.49417">
        <ele>255.998</ele>
        <time>2019-10-31T22:57:54Z</time>
      </trkpt>
      <trkpt lat="43.1717" lon="2.49465">
        <ele>257.751</ele>
        <time>2019-10-31T22:58:14Z</time>
      </trkpt>
      <trkpt lat="43.17145" lon="2.4947">
        <ele>267.817</ele>
        <time>2019-10-31T22:58:34Z</time>
      </trkpt>
      <trkpt lat="43.1713" lon="2.49498">
        <ele>271.149</ele>
        <time>2019-10-31T22:58:54Z</time>
      </trkpt>
      <trkpt lat="43.17116" lon="2.49561">
        <ele>279.125</ele>
        <time>2019-10-31T22:59:14Z</time>
      </trkpt>
      <trkpt lat="43.17112" lon="2.496">
        <ele>285.354</ele>
        <time>2019-10-31T22:59:34Z</time>
      </trkpt>
      <trkpt lat="43.171" lon="2.49645">
        <ele>296.785</ele>
        <time>2019-10-31T22:59:54Z</time>
      </trkpt>
      <trkpt lat="43.17121" lon="2.49644">
        <ele>293.989</ele>
        <time>2019-10-31T23:00:14Z</time>
      </trkpt>
      <trkpt lat="43.17073" lon="2.49723">
        <ele>311.517</ele>
        <time>2019-10-31T23:00:34Z</time>
      </trkpt>
      <trkpt lat="43.1708" lon="2.49803">
        <ele>315.208</ele>
        <time>2019-10-31T23:00:54Z</time>
      </trkpt>
      <trkpt lat="43.1709" lon="2.49835">
        <ele>316.164</ele>
        <time>2019-10-31T23:01:14Z</time>
      </trkpt>
      <trkpt lat="43.1709" lon="2.49863">
        <ele>317.69</ele>
        <time>2019-10-31T23:01:34Z</time>
      </trkpt>
      <trkpt lat="43.17077" lon="2.49883">
        <ele>320.425</ele>
        <time>2019-10-31T23:01:54Z</time>
      </trkpt>
      <trkpt lat="43.17074" lon="2.49957">
        <ele>322.788</ele>
        <time>2019-10-31T23:02:14Z</time>
      </trkpt>
      <trkpt lat="43.1706" lon="2.49967">
        <ele>324.524</ele>
        <time>2019-10-31T23:02:34Z</time>
      </trkpt>
      <trkpt lat="43.17046" lon="2.49967">
        <ele>326.076</ele>
        <time>2019-10-31T23:02:54Z</time>
      </trkpt>
      <trkpt lat="43.17027" lon="2.49989">
        <ele>326.232</ele>
        <time>2019-10-31T23:03:14Z</time>
      </trkpt>
      <trkpt lat="43.16927" lon="2.49765">
        <ele>350.921</ele>
        <time>2019-10-31T23:03:34Z</time>
      </trkpt>
      <trkpt lat="43.16899" lon="2.49887">
        <ele>363.442</ele>
        <time>2019-10-31T23:03:54Z</time>
      </trkpt>
      <trkpt lat="43.16825" lon="2.50036">
        <ele>381.222</ele>
        <time>2019-10-31T23:04:14Z</time>
      </trkpt>
      <trkpt lat="43.16832" lon="2.50086">
        <ele>382.014</ele>
        <time>2019-10-31T23:04:34Z</time>
      </trkpt>
      <trkpt lat="43.16791" lon="2.50231">
        <ele>393.808</ele>
        <time>2019-10-31T23:04:54Z</time>
      </trkpt>
      <trkpt lat="43.16746" lon="2.50435">
        <ele>405.28</ele>
        <time>2019-10-31T23:05:14Z</time>
      </trkpt>
      <trkpt lat="43.16731" lon="2.50546">
        <ele>410.586</ele>
        <time>2019-10-31T23:05:34Z</time>
      </trkpt>
      <trkpt lat="43.16734" lon="2.50595">
        <ele>411.341</ele>
        <time>2019-10-31T23:05:54Z</time>
      </trkpt>
      <trkpt lat="43.16729" lon="2.50649">
        <ele>415.854</ele>
        <time>2019-10-31T23:06:14Z</time>
      </trkpt>
      <trkpt lat="43.16754" lon="2.50768">
        <ele>417.82</ele>
        <time>2019-10-31T23:06:34Z</time>
      </trkpt>
      <trkpt lat="43.16752" lon="2.50802">
        <ele>416.812</ele>
        <time>2019-10-31T23:06:54Z</time>
      </trkpt>
      <trkpt lat="43.16716" lon="2.50867">
        <ele>421.528</ele>
        <time>2019-10-31T23:07:14Z</time>
      </trkpt>
      <trkpt lat="43.16698" lon="2.50963">
        <ele>412.397</ele>
        <time>2019-10-31T23:07:34Z</time>
      </trkpt>
      <trkpt lat="43.16651" lon="2.51102">
        <ele>410.125</ele>
        <time>2019-10-31T23:07:54Z</time>
      </trkpt>
      <trkpt lat="43.16645" lon="2.512">
        <ele>405.826</ele>
        <time>2019-10-31T23:08:14Z</time>
      </trkpt>
      <trkpt lat="43.1661" lon="2.51362">
        <ele>405.108</ele>
        <time>2019-10-31T23:08:34Z</time>
      </trkpt>
      <trkpt lat="43.16609" lon="2.51463">
        <ele>399.108</ele>
        <time>2019-10-31T23:08:54Z</time>
      </trkpt>
      <trkpt lat="43.16585" lon="2.51571">
        <ele>393.628</ele>
        <time>2019-10-31T23:09:14Z</time>
      </trkpt>
      <trkpt lat="43.16607" lon="2.51623">
        <ele>390.744</ele>
        <time>2019-10-31T23:09:34Z</time>
      </trkpt>
      <trkpt lat="43.16609" lon="2.51655">
        <ele>391.919</ele>
        <time>2019-10-31T23:09:54Z</time>
      </trkpt>
      <trkpt lat="43.16635" lon="2.517">
        <ele>384.482</ele>
        <time>2019-10-31T23:10:14Z</time>
      </trkpt>
      <trkpt lat="43.16584" lon="2.51775">
        <ele>382.558</ele>
        <time>2019-10-31T23:10:34Z</time>
      </trkpt>
      <trkpt lat="43.16571" lon="2.51841">
        <ele>375.41</ele>
        <time>2019-10-31T23:10:54Z</time>
      </trkpt>
      <trkpt lat="43.16532" lon="2.51852">
        <ele>388.556</ele>
        <time>2019-10-31T23:11:14Z</time>
      </trkpt>
      <trkpt lat="43.165" lon="2.51893">
        <ele>388.375</ele>
        <time>2019-10-31T23:11:34Z</time>
      </trkpt>
      <trkpt lat="43.16464" lon="2.51984">
        <ele>380.369</ele>
        <time>2019-10-31T23:11:54Z</time>
      </trkpt>
      <trkpt lat="43.16431" lon="2.52026">
        <ele>382.604</ele>
        <time>2019-10-31T23:12:14Z</time>
      </trkpt>
      <trkpt lat="43.16415" lon="2.52079">
        <ele>373.324</ele>
        <time>2019-10-31T23:12:34Z</time>
      </trkpt>
      <trkpt lat="43.16443" lon="2.52126">
        <ele>350.508</ele>
        <time>2019-10-31T23:12:54Z</time>
      </trkpt>
      <trkpt lat="43.16439" lon="2.52179">
        <ele>342.122</ele>
        <time>2019-10-31T23:13:14Z</time>
      </trkpt>
      <trkpt lat="43.16459" lon="2.52207">
        <ele>335.248</ele>
        <time>2019-10-31T23:13:34Z</time>
      </trkpt>
      <trkpt lat="43.16459" lon="2.52228">
        <ele>335.483</ele>
        <time>2019-10-31T23:13:54Z</time>
      </trkpt>
      <trkpt lat="43.16471" lon="2.5226">
        <ele>332.716</ele>
        <time>2019-10-31T23:14:14Z</time>
      </trkpt>
      <trkpt lat="43.16477" lon="2.52296">
        <ele>331.922</ele>
        <time>2019-10-31T23:14:34Z</time>
      </trkpt>
      <trkpt lat="43.16488" lon="2.52325">
        <ele>327.744</ele>
        <time>2019-10-31T23:14:54Z</time>
      </trkpt>
      <trkpt lat="43.16485" lon="2.52346">
        <ele>326.64</ele>
        <time>2019-10-31T23:15:14Z</time>
      </trkpt>
      <trkpt lat="43.16489" lon="2.52354">
        <ele>325.269</ele>
        <time>2019-10-31T23:15:34Z</time>
      </trkpt>
      <trkpt lat="43.16477" lon="2.52389">
        <ele>322.342</ele>
        <time>2019-10-31T23:15:54Z</time>
      </trkpt>
      <trkpt lat="43.16457" lon="2.52395">
        <ele>323.822</ele>
        <time>2019-10-31T23:16:14Z</time>
      </trkpt>
      <trkpt lat="43.16431" lon="2.52417">
        <ele>323.314</ele>
        <time>2019-10-31T23:16:34Z</time>
      </trkpt>
      <trkpt lat="43.16418" lon="2.52444">
        <ele>320.008</ele>
        <time>2019-10-31T23:16:54Z</time>
      </trkpt>
      <trkpt lat="43.16422" lon="2.52471">
        <ele>315.02</ele>
        <time>2019-10-31T23:17:14Z</time>
      </trkpt>
      <trkpt lat="43.16402" lon="2.52522">
        <ele>308.656</ele>
        <time>2019-10-31T23:17:34Z</time>
      </trkpt>
      <trkpt lat="43.16398" lon="2.52557">
        <ele>302.031</ele>
        <time>2019-10-31T23:17:54Z</time>
      </trkpt>
      <trkpt lat="43.16375" lon="2.52596">
        <ele>298.894</ele>
        <time>2019-10-31T23:18:14Z</time>
      </trkpt>
      <trkpt lat="43.16374" lon="2.52614">
        <ele>296.82</ele>
        <time>2019-10-31T23:18:34Z</time>
      </trkpt>
      <trkpt lat="43.16394" lon="2.52635">
        <ele>290.712</ele>
        <time>2019-10-31T23:18:54Z</time>
      </trkpt>
      <trkpt lat="43.16401" lon="2.52677">
        <ele>284.948</ele>
        <time>2019-10-31T23:19:14Z</time>
      </trkpt>
      <trkpt lat="43.16391" lon="2.52723">
        <ele>288.237</ele>
        <time>2019-10-31T23:19:34Z</time>
      </trkpt>
      <trkpt lat="43.16397" lon="2.52739">
        <ele>290.976</ele>
        <time>2019-10-31T23:19:54Z</time>
      </trkpt>
      <trkpt lat="43.16373" lon="2.52765">
        <ele>293.99</ele>
        <time>2019-10-31T23:20:14Z</time>
      </trkpt>
      <trkpt lat="43.16331" lon="2.52774">
        <ele>291.819</ele>
        <time>2019-10-31T23:20:34Z</time>
      </trkpt>
      <trkpt lat="43.16278" lon="2.52792">
        <ele>297.408</ele>
        <time>2019-10-31T23:20:54Z</time>
      </trkpt>
      <trkpt lat="43.16251" lon="2.52783">
        <ele>295.433</ele>
        <time>2019-10-31T23:21:14Z</time>
      </trkpt>
      <trkpt lat="43.16232" lon="2.52787">
        <ele>298.299</ele>
        <time>2019-10-31T23:21:34Z</time>
      </trkpt>
      <trkpt lat="43.16246" lon="2.52859">
        <ele>320.124</ele>
        <time>2019-10-31T23:21:54Z</time>
      </trkpt>
      <trkpt lat="43.16244" lon="2.52921">
        <ele>335.697</ele>
        <time>2019-10-31T23:22:14Z</time>
      </trkpt>
      <trkpt lat="43.16257" lon="2.52926">
        <ele>338.723</ele>
        <time>2019-10-31T23:22:34Z</time>
      </trkpt>
      <trkpt lat="43.16268" lon="2.52942">
        <ele>343.975</ele>
        <time>2019-10-31T23:22:54Z</time>
      </trkpt>
      <trkpt lat="43.1626" lon="2.52978">
        <ele>351.261</ele>
        <time>2019-10-31T23:23:14Z</time>
      </trkpt>
      <trkpt lat="43.16311" lon="2.53026">
        <ele>382.96</ele>
        <time>2019-10-31T23:23:34Z</time>
      </trkpt>
      <trkpt lat="43.16338" lon="2.53014">
        <ele>383.946</ele>
        <time>2019-10-31T23:23:54Z</time>
      </trkpt>
      <trkpt lat="43.16324" lon="2.53102">
        <ele>398.088</ele>
        <time>2019-10-31T23:24:14Z</time>
      </trkpt>
      <trkpt lat="43.16257" lon="2.53375">
        <ele>390.016</ele>
        <time>2019-10-31T23:24:34Z</time>
      </trkpt>
      <trkpt lat="43.16278" lon="2.5343">
        <ele>398.408</ele>
        <time>2019-10-31T23:24:54Z</time>
      </trkpt>
      <trkpt lat="43.16277" lon="2.53457">
        <ele>401.81</ele>
        <time>2019-10-31T23:25:14Z</time>
      </trkpt>
      <trkpt lat="43.16267" lon="2.53477">
        <ele>404.896</ele>
        <time>2019-10-31T23:25:34Z</time>
      </trkpt>
      <trkpt lat="43.1627" lon="2.53494">
        <ele>407.931</ele>
        <time>2019-10-31T23:25:54Z</time>
      </trkpt>
      <trkpt lat="43.16248" lon="2.53525">
        <ele>416.264</ele>
        <time>2019-10-31T23:26:14Z</time>
      </trkpt>
      <trkpt lat="43.1625" lon="2.53543">
        <ele>420.91</ele>
        <time>2019-10-31T23:26:34Z</time>
      </trkpt>
      <trkpt lat="43.16239" lon="2.53567">
        <ele>427.932</ele>
        <time>2019-10-31T23:26:54Z</time>
      </trkpt>
      <trkpt lat="43.16242" lon="2.5359">
        <ele>434.298</ele>
        <time>2019-10-31T23:27:14Z</time>
      </trkpt>
      <trkpt lat="43.16221" lon="2.53629">
        <ele>447.467</ele>
        <time>2019-10-31T23:27:34Z</time>
      </trkpt>
      <trkpt lat="43.16223" lon="2.53637">
        <ele>449.455</ele>
        <time>2019-10-31T23:27:54Z</time>
      </trkpt>
      <trkpt lat="43.16209" lon="2.53658">
        <ele>454.107</ele>
        <time>2019-10-31T23:28:14Z</time>
      </trkpt>
      <trkpt lat="43.16207" lon="2.53696">
        <ele>459.517</ele>
        <time>2019-10-31T23:28:34Z</time>
      </trkpt>
      <trkpt lat="43.16232" lon="2.53748">
        <ele>464.508</ele>
        <time>2019-10-31T23:28:54Z</time>
      </trkpt>
      <trkpt lat="43.16235" lon="2.5378">
        <ele>464.381</ele>
        <time>2019-10-31T23:29:14Z</time>
      </trkpt>
      <trkpt lat="43.16222" lon="2.53822">
        <ele>460.837</ele>
        <time>2019-10-31T23:29:34Z</time>
      </trkpt>
      <trkpt lat="43.16251" lon="2.5387">
        <ele>456.082</ele>
        <time>2019-10-31T23:29:54Z</time>
      </trkpt>
      <trkpt lat="43.16248" lon="2.53901">
        <ele>452.835</ele>
        <time>2019-10-31T23:30:14Z</time>
      </trkpt>
      <trkpt lat="43.16257" lon="2.53916">
        <ele>450.321</ele>
        <time>2019-10-31T23:30:34Z</time>
      </trkpt>
      <trkpt lat="43.16258" lon="2.53929">
        <ele>449.183</ele>
        <time>2019-10-31T23:30:54Z</time>
      </trkpt>
      <trkpt lat="43.16275" lon="2.53951">
        <ele>445.219</ele>
        <time>2019-10-31T23:31:14Z</time>
      </trkpt>
      <trkpt lat="43.16272" lon="2.53988">
        <ele>443.528</ele>
        <time>2019-10-31T23:31:34Z</time>
      </trkpt>
      <trkpt lat="43.16286" lon="2.53999">
        <ele>441.582</ele>
        <time>2019-10-31T23:31:54Z</time>
      </trkpt>
      <trkpt lat="43.16311" lon="2.54037">
        <ele>436.843</ele>
        <time>2019-10-31T23:32:14Z</time>
      </trkpt>
      <trkpt lat="43.16305" lon="2.54075">
        <ele>433.017</ele>
        <time>2019-10-31T23:32:34Z</time>
      </trkpt>
      <trkpt lat="43.16309" lon="2.54137">
        <ele>426.108</ele>
        <time>2019-10-31T23:32:54Z</time>
      </trkpt>
      <trkpt lat="43.16291" lon="2.54177">
        <ele>419.124</ele>
        <time>2019-10-31T23:33:14Z</time>
      </trkpt>
      <trkpt lat="43.16272" lon="2.54264">
        <ele>396.74</ele>
        <time>2019-10-31T23:33:34Z</time>
      </trkpt>
      <trkpt lat="43.16286" lon="2.54323">
        <ele>389.525</ele>
        <time>2019-10-31T23:33:54Z</time>
      </trkpt>
      <trkpt lat="43.16272" lon="2.54419">
        <ele>380.378</ele>
        <time>2019-10-31T23:34:14Z</time>
      </trkpt>
      <trkpt lat="43.16228" lon="2.54524">
        <ele>366.914</ele>
        <time>2019-10-31T23:34:34Z</time>
      </trkpt>
      <trkpt lat="43.16213" lon="2.54588">
        <ele>362.566</ele>
        <time>2019-10-31T23:34:54Z</time>
      </trkpt>
      <trkpt lat="43.16225" lon="2.54765">
        <ele>353.922</ele>
        <time>2019-10-31T23:35:14Z</time>
      </trkpt>
      <trkpt lat="43.16241" lon="2.54854">
        <ele>355.451</ele>
        <time>2019-10-31T23:35:34Z</time>
      </trkpt>
      <trkpt lat="43.16241" lon="2.54881">
        <ele>356.563</ele>
        <time>2019-10-31T23:35:54Z</time>
      </trkpt>
      <trkpt lat="43.16199" lon="2.549">
        <ele>355.644</ele>
        <time>2019-10-31T23:36:14Z</time>
      </trkpt>
      <trkpt lat="43.16165" lon="2.54903">
        <ele>353.418</ele>
        <time>2019-10-31T23:36:34Z</time>
      </trkpt>
      <trkpt lat="43.1614" lon="2.54948">
        <ele>359.208</ele>
        <time>2019-10-31T23:36:54Z</time>
      </trkpt>
      <trkpt lat="43.16098" lon="2.54954">
        <ele>354.982</ele>
        <time>2019-10-31T23:37:14Z</time>
      </trkpt>
      <trkpt lat="43.1607" lon="2.54971">
        <ele>352.598</ele>
        <time>2019-10-31T23:37:34Z</time>
      </trkpt>
      <trkpt lat="43.1605" lon="2.5497">
        <ele>350.263</ele>
        <time>2019-10-31T23:37:54Z</time>
      </trkpt>
      <trkpt lat="43.16002" lon="2.5499">
        <ele>346.156</ele>
        <time>2019-10-31T23:38:14Z</time>
      </trkpt>
      <trkpt lat="43.15975" lon="2.55023">
        <ele>345.262</ele>
        <time>2019-10-31T23:38:34Z</time>
      </trkpt>
      <trkpt lat="43.15956" lon="2.55035">
        <ele>343.044</ele>
        <time>2019-10-31T23:38:54Z</time>
      </trkpt>
      <trkpt lat="43.15921" lon="2.55081">
        <ele>339.26</ele>
        <time>2019-10-31T23:39:14Z</time>
      </trkpt>
      <trkpt lat="43.15901" lon="2.55132">
        <ele>336.159</ele>
        <time>2019-10-31T23:39:34Z</time>
      </trkpt>
      <trkpt lat="43.15904" lon="2.55169">
        <ele>335.575</ele>
        <time>2019-10-31T23:39:54Z</time>
      </trkpt>
      <trkpt lat="43.15886" lon="2.55277">
        <ele>330.428</ele>
        <time>2019-10-31T23:40:14Z</time>
      </trkpt>
      <trkpt lat="43.15881" lon="2.55363">
        <ele>329.52</ele>
        <time>2019-10-31T23:40:34Z</time>
      </trkpt>
      <trkpt lat="43.15875" lon="2.55389">
        <ele>329.508</ele>
        <time>2019-10-31T23:40:54Z</time>
      </trkpt>
      <trkpt lat="43.15883" lon="2.55456">
        <ele>328.213</ele>
        <time>2019-10-31T23:41:14Z</time>
      </trkpt>
      <trkpt lat="43.15902" lon="2.5551">
        <ele>326.469</ele>
        <time>2019-10-31T23:41:34Z</time>
      </trkpt>
      <trkpt lat="43.15939" lon="2.55632">
        <ele>322.044</ele>
        <time>2019-10-31T23:41:54Z</time>
      </trkpt>
      <trkpt lat="43.15924" lon="2.55675">
        <ele>323.447</ele>
        <time>2019-10-31T23:42:14Z</time>
      </trkpt>
      <trkpt lat="43.15927" lon="2.55708">
        <ele>322.823</ele>
        <time>2019-10-31T23:42:34Z</time>
      </trkpt>
      <trkpt lat="43.15921" lon="2.55739">
        <ele>323.675</ele>
        <time>2019-10-31T23:42:54Z</time>
      </trkpt>
      <trkpt lat="43.15929" lon="2.55785">
        <ele>321.981</ele>
        <time>2019-10-31T23:43:14Z</time>
      </trkpt>
      <trkpt lat="43.15918" lon="2.55811">
        <ele>323.58</ele>
        <time>2019-10-31T23:43:34Z</time>
      </trkpt>
      <trkpt lat="43.15902" lon="2.55841">
        <ele>324.396</ele>
        <time>2019-10-31T23:43:54Z</time>
      </trkpt>
      <trkpt lat="43.15888" lon="2.55855">
        <ele>325.331</ele>
        <time>2019-10-31T23:44:14Z</time>
      </trkpt>
      <trkpt lat="43.15866" lon="2.55887">
        <ele>325.724</ele>
        <time>2019-10-31T23:44:34Z</time>
      </trkpt>
      <trkpt lat="43.15847" lon="2.55897">
        <ele>326.108</ele>
        <time>2019-10-31T23:44:54Z</time>
      </trkpt>
      <trkpt lat="43.1582" lon="2.55903">
        <ele>327.075</ele>
        <time>2019-10-31T23:45:14Z</time>
      </trkpt>
      <trkpt lat="43.1572" lon="2.55981">
        <ele>328.051</ele>
        <time>2019-10-31T23:45:34Z</time>
      </trkpt>
      <trkpt lat="43.15712" lon="2.56006">
        <ele>328.096</ele>
        <time>2019-10-31T23:45:54Z</time>
      </trkpt>
      <trkpt lat="43.15698" lon="2.56118">
        <ele>326.259</ele>
        <time>2019-10-31T23:46:14Z</time>
      </trkpt>
      <trkpt lat="43.15699" lon="2.56156">
        <ele>326.195</ele>
        <time>2019-10-31T23:46:34Z</time>
      </trkpt>
      <trkpt lat="43.15684" lon="2.56213">
        <ele>324.767</ele>
        <time>2019-10-31T23:46:54Z</time>
      </trkpt>
      <trkpt lat="43.15717" lon="2.56368">
        <ele>325.653</ele>
        <time>2019-10-31T23:47:14Z</time>
      </trkpt>
      <trkpt lat="43.15766" lon="2.56425">
        <ele>326.562</ele>
        <time>2019-10-31T23:47:34Z</time>
      </trkpt>
      <trkpt lat="43.15744" lon="2.56471">
        <ele>322.637</ele>
        <time>2019-10-31T23:47:54Z</time>
      </trkpt>
      <trkpt lat="43.15786" lon="2.56526">
        <ele>318.349</ele>
        <time>2019-10-31T23:48:14Z</time>
      </trkpt>
      <trkpt lat="43.15732" lon="2.56595">
        <ele>313.113</ele>
        <time>2019-10-31T23:48:34Z</time>
      </trkpt>
      <trkpt lat="43.15729" lon="2.56641">
        <ele>313.108</ele>
        <time>2019-10-31T23:48:54Z</time>
      </trkpt>
      <trkpt lat="43.15729" lon="2.56696">
        <ele>311.459</ele>
        <time>2019-10-31T23:49:14Z</time>
      </trkpt>
      <trkpt lat="43.15685" lon="2.56738">
        <ele>306.895</ele>
        <time>2019-10-31T23:49:34Z</time>
      </trkpt>
      <trkpt lat="43.15662" lon="2.56811">
        <ele>305.98</ele>
        <time>2019-10-31T23:49:54Z</time>
      </trkpt>
      <trkpt lat="43.15667" lon="2.56885">
        <ele>305.153</ele>
        <time>2019-10-31T23:50:14Z</time>
      </trkpt>
      <trkpt lat="43.15655" lon="2.56943">
        <ele>301.049</ele>
        <time>2019-10-31T23:50:34Z</time>
      </trkpt>
      <trkpt lat="43.15697" lon="2.57009">
        <ele>303.141</ele>
        <time>2019-10-31T23:50:54Z</time>
      </trkpt>
      <trkpt lat="43.15771" lon="2.57122">
        <ele>303.717</ele>
        <time>2019-10-31T23:51:14Z</time>
      </trkpt>
      <trkpt lat="43.15781" lon="2.57207">
        <ele>299.966</ele>
        <time>2019-10-31T23:51:34Z</time>
      </trkpt>
      <trkpt lat="43.15841" lon="2.57419">
        <ele>287.492</ele>
        <time>2019-10-31T23:51:54Z</time>
      </trkpt>
      <trkpt lat="43.15871" lon="2.57511">
        <ele>283.573</ele>
        <time>2019-10-31T23:52:14Z</time>
      </trkpt>
      <trkpt lat="43.1593" lon="2.57586">
        <ele>275.42</ele>
        <time>2019-10-31T23:52:34Z</time>
      </trkpt>
      <trkpt lat="43.15907" lon="2.57658">
        <ele>273.208</ele>
        <time>2019-10-31T23:52:54Z</time>
      </trkpt>
      <trkpt lat="43.15952" lon="2.57814">
        <ele>266.015</ele>
        <time>2019-10-31T23:53:14Z</time>
      </trkpt>
      <trkpt lat="43.16019" lon="2.57908">
        <ele>252.941</ele>
        <time>2019-10-31T23:53:34Z</time>
      </trkpt>
      <trkpt lat="43.15992" lon="2.57945">
        <ele>255.096</ele>
        <time>2019-10-31T23:53:54Z</time>
      </trkpt>
      <trkpt lat="43.1592" lon="2.57954">
        <ele>261.989</ele>
        <time>2019-10-31T23:54:14Z</time>
      </trkpt>
      <trkpt lat="43.15856" lon="2.57906">
        <ele>269.655</ele>
        <time>2019-10-31T23:54:34Z</time>
      </trkpt>
      <trkpt lat="43.15793" lon="2.57918">
        <ele>276.477</ele>
        <time>2019-10-31T23:54:54Z</time>
      </trkpt>
      <trkpt lat="43.15741" lon="2.57975">
        <ele>279.523</ele>
        <time>2019-10-31T23:55:14Z</time>
      </trkpt>
      <trkpt lat="43.15665" lon="2.57994">
        <ele>287.812</ele>
        <time>2019-10-31T23:55:34Z</time>
      </trkpt>
      <trkpt lat="43.1563" lon="2.58033">
        <ele>292.922</ele>
        <time>2019-10-31T23:55:54Z</time>
      </trkpt>
      <trkpt lat="43.15628" lon="2.58076">
        <ele>292.462</ele>
        <time>2019-10-31T23:56:14Z</time>
      </trkpt>
      <trkpt lat="43.15611" lon="2.58102">
        <ele>293.308</ele>
        <time>2019-10-31T23:56:34Z</time>
      </trkpt>
      <trkpt lat="43.15628" lon="2.58157">
        <ele>293.908</ele>
        <time>2019-10-31T23:56:54Z</time>
      </trkpt>
      <trkpt lat="43.15601" lon="2.58189">
        <ele>300.398</ele>
        <time>2019-10-31T23:57:14Z</time>
      </trkpt>
      <trkpt lat="43.15563" lon="2.58203">
        <ele>304.064</ele>
        <time>2019-10-31T23:57:34Z</time>
      </trkpt>
      <trkpt lat="43.15554" lon="2.5841">
        <ele>316.099</ele>
        <time>2019-10-31T23:57:54Z</time>
      </trkpt>
      <trkpt lat="43.1558" lon="2.58467">
        <ele>318.932</ele>
        <time>2019-10-31T23:58:14Z</time>
      </trkpt>
      <trkpt lat="43.15585" lon="2.58522">
        <ele>323.568</ele>
        <time>2019-10-31T23:58:34Z</time>
      </trkpt>
      <trkpt lat="43.15521" lon="2.58516">
        <ele>329.46</ele>
        <time>2019-10-31T23:58:54Z</time>
      </trkpt>
      <trkpt lat="43.15506" lon="2.58575">
        <ele>334.026</ele>
        <time>2019-10-31T23:59:14Z</time>
      </trkpt>
      <trkpt lat="43.15474" lon="2.5864">
        <ele>340.055</ele>
        <time>2019-10-31T23:59:34Z</time>
      </trkpt>
      <trkpt lat="43.1547" lon="2.5869">
        <ele>342.915</ele>
        <time>2019-10-31T23:59:54Z</time>
      </trkpt>
      <trkpt lat="43.15439" lon="2.58723">
        <ele>346.265</ele>
        <time>2019-11-01T00:00:14Z</time>
      </trkpt>
      <trkpt lat="43.15413" lon="2.58842">
        <ele>356.411</ele>
        <time>2019-11-01T00:00:34Z</time>
      </trkpt>
      <trkpt lat="43.1535" lon="2.58992">
        <ele>362.708</ele>
        <time>2019-11-01T00:00:54Z</time>
      </trkpt>
      <trkpt lat="43.1533" lon="2.59095">
        <ele>366.437</ele>
        <time>2019-11-01T00:01:14Z</time>
      </trkpt>
      <trkpt lat="43.15306" lon="2.59153">
        <ele>367.023</ele>
        <time>2019-11-01T00:01:34Z</time>
      </trkpt>
      <trkpt lat="43.15291" lon="2.59224">
        <ele>370.558</ele>
        <time>2019-11-01T00:01:54Z</time>
      </trkpt>
      <trkpt lat="43.15291" lon="2.59302">
        <ele>373.391</ele>
        <time>2019-11-01T00:02:14Z</time>
      </trkpt>
      <trkpt lat="43.15256" lon="2.59318">
        <ele>374.767</ele>
        <time>2019-11-01T00:02:34Z</time>
      </trkpt>
      <trkpt lat="43.15239" lon="2.59447">
        <ele>378.329</ele>
        <time>2019-11-01T00:02:54Z</time>
      </trkpt>
      <trkpt lat="43.15266" lon="2.59456">
        <ele>375.785</ele>
        <time>2019-11-01T00:03:14Z</time>
      </trkpt>
      <trkpt lat="43.15249" lon="2.5953">
        <ele>380.054</ele>
        <time>2019-11-01T00:03:34Z</time>
      </trkpt>
      <trkpt lat="43.15219" lon="2.59555">
        <ele>381.333</ele>
        <time>2019-11-01T00:03:54Z</time>
      </trkpt>
      <trkpt lat="43.15149" lon="2.59745">
        <ele>387.523</ele>
        <time>2019-11-01T00:04:14Z</time>
      </trkpt>
      <trkpt lat="43.15106" lon="2.59766">
        <ele>390.315</ele>
        <time>2019-11-01T00:04:34Z</time>
      </trkpt>
      <trkpt lat="43.15082" lon="2.59848">
        <ele>392.608</ele>
        <time>2019-11-01T00:04:54Z</time>
      </trkpt>
      <trkpt lat="43.15041" lon="2.59895">
        <ele>395.459</ele>
        <time>2019-11-01T00:05:14Z</time>
      </trkpt>
      <trkpt lat="43.15052" lon="2.5994">
        <ele>396.975</ele>
        <time>2019-11-01T00:05:34Z</time>
      </trkpt>
      <trkpt lat="43.15054" lon="2.6001">
        <ele>400.54</ele>
        <time>2019-11-01T00:05:54Z</time>
      </trkpt>
      <trkpt lat="43.15036" lon="2.60052">
        <ele>404.253</ele>
        <time>2019-11-01T00:06:14Z</time>
      </trkpt>
      <trkpt lat="43.15031" lon="2.60119">
        <ele>407.449</ele>
        <time>2019-11-01T00:06:34Z</time>
      </trkpt>
      <trkpt lat="43.15012" lon="2.60152">
        <ele>409.731</ele>
        <time>2019-11-01T00:06:54Z</time>
      </trkpt>
      <trkpt lat="43.15045" lon="2.60192">
        <ele>410.667</ele>
        <time>2019-11-01T00:07:14Z</time>
      </trkpt>
      <trkpt lat="43.15042" lon="2.60222">
        <ele>412.546</ele>
        <time>2019-11-01T00:07:34Z</time>
      </trkpt>
      <trkpt lat="43.14992" lon="2.60236">
        <ele>414.641</ele>
        <time>2019-11-01T00:07:54Z</time>
      </trkpt>
      <trkpt lat="43.14991" lon="2.60272">
        <ele>417.781</ele>
        <time>2019-11-01T00:08:14Z</time>
      </trkpt>
      <trkpt lat="43.14979" lon="2.60313">
        <ele>420.909</ele>
        <time>2019-11-01T00:08:34Z</time>
      </trkpt>
      <trkpt lat="43.14981" lon="2.6034">
        <ele>423.608</ele>
        <time>2019-11-01T00:08:54Z</time>
      </trkpt>
      <trkpt lat="43.14961" lon="2.60381">
        <ele>426.84</ele>
        <time>2019-11-01T00:09:14Z</time>
      </trkpt>
      <trkpt lat="43.14958" lon="2.60426">
        <ele>430.536</ele>
        <time>2019-11-01T00:09:34Z</time>
      </trkpt>
      <trkpt lat="43.14927" lon="2.60522">
        <ele>437.451</ele>
        <time>2019-11-01T00:09:54Z</time>
      </trkpt>
      <trkpt lat="43.14936" lon="2.60622">
        <ele>441.834</ele>
        <time>2019-11-01T00:10:14Z</time>
      </trkpt>
      <trkpt lat="43.1492" lon="2.60693">
        <ele>447.69</ele>
        <time>2019-11-01T00:10:34Z</time>
      </trkpt>
      <trkpt lat="43.1488" lon="2.60752">
        <ele>454.822</ele>
        <time>2019-11-01T00:10:54Z</time>
      </trkpt>
      <trkpt lat="43.14846" lon="2.6082">
        <ele>462.338</ele>
        <time>2019-11-01T00:11:14Z</time>
      </trkpt>
      <trkpt lat="43.14825" lon="2.60887">
        <ele>467.877</ele>
        <time>2019-11-01T00:11:34Z</time>
      </trkpt>
      <trkpt lat="43.14783" lon="2.6094">
        <ele>477.299</ele>
        <time>2019-11-01T00:11:54Z</time>
      </trkpt>
      <trkpt lat="43.14699" lon="2.61105">
        <ele>500.907</ele>
        <time>2019-11-01T00:12:14Z</time>
      </trkpt>
      <trkpt lat="43.14691" lon="2.6115">
        <ele>505.427</ele>
        <time>2019-11-01T00:12:34Z</time>
      </trkpt>
      <trkpt lat="43.14698" lon="2.61184">
        <ele>506.908</ele>
        <time>2019-11-01T00:12:54Z</time>
      </trkpt>
      <trkpt lat="43.14619" lon="2.61362">
        <ele>530.875</ele>
        <time>2019-11-01T00:13:14Z</time>
      </trkpt>
      <trkpt lat="43.14592" lon="2.61479">
        <ele>545.151</ele>
        <time>2019-11-01T00:13:34Z</time>
      </trkpt>
      <trkpt lat="43.14587" lon="2.61568">
        <ele>553.776</ele>
        <time>2019-11-01T00:13:54Z</time>
      </trkpt>
      <trkpt lat="43.1457" lon="2.6161">
        <ele>556.079</ele>
        <time>2019-11-01T00:14:14Z</time>
      </trkpt>
      <trkpt lat="43.14567" lon="2.61773">
        <ele>563.235</ele>
        <time>2019-11-01T00:14:34Z</time>
      </trkpt>
      <trkpt lat="43.14545" lon="2.61835">
        <ele>563.157</ele>
        <time>2019-11-01T00:14:54Z</time>
      </trkpt>
      <trkpt lat="43.14514" lon="2.62019">
        <ele>564.053</ele>
        <time>2019-11-01T00:15:14Z</time>
      </trkpt>
      <trkpt lat="43.14519" lon="2.62085">
        <ele>566.682</ele>
        <time>2019-11-01T00:15:34Z</time>
      </trkpt>
      <trkpt lat="43.14561" lon="2.62196">
        <ele>569.478</ele>
        <time>2019-11-01T00:15:54Z</time>
      </trkpt>
      <trkpt lat="43.14621" lon="2.62274">
        <ele>571.533</ele>
        <time>2019-11-01T00:16:14Z</time>
      </trkpt>
      <trkpt lat="43.14625" lon="2.6231">
        <ele>572.426</ele>
        <time>2019-11-01T00:16:34Z</time>
      </trkpt>
      <trkpt lat="43.14602" lon="2.62446">
        <ele>579.708</ele>
        <time>2019-11-01T00:16:54Z</time>
      </trkpt>
      <trkpt lat="43.14602" lon="2.62545">
        <ele>583.533</ele>
        <time>2019-11-01T00:17:14Z</time>
      </trkpt>
      <trkpt lat="43.14622" lon="2.62622">
        <ele>584.479</ele>
        <time>2019-11-01T00:17:34Z</time>
      </trkpt>
      <trkpt lat="43.14654" lon="2.62648">
        <ele>586.384</ele>
        <time>2019-11-01T00:17:54Z</time>
      </trkpt>
      <trkpt lat="43.14678" lon="2.6268">
        <ele>586.047</ele>
        <time>2019-11-01T00:18:14Z</time>
      </trkpt>
      <trkpt lat="43.14721" lon="2.62711">
        <ele>585.853</ele>
        <time>2019-11-01T00:18:34Z</time>
      </trkpt>
      <trkpt lat="43.14718" lon="2.62815">
        <ele>590.685</ele>
        <time>2019-11-01T00:18:54Z</time>
      </trkpt>
      <trkpt lat="43.14632" lon="2.62752">
        <ele>580.351</ele>
        <time>2019-11-01T00:19:14Z</time>
      </trkpt>
      <trkpt lat="43.14615" lon="2.62745">
        <ele>577.32</ele>
        <time>2019-11-01T00:19:34Z</time>
      </trkpt>
      <trkpt lat="43.14585" lon="2.62708">
        <ele>576.392</ele>
        <time>2019-11-01T00:19:54Z</time>
      </trkpt>
      <trkpt lat="43.14514" lon="2.627">
        <ele>576.373</ele>
        <time>2019-11-01T00:20:14Z</time>
      </trkpt>
      <trkpt lat="43.14508" lon="2.62674">
        <ele>582.32</ele>
        <time>2019-11-01T00:20:34Z</time>
      </trkpt>
      <trkpt lat="43.14481" lon="2.62669">
        <ele>580.208</ele>
        <time>2019-11-01T00:20:54Z</time>
      </trkpt>
      <trkpt lat="43.14419" lon="2.62637">
        <ele>583.955</ele>
        <time>2019-11-01T00:21:14Z</time>
      </trkpt>
      <trkpt lat="43.14384" lon="2.62624">
        <ele>583.941</ele>
        <time>2019-11-01T00:21:34Z</time>
      </trkpt>
      <trkpt lat="43.1437" lon="2.62633">
        <ele>584.636</ele>
        <time>2019-11-01T00:21:54Z</time>
      </trkpt>
      <trkpt lat="43.14376" lon="2.62648">
        <ele>583.549</ele>
        <time>2019-11-01T00:22:14Z</time>
      </trkpt>
      <trkpt lat="43.14343" lon="2.62643">
        <ele>582.645</ele>
        <time>2019-11-01T00:22:34Z</time>
      </trkpt>
      <trkpt lat="43.14302" lon="2.62629">
        <ele>579.597</ele>
        <time>2019-11-01T00:22:54Z</time>
      </trkpt>
      <trkpt lat="43.14262" lon="2.62636">
        <ele>573.233</ele>
        <time>2019-11-01T00:23:14Z</time>
      </trkpt>
      <trkpt lat="43.14222" lon="2.62666">
        <ele>561.042</ele>
        <time>2019-11-01T00:23:34Z</time>
      </trkpt>
      <trkpt lat="43.14195" lon="2.62669">
        <ele>552.227</ele>
        <time>2019-11-01T00:23:54Z</time>
      </trkpt>
      <trkpt lat="43.14122" lon="2.62707">
        <ele>529.668</ele>
        <time>2019-11-01T00:24:14Z</time>
      </trkpt>
      <trkpt lat="43.14083" lon="2.62763">
        <ele>524.514</ele>
        <time>2019-11-01T00:24:34Z</time>
      </trkpt>
      <trkpt lat="43.14045" lon="2.62793">
        <ele>523.508</ele>
        <time>2019-11-01T00:24:54Z</time>
      </trkpt>
      <trkpt lat="43.14026" lon="2.62798">
        <ele>521.288</ele>
        <time>2019-11-01T00:25:14Z</time>
      </trkpt>
      <trkpt lat="43.14016" lon="2.62837">
        <ele>516.444</ele>
        <time>2019-11-01T00:25:34Z</time>
      </trkpt>
      <trkpt lat="43.13991" lon="2.62851">
        <ele>512.099</ele>
        <time>2019-11-01T00:25:54Z</time>
      </trkpt>
      <trkpt lat="43.13931" lon="2.6283">
        <ele>509.152</ele>
        <time>2019-11-01T00:26:14Z</time>
      </trkpt>
      <trkpt lat="43.139" lon="2.62777">
        <ele>505.638</ele>
        <time>2019-11-01T00:26:34Z</time>
      </trkpt>
      <trkpt lat="43.13873" lon="2.62749">
        <ele>506.23</ele>
        <time>2019-11-01T00:26:54Z</time>
      </trkpt>
      <trkpt lat="43.13862" lon="2.62724">
        <ele>509.566</ele>
        <time>2019-11-01T00:27:14Z</time>
      </trkpt>
      <trkpt lat="43.13827" lon="2.62689">
        <ele>507.645</ele>
        <time>2019-11-01T00:27:34Z</time>
      </trkpt>
      <trkpt lat="43.13808" lon="2.62641">
        <ele>502.032</ele>
        <time>2019-11-01T00:27:54Z</time>
      </trkpt>
      <trkpt lat="43.13775" lon="2.62615">
        <ele>497.792</ele>
        <time>2019-11-01T00:28:14Z</time>
      </trkpt>
      <trkpt lat="43.1375" lon="2.6255">
        <ele>499.211</ele>
        <time>2019-11-01T00:28:34Z</time>
      </trkpt>
      <trkpt lat="43.1375" lon="2.62532">
        <ele>499.908</ele>
        <time>2019-11-01T00:28:54Z</time>
      </trkpt>
      <trkpt lat="43.13682" lon="2.6247">
        <ele>493.769</ele>
        <time>2019-11-01T00:29:14Z</time>
      </trkpt>
      <trkpt lat="43.13674" lon="2.62449">
        <ele>493.865</ele>
        <time>2019-11-01T00:29:34Z</time>
      </trkpt>
      <trkpt lat="43.13588" lon="2.62384">
        <ele>484.82</ele>
        <time>2019-11-01T00:29:54Z</time>
      </trkpt>
      <trkpt lat="43.13512" lon="2.62291">
        <ele>473.053</ele>
        <time>2019-11-01T00:30:14Z</time>
      </trkpt>
      <trkpt lat="43.13482" lon="2.62267">
        <ele>469.439</ele>
        <time>2019-11-01T00:30:34Z</time>
      </trkpt>
      <trkpt lat="43.13462" lon="2.62209">
        <ele>460.481</ele>
        <time>2019-11-01T00:30:54Z</time>
      </trkpt>
      <trkpt lat="43.13432" lon="2.6219">
        <ele>457.657</ele>
        <time>2019-11-01T00:31:14Z</time>
      </trkpt>
      <trkpt lat="43.1341" lon="2.62152">
        <ele>454.356</ele>
        <time>2019-11-01T00:31:34Z</time>
      </trkpt>
      <trkpt lat="43.13371" lon="2.62122">
        <ele>451.035</ele>
        <time>2019-11-01T00:31:54Z</time>
      </trkpt>
      <trkpt lat="43.13352" lon="2.62105">
        <ele>448.286</ele>
        <time>2019-11-01T00:32:14Z</time>
      </trkpt>
      <trkpt lat="43.133" lon="2.62085">
        <ele>444.014</ele>
        <time>2019-11-01T00:32:34Z</time>
      </trkpt>
      <trkpt lat="43.13293" lon="2.62056">
        <ele>444.508</ele>
        <time>2019-11-01T00:32:54Z</time>
      </trkpt>
      <trkpt lat="43.13231" lon="2.62022">
        <ele>437.149</ele>
        <time>2019-11-01T00:33:14Z</time>
      </trkpt>
      <trkpt lat="43.13222" lon="2.61966">
        <ele>432.115</ele>
        <time>2019-11-01T00:33:34Z</time>
      </trkpt>
      <trkpt lat="43.13183" lon="2.61924">
        <ele>419.91</ele>
        <time>2019-11-01T00:33:54Z</time>
      </trkpt>
      <trkpt lat="43.1314" lon="2.61897">
        <ele>413.783</ele>
        <time>2019-11-01T00:34:14Z</time>
      </trkpt>
      <trkpt lat="43.13109" lon="2.61888">
        <ele>413.729</ele>
        <time>2019-11-01T00:34:34Z</time>
      </trkpt>
      <trkpt lat="43.13055" lon="2.61788">
        <ele>398.391</ele>
        <time>2019-11-01T00:34:54Z</time>
      </trkpt>
      <trkpt lat="43.13008" lon="2.61612">
        <ele>359.967</ele>
        <time>2019-11-01T00:35:14Z</time>
      </trkpt>
      <trkpt lat="43.12988" lon="2.61585">
        <ele>347.986</ele>
        <time>2019-11-01T00:35:34Z</time>
      </trkpt>
      <trkpt lat="43.12987" lon="2.61552">
        <ele>340.548</ele>
        <time>2019-11-01T00:35:54Z</time>
      </trkpt>
      <trkpt lat="43.12966" lon="2.61537">
        <ele>332.761</ele>
        <time>2019-11-01T00:36:14Z</time>
      </trkpt>
      <trkpt lat="43.12957" lon="2.61522">
        <ele>329.617</ele>
        <time>2019-11-01T00:36:34Z</time>
      </trkpt>
      <trkpt lat="43.12938" lon="2.61509">
        <ele>325.008</ele>
        <time>2019-11-01T00:36:54Z</time>
      </trkpt>
      <trkpt lat="43.12925" lon="2.61461">
        <ele>314.86</ele>
        <time>2019-11-01T00:37:14Z</time>
      </trkpt>
      <trkpt lat="43.12907" lon="2.61441">
        <ele>306.896</ele>
        <time>2019-11-01T00:37:34Z</time>
      </trkpt>
      <trkpt lat="43.12901" lon="2.61416">
        <ele>299.661</ele>
        <time>2019-11-01T00:37:54Z</time>
      </trkpt>
      <trkpt lat="43.12889" lon="2.61403">
        <ele>294.924</ele>
        <time>2019-11-01T00:38:14Z</time>
      </trkpt>
      <trkpt lat="43.12886" lon="2.61388">
        <ele>289.98</ele>
        <time>2019-11-01T00:38:34Z</time>
      </trkpt>
      <trkpt lat="43.1286" lon="2.61384">
        <ele>282.612</ele>
        <time>2019-11-01T00:38:54Z</time>
      </trkpt>
      <trkpt lat="43.12836" lon="2.61321">
        <ele>263.198</ele>
        <time>2019-11-01T00:39:14Z</time>
      </trkpt>
      <trkpt lat="43.12827" lon="2.61316">
        <ele>258.267</ele>
        <time>2019-11-01T00:39:34Z</time>
      </trkpt>
      <trkpt lat="43.12811" lon="2.61272">
        <ele>243.668</ele>
        <time>2019-11-01T00:39:54Z</time>
      </trkpt>
      <trkpt lat="43.12793" lon="2.61258">
        <ele>237.542</ele>
        <time>2019-11-01T00:40:14Z</time>
      </trkpt>
      <trkpt lat="43.12779" lon="2.61263">
        <ele>235.726</ele>
        <time>2019-11-01T00:40:34Z</time>
      </trkpt>
      <trkpt lat="43.12751" lon="2.61249">
        <ele>230.908</ele>
        <time>2019-11-01T00:40:54Z</time>
      </trkpt>
      <trkpt lat="43.12736" lon="2.61247">
        <ele>225.812</ele>
        <time>2019-11-01T00:41:14Z</time>
      </trkpt>
      <trkpt lat="43.12707" lon="2.61231">
        <ele>218.968</ele>
        <time>2019-11-01T00:41:34Z</time>
      </trkpt>
      <trkpt lat="43.12691" lon="2.61233">
        <ele>214.883</ele>
        <time>2019-11-01T00:41:54Z</time>
      </trkpt>
      <trkpt lat="43.12674" lon="2.61208">
        <ele>213.196</ele>
        <time>2019-11-01T00:42:14Z</time>
      </trkpt>
      <trkpt lat="43.12699" lon="2.61161">
        <ele>203.232</ele>
        <time>2020-12-27T14:54:15Z</time>
      </trkpt>
      <trkpt lat="43.12695" lon="2.61117">
        <ele>192.574</ele>
        <time>2020-12-27T14:54:35Z</time>
      </trkpt>
      <trkpt lat="43.12704" lon="2.6107">
        <ele>180.73</ele>
        <time>2020-12-27T14:54:55Z</time>
      </trkpt>
      <trkpt lat="43.12698" lon="2.60988">
        <ele>162.539</ele>
        <time>2020-12-27T14:55:15Z</time>
      </trkpt>
      <trkpt lat="43.12631" lon="2.60902">
        <ele>154.975</ele>
        <time>2020-12-27T14:55:35Z</time>
      </trkpt>
      <trkpt lat="43.12601" lon="2.60893">
        <ele>156.428</ele>
        <time>2020-12-27T14:55:55Z</time>
      </trkpt>
      <trkpt lat="43.1256" lon="2.6093">
        <ele>154.92</ele>
        <time>2020-12-27T14:56:15Z</time>
      </trkpt>
      <trkpt lat="43.12528" lon="2.61011">
        <ele>152.108</ele>
        <time>2020-12-27T14:56:35Z</time>
      </trkpt>
      <trkpt lat="43.12461" lon="2.61093">
        <ele>152.213</ele>
        <time>2020-12-27T14:56:55Z</time>
      </trkpt>
      <trkpt lat="43.12423" lon="2.61093">
        <ele>145.099</ele>
        <time>2020-12-27T14:57:15Z</time>
      </trkpt>
      <trkpt lat="43.124" lon="2.61137">
        <ele>146.284</ele>
        <time>2020-12-27T14:57:35Z</time>
      </trkpt>
      <trkpt lat="43.12403" lon="2.61176">
        <ele>143.537</ele>
        <time>2020-12-27T14:57:55Z</time>
      </trkpt>
      <trkpt lat="43.12514" lon="2.6123">
        <ele>147.813</ele>
        <time>2020-12-27T14:58:15Z</time>
      </trkpt>
      <trkpt lat="43.12545" lon="2.61278">
        <ele>146.335</ele>
        <time>2020-12-27T14:58:35Z</time>
      </trkpt>
      <trkpt lat="43.12594" lon="2.61308">
        <ele>149.721</ele>
        <time>2020-12-27T14:58:55Z</time>
      </trkpt>
      <trkpt lat="43.12616" lon="2.6135">
        <ele>148.56</ele>
        <time>2020-12-27T14:59:15Z</time>
      </trkpt>
      <trkpt lat="43.12641" lon="2.6146">
        <ele>122.019</ele>
        <time>2019-11-01T00:45:34Z</time>
      </trkpt>
      <trkpt lat="43.12658" lon="2.61499">
        <ele>124.809</ele>
        <time>2019-11-01T00:45:54Z</time>
      </trkpt>
      <trkpt lat="43.12664" lon="2.61559">
        <ele>129.419</ele>
        <time>2019-11-01T00:46:14Z</time>
      </trkpt>
      <trkpt lat="43.12657" lon="2.61579">
        <ele>131.108</ele>
        <time>2019-11-01T00:46:34Z</time>
      </trkpt>
      <trkpt lat="43.12613" lon="2.61609">
        <ele>122.977</ele>
        <time>2019-11-01T00:46:54Z</time>
      </trkpt>
      <trkpt lat="43.12568" lon="2.6168">
        <ele>124.733</ele>
        <time>2019-11-01T00:47:14Z</time>
      </trkpt>
      <trkpt lat="43.12526" lon="2.61725">
        <ele>123.918</ele>
        <time>2019-11-01T00:47:34Z</time>
      </trkpt>
      <trkpt lat="43.12494" lon="2.61794">
        <ele>122.961</ele>
        <time>2019-11-01T00:47:54Z</time>
      </trkpt>
      <trkpt lat="43.12446" lon="2.61895">
        <ele>120.637</ele>
        <time>2019-11-01T00:48:14Z</time>
      </trkpt>
      <trkpt lat="43.1244" lon="2.61957">
        <ele>122.159</ele>
        <time>2019-11-01T00:48:34Z</time>
      </trkpt>
      <trkpt lat="43.12405" lon="2.62037">
        <ele>121.285</ele>
        <time>2019-11-01T00:48:54Z</time>
      </trkpt>
      <trkpt lat="43.12348" lon="2.62332">
        <ele>115.534</ele>
        <time>2019-11-01T00:49:14Z</time>
      </trkpt>
      <trkpt lat="43.12206" lon="2.62308">
        <ele>107.355</ele>
        <time>2019-11-01T00:49:34Z</time>
      </trkpt>
      <trkpt lat="43.12162" lon="2.62345">
        <ele>104.207</ele>
        <time>2019-11-01T00:49:54Z</time>
      </trkpt>
      <trkpt lat="43.12041" lon="2.62416">
        <ele>104.917</ele>
        <time>2019-11-01T00:50:14Z</time>
      </trkpt>
      <trkpt lat="43.11892" lon="2.62427">
        <ele>100.508</ele>
        <time>2019-11-01T00:50:34Z</time>
      </trkpt>
      <trkpt lat="43.11873" lon="2.62321">
        <ele>95.681</ele>
        <time>2019-11-01T00:50:54Z</time>
      </trkpt>
      <trkpt lat="43.1187" lon="2.62226">
        <ele>98.757</ele>
        <time>2019-11-01T00:51:14Z</time>
      </trkpt>
      <trkpt lat="43.11839" lon="2.62112">
        <ele>100.442</ele>
        <time>2019-11-01T00:51:34Z</time>
      </trkpt>
      <trkpt lat="43.11789" lon="2.62044">
        <ele>100.595</ele>
        <time>2019-11-01T00:51:54Z</time>
      </trkpt>
      <trkpt lat="43.11735" lon="2.62011">
        <ele>105.891</ele>
        <time>2019-11-01T00:52:14Z</time>
      </trkpt>
      <trkpt lat="43.11707" lon="2.61934">
        <ele>110.223</ele>
        <time>2019-11-01T00:52:34Z</time>
      </trkpt>
      <trkpt lat="43.11669" lon="2.61904">
        <ele>110.589</ele>
        <time>2019-11-01T00:52:54Z</time>
      </trkpt>
      <trkpt lat="43.11666" lon="2.61848">
        <ele>114.538</ele>
        <time>2019-11-01T00:53:14Z</time>
      </trkpt>
      <trkpt lat="43.11648" lon="2.61833">
        <ele>115.778</ele>
        <time>2019-11-01T00:53:34Z</time>
      </trkpt>
      <trkpt lat="43.11603" lon="2.61835">
        <ele>115.933</ele>
        <time>2019-11-01T00:53:54Z</time>
      </trkpt>
      <trkpt lat="43.11532" lon="2.61901">
        <ele>114.626</ele>
        <time>2019-11-01T00:54:14Z</time>
      </trkpt>
      <trkpt lat="43.11341" lon="2.6183">
        <ele>119.808</ele>
        <time>2019-11-01T00:54:34Z</time>
      </trkpt>
      <trkpt lat="43.11245" lon="2.62353">
        <ele>113.063</ele>
        <time>2019-11-01T00:54:54Z</time>
      </trkpt>
      <trkpt lat="43.1125" lon="2.62693">
        <ele>110.059</ele>
        <time>2019-11-01T00:55:14Z</time>
      </trkpt>
      <trkpt lat="43.11215" lon="2.62859">
        <ele>107.764</ele>
        <time>2019-11-01T00:55:34Z</time>
      </trkpt>
      <trkpt lat="43.1116" lon="2.62891">
        <ele>106.657</ele>
        <time>2019-11-01T00:55:54Z</time>
      </trkpt>
      <trkpt lat="43.11125" lon="2.62892">
        <ele>105.123</ele>
        <time>2019-11-01T00:56:14Z</time>
      </trkpt>
      <trkpt lat="43.11099" lon="2.62932">
        <ele>102.915</ele>
        <time>2019-11-01T00:56:34Z</time>
      </trkpt>
      <trkpt lat="43.11118" lon="2.6301">
        <ele>106.571</ele>
        <time>2019-11-01T00:56:54Z</time>
      </trkpt>
      <trkpt lat="43.11081" lon="2.63098">
        <ele>104.92</ele>
        <time>2019-11-01T00:57:14Z</time>
      </trkpt>
      <trkpt lat="43.11138" lon="2.63182">
        <ele>104.992</ele>
        <time>2019-11-01T00:57:34Z</time>
      </trkpt>
      <trkpt lat="43.11075" lon="2.6332">
        <ele>100.773</ele>
        <time>2019-11-01T00:57:54Z</time>
      </trkpt>
      <trkpt lat="43.11026" lon="2.63322">
        <ele>99.22</ele>
        <time>2019-11-01T00:58:14Z</time>
      </trkpt>
      <trkpt lat="43.10972" lon="2.63406">
        <ele>90.008</ele>
        <time>2019-11-01T00:58:34Z</time>
      </trkpt>
      <trkpt lat="43.10879" lon="2.63343">
        <ele>90.085</ele>
        <time>2019-11-01T00:58:54Z</time>
      </trkpt>
      <trkpt lat="43.10826" lon="2.63268">
        <ele>90.021</ele>
        <time>2019-11-01T00:59:14Z</time>
      </trkpt>
      <trkpt lat="43.10812" lon="2.6327">
        <ele>90.036</ele>
        <time>2019-11-01T00:59:34Z</time>
      </trkpt>
      <trkpt lat="43.10777" lon="2.633">
        <ele>91.849</ele>
        <time>2019-11-01T00:59:54Z</time>
      </trkpt>
      <trkpt lat="43.10745" lon="2.63286">
        <ele>99.715</ele>
        <time>2020-12-27T15:14:15Z</time>
      </trkpt>
      <trkpt lat="43.10749" lon="2.63313">
        <ele>101.937</ele>
        <time>2020-12-27T15:14:35Z</time>
      </trkpt>
      <trkpt lat="43.10759" lon="2.63345">
        <ele>101.043</ele>
        <time>2019-11-01T01:01:14Z</time>
      </trkpt>
      <trkpt lat="43.10764" lon="2.63372">
        <ele>101.582</ele>
        <time>2019-11-01T01:01:34Z</time>
      </trkpt>
      <trkpt lat="43.10762" lon="2.63445">
        <ele>104.947</ele>
        <time>2020-12-27T15:15:35Z</time>
      </trkpt>
      <trkpt lat="43.10683" lon="2.63447">
        <ele>117.029</ele>
        <time>2020-03-29T18:56:21Z</time>
      </trkpt>
      <trkpt lat="43.10676" lon="2.6347">
        <ele>117.721</ele>
        <time>2020-03-29T18:56:41Z</time>
      </trkpt>
      <trkpt lat="43.10671" lon="2.63468">
        <ele>118.508</ele>
        <time>2019-11-01T09:28:50Z</time>
      </trkpt>
      <trkpt lat="43.10671" lon="2.63468">
        <ele>118.59</ele>
        <time>2019-11-01T09:28:50Z</time>
      </trkpt>
      <trkpt lat="43.10644" lon="2.63352">
        <ele>123.826</ele>
        <time>2019-11-01T09:29:10Z</time>
      </trkpt>
      <trkpt lat="43.10613" lon="2.63298">
        <ele>126.881</ele>
        <time>2019-11-01T09:29:30Z</time>
      </trkpt>
      <trkpt lat="43.10528" lon="2.633">
        <ele>130.974</ele>
        <time>2019-11-01T09:29:50Z</time>
      </trkpt>
      <trkpt lat="43.10476" lon="2.63328">
        <ele>131.28</ele>
        <time>2019-11-01T09:30:10Z</time>
      </trkpt>
      <trkpt lat="43.10441" lon="2.6337">
        <ele>137.312</ele>
        <time>2019-11-01T09:30:30Z</time>
      </trkpt>
      <trkpt lat="43.1041" lon="2.6337">
        <ele>139.098</ele>
        <time>2019-11-01T09:30:50Z</time>
      </trkpt>
      <trkpt lat="43.10405" lon="2.63342">
        <ele>137.167</ele>
        <time>2019-11-01T09:31:10Z</time>
      </trkpt>
      <trkpt lat="43.10473" lon="2.63103">
        <ele>150.828</ele>
        <time>2019-11-01T09:31:30Z</time>
      </trkpt>
      <trkpt lat="43.10455" lon="2.63099">
        <ele>152.989</ele>
        <time>2019-11-01T09:31:50Z</time>
      </trkpt>
      <trkpt lat="43.10297" lon="2.63191">
        <ele>165.317</ele>
        <time>2019-11-01T09:32:10Z</time>
      </trkpt>
      <trkpt lat="43.09897" lon="2.62903">
        <ele>195.408</ele>
        <time>2019-11-01T09:32:30Z</time>
      </trkpt>
      <trkpt lat="43.09758" lon="2.62759">
        <ele>200.288</ele>
        <time>2019-11-01T09:32:50Z</time>
      </trkpt>
      <trkpt lat="43.09619" lon="2.62657">
        <ele>201.644</ele>
        <time>2019-11-01T09:33:10Z</time>
      </trkpt>
      <trkpt lat="43.09563" lon="2.62673">
        <ele>202.449</ele>
        <time>2019-11-01T09:33:30Z</time>
      </trkpt>
      <trkpt lat="43.09508" lon="2.62617">
        <ele>204.932</ele>
        <time>2019-11-01T09:33:50Z</time>
      </trkpt>
      <trkpt lat="43.09506" lon="2.62595">
        <ele>204.488</ele>
        <time>2019-11-01T09:34:10Z</time>
      </trkpt>
      <trkpt lat="43.09536" lon="2.62519">
        <ele>200.79</ele>
        <time>2019-11-01T09:34:30Z</time>
      </trkpt>
      <trkpt lat="43.09553" lon="2.62433">
        <ele>197.926</ele>
        <time>2019-11-01T09:34:50Z</time>
      </trkpt>
      <trkpt lat="43.09593" lon="2.62361">
        <ele>191.745</ele>
        <time>2019-11-01T09:35:10Z</time>
      </trkpt>
      <trkpt lat="43.0961" lon="2.62247">
        <ele>190.557</ele>
        <time>2019-11-01T09:35:30Z</time>
      </trkpt>
      <trkpt lat="43.09647" lon="2.62154">
        <ele>185.4</ele>
        <time>2019-11-01T09:35:50Z</time>
      </trkpt>
      <trkpt lat="43.09593" lon="2.6204">
        <ele>182.72</ele>
        <time>2019-11-01T09:36:10Z</time>
      </trkpt>
      <trkpt lat="43.09558" lon="2.62034">
        <ele>180.108</ele>
        <time>2019-11-01T09:36:30Z</time>
      </trkpt>
      <trkpt lat="43.09533" lon="2.62088">
        <ele>178.461</ele>
        <time>2019-11-01T09:36:50Z</time>
      </trkpt>
      <trkpt lat="43.09517" lon="2.6216">
        <ele>177.097</ele>
        <time>2019-11-01T09:37:10Z</time>
      </trkpt>
      <trkpt lat="43.09464" lon="2.62249">
        <ele>174.462</ele>
        <time>2019-11-01T09:37:30Z</time>
      </trkpt>
      <trkpt lat="43.09334" lon="2.62397">
        <ele>165.875</ele>
        <time>2019-11-01T09:37:50Z</time>
      </trkpt>
      <trkpt lat="43.09214" lon="2.62471">
        <ele>155.081</ele>
        <time>2019-11-01T09:38:10Z</time>
      </trkpt>
      <trkpt lat="43.09135" lon="2.62459">
        <ele>152.533</ele>
        <time>2019-11-01T09:38:30Z</time>
      </trkpt>
      <trkpt lat="43.09056" lon="2.62391">
        <ele>141.539</ele>
        <time>2019-11-01T09:38:50Z</time>
      </trkpt>
      <trkpt lat="43.09005" lon="2.62285">
        <ele>133.958</ele>
        <time>2019-11-01T09:39:10Z</time>
      </trkpt>
      <trkpt lat="43.08968" lon="2.62152">
        <ele>132.343</ele>
        <time>2019-11-01T09:39:30Z</time>
      </trkpt>
      <trkpt lat="43.0897" lon="2.62042">
        <ele>128.964</ele>
        <time>2019-11-01T09:39:50Z</time>
      </trkpt>
      <trkpt lat="43.09138" lon="2.62092">
        <ele>125.01</ele>
        <time>2019-11-01T09:40:10Z</time>
      </trkpt>
      <trkpt lat="43.09185" lon="2.6208">
        <ele>123.708</ele>
        <time>2019-11-01T09:40:30Z</time>
      </trkpt>
      <trkpt lat="43.09255" lon="2.62006">
        <ele>121.28</ele>
        <time>2019-11-01T09:40:50Z</time>
      </trkpt>
      <trkpt lat="43.09299" lon="2.6191">
        <ele>115.536</ele>
        <time>2019-11-01T09:41:10Z</time>
      </trkpt>
      <trkpt lat="43.09312" lon="2.61838">
        <ele>121.871</ele>
        <time>2019-11-01T09:41:30Z</time>
      </trkpt>
      <trkpt lat="43.093" lon="2.61792">
        <ele>124.734</ele>
        <time>2019-11-01T09:41:50Z</time>
      </trkpt>
      <trkpt lat="43.09191" lon="2.61674">
        <ele>147.27</ele>
        <time>2019-11-01T09:42:10Z</time>
      </trkpt>
      <trkpt lat="43.09128" lon="2.61518">
        <ele>171.722</ele>
        <time>2019-11-01T09:42:30Z</time>
      </trkpt>
      <trkpt lat="43.09071" lon="2.61452">
        <ele>185.188</ele>
        <time>2019-11-01T09:42:50Z</time>
      </trkpt>
      <trkpt lat="43.09015" lon="2.61382">
        <ele>203.517</ele>
        <time>2019-11-01T09:43:10Z</time>
      </trkpt>
      <trkpt lat="43.08998" lon="2.61324">
        <ele>212.011</ele>
        <time>2019-11-01T09:43:30Z</time>
      </trkpt>
      <trkpt lat="43.08941" lon="2.61274">
        <ele>222.221</ele>
        <time>2019-11-01T09:43:50Z</time>
      </trkpt>
      <trkpt lat="43.08939" lon="2.61221">
        <ele>229.203</ele>
        <time>2019-11-01T09:44:10Z</time>
      </trkpt>
      <trkpt lat="43.08895" lon="2.61113">
        <ele>236.808</ele>
        <time>2019-11-01T09:44:30Z</time>
      </trkpt>
      <trkpt lat="43.08882" lon="2.61003">
        <ele>243.547</ele>
        <time>2019-11-01T09:44:50Z</time>
      </trkpt>
      <trkpt lat="43.08907" lon="2.60905">
        <ele>251.033</ele>
        <time>2019-11-01T09:45:10Z</time>
      </trkpt>
      <trkpt lat="43.0891" lon="2.60865">
        <ele>256.048</ele>
        <time>2019-11-01T09:45:30Z</time>
      </trkpt>
      <trkpt lat="43.08894" lon="2.60765">
        <ele>267.721</ele>
        <time>2019-11-01T09:45:50Z</time>
      </trkpt>
      <trkpt lat="43.08889" lon="2.60509">
        <ele>281.097</ele>
        <time>2019-11-01T09:46:10Z</time>
      </trkpt>
      <trkpt lat="43.08853" lon="2.60373">
        <ele>281.419</ele>
        <time>2019-11-01T09:46:30Z</time>
      </trkpt>
      <trkpt lat="43.08818" lon="2.60297">
        <ele>279.925</ele>
        <time>2019-11-01T09:46:50Z</time>
      </trkpt>
      <trkpt lat="43.08819" lon="2.60258">
        <ele>277.884</ele>
        <time>2019-11-01T09:47:10Z</time>
      </trkpt>
      <trkpt lat="43.08777" lon="2.60208">
        <ele>280.039</ele>
        <time>2019-11-01T09:47:30Z</time>
      </trkpt>
      <trkpt lat="43.08743" lon="2.60118">
        <ele>279.101</ele>
        <time>2019-11-01T09:47:50Z</time>
      </trkpt>
      <trkpt lat="43.08723" lon="2.60064">
        <ele>280.621</ele>
        <time>2019-11-01T09:48:10Z</time>
      </trkpt>
      <trkpt lat="43.08718" lon="2.60004">
        <ele>281.808</ele>
        <time>2019-11-01T09:48:30Z</time>
      </trkpt>
      <trkpt lat="43.08696" lon="2.59948">
        <ele>284.749</ele>
        <time>2019-11-01T09:48:50Z</time>
      </trkpt>
      <trkpt lat="43.08692" lon="2.59878">
        <ele>290.055</ele>
        <time>2019-11-01T09:49:10Z</time>
      </trkpt>
      <trkpt lat="43.08651" lon="2.59792">
        <ele>290.69</ele>
        <time>2019-11-01T09:49:30Z</time>
      </trkpt>
      <trkpt lat="43.08609" lon="2.59812">
        <ele>285.593</ele>
        <time>2019-11-01T09:49:50Z</time>
      </trkpt>
      <trkpt lat="43.08609" lon="2.59722">
        <ele>290.869</ele>
        <time>2019-11-01T09:50:10Z</time>
      </trkpt>
      <trkpt lat="43.08604" lon="2.59634">
        <ele>293.721</ele>
        <time>2019-11-01T09:50:30Z</time>
      </trkpt>
      <trkpt lat="43.08606" lon="2.59454">
        <ele>299.167</ele>
        <time>2019-11-01T09:50:50Z</time>
      </trkpt>
      <trkpt lat="43.08585" lon="2.59414">
        <ele>302.366</ele>
        <time>2019-11-01T09:51:10Z</time>
      </trkpt>
      <trkpt lat="43.08539" lon="2.59406">
        <ele>305.077</ele>
        <time>2019-11-01T09:51:30Z</time>
      </trkpt>
      <trkpt lat="43.08506" lon="2.59289">
        <ele>306.061</ele>
        <time>2019-11-01T09:51:50Z</time>
      </trkpt>
      <trkpt lat="43.08501" lon="2.58991">
        <ele>310.027</ele>
        <time>2019-11-01T09:52:10Z</time>
      </trkpt>
      <trkpt lat="43.08487" lon="2.58929">
        <ele>310.308</ele>
        <time>2019-11-01T09:52:30Z</time>
      </trkpt>
      <trkpt lat="43.08451" lon="2.58823">
        <ele>308.883</ele>
        <time>2019-11-01T09:52:50Z</time>
      </trkpt>
      <trkpt lat="43.08398" lon="2.58643">
        <ele>307.649</ele>
        <time>2019-11-01T09:53:10Z</time>
      </trkpt>
      <trkpt lat="43.08351" lon="2.58591">
        <ele>307.454</ele>
        <time>2019-11-01T09:53:30Z</time>
      </trkpt>
      <trkpt lat="43.08217" lon="2.58264">
        <ele>305.837</ele>
        <time>2019-11-01T09:53:50Z</time>
      </trkpt>
      <trkpt lat="43.08208" lon="2.58192">
        <ele>304.973</ele>
        <time>2019-11-01T09:54:10Z</time>
      </trkpt>
      <trkpt lat="43.08227" lon="2.58166">
        <ele>304.375</ele>
        <time>2019-11-01T09:54:30Z</time>
      </trkpt>
      <trkpt lat="43.08433" lon="2.58212">
        <ele>312.691</ele>
        <time>2019-11-01T09:54:50Z</time>
      </trkpt>
      <trkpt lat="43.08452" lon="2.57826">
        <ele>311.86</ele>
        <time>2019-11-01T09:55:10Z</time>
      </trkpt>
      <trkpt lat="43.08454" lon="2.57442">
        <ele>315.584</ele>
        <time>2019-11-01T09:55:30Z</time>
      </trkpt>
      <trkpt lat="43.08439" lon="2.57391">
        <ele>313.007</ele>
        <time>2019-11-01T09:55:50Z</time>
      </trkpt>
      <trkpt lat="43.08353" lon="2.57283">
        <ele>311.217</ele>
        <time>2019-11-01T09:56:10Z</time>
      </trkpt>
      <trkpt lat="43.08325" lon="2.57149">
        <ele>307.908</ele>
        <time>2019-11-01T09:56:30Z</time>
      </trkpt>
      <trkpt lat="43.08309" lon="2.57123">
        <ele>306.264</ele>
        <time>2019-11-01T09:56:50Z</time>
      </trkpt>
      <trkpt lat="43.08303" lon="2.57081">
        <ele>301.76</ele>
        <time>2019-11-01T09:57:10Z</time>
      </trkpt>
      <trkpt lat="43.08191" lon="2.57041">
        <ele>293.515</ele>
        <time>2019-11-01T09:57:30Z</time>
      </trkpt>
      <trkpt lat="43.08198" lon="2.56983">
        <ele>295.698</ele>
        <time>2019-11-01T09:57:50Z</time>
      </trkpt>
      <trkpt lat="43.08195" lon="2.56927">
        <ele>299.514</ele>
        <time>2019-11-01T09:58:10Z</time>
      </trkpt>
      <trkpt lat="43.0811" lon="2.56861">
        <ele>308.126</ele>
        <time>2019-11-01T09:58:30Z</time>
      </trkpt>
      <trkpt lat="43.08085" lon="2.56819">
        <ele>321.392</ele>
        <time>2019-11-01T09:58:50Z</time>
      </trkpt>
      <trkpt lat="43.08" lon="2.56811">
        <ele>340.611</ele>
        <time>2019-11-01T09:59:10Z</time>
      </trkpt>
      <trkpt lat="43.07973" lon="2.56777">
        <ele>348.168</ele>
        <time>2019-11-01T09:59:30Z</time>
      </trkpt>
      <trkpt lat="43.07974" lon="2.56753">
        <ele>349.942</ele>
        <time>2019-11-01T09:59:50Z</time>
      </trkpt>
      <trkpt lat="43.07926" lon="2.56617">
        <ele>350.126</ele>
        <time>2019-11-01T10:00:10Z</time>
      </trkpt>
      <trkpt lat="43.07861" lon="2.56519">
        <ele>347.708</ele>
        <time>2019-11-01T10:00:30Z</time>
      </trkpt>
      <trkpt lat="43.07815" lon="2.56469">
        <ele>344.262</ele>
        <time>2019-11-01T10:00:50Z</time>
      </trkpt>
      <trkpt lat="43.07794" lon="2.56418">
        <ele>341.228</ele>
        <time>2019-11-01T10:01:10Z</time>
      </trkpt>
      <trkpt lat="43.07766" lon="2.5639">
        <ele>338.213</ele>
        <time>2019-11-01T10:01:30Z</time>
      </trkpt>
      <trkpt lat="43.07742" lon="2.56294">
        <ele>333.766</ele>
        <time>2019-11-01T10:01:50Z</time>
      </trkpt>
      <trkpt lat="43.0772" lon="2.56246">
        <ele>330.752</ele>
        <time>2019-11-01T10:02:10Z</time>
      </trkpt>
      <trkpt lat="43.07657" lon="2.56168">
        <ele>320.034</ele>
        <time>2019-11-01T10:02:30Z</time>
      </trkpt>
      <trkpt lat="43.07611" lon="2.56154">
        <ele>315.65</ele>
        <time>2019-11-01T10:02:50Z</time>
      </trkpt>
      <trkpt lat="43.07584" lon="2.56112">
        <ele>311.139</ele>
        <time>2019-11-01T10:03:10Z</time>
      </trkpt>
      <trkpt lat="43.07541" lon="2.56074">
        <ele>304.154</ele>
        <time>2019-11-01T10:03:30Z</time>
      </trkpt>
      <trkpt lat="43.07541" lon="2.56">
        <ele>300.456</ele>
        <time>2019-11-01T10:03:50Z</time>
      </trkpt>
      <trkpt lat="43.07503" lon="2.55946">
        <ele>294.511</ele>
        <time>2019-11-01T10:04:10Z</time>
      </trkpt>
      <trkpt lat="43.07483" lon="2.55884">
        <ele>292.008</ele>
        <time>2019-11-01T10:04:30Z</time>
      </trkpt>
      <trkpt lat="43.07445" lon="2.55842">
        <ele>287.051</ele>
        <time>2019-11-01T10:04:50Z</time>
      </trkpt>
      <trkpt lat="43.07439" lon="2.55792">
        <ele>285.017</ele>
        <time>2019-11-01T10:05:10Z</time>
      </trkpt>
      <trkpt lat="43.07417" lon="2.55772">
        <ele>282.692</ele>
        <time>2019-11-01T10:05:30Z</time>
      </trkpt>
      <trkpt lat="43.07405" lon="2.55726">
        <ele>278.595</ele>
        <time>2019-11-01T10:05:50Z</time>
      </trkpt>
      <trkpt lat="43.07354" lon="2.55708">
        <ele>271.691</ele>
        <time>2019-11-01T10:06:10Z</time>
      </trkpt>
      <trkpt lat="43.07335" lon="2.5565">
        <ele>268.463</ele>
        <time>2019-11-01T10:06:30Z</time>
      </trkpt>
      <trkpt lat="43.0731" lon="2.55648">
        <ele>268.659</ele>
        <time>2019-11-01T10:06:50Z</time>
      </trkpt>
      <trkpt lat="43.07241" lon="2.55608">
        <ele>268.358</ele>
        <time>2019-11-01T10:07:10Z</time>
      </trkpt>
      <trkpt lat="43.07215" lon="2.55608">
        <ele>263.738</ele>
        <time>2019-11-01T10:07:30Z</time>
      </trkpt>
      <trkpt lat="43.0718" lon="2.5566">
        <ele>257.27</ele>
        <time>2019-11-01T10:07:50Z</time>
      </trkpt>
      <trkpt lat="43.07176" lon="2.55608">
        <ele>256.417</ele>
        <time>2019-11-01T10:08:10Z</time>
      </trkpt>
      <trkpt lat="43.07132" lon="2.55568">
        <ele>255.408</ele>
        <time>2019-11-01T10:08:30Z</time>
      </trkpt>
      <trkpt lat="43.07095" lon="2.5551">
        <ele>254.259</ele>
        <time>2019-11-01T10:08:50Z</time>
      </trkpt>
      <trkpt lat="43.0706" lon="2.55478">
        <ele>249.945</ele>
        <time>2019-11-01T10:09:10Z</time>
      </trkpt>
      <trkpt lat="43.07066" lon="2.55508">
        <ele>247.88</ele>
        <time>2019-11-01T10:09:30Z</time>
      </trkpt>
      <trkpt lat="43.07062" lon="2.55554">
        <ele>243.133</ele>
        <time>2019-11-01T10:09:50Z</time>
      </trkpt>
      <trkpt lat="43.07044" lon="2.55588">
        <ele>241.759</ele>
        <time>2019-11-01T10:10:10Z</time>
      </trkpt>
      <trkpt lat="43.07028" lon="2.55636">
        <ele>237.591</ele>
        <time>2019-11-01T10:10:30Z</time>
      </trkpt>
      <trkpt lat="43.06997" lon="2.55662">
        <ele>240.237</ele>
        <time>2019-11-01T10:10:50Z</time>
      </trkpt>
      <trkpt lat="43.06918" lon="2.55772">
        <ele>245.276</ele>
        <time>2019-11-01T10:11:10Z</time>
      </trkpt>
      <trkpt lat="43.06871" lon="2.55796">
        <ele>243.985</ele>
        <time>2019-11-01T10:11:30Z</time>
      </trkpt>
      <trkpt lat="43.06828" lon="2.55788">
        <ele>243.689</ele>
        <time>2019-11-01T10:11:50Z</time>
      </trkpt>
      <trkpt lat="43.06792" lon="2.55656">
        <ele>241.717</ele>
        <time>2019-11-01T10:12:10Z</time>
      </trkpt>
      <trkpt lat="43.06713" lon="2.5561">
        <ele>242.008</ele>
        <time>2019-11-01T10:12:30Z</time>
      </trkpt>
      <trkpt lat="43.06617" lon="2.55568">
        <ele>234.734</ele>
        <time>2019-11-01T10:12:50Z</time>
      </trkpt>
      <trkpt lat="43.06564" lon="2.55508">
        <ele>225.79</ele>
        <time>2019-11-01T10:13:10Z</time>
      </trkpt>
      <trkpt lat="43.06485" lon="2.55455">
        <ele>213.585</ele>
        <time>2019-11-01T10:13:30Z</time>
      </trkpt>
      <trkpt lat="43.0649" lon="2.55419">
        <ele>209.968</ele>
        <time>2019-11-01T10:13:50Z</time>
      </trkpt>
      <trkpt lat="43.06421" lon="2.55445">
        <ele>208.474</ele>
        <time>2019-11-01T10:14:10Z</time>
      </trkpt>
      <trkpt lat="43.06316" lon="2.55461">
        <ele>205.786</ele>
        <time>2019-11-01T10:14:30Z</time>
      </trkpt>
      <trkpt lat="43.06308" lon="2.55411">
        <ele>205.022</ele>
        <time>2019-11-01T10:14:50Z</time>
      </trkpt>
      <trkpt lat="43.06266" lon="2.55391">
        <ele>201.371</ele>
        <time>2019-11-01T10:15:10Z</time>
      </trkpt>
      <trkpt lat="43.06206" lon="2.55399">
        <ele>203.043</ele>
        <time>2019-11-01T10:15:30Z</time>
      </trkpt>
      <trkpt lat="43.06185" lon="2.55313">
        <ele>201.364</ele>
        <time>2019-11-01T10:15:50Z</time>
      </trkpt>
      <trkpt lat="43.06163" lon="2.55291">
        <ele>202.31</ele>
        <time>2019-11-01T10:16:10Z</time>
      </trkpt>
      <trkpt lat="43.06117" lon="2.55295">
        <ele>208.108</ele>
        <time>2019-11-01T10:16:30Z</time>
      </trkpt>
      <trkpt lat="43.06061" lon="2.55261">
        <ele>219.76</ele>
        <time>2019-11-01T10:16:50Z</time>
      </trkpt>
      <trkpt lat="43.0602" lon="2.55213">
        <ele>227.666</ele>
        <time>2019-11-01T10:17:10Z</time>
      </trkpt>
      <trkpt lat="43.06" lon="2.55213">
        <ele>234.291</ele>
        <time>2019-11-01T10:17:30Z</time>
      </trkpt>
      <trkpt lat="43.05962" lon="2.55145">
        <ele>237.584</ele>
        <time>2019-11-01T10:17:50Z</time>
      </trkpt>
      <trkpt lat="43.05953" lon="2.55111">
        <ele>234.23</ele>
        <time>2019-11-01T10:18:10Z</time>
      </trkpt>
      <trkpt lat="43.05907" lon="2.55099">
        <ele>239.062</ele>
        <time>2019-11-01T10:18:30Z</time>
      </trkpt>
      <trkpt lat="43.05852" lon="2.54877">
        <ele>241.228</ele>
        <time>2019-11-01T10:18:50Z</time>
      </trkpt>
      <trkpt lat="43.05842" lon="2.54783">
        <ele>238.627</ele>
        <time>2019-11-01T10:19:10Z</time>
      </trkpt>
      <trkpt lat="43.05824" lon="2.54719">
        <ele>236.986</ele>
        <time>2019-11-01T10:19:30Z</time>
      </trkpt>
      <trkpt lat="43.05785" lon="2.54677">
        <ele>239.96</ele>
        <time>2019-11-01T10:19:50Z</time>
      </trkpt>
      <trkpt lat="43.05761" lon="2.54615">
        <ele>245.726</ele>
        <time>2019-11-01T10:20:10Z</time>
      </trkpt>
      <trkpt lat="43.05755" lon="2.54569">
        <ele>244.908</ele>
        <time>2019-11-01T10:20:30Z</time>
      </trkpt>
      <trkpt lat="43.05736" lon="2.54501">
        <ele>244.414</ele>
        <time>2019-11-01T10:20:50Z</time>
      </trkpt>
      <trkpt lat="43.05723" lon="2.54444">
        <ele>248.59</ele>
        <time>2019-11-01T10:21:10Z</time>
      </trkpt>
      <trkpt lat="43.05694" lon="2.54452">
        <ele>259.785</ele>
        <time>2019-11-01T10:21:30Z</time>
      </trkpt>
      <trkpt lat="43.05663" lon="2.54432">
        <ele>265.398</ele>
        <time>2019-11-01T10:21:50Z</time>
      </trkpt>
      <trkpt lat="43.05663" lon="2.54388">
        <ele>264.284</ele>
        <time>2019-11-01T10:22:10Z</time>
      </trkpt>
      <trkpt lat="43.05651" lon="2.54336">
        <ele>270.846</ele>
        <time>2019-11-01T10:22:30Z</time>
      </trkpt>
      <trkpt lat="43.05612" lon="2.5432">
        <ele>274.422</ele>
        <time>2019-11-01T10:22:50Z</time>
      </trkpt>
      <trkpt lat="43.05615" lon="2.54208">
        <ele>279.081</ele>
        <time>2019-11-01T10:23:10Z</time>
      </trkpt>
      <trkpt lat="43.05659" lon="2.54198">
        <ele>275.215</ele>
        <time>2019-11-01T10:23:30Z</time>
      </trkpt>
      <trkpt lat="43.0571" lon="2.54162">
        <ele>272.565</ele>
        <time>2019-11-01T10:23:50Z</time>
      </trkpt>
      <trkpt lat="43.05783" lon="2.541">
        <ele>260.111</ele>
        <time>2019-11-01T10:24:10Z</time>
      </trkpt>
      <trkpt lat="43.0577" lon="2.5406">
        <ele>258.308</ele>
        <time>2019-11-01T10:24:30Z</time>
      </trkpt>
      <trkpt lat="43.05714" lon="2.5401">
        <ele>254.277</ele>
        <time>2019-11-01T10:24:50Z</time>
      </trkpt>
      <trkpt lat="43.05726" lon="2.54">
        <ele>252.883</ele>
        <time>2019-11-01T10:25:10Z</time>
      </trkpt>
      <trkpt lat="43.05763" lon="2.53992">
        <ele>253.148</ele>
        <time>2019-11-01T10:25:30Z</time>
      </trkpt>
      <trkpt lat="43.05804" lon="2.54012">
        <ele>251.881</ele>
        <time>2019-11-01T10:25:50Z</time>
      </trkpt>
      <trkpt lat="43.05808" lon="2.54002">
        <ele>253.397</ele>
        <time>2019-11-01T10:26:10Z</time>
      </trkpt>
      <trkpt lat="43.05773" lon="2.5397">
        <ele>256.549</ele>
        <time>2019-11-01T10:26:30Z</time>
      </trkpt>
      <trkpt lat="43.05676" lon="2.53992">
        <ele>258.195</ele>
        <time>2019-11-01T10:26:50Z</time>
      </trkpt>
      <trkpt lat="43.05653" lon="2.53976">
        <ele>261.294</ele>
        <time>2019-11-01T10:27:10Z</time>
      </trkpt>
      <trkpt lat="43.05654" lon="2.5392">
        <ele>266.131</ele>
        <time>2019-11-01T10:27:30Z</time>
      </trkpt>
      <trkpt lat="43.05644" lon="2.53892">
        <ele>268.661</ele>
        <time>2019-11-01T10:27:50Z</time>
      </trkpt>
      <trkpt lat="43.05659" lon="2.53866">
        <ele>269.907</ele>
        <time>2019-11-01T10:28:10Z</time>
      </trkpt>
      <trkpt lat="43.05647" lon="2.53802">
        <ele>275.608</ele>
        <time>2019-11-01T10:28:30Z</time>
      </trkpt>
      <trkpt lat="43.05663" lon="2.5376">
        <ele>281.859</ele>
        <time>2019-11-01T10:28:50Z</time>
      </trkpt>
      <trkpt lat="43.0566" lon="2.53726">
        <ele>288.165</ele>
        <time>2019-11-01T10:29:10Z</time>
      </trkpt>
      <trkpt lat="43.05671" lon="2.53696">
        <ele>296.06</ele>
        <time>2019-11-01T10:29:30Z</time>
      </trkpt>
      <trkpt lat="43.05656" lon="2.5367">
        <ele>300.773</ele>
        <time>2019-11-01T10:29:50Z</time>
      </trkpt>
      <trkpt lat="43.05631" lon="2.53654">
        <ele>302.339</ele>
        <time>2019-11-01T10:30:10Z</time>
      </trkpt>
      <trkpt lat="43.05617" lon="2.53615">
        <ele>312.821</ele>
        <time>2019-11-01T10:30:30Z</time>
      </trkpt>
      <trkpt lat="43.05608" lon="2.53588">
        <ele>319.247</ele>
        <time>2019-11-01T10:30:50Z</time>
      </trkpt>
      <trkpt lat="43.05581" lon="2.53571">
        <ele>321.836</ele>
        <time>2019-11-01T10:31:10Z</time>
      </trkpt>
      <trkpt lat="43.05579" lon="2.53563">
        <ele>323.765</ele>
        <time>2019-11-01T10:31:30Z</time>
      </trkpt>
      <trkpt lat="43.05632" lon="2.53588">
        <ele>321.068</ele>
        <time>2019-11-01T10:31:50Z</time>
      </trkpt>
      <trkpt lat="43.05694" lon="2.5357">
        <ele>319.014</ele>
        <time>2019-11-01T10:32:10Z</time>
      </trkpt>
      <trkpt lat="43.05776" lon="2.53419">
        <ele>311.308</ele>
        <time>2019-11-01T10:32:30Z</time>
      </trkpt>
      <trkpt lat="43.0577" lon="2.53351">
        <ele>306.192</ele>
        <time>2019-11-01T10:32:50Z</time>
      </trkpt>
      <trkpt lat="43.05799" lon="2.53271">
        <ele>295.278</ele>
        <time>2019-11-01T10:33:10Z</time>
      </trkpt>
      <trkpt lat="43.05789" lon="2.53219">
        <ele>294.753</ele>
        <time>2019-11-01T10:33:30Z</time>
      </trkpt>
      <trkpt lat="43.05763" lon="2.53145">
        <ele>295.526</ele>
        <time>2019-11-01T10:33:50Z</time>
      </trkpt>
      <trkpt lat="43.05725" lon="2.52925">
        <ele>273.752</ele>
        <time>2019-11-01T10:34:10Z</time>
      </trkpt>
      <trkpt lat="43.05675" lon="2.52871">
        <ele>276.434</ele>
        <time>2019-11-01T10:34:30Z</time>
      </trkpt>
      <trkpt lat="43.05659" lon="2.52819">
        <ele>277.46</ele>
        <time>2019-11-01T10:34:50Z</time>
      </trkpt>
      <trkpt lat="43.056" lon="2.52731">
        <ele>281.119</ele>
        <time>2019-11-01T10:35:10Z</time>
      </trkpt>
      <trkpt lat="43.05568" lon="2.52639">
        <ele>278.825</ele>
        <time>2019-11-01T10:35:30Z</time>
      </trkpt>
      <trkpt lat="43.05529" lon="2.52593">
        <ele>280.826</ele>
        <time>2019-11-01T10:35:50Z</time>
      </trkpt>
      <trkpt lat="43.0554" lon="2.52627">
        <ele>286.608</ele>
        <time>2019-11-01T10:36:10Z</time>
      </trkpt>
      <trkpt lat="43.05536" lon="2.52655">
        <ele>296.108</ele>
        <time>2019-11-01T10:36:30Z</time>
      </trkpt>
      <trkpt lat="43.05542" lon="2.52699">
        <ele>299.888</ele>
        <time>2019-11-01T10:36:50Z</time>
      </trkpt>
      <trkpt lat="43.05526" lon="2.52703">
        <ele>307.374</ele>
        <time>2019-11-01T10:37:10Z</time>
      </trkpt>
      <trkpt lat="43.05526" lon="2.52855">
        <ele>322.249</ele>
        <time>2019-11-01T10:37:30Z</time>
      </trkpt>
      <trkpt lat="43.0552" lon="2.52917">
        <ele>333.762</ele>
        <time>2019-11-01T10:37:50Z</time>
      </trkpt>
      <trkpt lat="43.0553" lon="2.52989">
        <ele>343.238</ele>
        <time>2019-11-01T10:38:10Z</time>
      </trkpt>
      <trkpt lat="43.05558" lon="2.53102">
        <ele>354.93</ele>
        <time>2019-11-01T10:38:30Z</time>
      </trkpt>
      <trkpt lat="43.05556" lon="2.53147">
        <ele>362.196</ele>
        <time>2019-11-01T10:38:50Z</time>
      </trkpt>
      <trkpt lat="43.05533" lon="2.53256">
        <ele>373.675</ele>
        <time>2019-11-01T10:39:10Z</time>
      </trkpt>
      <trkpt lat="43.05483" lon="2.53323">
        <ele>376.596</ele>
        <time>2019-11-01T10:39:30Z</time>
      </trkpt>
      <trkpt lat="43.05426" lon="2.53364">
        <ele>376.831</ele>
        <time>2019-11-01T10:39:50Z</time>
      </trkpt>
      <trkpt lat="43.05335" lon="2.53443">
        <ele>375.424</ele>
        <time>2019-11-01T10:40:10Z</time>
      </trkpt>
      <trkpt lat="43.05257" lon="2.53402">
        <ele>376.508</ele>
        <time>2019-11-01T10:40:30Z</time>
      </trkpt>
      <trkpt lat="43.05203" lon="2.53381">
        <ele>369.895</ele>
        <time>2019-11-01T10:40:50Z</time>
      </trkpt>
      <trkpt lat="43.0516" lon="2.53342">
        <ele>372.151</ele>
        <time>2019-11-01T10:41:10Z</time>
      </trkpt>
      <trkpt lat="43.05109" lon="2.53342">
        <ele>373.446</ele>
        <time>2019-11-01T10:41:30Z</time>
      </trkpt>
      <trkpt lat="43.05087" lon="2.53374">
        <ele>372.749</ele>
        <time>2019-11-01T10:41:50Z</time>
      </trkpt>
      <trkpt lat="43.05098" lon="2.53503">
        <ele>367.155</ele>
        <time>2019-11-01T10:42:10Z</time>
      </trkpt>
      <trkpt lat="43.05095" lon="2.53653">
        <ele>373.237</ele>
        <time>2019-11-01T10:42:30Z</time>
      </trkpt>
      <trkpt lat="43.05072" lon="2.5372">
        <ele>377.283</ele>
        <time>2019-11-01T10:42:50Z</time>
      </trkpt>
      <trkpt lat="43.04979" lon="2.53804">
        <ele>375.342</ele>
        <time>2019-11-01T10:43:10Z</time>
      </trkpt>
      <trkpt lat="43.04822" lon="2.53962">
        <ele>369.945</ele>
        <time>2019-11-01T10:43:30Z</time>
      </trkpt>
      <trkpt lat="43.04783" lon="2.54046">
        <ele>363.447</ele>
        <time>2019-11-01T10:43:50Z</time>
      </trkpt>
      <trkpt lat="43.04746" lon="2.54076">
        <ele>360.011</ele>
        <time>2019-11-01T10:44:10Z</time>
      </trkpt>
      <trkpt lat="43.04699" lon="2.54085">
        <ele>358.208</ele>
        <time>2019-11-01T10:44:30Z</time>
      </trkpt>
      <trkpt lat="43.04692" lon="2.54117">
        <ele>354.96</ele>
        <time>2019-11-01T10:44:50Z</time>
      </trkpt>
      <trkpt lat="43.04722" lon="2.54209">
        <ele>348.446</ele>
        <time>2019-11-01T10:45:10Z</time>
      </trkpt>
      <trkpt lat="43.04667" lon="2.54192">
        <ele>341.571</ele>
        <time>2019-11-01T10:45:30Z</time>
      </trkpt>
      <trkpt lat="43.04619" lon="2.54117">
        <ele>336.084</ele>
        <time>2019-11-01T10:45:50Z</time>
      </trkpt>
      <trkpt lat="43.04609" lon="2.54052">
        <ele>332.79</ele>
        <time>2019-11-01T10:46:10Z</time>
      </trkpt>
      <trkpt lat="43.04548" lon="2.54042">
        <ele>324.392</ele>
        <time>2019-11-01T10:46:30Z</time>
      </trkpt>
      <trkpt lat="43.04496" lon="2.54052">
        <ele>317.598</ele>
        <time>2019-11-01T10:46:50Z</time>
      </trkpt>
      <trkpt lat="43.04404" lon="2.53986">
        <ele>311.537</ele>
        <time>2019-11-01T10:47:10Z</time>
      </trkpt>
      <trkpt lat="43.04369" lon="2.53979">
        <ele>305.515</ele>
        <time>2019-11-01T10:47:30Z</time>
      </trkpt>
      <trkpt lat="43.04407" lon="2.53868">
        <ele>308.165</ele>
        <time>2019-11-01T10:47:50Z</time>
      </trkpt>
      <trkpt lat="43.04396" lon="2.53806">
        <ele>306.811</ele>
        <time>2019-11-01T10:48:10Z</time>
      </trkpt>
      <trkpt lat="43.04399" lon="2.53731">
        <ele>311.708</ele>
        <time>2019-11-01T10:48:30Z</time>
      </trkpt>
      <trkpt lat="43.04374" lon="2.53671">
        <ele>311.227</ele>
        <time>2019-11-01T10:48:50Z</time>
      </trkpt>
      <trkpt lat="43.0438" lon="2.53623">
        <ele>308.223</ele>
        <time>2019-11-01T10:49:10Z</time>
      </trkpt>
      <trkpt lat="43.04267" lon="2.53458">
        <ele>303.668</ele>
        <time>2019-11-01T10:49:30Z</time>
      </trkpt>
      <trkpt lat="43.04238" lon="2.5346">
        <ele>297.971</ele>
        <time>2019-11-01T10:49:50Z</time>
      </trkpt>
      <trkpt lat="43.04167" lon="2.53415">
        <ele>294.117</ele>
        <time>2019-11-01T10:50:10Z</time>
      </trkpt>
      <trkpt lat="43.04079" lon="2.53385">
        <ele>287.569</ele>
        <time>2019-11-01T10:50:30Z</time>
      </trkpt>
      <trkpt lat="43.0407" lon="2.53331">
        <ele>291.225</ele>
        <time>2019-11-01T10:50:50Z</time>
      </trkpt>
      <trkpt lat="43.04037" lon="2.53295">
        <ele>289.514</ele>
        <time>2019-11-01T10:51:10Z</time>
      </trkpt>
      <trkpt lat="43.04002" lon="2.53284">
        <ele>289.522</ele>
        <time>2019-11-01T10:51:30Z</time>
      </trkpt>
      <trkpt lat="43.03991" lon="2.53368">
        <ele>287.962</ele>
        <time>2019-11-01T10:51:50Z</time>
      </trkpt>
      <trkpt lat="43.04007" lon="2.53415">
        <ele>284.308</ele>
        <time>2019-11-01T10:52:10Z</time>
      </trkpt>
      <trkpt lat="43.04007" lon="2.53449">
        <ele>284.108</ele>
        <time>2019-11-01T10:52:30Z</time>
      </trkpt>
      <trkpt lat="43.03982" lon="2.53497">
        <ele>287.158</ele>
        <time>2019-11-01T10:52:50Z</time>
      </trkpt>
      <trkpt lat="43.03994" lon="2.53542">
        <ele>284.214</ele>
        <time>2019-11-01T10:53:10Z</time>
      </trkpt>
      <trkpt lat="43.03988" lon="2.5361">
        <ele>284.069</ele>
        <time>2019-11-01T10:53:30Z</time>
      </trkpt>
      <trkpt lat="43.0393" lon="2.53621">
        <ele>293.132</ele>
        <time>2019-11-01T10:53:50Z</time>
      </trkpt>
      <trkpt lat="43.03903" lon="2.53647">
        <ele>293.728</ele>
        <time>2019-11-01T10:54:10Z</time>
      </trkpt>
      <trkpt lat="43.03871" lon="2.53683">
        <ele>294.34</ele>
        <time>2019-11-01T10:54:30Z</time>
      </trkpt>
      <trkpt lat="43.03841" lon="2.53688">
        <ele>298.546</ele>
        <time>2019-11-01T10:54:50Z</time>
      </trkpt>
      <trkpt lat="43.03842" lon="2.53743">
        <ele>297.635</ele>
        <time>2019-11-01T10:55:10Z</time>
      </trkpt>
      <trkpt lat="43.03845" lon="2.53806">
        <ele>300.097</ele>
        <time>2019-11-01T10:55:30Z</time>
      </trkpt>
      <trkpt lat="43.03892" lon="2.53883">
        <ele>297.123</ele>
        <time>2019-11-01T10:55:50Z</time>
      </trkpt>
      <trkpt lat="43.03886" lon="2.54037">
        <ele>306.025</ele>
        <time>2019-11-01T10:56:10Z</time>
      </trkpt>
      <trkpt lat="43.03922" lon="2.541">
        <ele>302.908</ele>
        <time>2019-11-01T10:56:30Z</time>
      </trkpt>
      <trkpt lat="43.03951" lon="2.54177">
        <ele>303.935</ele>
        <time>2019-11-01T10:56:50Z</time>
      </trkpt>
      <trkpt lat="43.03946" lon="2.54235">
        <ele>306.241</ele>
        <time>2019-11-01T10:57:10Z</time>
      </trkpt>
      <trkpt lat="43.03921" lon="2.54256">
        <ele>312.036</ele>
        <time>2019-11-01T10:57:30Z</time>
      </trkpt>
      <trkpt lat="43.039" lon="2.54306">
        <ele>308.939</ele>
        <time>2019-11-01T10:57:50Z</time>
      </trkpt>
      <trkpt lat="43.0386" lon="2.54331">
        <ele>313.095</ele>
        <time>2019-11-01T10:58:10Z</time>
      </trkpt>
      <trkpt lat="43.03839" lon="2.5437">
        <ele>310.257</ele>
        <time>2019-11-01T10:58:30Z</time>
      </trkpt>
      <trkpt lat="43.03783" lon="2.54407">
        <ele>317.693</ele>
        <time>2019-11-01T10:58:50Z</time>
      </trkpt>
      <trkpt lat="43.03776" lon="2.54445">
        <ele>314.392</ele>
        <time>2019-11-01T10:59:10Z</time>
      </trkpt>
      <trkpt lat="43.03734" lon="2.54486">
        <ele>320.345</ele>
        <time>2019-11-01T10:59:30Z</time>
      </trkpt>
      <trkpt lat="43.03728" lon="2.54512">
        <ele>319.847</ele>
        <time>2019-11-01T10:59:50Z</time>
      </trkpt>
      <trkpt lat="43.03698" lon="2.54531">
        <ele>320.711</ele>
        <time>2019-11-01T11:00:10Z</time>
      </trkpt>
      <trkpt lat="43.03656" lon="2.54437">
        <ele>320.408</ele>
        <time>2019-11-01T11:00:30Z</time>
      </trkpt>
      <trkpt lat="43.03616" lon="2.54299">
        <ele>320.95</ele>
        <time>2019-11-01T11:00:50Z</time>
      </trkpt>
      <trkpt lat="43.03595" lon="2.54164">
        <ele>321.756</ele>
        <time>2019-11-01T11:01:10Z</time>
      </trkpt>
      <trkpt lat="43.03533" lon="2.54095">
        <ele>318.111</ele>
        <time>2019-11-01T11:01:30Z</time>
      </trkpt>
      <trkpt lat="43.03526" lon="2.54042">
        <ele>321.044</ele>
        <time>2019-11-01T11:01:50Z</time>
      </trkpt>
      <trkpt lat="43.03508" lon="2.5401">
        <ele>317.98</ele>
        <time>2019-11-01T11:02:10Z</time>
      </trkpt>
      <trkpt lat="43.03505" lon="2.53971">
        <ele>322.092</ele>
        <time>2019-11-01T11:02:30Z</time>
      </trkpt>
      <trkpt lat="43.03458" lon="2.53883">
        <ele>319.468</ele>
        <time>2019-11-01T11:02:50Z</time>
      </trkpt>
      <trkpt lat="43.03406" lon="2.53842">
        <ele>315.087</ele>
        <time>2019-11-01T11:03:10Z</time>
      </trkpt>
      <trkpt lat="43.03378" lon="2.53851">
        <ele>318.024</ele>
        <time>2019-11-01T11:03:30Z</time>
      </trkpt>
      <trkpt lat="43.03383" lon="2.53879">
        <ele>314.504</ele>
        <time>2019-11-01T11:03:50Z</time>
      </trkpt>
      <trkpt lat="43.03358" lon="2.53941">
        <ele>316.614</ele>
        <time>2019-11-01T11:04:10Z</time>
      </trkpt>
      <trkpt lat="43.03333" lon="2.5396">
        <ele>321.408</ele>
        <time>2019-11-01T11:04:30Z</time>
      </trkpt>
      <trkpt lat="43.03289" lon="2.53977">
        <ele>331.118</ele>
        <time>2019-11-01T11:04:50Z</time>
      </trkpt>
      <trkpt lat="43.03293" lon="2.54031">
        <ele>322.674</ele>
        <time>2019-11-01T11:05:10Z</time>
      </trkpt>
      <trkpt lat="43.03251" lon="2.54119">
        <ele>333.619</ele>
        <time>2019-11-01T11:05:30Z</time>
      </trkpt>
      <trkpt lat="43.03253" lon="2.54147">
        <ele>330.122</ele>
        <time>2019-11-01T11:05:50Z</time>
      </trkpt>
      <trkpt lat="43.03242" lon="2.54185">
        <ele>332.098</ele>
        <time>2019-11-01T11:06:10Z</time>
      </trkpt>
      <trkpt lat="43.03232" lon="2.54256">
        <ele>331.45</ele>
        <time>2019-11-01T11:06:30Z</time>
      </trkpt>
      <trkpt lat="43.03217" lon="2.54291">
        <ele>333.436</ele>
        <time>2019-11-01T11:06:50Z</time>
      </trkpt>
      <trkpt lat="43.03162" lon="2.54349">
        <ele>341.075</ele>
        <time>2019-11-01T11:07:10Z</time>
      </trkpt>
      <trkpt lat="43.03157" lon="2.54426">
        <ele>339.995</ele>
        <time>2019-11-01T11:07:30Z</time>
      </trkpt>
      <trkpt lat="43.03166" lon="2.54473">
        <ele>340.049</ele>
        <time>2019-11-01T11:07:50Z</time>
      </trkpt>
      <trkpt lat="43.03119" lon="2.54486">
        <ele>339.623</ele>
        <time>2019-11-01T11:08:10Z</time>
      </trkpt>
      <trkpt lat="43.03082" lon="2.54518">
        <ele>332.708</ele>
        <time>2019-11-01T11:08:30Z</time>
      </trkpt>
      <trkpt lat="43.03052" lon="2.54516">
        <ele>331.715</ele>
        <time>2019-11-01T11:08:50Z</time>
      </trkpt>
      <trkpt lat="43.0295" lon="2.54368">
        <ele>326.321</ele>
        <time>2019-11-01T11:09:10Z</time>
      </trkpt>
      <trkpt lat="43.02889" lon="2.54342">
        <ele>321.146</ele>
        <time>2019-11-01T11:09:30Z</time>
      </trkpt>
      <trkpt lat="43.0287" lon="2.54385">
        <ele>315.919</ele>
        <time>2019-11-01T11:09:50Z</time>
      </trkpt>
      <trkpt lat="43.0284" lon="2.54385">
        <ele>312.495</ele>
        <time>2019-11-01T11:10:10Z</time>
      </trkpt>
      <trkpt lat="43.02817" lon="2.54359">
        <ele>320.097</ele>
        <time>2019-11-01T11:10:30Z</time>
      </trkpt>
      <trkpt lat="43.02776" lon="2.54346">
        <ele>314.513</ele>
        <time>2019-11-01T11:10:50Z</time>
      </trkpt>
      <trkpt lat="43.02751" lon="2.54325">
        <ele>315.572</ele>
        <time>2019-11-01T11:11:10Z</time>
      </trkpt>
      <trkpt lat="43.02693" lon="2.54301">
        <ele>302.837</ele>
        <time>2019-11-01T11:11:30Z</time>
      </trkpt>
      <trkpt lat="43.02573" lon="2.54269">
        <ele>302.249</ele>
        <time>2019-11-01T11:11:50Z</time>
      </trkpt>
      <trkpt lat="43.02478" lon="2.54192">
        <ele>298.813</ele>
        <time>2019-11-01T11:12:10Z</time>
      </trkpt>
      <trkpt lat="43.0246" lon="2.5416">
        <ele>300.808</ele>
        <time>2019-11-01T11:12:30Z</time>
      </trkpt>
      <trkpt lat="43.02428" lon="2.5417">
        <ele>294.069</ele>
        <time>2019-11-01T11:12:50Z</time>
      </trkpt>
      <trkpt lat="43.02362" lon="2.54291">
        <ele>284.785</ele>
        <time>2019-11-01T11:13:10Z</time>
      </trkpt>
      <trkpt lat="43.02333" lon="2.54286">
        <ele>290.21</ele>
        <time>2019-11-01T11:13:30Z</time>
      </trkpt>
      <trkpt lat="43.02293" lon="2.54417">
        <ele>278.153</ele>
        <time>2019-11-01T11:13:50Z</time>
      </trkpt>
      <trkpt lat="43.02285" lon="2.54557">
        <ele>267.259</ele>
        <time>2019-11-01T11:14:10Z</time>
      </trkpt>
      <trkpt lat="43.02286" lon="2.54647">
        <ele>256.891</ele>
        <time>2019-11-01T11:14:30Z</time>
      </trkpt>
      <trkpt lat="43.02264" lon="2.54668">
        <ele>257.487</ele>
        <time>2019-11-01T11:14:50Z</time>
      </trkpt>
      <trkpt lat="43.02233" lon="2.54668">
        <ele>259.696</ele>
        <time>2019-11-01T11:15:10Z</time>
      </trkpt>
      <trkpt lat="43.02189" lon="2.54709">
        <ele>253.516</ele>
        <time>2019-11-01T11:15:30Z</time>
      </trkpt>
      <trkpt lat="43.02178" lon="2.54662">
        <ele>254.276</ele>
        <time>2019-11-01T11:15:50Z</time>
      </trkpt>
      <trkpt lat="43.02117" lon="2.54709">
        <ele>246.313</ele>
        <time>2019-11-01T11:16:10Z</time>
      </trkpt>
      <trkpt lat="43.02031" lon="2.54743">
        <ele>236.308</ele>
        <time>2019-11-01T11:16:30Z</time>
      </trkpt>
      <trkpt lat="43.01984" lon="2.54735">
        <ele>233.957</ele>
        <time>2019-11-01T11:16:50Z</time>
      </trkpt>
      <trkpt lat="43.01951" lon="2.54758">
        <ele>233.173</ele>
        <time>2019-11-01T11:17:10Z</time>
      </trkpt>
      <trkpt lat="43.0191" lon="2.54814">
        <ele>228.558</ele>
        <time>2019-11-01T11:17:30Z</time>
      </trkpt>
      <trkpt lat="43.01938" lon="2.54917">
        <ele>219.441</ele>
        <time>2019-11-01T11:17:50Z</time>
      </trkpt>
      <trkpt lat="43.01971" lon="2.54939">
        <ele>220.467</ele>
        <time>2019-11-01T11:18:10Z</time>
      </trkpt>
      <trkpt lat="43.0207" lon="2.54868">
        <ele>222.469</ele>
        <time>2019-11-01T11:18:30Z</time>
      </trkpt>
      <trkpt lat="43.02122" lon="2.54876">
        <ele>216.515</ele>
        <time>2019-11-01T11:18:50Z</time>
      </trkpt>
      <trkpt lat="43.02286" lon="2.54857">
        <ele>208.114</ele>
        <time>2019-11-01T11:19:10Z</time>
      </trkpt>
      <trkpt lat="43.02329" lon="2.54737">
        <ele>211.185</ele>
        <time>2019-11-01T11:19:30Z</time>
      </trkpt>
      <trkpt lat="43.02387" lon="2.54664">
        <ele>204.389</ele>
        <time>2019-11-01T11:19:50Z</time>
      </trkpt>
      <trkpt lat="43.02486" lon="2.54619">
        <ele>200.217</ele>
        <time>2019-11-01T11:20:10Z</time>
      </trkpt>
      <trkpt lat="43.02668" lon="2.54587">
        <ele>197.108</ele>
        <time>2019-11-01T11:20:30Z</time>
      </trkpt>
      <trkpt lat="43.02686" lon="2.54666">
        <ele>199.754</ele>
        <time>2019-11-01T11:20:50Z</time>
      </trkpt>
      <trkpt lat="43.02636" lon="2.54677">
        <ele>202.48</ele>
        <time>2019-11-01T11:21:10Z</time>
      </trkpt>
      <trkpt lat="43.02605" lon="2.54718">
        <ele>213.325</ele>
        <time>2019-11-01T11:21:30Z</time>
      </trkpt>
      <trkpt lat="43.02545" lon="2.54739">
        <ele>207.378</ele>
        <time>2019-11-01T11:21:50Z</time>
      </trkpt>
      <trkpt lat="43.02508" lon="2.54793">
        <ele>211.024</ele>
        <time>2019-11-01T11:22:10Z</time>
      </trkpt>
      <trkpt lat="43.02471" lon="2.54834">
        <ele>215.016</ele>
        <time>2019-11-01T11:22:30Z</time>
      </trkpt>
      <trkpt lat="43.0244" lon="2.54842">
        <ele>214.172</ele>
        <time>2019-11-01T11:22:50Z</time>
      </trkpt>
      <trkpt lat="43.02421" lon="2.54885">
        <ele>209.851</ele>
        <time>2019-11-01T11:23:10Z</time>
      </trkpt>
      <trkpt lat="43.02423" lon="2.54917">
        <ele>211.991</ele>
        <time>2019-11-01T11:23:30Z</time>
      </trkpt>
      <trkpt lat="43.02409" lon="2.54962">
        <ele>207.281</ele>
        <time>2019-11-01T11:23:50Z</time>
      </trkpt>
      <trkpt lat="43.02402" lon="2.55055">
        <ele>200.819</ele>
        <time>2019-11-01T11:24:10Z</time>
      </trkpt>
      <trkpt lat="43.02326" lon="2.55145">
        <ele>198.808</ele>
        <time>2019-11-01T11:24:30Z</time>
      </trkpt>
      <trkpt lat="43.02255" lon="2.55166">
        <ele>201.195</ele>
        <time>2019-11-01T11:24:50Z</time>
      </trkpt>
      <trkpt lat="43.02208" lon="2.55245">
        <ele>206.721</ele>
        <time>2019-11-01T11:25:10Z</time>
      </trkpt>
      <trkpt lat="43.0218" lon="2.55256">
        <ele>201.246</ele>
        <time>2019-11-01T11:25:30Z</time>
      </trkpt>
      <trkpt lat="43.02151" lon="2.55235">
        <ele>200.379</ele>
        <time>2019-11-01T11:25:50Z</time>
      </trkpt>
      <trkpt lat="43.02133" lon="2.55263">
        <ele>200.455</ele>
        <time>2019-11-01T11:26:10Z</time>
      </trkpt>
      <trkpt lat="43.02107" lon="2.55254">
        <ele>202.757</ele>
        <time>2019-11-01T11:26:30Z</time>
      </trkpt>
      <trkpt lat="43.02114" lon="2.55211">
        <ele>206.423</ele>
        <time>2019-11-01T11:26:50Z</time>
      </trkpt>
      <trkpt lat="43.02082" lon="2.55188">
        <ele>208.972</ele>
        <time>2019-11-01T11:27:10Z</time>
      </trkpt>
      <trkpt lat="43.0204" lon="2.55237">
        <ele>210.588</ele>
        <time>2019-11-01T11:27:30Z</time>
      </trkpt>
      <trkpt lat="43.01998" lon="2.55222">
        <ele>222.424</ele>
        <time>2019-11-01T11:27:50Z</time>
      </trkpt>
      <trkpt lat="43.01943" lon="2.55247">
        <ele>230.226</ele>
        <time>2019-11-01T11:28:10Z</time>
      </trkpt>
      <trkpt lat="43.01932" lon="2.55267">
        <ele>230.308</ele>
        <time>2019-11-01T11:28:30Z</time>
      </trkpt>
      <trkpt lat="43.0183" lon="2.55292">
        <ele>241.464</ele>
        <time>2019-11-01T11:28:50Z</time>
      </trkpt>
      <trkpt lat="43.01807" lon="2.55317">
        <ele>245.08</ele>
        <time>2019-11-01T11:29:10Z</time>
      </trkpt>
      <trkpt lat="43.01782" lon="2.5533">
        <ele>250.065</ele>
        <time>2019-11-01T11:29:30Z</time>
      </trkpt>
      <trkpt lat="43.01773" lon="2.55306">
        <ele>252.928</ele>
        <time>2019-11-01T11:29:50Z</time>
      </trkpt>
      <trkpt lat="43.01725" lon="2.55315">
        <ele>261.584</ele>
        <time>2019-11-01T11:30:10Z</time>
      </trkpt>
      <trkpt lat="43.01705" lon="2.5531">
        <ele>263.876</ele>
        <time>2019-11-01T11:30:30Z</time>
      </trkpt>
      <trkpt lat="43.01594" lon="2.55385">
        <ele>274.382</ele>
        <time>2019-11-01T11:30:50Z</time>
      </trkpt>
      <trkpt lat="43.01568" lon="2.55366">
        <ele>278.671</ele>
        <time>2019-11-01T11:31:10Z</time>
      </trkpt>
      <trkpt lat="43.01535" lon="2.55376">
        <ele>283.136</ele>
        <time>2019-11-01T11:31:30Z</time>
      </trkpt>
      <trkpt lat="43.01515" lon="2.55353">
        <ele>284.717</ele>
        <time>2019-11-01T11:31:50Z</time>
      </trkpt>
      <trkpt lat="43.01489" lon="2.55235">
        <ele>282.818</ele>
        <time>2019-11-01T11:32:10Z</time>
      </trkpt>
      <trkpt lat="43.01424" lon="2.55082">
        <ele>285.908</ele>
        <time>2019-11-01T11:32:30Z</time>
      </trkpt>
      <trkpt lat="43.01418" lon="2.55015">
        <ele>285.199</ele>
        <time>2019-11-01T11:32:50Z</time>
      </trkpt>
      <trkpt lat="43.01433" lon="2.54862">
        <ele>279.165</ele>
        <time>2019-11-01T11:33:10Z</time>
      </trkpt>
      <trkpt lat="43.01402" lon="2.54819">
        <ele>277.31</ele>
        <time>2019-11-01T11:33:30Z</time>
      </trkpt>
      <trkpt lat="43.01356" lon="2.54788">
        <ele>265.223</ele>
        <time>2019-11-01T11:33:50Z</time>
      </trkpt>
      <trkpt lat="43.01294" lon="2.54797">
        <ele>263.649</ele>
        <time>2019-11-01T11:34:10Z</time>
      </trkpt>
      <trkpt lat="43.01187" lon="2.54872">
        <ele>282.971</ele>
        <time>2019-11-01T11:34:30Z</time>
      </trkpt>
      <trkpt lat="43.01144" lon="2.54874">
        <ele>285.347</ele>
        <time>2019-11-01T11:34:50Z</time>
      </trkpt>
      <trkpt lat="43.01098" lon="2.549">
        <ele>300.616</ele>
        <time>2019-11-01T11:35:10Z</time>
      </trkpt>
      <trkpt lat="43.01189" lon="2.54918">
        <ele>307.583</ele>
        <time>2019-11-01T11:35:30Z</time>
      </trkpt>
      <trkpt lat="43.01136" lon="2.54949">
        <ele>314.125</ele>
        <time>2019-11-01T11:35:50Z</time>
      </trkpt>
      <trkpt lat="43.01122" lon="2.55047">
        <ele>332.517</ele>
        <time>2019-11-01T11:36:10Z</time>
      </trkpt>
      <trkpt lat="43.01144" lon="2.55128">
        <ele>361.508</ele>
        <time>2019-11-01T11:36:30Z</time>
      </trkpt>
      <trkpt lat="43.01129" lon="2.55238">
        <ele>384.534</ele>
        <time>2019-11-01T11:36:50Z</time>
      </trkpt>
      <trkpt lat="43.01128" lon="2.55374">
        <ele>413.17</ele>
        <time>2019-11-01T11:37:10Z</time>
      </trkpt>
      <trkpt lat="43.01107" lon="2.5555">
        <ele>441.165</ele>
        <time>2019-11-01T11:37:30Z</time>
      </trkpt>
      <trkpt lat="43.01111" lon="2.55581">
        <ele>449.518</ele>
        <time>2019-11-01T11:37:50Z</time>
      </trkpt>
      <trkpt lat="43.01085" lon="2.55666">
        <ele>454.344</ele>
        <time>2019-11-01T11:38:10Z</time>
      </trkpt>
      <trkpt lat="43.01045" lon="2.55647">
        <ele>464.196</ele>
        <time>2019-11-01T11:38:30Z</time>
      </trkpt>
      <trkpt lat="43.01009" lon="2.55645">
        <ele>467.972</ele>
        <time>2019-11-01T11:38:50Z</time>
      </trkpt>
      <trkpt lat="43.00981" lon="2.55659">
        <ele>475.021</ele>
        <time>2019-11-01T11:39:10Z</time>
      </trkpt>
      <trkpt lat="43.00939" lon="2.5563">
        <ele>478.389</ele>
        <time>2019-11-01T11:39:30Z</time>
      </trkpt>
      <trkpt lat="43.00903" lon="2.55636">
        <ele>489.906</ele>
        <time>2019-11-01T11:39:50Z</time>
      </trkpt>
      <trkpt lat="43.00888" lon="2.55698">
        <ele>500.526</ele>
        <time>2019-11-01T11:40:10Z</time>
      </trkpt>
      <trkpt lat="43.00872" lon="2.55701">
        <ele>502.308</ele>
        <time>2019-11-01T11:40:30Z</time>
      </trkpt>
      <trkpt lat="43.00838" lon="2.5567">
        <ele>498.134</ele>
        <time>2019-11-01T11:40:50Z</time>
      </trkpt>
      <trkpt lat="43.00861" lon="2.55725">
        <ele>504.12</ele>
        <time>2019-11-01T11:41:10Z</time>
      </trkpt>
      <trkpt lat="43.00843" lon="2.55744">
        <ele>502.345</ele>
        <time>2019-11-01T11:41:30Z</time>
      </trkpt>
      <trkpt lat="43.00844" lon="2.55773">
        <ele>503.468</ele>
        <time>2019-11-01T11:41:50Z</time>
      </trkpt>
      <trkpt lat="43.00834" lon="2.5582">
        <ele>502.164</ele>
        <time>2019-11-01T11:42:10Z</time>
      </trkpt>
      <trkpt lat="43.00843" lon="2.55868">
        <ele>500.766</ele>
        <time>2019-11-01T11:42:30Z</time>
      </trkpt>
      <trkpt lat="43.00834" lon="2.55912">
        <ele>494.652</ele>
        <time>2019-11-01T11:42:50Z</time>
      </trkpt>
      <trkpt lat="43.00859" lon="2.5597">
        <ele>488.181</ele>
        <time>2019-11-01T11:43:10Z</time>
      </trkpt>
      <trkpt lat="43.00857" lon="2.56007">
        <ele>481.894</ele>
        <time>2019-11-01T11:43:30Z</time>
      </trkpt>
      <trkpt lat="43.00848" lon="2.56035">
        <ele>477.657</ele>
        <time>2019-11-01T11:43:50Z</time>
      </trkpt>
      <trkpt lat="43.00854" lon="2.56086">
        <ele>472.322</ele>
        <time>2019-11-01T11:44:10Z</time>
      </trkpt>
      <trkpt lat="43.00848" lon="2.56109">
        <ele>469.808</ele>
        <time>2019-11-01T11:44:30Z</time>
      </trkpt>
      <trkpt lat="43.00849" lon="2.5614">
        <ele>467.715</ele>
        <time>2019-11-01T11:44:50Z</time>
      </trkpt>
      <trkpt lat="43.00828" lon="2.56199">
        <ele>463.691</ele>
        <time>2019-11-01T11:45:10Z</time>
      </trkpt>
      <trkpt lat="43.00836" lon="2.56248">
        <ele>467.936</ele>
        <time>2019-11-01T11:45:30Z</time>
      </trkpt>
      <trkpt lat="43.00759" lon="2.56324">
        <ele>472.959</ele>
        <time>2019-11-01T11:45:50Z</time>
      </trkpt>
      <trkpt lat="43.0075" lon="2.56351">
        <ele>475.345</ele>
        <time>2019-11-01T11:46:10Z</time>
      </trkpt>
      <trkpt lat="43.00722" lon="2.56354">
        <ele>476.237</ele>
        <time>2019-11-01T11:46:30Z</time>
      </trkpt>
      <trkpt lat="43.00698" lon="2.56383">
        <ele>479.293</ele>
        <time>2019-11-01T11:46:50Z</time>
      </trkpt>
      <trkpt lat="43.00688" lon="2.56451">
        <ele>483.142</ele>
        <time>2019-11-01T11:47:10Z</time>
      </trkpt>
      <trkpt lat="43.00647" lon="2.56494">
        <ele>482.069</ele>
        <time>2019-11-01T11:47:30Z</time>
      </trkpt>
      <trkpt lat="43.00593" lon="2.56515">
        <ele>479.704</ele>
        <time>2019-11-01T11:47:50Z</time>
      </trkpt>
      <trkpt lat="43.00566" lon="2.56541">
        <ele>479.724</ele>
        <time>2019-11-01T11:48:10Z</time>
      </trkpt>
      <trkpt lat="43.00521" lon="2.56532">
        <ele>473.808</ele>
        <time>2019-11-01T11:48:30Z</time>
      </trkpt>
      <trkpt lat="43.00508" lon="2.56517">
        <ele>469.952</ele>
        <time>2019-11-01T11:48:50Z</time>
      </trkpt>
      <trkpt lat="43.00485" lon="2.56525">
        <ele>464.688</ele>
        <time>2019-11-01T11:49:10Z</time>
      </trkpt>
      <trkpt lat="43.0042" lon="2.56504">
        <ele>451.043</ele>
        <time>2019-11-01T11:49:30Z</time>
      </trkpt>
      <trkpt lat="43.00431" lon="2.56546">
        <ele>444.816</ele>
        <time>2019-11-01T11:49:50Z</time>
      </trkpt>
      <trkpt lat="43.00355" lon="2.56541">
        <ele>427.632</ele>
        <time>2019-11-01T11:50:10Z</time>
      </trkpt>
      <trkpt lat="43.00339" lon="2.56517">
        <ele>422.114</ele>
        <time>2019-11-01T11:50:30Z</time>
      </trkpt>
      <trkpt lat="43.00332" lon="2.56544">
        <ele>419.97</ele>
        <time>2019-11-01T11:50:50Z</time>
      </trkpt>
      <trkpt lat="43.00298" lon="2.56545">
        <ele>417.379</ele>
        <time>2019-11-01T11:51:10Z</time>
      </trkpt>
      <trkpt lat="43.00223" lon="2.56496">
        <ele>404.481</ele>
        <time>2019-11-01T11:51:30Z</time>
      </trkpt>
      <trkpt lat="43.00165" lon="2.56432">
        <ele>393.061</ele>
        <time>2019-11-01T11:51:50Z</time>
      </trkpt>
      <trkpt lat="43.00086" lon="2.56304">
        <ele>360.017</ele>
        <time>2019-11-01T11:52:10Z</time>
      </trkpt>
      <trkpt lat="43.0009" lon="2.56245">
        <ele>362.808</ele>
        <time>2019-11-01T11:52:30Z</time>
      </trkpt>
      <trkpt lat="43.00085" lon="2.56229">
        <ele>359.314</ele>
        <time>2019-11-01T11:52:50Z</time>
      </trkpt>
      <trkpt lat="43.00061" lon="2.56267">
        <ele>350.73</ele>
        <time>2019-11-01T11:53:10Z</time>
      </trkpt>
      <trkpt lat="43.00069" lon="2.56321">
        <ele>350.135</ele>
        <time>2019-11-01T11:53:30Z</time>
      </trkpt>
      <trkpt lat="43.00044" lon="2.56333">
        <ele>341.238</ele>
        <time>2019-11-01T11:53:50Z</time>
      </trkpt>
      <trkpt lat="43.0003" lon="2.56303">
        <ele>340.594</ele>
        <time>2019-11-01T11:54:10Z</time>
      </trkpt>
      <trkpt lat="42.99998" lon="2.56316">
        <ele>350.086</ele>
        <time>2019-11-01T11:54:30Z</time>
      </trkpt>
      <trkpt lat="43.00005" lon="2.56355">
        <ele>344.022</ele>
        <time>2019-11-01T11:54:50Z</time>
      </trkpt>
      <trkpt lat="42.99982" lon="2.5637">
        <ele>350.011</ele>
        <time>2019-11-01T11:55:10Z</time>
      </trkpt>
      <trkpt lat="42.99998" lon="2.56448">
        <ele>350.042</ele>
        <time>2019-11-01T11:55:30Z</time>
      </trkpt>
      <trkpt lat="42.99994" lon="2.56482">
        <ele>350.022</ele>
        <time>2019-11-01T11:55:50Z</time>
      </trkpt>
      <trkpt lat="42.9997" lon="2.56495">
        <ele>350.014</ele>
        <time>2019-11-01T11:56:10Z</time>
      </trkpt>
      <trkpt lat="42.99931" lon="2.56484">
        <ele>350.008</ele>
        <time>2019-11-01T11:56:30Z</time>
      </trkpt>
      <trkpt lat="42.99897" lon="2.56459">
        <ele>350.01</ele>
        <time>2019-11-01T11:56:50Z</time>
      </trkpt>
      <trkpt lat="42.99887" lon="2.56437">
        <ele>350.346</ele>
        <time>2019-11-01T11:57:10Z</time>
      </trkpt>
      <trkpt lat="42.99847" lon="2.56421">
        <ele>350.051</ele>
        <time>2019-11-01T11:57:30Z</time>
      </trkpt>
      <trkpt lat="42.998" lon="2.56441">
        <ele>350.754</ele>
        <time>2019-11-01T11:57:50Z</time>
      </trkpt>
      <trkpt lat="42.99777" lon="2.56497">
        <ele>350.11</ele>
        <time>2019-11-01T11:58:10Z</time>
      </trkpt>
      <trkpt lat="42.99734" lon="2.56545">
        <ele>350.022</ele>
        <time>2019-11-01T11:58:30Z</time>
      </trkpt>
      <trkpt lat="42.99665" lon="2.56517">
        <ele>350.038</ele>
        <time>2019-11-01T11:58:50Z</time>
      </trkpt>
      <trkpt lat="42.99613" lon="2.56523">
        <ele>350.477</ele>
        <time>2019-11-01T11:59:10Z</time>
      </trkpt>
      <trkpt lat="42.99579" lon="2.56559">
        <ele>351.757</ele>
        <time>2019-11-01T11:59:30Z</time>
      </trkpt>
      <trkpt lat="42.99545" lon="2.56653">
        <ele>352.9</ele>
        <time>2019-11-01T11:59:50Z</time>
      </trkpt>
      <trkpt lat="42.99513" lon="2.56637">
        <ele>358.32</ele>
        <time>2019-11-01T12:00:10Z</time>
      </trkpt>
      <trkpt lat="42.99436" lon="2.56649">
        <ele>362.508</ele>
        <time>2019-11-01T12:00:30Z</time>
      </trkpt>
      <trkpt lat="42.99416" lon="2.56679">
        <ele>361.351</ele>
        <time>2019-11-01T12:00:50Z</time>
      </trkpt>
      <trkpt lat="42.99419" lon="2.56703">
        <ele>360.047</ele>
        <time>2019-11-01T12:01:10Z</time>
      </trkpt>
      <trkpt lat="42.99387" lon="2.56745">
        <ele>368.362</ele>
        <time>2019-11-01T12:01:30Z</time>
      </trkpt>
      <trkpt lat="42.99351" lon="2.56735">
        <ele>363.445</ele>
        <time>2019-11-01T12:01:50Z</time>
      </trkpt>
      <trkpt lat="42.99343" lon="2.56661">
        <ele>365.751</ele>
        <time>2019-11-01T12:02:10Z</time>
      </trkpt>
      <trkpt lat="42.9928" lon="2.56575">
        <ele>362.393</ele>
        <time>2019-11-01T12:02:30Z</time>
      </trkpt>
      <trkpt lat="42.99179" lon="2.56485">
        <ele>361.929</ele>
        <time>2019-11-01T12:02:50Z</time>
      </trkpt>
      <trkpt lat="42.99138" lon="2.56499">
        <ele>362.428</ele>
        <time>2019-11-01T12:03:10Z</time>
      </trkpt>
      <trkpt lat="42.9911" lon="2.56545">
        <ele>367.643</ele>
        <time>2019-11-01T12:03:30Z</time>
      </trkpt>
      <trkpt lat="42.99094" lon="2.56597">
        <ele>370.664</ele>
        <time>2019-11-01T12:03:50Z</time>
      </trkpt>
      <trkpt lat="42.99068" lon="2.56615">
        <ele>370.21</ele>
        <time>2019-11-01T12:04:10Z</time>
      </trkpt>
      <trkpt lat="42.99062" lon="2.56599">
        <ele>370.008</ele>
        <time>2019-11-01T12:04:30Z</time>
      </trkpt>
      <trkpt lat="42.99006" lon="2.56543">
        <ele>369.92</ele>
        <time>2019-11-01T12:04:50Z</time>
      </trkpt>
      <trkpt lat="42.98976" lon="2.56529">
        <ele>370.066</ele>
        <time>2019-11-01T12:05:10Z</time>
      </trkpt>
      <trkpt lat="42.98954" lon="2.56459">
        <ele>378.021</ele>
        <time>2019-11-01T12:05:30Z</time>
      </trkpt>
      <trkpt lat="42.98588" lon="2.56463">
        <ele>428.074</ele>
        <time>2019-11-01T12:05:50Z</time>
      </trkpt>
      <trkpt lat="42.98548" lon="2.56519">
        <ele>455.34</ele>
        <time>2019-11-01T12:06:10Z</time>
      </trkpt>
      <trkpt lat="42.98535" lon="2.56579">
        <ele>467.732</ele>
        <time>2019-11-01T12:06:30Z</time>
      </trkpt>
      <trkpt lat="42.98504" lon="2.56601">
        <ele>468.938</ele>
        <time>2019-11-01T12:06:50Z</time>
      </trkpt>
      <trkpt lat="42.98424" lon="2.56595">
        <ele>488.657</ele>
        <time>2019-11-01T12:07:10Z</time>
      </trkpt>
      <trkpt lat="42.98308" lon="2.56723">
        <ele>490.541</ele>
        <time>2019-11-01T12:07:30Z</time>
      </trkpt>
      <trkpt lat="42.9826" lon="2.56696">
        <ele>500.581</ele>
        <time>2019-11-01T12:07:50Z</time>
      </trkpt>
      <trkpt lat="42.98237" lon="2.56642">
        <ele>513.309</ele>
        <time>2019-11-01T12:08:10Z</time>
      </trkpt>
      <trkpt lat="42.98186" lon="2.56581">
        <ele>519.808</ele>
        <time>2019-11-01T12:08:30Z</time>
      </trkpt>
      <trkpt lat="42.98144" lon="2.56506">
        <ele>529.79</ele>
        <time>2019-11-01T12:08:50Z</time>
      </trkpt>
      <trkpt lat="42.98081" lon="2.56357">
        <ele>539.086</ele>
        <time>2019-11-01T12:09:10Z</time>
      </trkpt>
      <trkpt lat="42.98101" lon="2.56292">
        <ele>569.421</ele>
        <time>2019-11-01T12:09:30Z</time>
      </trkpt>
      <trkpt lat="42.98109" lon="2.56231">
        <ele>571.464</ele>
        <time>2019-11-01T12:09:50Z</time>
      </trkpt>
      <trkpt lat="42.98138" lon="2.56156">
        <ele>582.14</ele>
        <time>2019-11-01T12:10:10Z</time>
      </trkpt>
      <trkpt lat="42.98142" lon="2.56105">
        <ele>584.052</ele>
        <time>2019-11-01T12:10:30Z</time>
      </trkpt>
      <trkpt lat="42.98154" lon="2.56057">
        <ele>586.758</ele>
        <time>2019-11-01T12:10:50Z</time>
      </trkpt>
      <trkpt lat="42.98184" lon="2.55998">
        <ele>584.917</ele>
        <time>2019-11-01T12:11:10Z</time>
      </trkpt>
      <trkpt lat="42.98177" lon="2.5578">
        <ele>582.388</ele>
        <time>2019-11-01T12:11:30Z</time>
      </trkpt>
      <trkpt lat="42.9817" lon="2.55695">
        <ele>579.024</ele>
        <time>2019-11-01T12:11:50Z</time>
      </trkpt>
      <trkpt lat="42.98209" lon="2.55633">
        <ele>577.726</ele>
        <time>2019-11-01T12:12:10Z</time>
      </trkpt>
      <trkpt lat="42.98231" lon="2.55571">
        <ele>579.008</ele>
        <time>2019-11-01T12:12:30Z</time>
      </trkpt>
      <trkpt lat="42.98308" lon="2.55519">
        <ele>575.934</ele>
        <time>2019-11-01T12:12:50Z</time>
      </trkpt>
      <trkpt lat="42.984" lon="2.55537">
        <ele>563.55</ele>
        <time>2019-11-01T12:13:10Z</time>
      </trkpt>
      <trkpt lat="42.98444" lon="2.55519">
        <ele>553.755</ele>
        <time>2019-11-01T12:13:30Z</time>
      </trkpt>
      <trkpt lat="42.98398" lon="2.55494">
        <ele>549.138</ele>
        <time>2019-11-01T12:13:50Z</time>
      </trkpt>
      <trkpt lat="42.98368" lon="2.55451">
        <ele>542.924</ele>
        <time>2019-11-01T12:14:10Z</time>
      </trkpt>
      <trkpt lat="42.98349" lon="2.55399">
        <ele>535.166</ele>
        <time>2019-11-01T12:14:30Z</time>
      </trkpt>
      <trkpt lat="42.9833" lon="2.55377">
        <ele>532.872</ele>
        <time>2019-11-01T12:14:50Z</time>
      </trkpt>
      <trkpt lat="42.98369" lon="2.55383">
        <ele>523.021</ele>
        <time>2019-11-01T12:15:10Z</time>
      </trkpt>
      <trkpt lat="42.984" lon="2.55434">
        <ele>523.866</ele>
        <time>2019-11-01T12:15:30Z</time>
      </trkpt>
      <trkpt lat="42.98433" lon="2.55447">
        <ele>523.529</ele>
        <time>2019-11-01T12:15:50Z</time>
      </trkpt>
      <trkpt lat="42.98493" lon="2.55406">
        <ele>511.121</ele>
        <time>2019-11-01T12:16:10Z</time>
      </trkpt>
      <trkpt lat="42.98551" lon="2.55403">
        <ele>506.308</ele>
        <time>2019-11-01T12:16:30Z</time>
      </trkpt>
      <trkpt lat="42.98596" lon="2.55346">
        <ele>493.872</ele>
        <time>2019-11-01T12:16:50Z</time>
      </trkpt>
      <trkpt lat="42.98615" lon="2.55333">
        <ele>491.468</ele>
        <time>2019-11-01T12:17:10Z</time>
      </trkpt>
      <trkpt lat="42.98632" lon="2.55331">
        <ele>487.583</ele>
        <time>2019-11-01T12:17:30Z</time>
      </trkpt>
      <trkpt lat="42.98662" lon="2.55348">
        <ele>486.926</ele>
        <time>2019-11-01T12:17:50Z</time>
      </trkpt>
      <trkpt lat="42.98731" lon="2.55353">
        <ele>488.512</ele>
        <time>2019-11-01T12:18:10Z</time>
      </trkpt>
      <trkpt lat="42.98752" lon="2.55308">
        <ele>476.094</ele>
        <time>2019-11-01T12:18:30Z</time>
      </trkpt>
      <trkpt lat="42.98786" lon="2.55304">
        <ele>476.96</ele>
        <time>2019-11-01T12:18:50Z</time>
      </trkpt>
      <trkpt lat="42.98818" lon="2.55262">
        <ele>469.129</ele>
        <time>2019-11-01T12:19:10Z</time>
      </trkpt>
      <trkpt lat="42.98847" lon="2.55261">
        <ele>467.994</ele>
        <time>2019-11-01T12:19:30Z</time>
      </trkpt>
      <trkpt lat="42.98906" lon="2.55286">
        <ele>461.957</ele>
        <time>2019-11-01T12:19:50Z</time>
      </trkpt>
      <trkpt lat="42.98936" lon="2.55313">
        <ele>455.922</ele>
        <time>2019-11-01T12:20:10Z</time>
      </trkpt>
      <trkpt lat="42.98938" lon="2.55259">
        <ele>451.408</ele>
        <time>2019-11-01T12:20:30Z</time>
      </trkpt>
      <trkpt lat="42.98863" lon="2.55107">
        <ele>428.735</ele>
        <time>2019-11-01T12:20:50Z</time>
      </trkpt>
      <trkpt lat="42.98815" lon="2.55093">
        <ele>420.341</ele>
        <time>2019-11-01T12:21:10Z</time>
      </trkpt>
      <trkpt lat="42.98781" lon="2.55111">
        <ele>423.986</ele>
        <time>2019-11-01T12:21:30Z</time>
      </trkpt>
      <trkpt lat="42.98753" lon="2.55144">
        <ele>415.869</ele>
        <time>2019-11-01T12:21:50Z</time>
      </trkpt>
      <trkpt lat="42.98719" lon="2.55155">
        <ele>411.475</ele>
        <time>2019-11-01T12:22:10Z</time>
      </trkpt>
      <trkpt lat="42.98679" lon="2.55183">
        <ele>409.717</ele>
        <time>2019-11-01T12:22:30Z</time>
      </trkpt>
      <trkpt lat="42.9864" lon="2.55094">
        <ele>400.083</ele>
        <time>2019-11-01T12:22:50Z</time>
      </trkpt>
      <trkpt lat="42.98565" lon="2.55094">
        <ele>397.692</ele>
        <time>2019-11-01T12:23:10Z</time>
      </trkpt>
      <trkpt lat="42.98516" lon="2.55139">
        <ele>395.566</ele>
        <time>2019-11-01T12:23:30Z</time>
      </trkpt>
      <trkpt lat="42.9848" lon="2.55105">
        <ele>393.729</ele>
        <time>2019-11-01T12:23:50Z</time>
      </trkpt>
      <trkpt lat="42.98436" lon="2.55087">
        <ele>389.721</ele>
        <time>2019-11-01T12:24:10Z</time>
      </trkpt>
      <trkpt lat="42.98397" lon="2.55055">
        <ele>389.008</ele>
        <time>2019-11-01T12:24:30Z</time>
      </trkpt>
      <trkpt lat="42.98356" lon="2.55067">
        <ele>389.962</ele>
        <time>2019-11-01T12:24:50Z</time>
      </trkpt>
      <trkpt lat="42.98331" lon="2.55053">
        <ele>391.998</ele>
        <time>2019-11-01T12:25:10Z</time>
      </trkpt>
      <trkpt lat="42.98176" lon="2.54828">
        <ele>429.373</ele>
        <time>2019-11-01T12:25:30Z</time>
      </trkpt>
      <trkpt lat="42.98146" lon="2.54805">
        <ele>437.096</ele>
        <time>2019-11-01T12:25:50Z</time>
      </trkpt>
      <trkpt lat="42.98084" lon="2.54788">
        <ele>451.622</ele>
        <time>2019-11-01T12:26:10Z</time>
      </trkpt>
      <trkpt lat="42.98042" lon="2.54782">
        <ele>456.984</ele>
        <time>2019-11-01T12:26:30Z</time>
      </trkpt>
      <trkpt lat="42.97986" lon="2.54797">
        <ele>470.88</ele>
        <time>2019-11-01T12:26:50Z</time>
      </trkpt>
      <trkpt lat="42.9792" lon="2.54768">
        <ele>478.089</ele>
        <time>2019-11-01T12:27:10Z</time>
      </trkpt>
      <trkpt lat="42.97885" lon="2.54769">
        <ele>484.629</ele>
        <time>2019-11-01T12:27:30Z</time>
      </trkpt>
      <trkpt lat="42.97833" lon="2.54788">
        <ele>500.4</ele>
        <time>2019-11-01T12:27:50Z</time>
      </trkpt>
      <trkpt lat="42.97749" lon="2.54752">
        <ele>512.62</ele>
        <time>2019-11-01T12:28:10Z</time>
      </trkpt>
      <trkpt lat="42.97691" lon="2.54749">
        <ele>527.008</ele>
        <time>2019-11-01T12:28:30Z</time>
      </trkpt>
      <trkpt lat="42.97653" lon="2.54723">
        <ele>522.728</ele>
        <time>2019-11-01T12:28:50Z</time>
      </trkpt>
      <trkpt lat="42.97605" lon="2.54714">
        <ele>512.564</ele>
        <time>2019-11-01T12:29:10Z</time>
      </trkpt>
      <trkpt lat="42.9758" lon="2.54698">
        <ele>510.179</ele>
        <time>2019-11-01T12:29:30Z</time>
      </trkpt>
      <trkpt lat="42.97509" lon="2.54702">
        <ele>505.462</ele>
        <time>2019-11-01T12:29:50Z</time>
      </trkpt>
      <trkpt lat="42.97486" lon="2.54712">
        <ele>502.958</ele>
        <time>2019-11-01T12:30:10Z</time>
      </trkpt>
      <trkpt lat="42.97459" lon="2.54708">
        <ele>501.21</ele>
        <time>2019-11-01T12:30:30Z</time>
      </trkpt>
      <trkpt lat="42.97449" lon="2.54693">
        <ele>498.116</ele>
        <time>2019-11-01T12:30:50Z</time>
      </trkpt>
      <trkpt lat="42.97403" lon="2.54667">
        <ele>491.175</ele>
        <time>2019-11-01T12:31:10Z</time>
      </trkpt>
      <trkpt lat="42.97386" lon="2.54675">
        <ele>490.826</ele>
        <time>2019-11-01T12:31:30Z</time>
      </trkpt>
      <trkpt lat="42.97381" lon="2.54715">
        <ele>490.647</ele>
        <time>2019-11-01T12:31:50Z</time>
      </trkpt>
      <trkpt lat="42.9736" lon="2.54756">
        <ele>488.711</ele>
        <time>2019-11-01T12:32:10Z</time>
      </trkpt>
      <trkpt lat="42.97335" lon="2.54778">
        <ele>485.108</ele>
        <time>2019-11-01T12:32:30Z</time>
      </trkpt>
      <trkpt lat="42.97293" lon="2.5472">
        <ele>488.528</ele>
        <time>2019-11-01T12:32:50Z</time>
      </trkpt>
      <trkpt lat="42.97305" lon="2.546">
        <ele>490.694</ele>
        <time>2019-11-01T12:33:10Z</time>
      </trkpt>
      <trkpt lat="42.9729" lon="2.54576">
        <ele>490.079</ele>
        <time>2019-11-01T12:33:30Z</time>
      </trkpt>
      <trkpt lat="42.97265" lon="2.54578">
        <ele>490.222</ele>
        <time>2019-11-01T12:33:50Z</time>
      </trkpt>
      <trkpt lat="42.9723" lon="2.54601">
        <ele>490.888</ele>
        <time>2019-11-01T12:34:10Z</time>
      </trkpt>
      <trkpt lat="42.97199" lon="2.54592">
        <ele>492.06</ele>
        <time>2019-11-01T12:34:30Z</time>
      </trkpt>
      <trkpt lat="42.97128" lon="2.54509">
        <ele>500.296</ele>
        <time>2019-11-01T12:34:50Z</time>
      </trkpt>
      <trkpt lat="42.97106" lon="2.54472">
        <ele>500.045</ele>
        <time>2019-11-01T12:35:10Z</time>
      </trkpt>
      <trkpt lat="42.97033" lon="2.54435">
        <ele>500.043</ele>
        <time>2019-11-01T12:35:30Z</time>
      </trkpt>
      <trkpt lat="42.9702" lon="2.54472">
        <ele>500.764</ele>
        <time>2019-11-01T12:35:50Z</time>
      </trkpt>
      <trkpt lat="42.96972" lon="2.54483">
        <ele>501.11</ele>
        <time>2019-11-01T12:36:10Z</time>
      </trkpt>
      <trkpt lat="42.96941" lon="2.54494">
        <ele>501.008</ele>
        <time>2019-11-01T12:36:30Z</time>
      </trkpt>
      <trkpt lat="42.96898" lon="2.54453">
        <ele>504.74</ele>
        <time>2019-11-01T12:36:50Z</time>
      </trkpt>
      <trkpt lat="42.96889" lon="2.54371">
        <ele>500.436</ele>
        <time>2019-11-01T12:37:10Z</time>
      </trkpt>
      <trkpt lat="42.96861" lon="2.54322">
        <ele>502.961</ele>
        <time>2019-11-01T12:37:30Z</time>
      </trkpt>
      <trkpt lat="42.96819" lon="2.54296">
        <ele>506.424</ele>
        <time>2019-11-01T12:37:50Z</time>
      </trkpt>
      <trkpt lat="42.96788" lon="2.54255">
        <ele>509.14</ele>
        <time>2019-11-01T12:38:10Z</time>
      </trkpt>
      <trkpt lat="42.96743" lon="2.54246">
        <ele>511.342</ele>
        <time>2019-11-01T12:38:30Z</time>
      </trkpt>
      <trkpt lat="42.96684" lon="2.54259">
        <ele>513.898</ele>
        <time>2019-11-01T12:38:50Z</time>
      </trkpt>
      <trkpt lat="42.96644" lon="2.54242">
        <ele>516.337</ele>
        <time>2019-11-01T12:39:10Z</time>
      </trkpt>
      <trkpt lat="42.96604" lon="2.5418">
        <ele>519.547</ele>
        <time>2019-11-01T12:39:30Z</time>
      </trkpt>
      <trkpt lat="42.96592" lon="2.54145">
        <ele>518.529</ele>
        <time>2019-11-01T12:39:50Z</time>
      </trkpt>
      <trkpt lat="42.9655" lon="2.54109">
        <ele>518.921</ele>
        <time>2019-11-01T12:40:10Z</time>
      </trkpt>
      <trkpt lat="42.96479" lon="2.54061">
        <ele>519.008</ele>
        <time>2019-11-01T12:40:30Z</time>
      </trkpt>
      <trkpt lat="42.96457" lon="2.54008">
        <ele>524.19</ele>
        <time>2019-11-01T12:40:50Z</time>
      </trkpt>
      <trkpt lat="42.9645" lon="2.53945">
        <ele>526.616</ele>
        <time>2019-11-01T12:41:10Z</time>
      </trkpt>
      <trkpt lat="42.96436" lon="2.53876">
        <ele>524.251</ele>
        <time>2019-11-01T12:41:30Z</time>
      </trkpt>
      <trkpt lat="42.96405" lon="2.5382">
        <ele>525.314</ele>
        <time>2019-11-01T12:41:50Z</time>
      </trkpt>
      <trkpt lat="42.96364" lon="2.53689">
        <ele>529.77</ele>
        <time>2019-11-01T12:42:10Z</time>
      </trkpt>
      <trkpt lat="42.96346" lon="2.53455">
        <ele>530.082</ele>
        <time>2019-11-01T12:42:30Z</time>
      </trkpt>
      <trkpt lat="42.96238" lon="2.53265">
        <ele>532.648</ele>
        <time>2019-11-01T12:42:50Z</time>
      </trkpt>
      <trkpt lat="42.96123" lon="2.53194">
        <ele>535.657</ele>
        <time>2019-11-01T12:43:10Z</time>
      </trkpt>
      <trkpt lat="42.96008" lon="2.53031">
        <ele>536.273</ele>
        <time>2019-11-01T12:43:30Z</time>
      </trkpt>
      <trkpt lat="42.96" lon="2.52887">
        <ele>540.185</ele>
        <time>2019-11-01T12:43:50Z</time>
      </trkpt>
      <trkpt lat="42.95962" lon="2.52788">
        <ele>541.413</ele>
        <time>2019-11-01T12:44:10Z</time>
      </trkpt>
      <trkpt lat="42.95913" lon="2.52716">
        <ele>532.708</ele>
        <time>2019-11-01T12:44:30Z</time>
      </trkpt>
      <trkpt lat="42.9589" lon="2.52714">
        <ele>528.153</ele>
        <time>2019-11-01T12:44:50Z</time>
      </trkpt>
      <trkpt lat="42.95846" lon="2.52772">
        <ele>520.859</ele>
        <time>2019-11-01T12:45:10Z</time>
      </trkpt>
      <trkpt lat="42.9582" lon="2.52848">
        <ele>517.174</ele>
        <time>2019-11-01T12:45:30Z</time>
      </trkpt>
      <trkpt lat="42.95768" lon="2.52843">
        <ele>521.057</ele>
        <time>2019-11-01T12:45:50Z</time>
      </trkpt>
      <trkpt lat="42.9573" lon="2.52863">
        <ele>526.473</ele>
        <time>2019-11-01T12:46:10Z</time>
      </trkpt>
      <trkpt lat="42.95658" lon="2.52958">
        <ele>530.635</ele>
        <time>2019-11-01T12:46:30Z</time>
      </trkpt>
      <trkpt lat="42.9562" lon="2.52968">
        <ele>534.831</ele>
        <time>2019-11-01T12:46:50Z</time>
      </trkpt>
      <trkpt lat="42.95583" lon="2.53001">
        <ele>540.07</ele>
        <time>2019-11-01T12:47:10Z</time>
      </trkpt>
      <trkpt lat="42.95537" lon="2.53022">
        <ele>541.378</ele>
        <time>2019-11-01T12:47:30Z</time>
      </trkpt>
      <trkpt lat="42.9547" lon="2.53026">
        <ele>546.933</ele>
        <time>2019-11-01T12:47:50Z</time>
      </trkpt>
      <trkpt lat="42.95422" lon="2.53033">
        <ele>549.626</ele>
        <time>2019-11-01T12:48:10Z</time>
      </trkpt>
      <trkpt lat="42.95315" lon="2.52964">
        <ele>554.408</ele>
        <time>2019-11-01T12:48:30Z</time>
      </trkpt>
      <trkpt lat="42.95266" lon="2.53001">
        <ele>562.943</ele>
        <time>2019-11-01T12:48:50Z</time>
      </trkpt>
      <trkpt lat="42.95233" lon="2.53007">
        <ele>560.049</ele>
        <time>2019-11-01T12:49:10Z</time>
      </trkpt>
      <trkpt lat="42.95209" lon="2.53035">
        <ele>567.354</ele>
        <time>2019-11-01T12:49:30Z</time>
      </trkpt>
      <trkpt lat="42.95158" lon="2.53028">
        <ele>565.637</ele>
        <time>2019-11-01T12:49:50Z</time>
      </trkpt>
      <trkpt lat="42.95116" lon="2.53087">
        <ele>579.333</ele>
        <time>2019-11-01T12:50:10Z</time>
      </trkpt>
      <trkpt lat="42.95073" lon="2.53121">
        <ele>577.985</ele>
        <time>2019-11-01T12:50:30Z</time>
      </trkpt>
      <trkpt lat="42.95056" lon="2.53201">
        <ele>582.531</ele>
        <time>2019-11-01T12:50:50Z</time>
      </trkpt>
      <trkpt lat="42.95058" lon="2.53259">
        <ele>587.99</ele>
        <time>2019-11-01T12:51:10Z</time>
      </trkpt>
      <trkpt lat="42.95046" lon="2.53338">
        <ele>592.811</ele>
        <time>2019-11-01T12:51:30Z</time>
      </trkpt>
      <trkpt lat="42.9502" lon="2.53397">
        <ele>593.021</ele>
        <time>2019-11-01T12:51:50Z</time>
      </trkpt>
      <trkpt lat="42.9503" lon="2.53491">
        <ele>600.903</ele>
        <time>2019-11-01T12:52:10Z</time>
      </trkpt>
      <trkpt lat="42.95006" lon="2.53644">
        <ele>609.608</ele>
        <time>2019-11-01T12:52:30Z</time>
      </trkpt>
      <trkpt lat="42.9502" lon="2.53771">
        <ele>606.657</ele>
        <time>2019-11-01T12:52:50Z</time>
      </trkpt>
      <trkpt lat="42.94972" lon="2.53743">
        <ele>606.023</ele>
        <time>2019-11-01T12:53:10Z</time>
      </trkpt>
      <trkpt lat="42.94963" lon="2.53678">
        <ele>606.858</ele>
        <time>2019-11-01T12:53:30Z</time>
      </trkpt>
      <trkpt lat="42.94941" lon="2.53732">
        <ele>611.471</ele>
        <time>2019-11-01T12:53:50Z</time>
      </trkpt>
      <trkpt lat="42.9483" lon="2.53765">
        <ele>610.597</ele>
        <time>2019-11-01T12:54:10Z</time>
      </trkpt>
      <trkpt lat="42.94736" lon="2.53825">
        <ele>602.779</ele>
        <time>2019-11-01T12:54:30Z</time>
      </trkpt>
      <trkpt lat="42.94655" lon="2.53709">
        <ele>590.135</ele>
        <time>2019-11-01T12:54:50Z</time>
      </trkpt>
      <trkpt lat="42.9464" lon="2.53724">
        <ele>590.684</ele>
        <time>2019-11-01T12:55:10Z</time>
      </trkpt>
      <trkpt lat="42.94639" lon="2.53773">
        <ele>585.636</ele>
        <time>2019-11-01T12:55:30Z</time>
      </trkpt>
      <trkpt lat="42.94597" lon="2.53846">
        <ele>579.617</ele>
        <time>2019-11-01T12:55:50Z</time>
      </trkpt>
      <trkpt lat="42.94554" lon="2.53885">
        <ele>570.018</ele>
        <time>2019-11-01T12:56:10Z</time>
      </trkpt>
      <trkpt lat="42.94511" lon="2.53864">
        <ele>568.008</ele>
        <time>2019-11-01T12:56:30Z</time>
      </trkpt>
      <trkpt lat="42.94555" lon="2.53928">
        <ele>555.169</ele>
        <time>2019-11-01T12:56:50Z</time>
      </trkpt>
      <trkpt lat="42.94599" lon="2.53932">
        <ele>556.735</ele>
        <time>2019-11-01T12:57:10Z</time>
      </trkpt>
      <trkpt lat="42.94608" lon="2.53958">
        <ele>553.43</ele>
        <time>2019-11-01T12:57:30Z</time>
      </trkpt>
      <trkpt lat="42.94604" lon="2.53975">
        <ele>549.763</ele>
        <time>2019-11-01T12:57:50Z</time>
      </trkpt>
      <trkpt lat="42.9458" lon="2.53986">
        <ele>544.319</ele>
        <time>2019-11-01T12:58:10Z</time>
      </trkpt>
      <trkpt lat="42.9457" lon="2.54025">
        <ele>537.881</ele>
        <time>2019-11-01T12:58:30Z</time>
      </trkpt>
      <trkpt lat="42.94595" lon="2.54066">
        <ele>532.157</ele>
        <time>2019-11-01T12:58:50Z</time>
      </trkpt>
      <trkpt lat="42.94546" lon="2.5418">
        <ele>529.756</ele>
        <time>2019-11-01T12:59:10Z</time>
      </trkpt>
      <trkpt lat="42.94484" lon="2.54203">
        <ele>530.057</ele>
        <time>2019-11-01T12:59:30Z</time>
      </trkpt>
      <trkpt lat="42.94392" lon="2.5421">
        <ele>526.2</ele>
        <time>2019-11-01T12:59:50Z</time>
      </trkpt>
      <trkpt lat="42.9422" lon="2.54274">
        <ele>510.62</ele>
        <time>2019-11-01T13:00:10Z</time>
      </trkpt>
      <trkpt lat="42.94193" lon="2.54313">
        <ele>507.608</ele>
        <time>2019-11-01T13:00:30Z</time>
      </trkpt>
      <trkpt lat="42.94097" lon="2.545">
        <ele>498.951</ele>
        <time>2019-11-01T13:00:50Z</time>
      </trkpt>
      <trkpt lat="42.94085" lon="2.54567">
        <ele>495.987</ele>
        <time>2019-11-01T13:01:10Z</time>
      </trkpt>
      <trkpt lat="42.94094" lon="2.54651">
        <ele>495.492</ele>
        <time>2019-11-01T13:01:30Z</time>
      </trkpt>
      <trkpt lat="42.94057" lon="2.54746">
        <ele>496.975</ele>
        <time>2019-11-01T13:01:50Z</time>
      </trkpt>
      <trkpt lat="42.94044" lon="2.54735">
        <ele>497.761</ele>
        <time>2019-11-01T13:02:10Z</time>
      </trkpt>
      <trkpt lat="42.94027" lon="2.54684">
        <ele>499.243</ele>
        <time>2019-11-01T13:02:30Z</time>
      </trkpt>
      <trkpt lat="42.93956" lon="2.54604">
        <ele>492.339</ele>
        <time>2019-11-01T13:02:50Z</time>
      </trkpt>
      <trkpt lat="42.93893" lon="2.54582">
        <ele>498.038</ele>
        <time>2019-11-01T13:03:10Z</time>
      </trkpt>
      <trkpt lat="42.93871" lon="2.54544">
        <ele>498.074</ele>
        <time>2019-11-01T13:03:30Z</time>
      </trkpt>
      <trkpt lat="42.93906" lon="2.54425">
        <ele>505.556</ele>
        <time>2019-11-01T13:03:50Z</time>
      </trkpt>
      <trkpt lat="42.9391" lon="2.54378">
        <ele>509.421</ele>
        <time>2019-11-01T13:04:10Z</time>
      </trkpt>
      <trkpt lat="42.93867" lon="2.5443">
        <ele>514.808</ele>
        <time>2019-11-01T13:04:30Z</time>
      </trkpt>
      <trkpt lat="42.93836" lon="2.54438">
        <ele>516.173</ele>
        <time>2019-11-01T13:04:50Z</time>
      </trkpt>
      <trkpt lat="42.93761" lon="2.54324">
        <ele>527.319</ele>
        <time>2019-11-01T13:05:10Z</time>
      </trkpt>
      <trkpt lat="42.93635" lon="2.54238">
        <ele>533.724</ele>
        <time>2019-11-01T13:05:30Z</time>
      </trkpt>
      <trkpt lat="42.9359" lon="2.54221">
        <ele>539.957</ele>
        <time>2019-11-01T13:05:50Z</time>
      </trkpt>
      <trkpt lat="42.93555" lon="2.54197">
        <ele>540.983</ele>
        <time>2019-11-01T13:06:10Z</time>
      </trkpt>
      <trkpt lat="42.93478" lon="2.54176">
        <ele>545.865</ele>
        <time>2019-11-01T13:06:30Z</time>
      </trkpt>
      <trkpt lat="42.93432" lon="2.5413">
        <ele>552.691</ele>
        <time>2019-11-01T13:06:50Z</time>
      </trkpt>
      <trkpt lat="42.93372" lon="2.54105">
        <ele>558.58</ele>
        <time>2019-11-01T13:07:10Z</time>
      </trkpt>
      <trkpt lat="42.9333" lon="2.54098">
        <ele>565.075</ele>
        <time>2019-11-01T13:07:30Z</time>
      </trkpt>
      <trkpt lat="42.933" lon="2.54064">
        <ele>569.828</ele>
        <time>2019-11-01T13:07:50Z</time>
      </trkpt>
      <trkpt lat="42.93248" lon="2.53986">
        <ele>566.22</ele>
        <time>2019-11-01T13:08:10Z</time>
      </trkpt>
      <trkpt lat="42.93257" lon="2.53932">
        <ele>563.308</ele>
        <time>2019-11-01T13:08:30Z</time>
      </trkpt>
      <trkpt lat="42.93307" lon="2.53853">
        <ele>560.193</ele>
        <time>2019-11-01T13:08:50Z</time>
      </trkpt>
      <trkpt lat="42.93349" lon="2.53805">
        <ele>558.099</ele>
        <time>2019-11-01T13:09:10Z</time>
      </trkpt>
      <trkpt lat="42.93361" lon="2.53762">
        <ele>558.624</ele>
        <time>2019-11-01T13:09:30Z</time>
      </trkpt>
      <trkpt lat="42.93363" lon="2.53642">
        <ele>560.457</ele>
        <time>2019-11-01T13:09:50Z</time>
      </trkpt>
      <trkpt lat="42.93343" lon="2.53566">
        <ele>560.953</ele>
        <time>2019-11-01T13:10:10Z</time>
      </trkpt>
      <trkpt lat="42.93282" lon="2.53459">
        <ele>570.725</ele>
        <time>2019-11-01T13:10:30Z</time>
      </trkpt>
      <trkpt lat="42.93211" lon="2.53472">
        <ele>569.091</ele>
        <time>2019-11-01T13:10:50Z</time>
      </trkpt>
      <trkpt lat="42.93197" lon="2.53444">
        <ele>570.44</ele>
        <time>2019-11-01T13:11:10Z</time>
      </trkpt>
      <trkpt lat="42.9314" lon="2.53493">
        <ele>577.659</ele>
        <time>2019-11-01T13:11:30Z</time>
      </trkpt>
      <trkpt lat="42.93062" lon="2.5361">
        <ele>579.103</ele>
        <time>2019-11-01T13:11:50Z</time>
      </trkpt>
      <trkpt lat="42.92959" lon="2.53605">
        <ele>582.123</ele>
        <time>2019-11-01T13:12:10Z</time>
      </trkpt>
      <trkpt lat="42.92872" lon="2.53588">
        <ele>586.308</ele>
        <time>2019-11-01T13:12:30Z</time>
      </trkpt>
      <trkpt lat="42.92806" lon="2.53588">
        <ele>589.861</ele>
        <time>2019-11-01T13:12:50Z</time>
      </trkpt>
      <trkpt lat="42.92792" lon="2.53547">
        <ele>594.827</ele>
        <time>2019-11-01T13:13:10Z</time>
      </trkpt>
      <trkpt lat="42.92749" lon="2.535">
        <ele>596.752</ele>
        <time>2019-11-01T13:13:30Z</time>
      </trkpt>
      <trkpt lat="42.92668" lon="2.53465">
        <ele>601.345</ele>
        <time>2019-11-01T13:13:50Z</time>
      </trkpt>
      <trkpt lat="42.92523" lon="2.53446">
        <ele>617.181</ele>
        <time>2019-11-01T13:14:10Z</time>
      </trkpt>
      <trkpt lat="42.92465" lon="2.53461">
        <ele>618.173</ele>
        <time>2019-11-01T13:14:30Z</time>
      </trkpt>
      <trkpt lat="42.92439" lon="2.53425">
        <ele>634.669</ele>
        <time>2019-11-01T13:14:50Z</time>
      </trkpt>
      <trkpt lat="42.92398" lon="2.53465">
        <ele>623.978</ele>
        <time>2019-11-01T13:15:10Z</time>
      </trkpt>
      <trkpt lat="42.92314" lon="2.53459">
        <ele>636.449</ele>
        <time>2019-11-01T13:15:30Z</time>
      </trkpt>
      <trkpt lat="42.92234" lon="2.53403">
        <ele>657.202</ele>
        <time>2019-11-01T13:15:50Z</time>
      </trkpt>
      <trkpt lat="42.92218" lon="2.53424">
        <ele>652.622</ele>
        <time>2019-11-01T13:16:10Z</time>
      </trkpt>
      <trkpt lat="42.92177" lon="2.53384">
        <ele>666.208</ele>
        <time>2019-11-01T13:16:30Z</time>
      </trkpt>
      <trkpt lat="42.92159" lon="2.53321">
        <ele>678.84</ele>
        <time>2019-11-01T13:16:50Z</time>
      </trkpt>
      <trkpt lat="42.92096" lon="2.53265">
        <ele>682.926</ele>
        <time>2019-11-01T13:17:10Z</time>
      </trkpt>
      <trkpt lat="42.92076" lon="2.53315">
        <ele>675.441</ele>
        <time>2019-11-01T13:17:30Z</time>
      </trkpt>
      <trkpt lat="42.9205" lon="2.53312">
        <ele>679.934</ele>
        <time>2019-11-01T13:17:50Z</time>
      </trkpt>
      <trkpt lat="42.91988" lon="2.53233">
        <ele>694.89</ele>
        <time>2019-11-01T13:18:10Z</time>
      </trkpt>
      <trkpt lat="42.91974" lon="2.53184">
        <ele>705.132</ele>
        <time>2019-11-01T13:18:30Z</time>
      </trkpt>
      <trkpt lat="42.91937" lon="2.5319">
        <ele>700.618</ele>
        <time>2019-11-01T13:18:50Z</time>
      </trkpt>
      <trkpt lat="42.91894" lon="2.53153">
        <ele>710.657</ele>
        <time>2019-11-01T13:19:10Z</time>
      </trkpt>
      <trkpt lat="42.91864" lon="2.53183">
        <ele>704.862</ele>
        <time>2019-11-01T13:19:30Z</time>
      </trkpt>
      <trkpt lat="42.91832" lon="2.53186">
        <ele>709.983</ele>
        <time>2019-11-01T13:19:50Z</time>
      </trkpt>
      <trkpt lat="42.91807" lon="2.53205">
        <ele>709.611</ele>
        <time>2019-11-01T13:20:10Z</time>
      </trkpt>
      <trkpt lat="42.91777" lon="2.53184">
        <ele>719.208</ele>
        <time>2019-11-01T13:20:30Z</time>
      </trkpt>
      <trkpt lat="42.91739" lon="2.53151">
        <ele>727.092</ele>
        <time>2019-11-01T13:20:50Z</time>
      </trkpt>
      <trkpt lat="42.91706" lon="2.53214">
        <ele>730.758</ele>
        <time>2019-11-01T13:21:10Z</time>
      </trkpt>
      <trkpt lat="42.91672" lon="2.53242">
        <ele>741.013</ele>
        <time>2019-11-01T13:21:30Z</time>
      </trkpt>
      <trkpt lat="42.91627" lon="2.53252">
        <ele>739.166</ele>
        <time>2019-11-01T13:21:50Z</time>
      </trkpt>
      <trkpt lat="42.91556" lon="2.53349">
        <ele>720.642</ele>
        <time>2019-11-01T13:22:10Z</time>
      </trkpt>
      <trkpt lat="42.9152" lon="2.53364">
        <ele>713.574</ele>
        <time>2019-11-01T13:22:30Z</time>
      </trkpt>
      <trkpt lat="42.91476" lon="2.53341">
        <ele>714.11</ele>
        <time>2019-11-01T13:22:50Z</time>
      </trkpt>
      <trkpt lat="42.9142" lon="2.53261">
        <ele>712.219</ele>
        <time>2019-11-01T13:23:10Z</time>
      </trkpt>
      <trkpt lat="42.91352" lon="2.53263">
        <ele>701.692</ele>
        <time>2019-11-01T13:23:30Z</time>
      </trkpt>
      <trkpt lat="42.9132" lon="2.53218">
        <ele>705.573</ele>
        <time>2019-11-01T13:23:50Z</time>
      </trkpt>
      <trkpt lat="42.91267" lon="2.53173">
        <ele>696.02</ele>
        <time>2019-11-01T13:24:10Z</time>
      </trkpt>
      <trkpt lat="42.91259" lon="2.5314">
        <ele>697.108</ele>
        <time>2019-11-01T13:24:30Z</time>
      </trkpt>
      <trkpt lat="42.91184" lon="2.53153">
        <ele>688.965</ele>
        <time>2019-11-01T13:24:50Z</time>
      </trkpt>
      <trkpt lat="42.91173" lon="2.53128">
        <ele>689.621</ele>
        <time>2019-11-01T13:25:10Z</time>
      </trkpt>
      <trkpt lat="42.91177" lon="2.53084">
        <ele>693.056</ele>
        <time>2019-11-01T13:25:30Z</time>
      </trkpt>
      <trkpt lat="42.91089" lon="2.52964">
        <ele>679.989</ele>
        <time>2019-11-01T13:25:50Z</time>
      </trkpt>
      <trkpt lat="42.91051" lon="2.52964">
        <ele>668.975</ele>
        <time>2019-11-01T13:26:10Z</time>
      </trkpt>
      <trkpt lat="42.91044" lon="2.52942">
        <ele>669.977</ele>
        <time>2019-11-01T13:26:30Z</time>
      </trkpt>
      <trkpt lat="42.91041" lon="2.52893">
        <ele>671.723</ele>
        <time>2019-11-01T13:26:50Z</time>
      </trkpt>
      <trkpt lat="42.90985" lon="2.52833">
        <ele>662.762</ele>
        <time>2019-11-01T13:27:10Z</time>
      </trkpt>
      <trkpt lat="42.90922" lon="2.52785">
        <ele>662.481</ele>
        <time>2019-11-01T13:27:30Z</time>
      </trkpt>
      <trkpt lat="42.90881" lon="2.52732">
        <ele>653.561</ele>
        <time>2019-11-01T13:27:50Z</time>
      </trkpt>
      <trkpt lat="42.90885" lon="2.52676">
        <ele>659.117</ele>
        <time>2019-11-01T13:28:10Z</time>
      </trkpt>
      <trkpt lat="42.90873" lon="2.52639">
        <ele>658.008</ele>
        <time>2019-11-01T13:28:30Z</time>
      </trkpt>
      <trkpt lat="42.90853" lon="2.52645">
        <ele>650.334</ele>
        <time>2019-11-01T13:28:50Z</time>
      </trkpt>
      <trkpt lat="42.90807" lon="2.5263">
        <ele>650.28</ele>
        <time>2019-11-01T13:29:10Z</time>
      </trkpt>
      <trkpt lat="42.90718" lon="2.52671">
        <ele>650.915</ele>
        <time>2019-11-01T13:29:30Z</time>
      </trkpt>
      <trkpt lat="42.90679" lon="2.52738">
        <ele>649.928</ele>
        <time>2019-11-01T13:29:50Z</time>
      </trkpt>
      <trkpt lat="42.90643" lon="2.52831">
        <ele>647.124</ele>
        <time>2019-11-01T13:30:10Z</time>
      </trkpt>
      <trkpt lat="42.90636" lon="2.52912">
        <ele>643.736</ele>
        <time>2019-11-01T13:30:30Z</time>
      </trkpt>
      <trkpt lat="42.90643" lon="2.5308">
        <ele>631.012</ele>
        <time>2019-11-01T13:30:50Z</time>
      </trkpt>
      <trkpt lat="42.90624" lon="2.53214">
        <ele>618.491</ele>
        <time>2019-11-01T13:31:10Z</time>
      </trkpt>
      <trkpt lat="42.90515" lon="2.53312">
        <ele>610.481</ele>
        <time>2019-11-01T13:31:30Z</time>
      </trkpt>
      <trkpt lat="42.90467" lon="2.53341">
        <ele>606.061</ele>
        <time>2019-11-01T13:31:50Z</time>
      </trkpt>
      <trkpt lat="42.90448" lon="2.53401">
        <ele>604.117</ele>
        <time>2019-11-01T13:32:10Z</time>
      </trkpt>
      <trkpt lat="42.90454" lon="2.53521">
        <ele>592.008</ele>
        <time>2019-11-01T13:32:30Z</time>
      </trkpt>
      <trkpt lat="42.90431" lon="2.53573">
        <ele>589.584</ele>
        <time>2019-11-01T13:32:50Z</time>
      </trkpt>
      <trkpt lat="42.90465" lon="2.5362">
        <ele>582.56</ele>
        <time>2019-11-01T13:33:10Z</time>
      </trkpt>
      <trkpt lat="42.90445" lon="2.53689">
        <ele>585.065</ele>
        <time>2019-11-01T13:33:30Z</time>
      </trkpt>
      <trkpt lat="42.90469" lon="2.53728">
        <ele>579.728</ele>
        <time>2019-11-01T13:33:50Z</time>
      </trkpt>
      <trkpt lat="42.9053" lon="2.53864">
        <ele>571.264</ele>
        <time>2019-11-01T13:34:10Z</time>
      </trkpt>
      <trkpt lat="42.90528" lon="2.53958">
        <ele>563.986</ele>
        <time>2019-11-01T13:34:30Z</time>
      </trkpt>
      <trkpt lat="42.90515" lon="2.5401">
        <ele>563.962</ele>
        <time>2019-11-01T13:34:50Z</time>
      </trkpt>
      <trkpt lat="42.90487" lon="2.54057">
        <ele>565.581</ele>
        <time>2019-11-01T13:35:10Z</time>
      </trkpt>
      <trkpt lat="42.90475" lon="2.54098">
        <ele>565.157</ele>
        <time>2019-11-01T13:35:30Z</time>
      </trkpt>
      <trkpt lat="42.9048" lon="2.54169">
        <ele>558.2</ele>
        <time>2019-11-01T13:35:50Z</time>
      </trkpt>
      <trkpt lat="42.90489" lon="2.54204">
        <ele>553.72</ele>
        <time>2019-11-01T13:36:10Z</time>
      </trkpt>
      <trkpt lat="42.90482" lon="2.54238">
        <ele>551.108</ele>
        <time>2019-11-01T13:36:30Z</time>
      </trkpt>
      <trkpt lat="42.90416" lon="2.54281">
        <ele>553.841</ele>
        <time>2019-11-01T13:36:50Z</time>
      </trkpt>
      <trkpt lat="42.90391" lon="2.5433">
        <ele>554.077</ele>
        <time>2019-11-01T13:37:10Z</time>
      </trkpt>
      <trkpt lat="42.90339" lon="2.54303">
        <ele>571.382</ele>
        <time>2019-11-01T13:37:30Z</time>
      </trkpt>
      <trkpt lat="42.90311" lon="2.54313">
        <ele>575.415</ele>
        <time>2019-11-01T13:37:50Z</time>
      </trkpt>
      <trkpt lat="42.90241" lon="2.54275">
        <ele>590.751</ele>
        <time>2019-11-01T13:38:10Z</time>
      </trkpt>
      <trkpt lat="42.90222" lon="2.54242">
        <ele>596.213</ele>
        <time>2019-11-01T13:38:30Z</time>
      </trkpt>
      <trkpt lat="42.90201" lon="2.54257">
        <ele>595.389</ele>
        <time>2019-11-01T13:38:50Z</time>
      </trkpt>
      <trkpt lat="42.90203" lon="2.54288">
        <ele>593.718</ele>
        <time>2019-11-01T13:39:10Z</time>
      </trkpt>
      <trkpt lat="42.90142" lon="2.54421">
        <ele>582.073</ele>
        <time>2019-11-01T13:39:30Z</time>
      </trkpt>
      <trkpt lat="42.9003" lon="2.54432">
        <ele>580.585</ele>
        <time>2019-11-01T13:39:50Z</time>
      </trkpt>
      <trkpt lat="42.89969" lon="2.54421">
        <ele>575.913</ele>
        <time>2019-11-01T13:40:10Z</time>
      </trkpt>
      <trkpt lat="42.89906" lon="2.54436">
        <ele>577.508</ele>
        <time>2019-11-01T13:40:30Z</time>
      </trkpt>
      <trkpt lat="42.89836" lon="2.54438">
        <ele>578.853</ele>
        <time>2019-11-01T13:40:50Z</time>
      </trkpt>
      <trkpt lat="42.89803" lon="2.54432">
        <ele>579.529</ele>
        <time>2019-11-01T13:41:10Z</time>
      </trkpt>
      <trkpt lat="42.89788" lon="2.54447">
        <ele>578.484</ele>
        <time>2019-11-01T13:41:30Z</time>
      </trkpt>
      <trkpt lat="42.89755" lon="2.5444">
        <ele>574.747</ele>
        <time>2019-11-01T13:41:50Z</time>
      </trkpt>
      <trkpt lat="42.89717" lon="2.54447">
        <ele>571.263</ele>
        <time>2019-11-01T13:42:10Z</time>
      </trkpt>
      <trkpt lat="42.89676" lon="2.54476">
        <ele>563.485</ele>
        <time>2019-11-01T13:42:30Z</time>
      </trkpt>
      <trkpt lat="42.89661" lon="2.54529">
        <ele>554.961</ele>
        <time>2019-11-01T13:42:50Z</time>
      </trkpt>
      <trkpt lat="42.8962" lon="2.54581">
        <ele>543.43</ele>
        <time>2019-11-01T13:43:10Z</time>
      </trkpt>
      <trkpt lat="42.8955" lon="2.54635">
        <ele>528.942</ele>
        <time>2019-11-01T13:43:30Z</time>
      </trkpt>
      <trkpt lat="42.89531" lon="2.54724">
        <ele>520.222</ele>
        <time>2019-11-01T13:43:50Z</time>
      </trkpt>
      <trkpt lat="42.8953" lon="2.54801">
        <ele>511.814</ele>
        <time>2019-11-01T13:44:10Z</time>
      </trkpt>
      <trkpt lat="42.89508" lon="2.54828">
        <ele>507.908</ele>
        <time>2019-11-01T13:44:30Z</time>
      </trkpt>
      <trkpt lat="42.89443" lon="2.54858">
        <ele>497.73</ele>
        <time>2019-11-01T13:44:50Z</time>
      </trkpt>
      <trkpt lat="42.89398" lon="2.54841">
        <ele>487.966</ele>
        <time>2019-11-01T13:45:10Z</time>
      </trkpt>
      <trkpt lat="42.89342" lon="2.54886">
        <ele>471.581</ele>
        <time>2019-11-01T13:45:30Z</time>
      </trkpt>
      <trkpt lat="42.89332" lon="2.55027">
        <ele>453.724</ele>
        <time>2019-11-01T13:45:50Z</time>
      </trkpt>
      <trkpt lat="42.89339" lon="2.55111">
        <ele>443.62</ele>
        <time>2019-11-01T13:46:10Z</time>
      </trkpt>
      <trkpt lat="42.8932" lon="2.55096">
        <ele>441.852</ele>
        <time>2019-11-01T13:46:30Z</time>
      </trkpt>
      <trkpt lat="42.89256" lon="2.55106">
        <ele>429.448</ele>
        <time>2019-11-01T13:46:50Z</time>
      </trkpt>
      <trkpt lat="42.89243" lon="2.55154">
        <ele>428.977</ele>
        <time>2019-11-01T13:47:10Z</time>
      </trkpt>
      <trkpt lat="42.89212" lon="2.55179">
        <ele>426.384</ele>
        <time>2019-11-01T13:47:30Z</time>
      </trkpt>
      <trkpt lat="42.8918" lon="2.55185">
        <ele>422.407</ele>
        <time>2019-11-01T13:47:50Z</time>
      </trkpt>
      <trkpt lat="42.89151" lon="2.55211">
        <ele>414.417</ele>
        <time>2019-11-01T13:48:10Z</time>
      </trkpt>
      <trkpt lat="42.8914" lon="2.55261">
        <ele>406.908</ele>
        <time>2019-11-01T13:48:30Z</time>
      </trkpt>
      <trkpt lat="42.89152" lon="2.55307">
        <ele>404.354</ele>
        <time>2019-11-01T13:48:50Z</time>
      </trkpt>
      <trkpt lat="42.8913" lon="2.55307">
        <ele>401.95</ele>
        <time>2019-11-01T13:49:10Z</time>
      </trkpt>
      <trkpt lat="42.89116" lon="2.55319">
        <ele>399.995</ele>
        <time>2019-11-01T13:49:30Z</time>
      </trkpt>
      <trkpt lat="42.8908" lon="2.55287">
        <ele>397.498</ele>
        <time>2019-11-01T13:49:50Z</time>
      </trkpt>
      <trkpt lat="42.89044" lon="2.55291">
        <ele>393.844</ele>
        <time>2019-11-01T13:50:10Z</time>
      </trkpt>
      <trkpt lat="42.89008" lon="2.55321">
        <ele>390.316</ele>
        <time>2019-11-01T13:50:30Z</time>
      </trkpt>
      <trkpt lat="42.88983" lon="2.55303">
        <ele>390.072</ele>
        <time>2019-11-01T13:50:50Z</time>
      </trkpt>
      <trkpt lat="42.88918" lon="2.55285">
        <ele>391.771</ele>
        <time>2019-11-01T13:51:10Z</time>
      </trkpt>
      <trkpt lat="42.8886" lon="2.55228">
        <ele>395.363</ele>
        <time>2019-11-01T13:51:30Z</time>
      </trkpt>
      <trkpt lat="42.88839" lon="2.5523">
        <ele>393.544</ele>
        <time>2019-11-01T13:51:50Z</time>
      </trkpt>
      <trkpt lat="42.88798" lon="2.55255">
        <ele>390.318</ele>
        <time>2019-11-01T13:52:10Z</time>
      </trkpt>
      <trkpt lat="42.88746" lon="2.55258">
        <ele>391.408</ele>
        <time>2019-11-01T13:52:30Z</time>
      </trkpt>
      <trkpt lat="42.88718" lon="2.55254">
        <ele>391.772</ele>
        <time>2019-11-01T13:52:50Z</time>
      </trkpt>
      <trkpt lat="42.88671" lon="2.5526">
        <ele>391.248</ele>
        <time>2019-11-01T13:53:10Z</time>
      </trkpt>
      <trkpt lat="42.88645" lon="2.55341">
        <ele>388.973</ele>
        <time>2019-11-01T13:53:30Z</time>
      </trkpt>
      <trkpt lat="42.88616" lon="2.55311">
        <ele>383.796</ele>
        <time>2019-11-01T13:53:50Z</time>
      </trkpt>
      <trkpt lat="42.88556" lon="2.55233">
        <ele>376.982</ele>
        <time>2019-11-01T13:54:10Z</time>
      </trkpt>
      <trkpt lat="42.8842" lon="2.55085">
        <ele>362.744</ele>
        <time>2019-11-01T13:54:30Z</time>
      </trkpt>
      <trkpt lat="42.88417" lon="2.55103">
        <ele>360.68</ele>
        <time>2019-11-01T13:54:50Z</time>
      </trkpt>
      <trkpt lat="42.88439" lon="2.55167">
        <ele>360.179</ele>
        <time>2019-11-01T13:55:10Z</time>
      </trkpt>
      <trkpt lat="42.88446" lon="2.55245">
        <ele>355.664</ele>
        <time>2019-11-01T13:55:30Z</time>
      </trkpt>
      <trkpt lat="42.88389" lon="2.55273">
        <ele>346.306</ele>
        <time>2019-11-01T13:55:50Z</time>
      </trkpt>
      <trkpt lat="42.88399" lon="2.55347">
        <ele>345.416</ele>
        <time>2019-11-01T13:56:10Z</time>
      </trkpt>
      <trkpt lat="42.88323" lon="2.55394">
        <ele>340.008</ele>
        <time>2019-11-01T13:56:30Z</time>
      </trkpt>
      <trkpt lat="42.88288" lon="2.55381">
        <ele>340.022</ele>
        <time>2019-11-01T13:56:50Z</time>
      </trkpt>
      <trkpt lat="42.88251" lon="2.55405">
        <ele>340.088</ele>
        <time>2019-11-01T13:57:10Z</time>
      </trkpt>
      <trkpt lat="42.88205" lon="2.55407">
        <ele>340.033</ele>
        <time>2019-11-01T13:57:30Z</time>
      </trkpt>
      <trkpt lat="42.88138" lon="2.55429">
        <ele>343.196</ele>
        <time>2019-11-01T13:57:50Z</time>
      </trkpt>
      <trkpt lat="42.88087" lon="2.55432">
        <ele>346.362</ele>
        <time>2019-11-01T13:58:10Z</time>
      </trkpt>
      <trkpt lat="42.88002" lon="2.55461">
        <ele>354.334</ele>
        <time>2019-11-01T13:58:30Z</time>
      </trkpt>
      <trkpt lat="42.88015" lon="2.55505">
        <ele>354.12</ele>
        <time>2019-11-01T13:58:50Z</time>
      </trkpt>
      <trkpt lat="42.88027" lon="2.55626">
        <ele>356.649</ele>
        <time>2019-11-01T13:59:10Z</time>
      </trkpt>
      <trkpt lat="42.8803" lon="2.55707">
        <ele>360.991</ele>
        <time>2019-11-01T13:59:30Z</time>
      </trkpt>
      <trkpt lat="42.88042" lon="2.55765">
        <ele>363.181</ele>
        <time>2019-11-01T13:59:50Z</time>
      </trkpt>
      <trkpt lat="42.88063" lon="2.5584">
        <ele>367.219</ele>
        <time>2019-11-01T14:00:10Z</time>
      </trkpt>
      <trkpt lat="42.88019" lon="2.55782">
        <ele>372.908</ele>
        <time>2019-11-01T14:00:30Z</time>
      </trkpt>
      <trkpt lat="42.8801" lon="2.55752">
        <ele>370.495</ele>
        <time>2019-11-01T14:00:50Z</time>
      </trkpt>
      <trkpt lat="42.87922" lon="2.5566">
        <ele>382.171</ele>
        <time>2019-11-01T14:01:10Z</time>
      </trkpt>
      <trkpt lat="42.8788" lon="2.55566">
        <ele>381.896</ele>
        <time>2019-11-01T14:01:30Z</time>
      </trkpt>
      <trkpt lat="42.87839" lon="2.55541">
        <ele>395.069</ele>
        <time>2019-11-01T14:01:50Z</time>
      </trkpt>
      <trkpt lat="42.87827" lon="2.55551">
        <ele>398.715</ele>
        <time>2019-11-01T14:02:10Z</time>
      </trkpt>
      <trkpt lat="42.87801" lon="2.55547">
        <ele>402.587</ele>
        <time>2019-11-01T14:02:30Z</time>
      </trkpt>
      <trkpt lat="42.87762" lon="2.55592">
        <ele>406.823</ele>
        <time>2019-11-01T14:02:50Z</time>
      </trkpt>
      <trkpt lat="42.87737" lon="2.55607">
        <ele>410.492</ele>
        <time>2019-11-01T14:03:10Z</time>
      </trkpt>
      <trkpt lat="42.8767" lon="2.55686">
        <ele>424.257</ele>
        <time>2019-11-01T14:03:30Z</time>
      </trkpt>
      <trkpt lat="42.87562" lon="2.55884">
        <ele>440.1</ele>
        <time>2019-11-01T14:03:50Z</time>
      </trkpt>
      <trkpt lat="42.87521" lon="2.5595">
        <ele>442.62</ele>
        <time>2019-11-01T14:04:10Z</time>
      </trkpt>
      <trkpt lat="42.87472" lon="2.55965">
        <ele>452.308</ele>
        <time>2019-11-01T14:04:30Z</time>
      </trkpt>
      <trkpt lat="42.87446" lon="2.56057">
        <ele>459.541</ele>
        <time>2019-11-01T14:04:50Z</time>
      </trkpt>
      <trkpt lat="42.87439" lon="2.56103">
        <ele>461.527</ele>
        <time>2019-11-01T14:05:10Z</time>
      </trkpt>
      <trkpt lat="42.87427" lon="2.56123">
        <ele>465.462</ele>
        <time>2019-11-01T14:05:30Z</time>
      </trkpt>
      <trkpt lat="42.87406" lon="2.5611">
        <ele>475.845</ele>
        <time>2019-11-01T14:05:50Z</time>
      </trkpt>
      <trkpt lat="42.87387" lon="2.5613">
        <ele>484.971</ele>
        <time>2019-11-01T14:06:10Z</time>
      </trkpt>
      <trkpt lat="42.87392" lon="2.56209">
        <ele>478.223</ele>
        <time>2019-11-01T14:06:30Z</time>
      </trkpt>
      <trkpt lat="42.87389" lon="2.56263">
        <ele>481.119</ele>
        <time>2019-11-01T14:06:50Z</time>
      </trkpt>
      <trkpt lat="42.87394" lon="2.56305">
        <ele>480.738</ele>
        <time>2019-11-01T14:07:10Z</time>
      </trkpt>
      <trkpt lat="42.87391" lon="2.5639">
        <ele>485.963</ele>
        <time>2019-11-01T14:07:30Z</time>
      </trkpt>
      <trkpt lat="42.8738" lon="2.56411">
        <ele>492.444</ele>
        <time>2019-11-01T14:07:50Z</time>
      </trkpt>
      <trkpt lat="42.87379" lon="2.56449">
        <ele>491.718</ele>
        <time>2019-11-01T14:08:10Z</time>
      </trkpt>
      <trkpt lat="42.8736" lon="2.5647">
        <ele>500.008</ele>
        <time>2019-11-01T14:08:30Z</time>
      </trkpt>
      <trkpt lat="42.87352" lon="2.56501">
        <ele>501.612</ele>
        <time>2019-11-01T14:08:50Z</time>
      </trkpt>
      <trkpt lat="42.87349" lon="2.56526">
        <ele>500.088</ele>
        <time>2019-11-01T14:09:10Z</time>
      </trkpt>
      <trkpt lat="42.87334" lon="2.56597">
        <ele>498.193</ele>
        <time>2019-11-01T14:09:30Z</time>
      </trkpt>
      <trkpt lat="42.87322" lon="2.56614">
        <ele>502.726</ele>
        <time>2019-11-01T14:09:50Z</time>
      </trkpt>
      <trkpt lat="42.87319" lon="2.56636">
        <ele>503.132</ele>
        <time>2019-11-01T14:10:10Z</time>
      </trkpt>
      <trkpt lat="42.87307" lon="2.56682">
        <ele>506.824</ele>
        <time>2019-11-01T14:10:30Z</time>
      </trkpt>
      <trkpt lat="42.87296" lon="2.56705">
        <ele>512.42</ele>
        <time>2019-11-01T14:10:50Z</time>
      </trkpt>
      <trkpt lat="42.873" lon="2.56727">
        <ele>510.329</ele>
        <time>2019-11-01T14:11:10Z</time>
      </trkpt>
      <trkpt lat="42.87294" lon="2.56802">
        <ele>504.759</ele>
        <time>2019-11-01T14:11:30Z</time>
      </trkpt>
      <trkpt lat="42.8728" lon="2.56838">
        <ele>506.503</ele>
        <time>2019-11-01T14:11:50Z</time>
      </trkpt>
      <trkpt lat="42.87265" lon="2.56855">
        <ele>510.623</ele>
        <time>2019-11-01T14:12:10Z</time>
      </trkpt>
      <trkpt lat="42.87249" lon="2.5689">
        <ele>507.008</ele>
        <time>2019-11-01T14:12:30Z</time>
      </trkpt>
      <trkpt lat="42.8723" lon="2.56889">
        <ele>512.191</ele>
        <time>2019-11-01T14:12:50Z</time>
      </trkpt>
      <trkpt lat="42.87208" lon="2.56911">
        <ele>504.467</ele>
        <time>2019-11-01T14:13:10Z</time>
      </trkpt>
      <trkpt lat="42.87144" lon="2.56895">
        <ele>507.192</ele>
        <time>2019-11-01T14:13:30Z</time>
      </trkpt>
      <trkpt lat="42.8712" lon="2.56872">
        <ele>514.635</ele>
        <time>2019-11-01T14:13:50Z</time>
      </trkpt>
      <trkpt lat="42.87075" lon="2.56837">
        <ele>516.221</ele>
        <time>2019-11-01T14:14:10Z</time>
      </trkpt>
      <trkpt lat="42.87068" lon="2.56809">
        <ele>521.343</ele>
        <time>2019-11-01T14:14:30Z</time>
      </trkpt>
      <trkpt lat="42.87077" lon="2.568">
        <ele>527.349</ele>
        <time>2019-11-01T14:14:50Z</time>
      </trkpt>
      <trkpt lat="42.87076" lon="2.56761">
        <ele>532.588</ele>
        <time>2019-11-01T14:15:10Z</time>
      </trkpt>
      <trkpt lat="42.87082" lon="2.56744">
        <ele>538.195</ele>
        <time>2019-11-01T14:15:30Z</time>
      </trkpt>
      <trkpt lat="42.87093" lon="2.56751">
        <ele>542.249</ele>
        <time>2019-11-01T14:15:50Z</time>
      </trkpt>
      <trkpt lat="42.87084" lon="2.56697">
        <ele>545.923</ele>
        <time>2019-11-01T14:16:10Z</time>
      </trkpt>
      <trkpt lat="42.87088" lon="2.5666">
        <ele>553.508</ele>
        <time>2019-11-01T14:16:30Z</time>
      </trkpt>
      <trkpt lat="42.87078" lon="2.56612">
        <ele>553.765</ele>
        <time>2019-11-01T14:16:50Z</time>
      </trkpt>
      <trkpt lat="42.8708" lon="2.56587">
        <ele>557.011</ele>
        <time>2019-11-01T14:17:10Z</time>
      </trkpt>
      <trkpt lat="42.87075" lon="2.56558">
        <ele>558.446</ele>
        <time>2019-11-01T14:17:30Z</time>
      </trkpt>
      <trkpt lat="42.87058" lon="2.56509">
        <ele>555.479</ele>
        <time>2019-11-01T14:17:50Z</time>
      </trkpt>
      <trkpt lat="42.8706" lon="2.56485">
        <ele>559.015</ele>
        <time>2019-11-01T14:18:10Z</time>
      </trkpt>
      <trkpt lat="42.8705" lon="2.56334">
        <ele>585.187</ele>
        <time>2019-11-01T14:18:30Z</time>
      </trkpt>
      <trkpt lat="42.87052" lon="2.56299">
        <ele>595.873</ele>
        <time>2019-11-01T14:18:50Z</time>
      </trkpt>
      <trkpt lat="42.87046" lon="2.56252">
        <ele>609.392</ele>
        <time>2019-11-01T14:19:10Z</time>
      </trkpt>
      <trkpt lat="42.87024" lon="2.56212">
        <ele>609.421</ele>
        <time>2019-11-01T14:19:30Z</time>
      </trkpt>
      <trkpt lat="42.87022" lon="2.56188">
        <ele>616.641</ele>
        <time>2019-11-01T14:19:50Z</time>
      </trkpt>
      <trkpt lat="42.86999" lon="2.56175">
        <ele>610.605</ele>
        <time>2019-11-01T14:20:10Z</time>
      </trkpt>
      <trkpt lat="42.86991" lon="2.56155">
        <ele>615.208</ele>
        <time>2019-11-01T14:20:30Z</time>
      </trkpt>
      <trkpt lat="42.86993" lon="2.5613">
        <ele>625.548</ele>
        <time>2019-11-01T14:20:50Z</time>
      </trkpt>
      <trkpt lat="42.86969" lon="2.56111">
        <ele>622.564</ele>
        <time>2019-11-01T14:21:10Z</time>
      </trkpt>
      <trkpt lat="42.86955" lon="2.56078">
        <ele>628.459</ele>
        <time>2019-11-01T14:21:30Z</time>
      </trkpt>
      <trkpt lat="42.86959" lon="2.56018">
        <ele>646.462</ele>
        <time>2019-11-01T14:21:50Z</time>
      </trkpt>
      <trkpt lat="42.86969" lon="2.56016">
        <ele>652.328</ele>
        <time>2019-11-01T14:22:10Z</time>
      </trkpt>
      <trkpt lat="42.86969" lon="2.55977">
        <ele>656.26</ele>
        <time>2019-11-01T14:22:30Z</time>
      </trkpt>
      <trkpt lat="42.86925" lon="2.55862">
        <ele>644.326</ele>
        <time>2019-11-01T14:22:50Z</time>
      </trkpt>
      <trkpt lat="42.86922" lon="2.55804">
        <ele>643.045</ele>
        <time>2019-11-01T14:23:10Z</time>
      </trkpt>
      <trkpt lat="42.86898" lon="2.55858">
        <ele>633.175</ele>
        <time>2019-11-01T14:23:30Z</time>
      </trkpt>
      <trkpt lat="42.86894" lon="2.5591">
        <ele>627.628</ele>
        <time>2019-11-01T14:23:50Z</time>
      </trkpt>
      <trkpt lat="42.86876" lon="2.55858">
        <ele>623.42</ele>
        <time>2019-11-01T14:24:10Z</time>
      </trkpt>
      <trkpt lat="42.86878" lon="2.55816">
        <ele>624.008</ele>
        <time>2019-11-01T14:24:30Z</time>
      </trkpt>
      <trkpt lat="42.86864" lon="2.55756">
        <ele>613.093</ele>
        <time>2019-11-01T14:24:50Z</time>
      </trkpt>
      <trkpt lat="42.86866" lon="2.55644">
        <ele>604.399</ele>
        <time>2019-11-01T14:25:10Z</time>
      </trkpt>
      <trkpt lat="42.86822" lon="2.5558">
        <ele>586.894</ele>
        <time>2019-11-01T14:25:30Z</time>
      </trkpt>
      <trkpt lat="42.86785" lon="2.55488">
        <ele>581.187</ele>
        <time>2019-11-01T14:25:50Z</time>
      </trkpt>
      <trkpt lat="42.8675" lon="2.55431">
        <ele>571.833</ele>
        <time>2019-11-01T14:26:10Z</time>
      </trkpt>
      <trkpt lat="42.86665" lon="2.55379">
        <ele>547.585</ele>
        <time>2019-11-01T14:26:30Z</time>
      </trkpt>
      <trkpt lat="42.86562" lon="2.55093">
        <ele>530.941</ele>
        <time>2019-11-01T14:26:50Z</time>
      </trkpt>
      <trkpt lat="42.86531" lon="2.54941">
        <ele>530.68</ele>
        <time>2019-11-01T14:27:10Z</time>
      </trkpt>
      <trkpt lat="42.86543" lon="2.54877">
        <ele>541.381</ele>
        <time>2019-11-01T14:27:30Z</time>
      </trkpt>
      <trkpt lat="42.8654" lon="2.54755">
        <ele>552.961</ele>
        <time>2019-11-01T14:27:50Z</time>
      </trkpt>
      <trkpt lat="42.8652" lon="2.54681">
        <ele>559.017</ele>
        <time>2019-11-01T14:28:10Z</time>
      </trkpt>
      <trkpt lat="42.86505" lon="2.54649">
        <ele>562.608</ele>
        <time>2019-11-01T14:28:30Z</time>
      </trkpt>
      <trkpt lat="42.86477" lon="2.54635">
        <ele>562.244</ele>
        <time>2019-11-01T14:28:50Z</time>
      </trkpt>
      <trkpt lat="42.86443" lon="2.54639">
        <ele>568.83</ele>
        <time>2019-11-01T14:29:10Z</time>
      </trkpt>
      <trkpt lat="42.86402" lon="2.54539">
        <ele>564.625</ele>
        <time>2019-11-01T14:29:30Z</time>
      </trkpt>
      <trkpt lat="42.86389" lon="2.54472">
        <ele>561.068</ele>
        <time>2019-11-01T14:29:50Z</time>
      </trkpt>
      <trkpt lat="42.86368" lon="2.54434">
        <ele>559.094</ele>
        <time>2019-11-01T14:30:10Z</time>
      </trkpt>
      <trkpt lat="42.86364" lon="2.54346">
        <ele>564.466</ele>
        <time>2019-11-01T14:30:30Z</time>
      </trkpt>
      <trkpt lat="42.86318" lon="2.5429">
        <ele>560.312</ele>
        <time>2019-11-01T14:30:50Z</time>
      </trkpt>
      <trkpt lat="42.8628" lon="2.5419">
        <ele>564.371</ele>
        <time>2019-11-01T14:31:10Z</time>
      </trkpt>
      <trkpt lat="42.86244" lon="2.54134">
        <ele>563.923</ele>
        <time>2019-11-01T14:31:30Z</time>
      </trkpt>
      <trkpt lat="42.86236" lon="2.54102">
        <ele>568.283</ele>
        <time>2019-11-01T14:31:50Z</time>
      </trkpt>
      <trkpt lat="42.86205" lon="2.54072">
        <ele>567.811</ele>
        <time>2019-11-01T14:32:10Z</time>
      </trkpt>
      <trkpt lat="42.86192" lon="2.54036">
        <ele>571.308</ele>
        <time>2019-11-01T14:32:30Z</time>
      </trkpt>
      <trkpt lat="42.86183" lon="2.53976">
        <ele>574.878</ele>
        <time>2019-11-01T14:32:50Z</time>
      </trkpt>
      <trkpt lat="42.86163" lon="2.53958">
        <ele>569.144</ele>
        <time>2019-11-01T14:33:10Z</time>
      </trkpt>
      <trkpt lat="42.86153" lon="2.53924">
        <ele>572.139</ele>
        <time>2019-11-01T14:33:30Z</time>
      </trkpt>
      <trkpt lat="42.86116" lon="2.53918">
        <ele>566.352</ele>
        <time>2019-11-01T14:33:50Z</time>
      </trkpt>
      <trkpt lat="42.86104" lon="2.5388">
        <ele>574.288</ele>
        <time>2019-11-01T14:34:10Z</time>
      </trkpt>
      <trkpt lat="42.86084" lon="2.53862">
        <ele>573.88</ele>
        <time>2019-11-01T14:34:30Z</time>
      </trkpt>
      <trkpt lat="42.86038" lon="2.53742">
        <ele>584.056</ele>
        <time>2019-11-01T14:34:50Z</time>
      </trkpt>
      <trkpt lat="42.85991" lon="2.53654">
        <ele>587.915</ele>
        <time>2019-11-01T14:35:10Z</time>
      </trkpt>
      <trkpt lat="42.85981" lon="2.53493">
        <ele>593.543</ele>
        <time>2019-11-01T14:35:30Z</time>
      </trkpt>
      <trkpt lat="42.86015" lon="2.53395">
        <ele>593.064</ele>
        <time>2019-11-01T14:35:50Z</time>
      </trkpt>
      <trkpt lat="42.85988" lon="2.53347">
        <ele>581.01</ele>
        <time>2019-11-01T14:36:10Z</time>
      </trkpt>
      <trkpt lat="42.85937" lon="2.53301">
        <ele>573.008</ele>
        <time>2019-11-01T14:36:30Z</time>
      </trkpt>
      <trkpt lat="42.85815" lon="2.53127">
        <ele>574.31</ele>
        <time>2019-11-01T14:36:50Z</time>
      </trkpt>
      <trkpt lat="42.85844" lon="2.53069">
        <ele>579.336</ele>
        <time>2019-11-01T14:37:10Z</time>
      </trkpt>
      <trkpt lat="42.85817" lon="2.53037">
        <ele>572.751</ele>
        <time>2019-11-01T14:37:30Z</time>
      </trkpt>
      <trkpt lat="42.85771" lon="2.52915">
        <ele>573.454</ele>
        <time>2019-11-01T14:37:50Z</time>
      </trkpt>
      <trkpt lat="42.85705" lon="2.52701">
        <ele>585.33</ele>
        <time>2019-11-01T14:38:10Z</time>
      </trkpt>
      <trkpt lat="42.85664" lon="2.52631">
        <ele>585.742</ele>
        <time>2019-11-01T14:38:30Z</time>
      </trkpt>
      <trkpt lat="42.85614" lon="2.52631">
        <ele>581.848</ele>
        <time>2019-11-01T14:38:50Z</time>
      </trkpt>
      <trkpt lat="42.85526" lon="2.52709">
        <ele>587.397</ele>
        <time>2019-11-01T14:39:10Z</time>
      </trkpt>
      <trkpt lat="42.85479" lon="2.52773">
        <ele>588.814</ele>
        <time>2019-11-01T14:39:30Z</time>
      </trkpt>
      <trkpt lat="42.85416" lon="2.52823">
        <ele>589.954</ele>
        <time>2019-11-01T14:39:50Z</time>
      </trkpt>
      <trkpt lat="42.85382" lon="2.52799">
        <ele>581.709</ele>
        <time>2019-11-01T14:40:10Z</time>
      </trkpt>
      <trkpt lat="42.853" lon="2.52851">
        <ele>579.308</ele>
        <time>2019-11-01T14:40:30Z</time>
      </trkpt>
      <trkpt lat="42.85256" lon="2.52907">
        <ele>571.297</ele>
        <time>2019-11-01T14:40:50Z</time>
      </trkpt>
      <trkpt lat="42.85128" lon="2.52707">
        <ele>579.963</ele>
        <time>2019-11-01T14:41:10Z</time>
      </trkpt>
      <trkpt lat="42.85077" lon="2.52717">
        <ele>589.628</ele>
        <time>2019-11-01T14:41:30Z</time>
      </trkpt>
      <trkpt lat="42.85018" lon="2.52681">
        <ele>596.021</ele>
        <time>2019-11-01T14:41:50Z</time>
      </trkpt>
      <trkpt lat="42.84993" lon="2.52649">
        <ele>594.537</ele>
        <time>2019-11-01T14:42:10Z</time>
      </trkpt>
      <trkpt lat="42.84926" lon="2.52663">
        <ele>610.999</ele>
        <time>2019-11-01T14:42:30Z</time>
      </trkpt>
      <trkpt lat="42.84906" lon="2.52685">
        <ele>616.585</ele>
        <time>2019-11-01T14:42:50Z</time>
      </trkpt>
      <trkpt lat="42.84899" lon="2.5271">
        <ele>622.074</ele>
        <time>2019-11-01T14:43:10Z</time>
      </trkpt>
      <trkpt lat="42.84866" lon="2.52749">
        <ele>627.225</ele>
        <time>2019-11-01T14:43:30Z</time>
      </trkpt>
      <trkpt lat="42.84868" lon="2.5277">
        <ele>631.526</ele>
        <time>2019-11-01T14:43:50Z</time>
      </trkpt>
      <trkpt lat="42.84843" lon="2.5277">
        <ele>636.908</ele>
        <time>2019-11-01T14:44:10Z</time>
      </trkpt>
      <trkpt lat="42.84829" lon="2.52752">
        <ele>636.808</ele>
        <time>2019-11-01T14:44:30Z</time>
      </trkpt>
      <trkpt lat="42.84837" lon="2.52731">
        <ele>635.328</ele>
        <time>2019-11-01T14:44:50Z</time>
      </trkpt>
      <trkpt lat="42.84856" lon="2.52711">
        <ele>629.124</ele>
        <time>2019-11-01T14:45:10Z</time>
      </trkpt>
      <trkpt lat="42.84859" lon="2.52653">
        <ele>636.359</ele>
        <time>2019-11-01T14:45:30Z</time>
      </trkpt>
      <trkpt lat="42.84868" lon="2.52622">
        <ele>634.752</ele>
        <time>2019-11-01T14:45:50Z</time>
      </trkpt>
      <trkpt lat="42.84864" lon="2.5259">
        <ele>644.488</ele>
        <time>2019-11-01T14:46:10Z</time>
      </trkpt>
      <trkpt lat="42.84866" lon="2.52551">
        <ele>652.13</ele>
        <time>2019-11-01T14:46:30Z</time>
      </trkpt>
      <trkpt lat="42.84899" lon="2.52527">
        <ele>640.446</ele>
        <time>2019-11-01T14:46:50Z</time>
      </trkpt>
      <trkpt lat="42.84919" lon="2.52479">
        <ele>647.685</ele>
        <time>2019-11-01T14:47:10Z</time>
      </trkpt>
      <trkpt lat="42.84908" lon="2.52418">
        <ele>659.941</ele>
        <time>2019-11-01T14:47:30Z</time>
      </trkpt>
      <trkpt lat="42.84889" lon="2.52357">
        <ele>660.081</ele>
        <time>2019-11-01T14:47:50Z</time>
      </trkpt>
      <trkpt lat="42.84852" lon="2.52294">
        <ele>659.909</ele>
        <time>2019-11-01T14:48:10Z</time>
      </trkpt>
      <trkpt lat="42.84823" lon="2.52163">
        <ele>655.008</ele>
        <time>2019-11-01T14:48:30Z</time>
      </trkpt>
      <trkpt lat="42.84814" lon="2.51947">
        <ele>650.05</ele>
        <time>2019-11-01T14:48:50Z</time>
      </trkpt>
      <trkpt lat="42.84798" lon="2.51904">
        <ele>649.796</ele>
        <time>2019-11-01T14:49:10Z</time>
      </trkpt>
      <trkpt lat="42.84797" lon="2.51865">
        <ele>649.481</ele>
        <time>2019-11-01T14:49:30Z</time>
      </trkpt>
      <trkpt lat="42.84772" lon="2.51805">
        <ele>646.824</ele>
        <time>2019-11-01T14:49:50Z</time>
      </trkpt>
      <trkpt lat="42.84608" lon="2.51531">
        <ele>620.91</ele>
        <time>2019-11-01T14:50:10Z</time>
      </trkpt>
      <trkpt lat="42.84554" lon="2.51474">
        <ele>612.122</ele>
        <time>2019-11-01T14:50:30Z</time>
      </trkpt>
      <trkpt lat="42.84544" lon="2.51446">
        <ele>607.638</ele>
        <time>2019-11-01T14:50:50Z</time>
      </trkpt>
      <trkpt lat="42.84523" lon="2.5142">
        <ele>601.957</ele>
        <time>2019-11-01T14:51:10Z</time>
      </trkpt>
      <trkpt lat="42.84508" lon="2.51383">
        <ele>593.819</ele>
        <time>2019-11-01T14:51:30Z</time>
      </trkpt>
      <trkpt lat="42.84473" lon="2.51361">
        <ele>587.809</ele>
        <time>2019-11-01T14:51:50Z</time>
      </trkpt>
      <trkpt lat="42.84481" lon="2.51348">
        <ele>584.619</ele>
        <time>2019-11-01T14:52:10Z</time>
      </trkpt>
      <trkpt lat="42.84473" lon="2.51327">
        <ele>579.408</ele>
        <time>2019-11-01T14:52:30Z</time>
      </trkpt>
      <trkpt lat="42.84434" lon="2.51325">
        <ele>575.797</ele>
        <time>2019-11-01T14:52:50Z</time>
      </trkpt>
      <trkpt lat="42.84427" lon="2.51304">
        <ele>569.763</ele>
        <time>2019-11-01T14:53:10Z</time>
      </trkpt>
      <trkpt lat="42.84407" lon="2.51291">
        <ele>566.978</ele>
        <time>2019-11-01T14:53:30Z</time>
      </trkpt>
      <trkpt lat="42.84397" lon="2.5123">
        <ele>552.461</ele>
        <time>2019-11-01T14:53:50Z</time>
      </trkpt>
      <trkpt lat="42.84386" lon="2.51206">
        <ele>548.567</ele>
        <time>2019-11-01T14:54:10Z</time>
      </trkpt>
      <trkpt lat="42.84383" lon="2.51181">
        <ele>547.529</ele>
        <time>2019-11-01T14:54:30Z</time>
      </trkpt>
      <trkpt lat="42.84359" lon="2.5114">
        <ele>542.315</ele>
        <time>2019-11-01T14:54:50Z</time>
      </trkpt>
      <trkpt lat="42.84324" lon="2.51128">
        <ele>534.834</ele>
        <time>2019-11-01T14:55:10Z</time>
      </trkpt>
      <trkpt lat="42.8429" lon="2.51083">
        <ele>527.544</ele>
        <time>2019-11-01T14:55:30Z</time>
      </trkpt>
      <trkpt lat="42.84249" lon="2.50977">
        <ele>518.605</ele>
        <time>2019-11-01T14:55:50Z</time>
      </trkpt>
      <trkpt lat="42.8422" lon="2.50952">
        <ele>511.015</ele>
        <time>2019-11-01T14:56:10Z</time>
      </trkpt>
      <trkpt lat="42.84188" lon="2.50947">
        <ele>503.808</ele>
        <time>2019-11-01T14:56:30Z</time>
      </trkpt>
      <trkpt lat="42.842" lon="2.50973">
        <ele>501.08</ele>
        <time>2019-11-01T14:56:50Z</time>
      </trkpt>
      <trkpt lat="42.84168" lon="2.50988">
        <ele>500.636</ele>
        <time>2019-11-01T14:57:10Z</time>
      </trkpt>
      <trkpt lat="42.84142" lon="2.51012">
        <ele>500.991</ele>
        <time>2019-11-01T14:57:30Z</time>
      </trkpt>
      <trkpt lat="42.84098" lon="2.51019">
        <ele>499.284</ele>
        <time>2019-11-01T14:57:50Z</time>
      </trkpt>
      <trkpt lat="42.84059" lon="2.50998">
        <ele>493.03</ele>
        <time>2019-11-01T14:58:10Z</time>
      </trkpt>
      <trkpt lat="42.84028" lon="2.50959">
        <ele>487.082</ele>
        <time>2019-11-01T14:58:30Z</time>
      </trkpt>
      <trkpt lat="42.84005" lon="2.50835">
        <ele>475.918</ele>
        <time>2019-11-01T14:58:50Z</time>
      </trkpt>
      <trkpt lat="42.83989" lon="2.5067">
        <ele>463.437</ele>
        <time>2019-11-01T14:59:10Z</time>
      </trkpt>
      <trkpt lat="42.83986" lon="2.50619">
        <ele>460.016</ele>
        <time>2019-11-01T14:59:30Z</time>
      </trkpt>
      <trkpt lat="42.83941" lon="2.50562">
        <ele>454.876</ele>
        <time>2019-11-01T14:59:50Z</time>
      </trkpt>
      <trkpt lat="42.83926" lon="2.50581">
        <ele>450.813</ele>
        <time>2019-11-01T15:00:10Z</time>
      </trkpt>
      <trkpt lat="42.83918" lon="2.5064">
        <ele>451.808</ele>
        <time>2019-11-01T15:00:30Z</time>
      </trkpt>
      <trkpt lat="42.8391" lon="2.50615">
        <ele>444.047</ele>
        <time>2019-11-01T15:00:50Z</time>
      </trkpt>
      <trkpt lat="42.83872" lon="2.50681">
        <ele>428.183</ele>
        <time>2019-11-01T15:01:10Z</time>
      </trkpt>
      <trkpt lat="42.83871" lon="2.50735">
        <ele>421.078</ele>
        <time>2019-11-01T15:01:30Z</time>
      </trkpt>
      <trkpt lat="42.83834" lon="2.50697">
        <ele>413.751</ele>
        <time>2019-11-01T15:01:50Z</time>
      </trkpt>
      <trkpt lat="42.83826" lon="2.50627">
        <ele>406.897</ele>
        <time>2019-11-01T15:02:10Z</time>
      </trkpt>
      <trkpt lat="42.83834" lon="2.50598">
        <ele>397.229</ele>
        <time>2019-11-01T15:02:30Z</time>
      </trkpt>
      <trkpt lat="42.83816" lon="2.50578">
        <ele>395.725</ele>
        <time>2019-11-01T15:02:50Z</time>
      </trkpt>
      <trkpt lat="42.83814" lon="2.50499">
        <ele>374.284</ele>
        <time>2019-11-01T15:03:10Z</time>
      </trkpt>
      <trkpt lat="42.83779" lon="2.50412">
        <ele>363.943</ele>
        <time>2019-11-01T15:03:30Z</time>
      </trkpt>
      <trkpt lat="42.83781" lon="2.50367">
        <ele>357.064</ele>
        <time>2019-11-01T15:03:50Z</time>
      </trkpt>
      <trkpt lat="42.83772" lon="2.5032">
        <ele>356.41</ele>
        <time>2019-11-01T15:04:10Z</time>
      </trkpt>
      <trkpt lat="42.83769" lon="2.50181">
        <ele>345.608</ele>
        <time>2019-11-01T15:04:30Z</time>
      </trkpt>
      <trkpt lat="42.83752" lon="2.50145">
        <ele>345.18</ele>
        <time>2019-11-01T15:04:50Z</time>
      </trkpt>
      <trkpt lat="42.83693" lon="2.50091">
        <ele>340.716</ele>
        <time>2019-11-01T15:05:10Z</time>
      </trkpt>
      <trkpt lat="42.83629" lon="2.5">
        <ele>332.891</ele>
        <time>2019-11-01T15:05:30Z</time>
      </trkpt>
      <trkpt lat="42.83557" lon="2.49966">
        <ele>323.944</ele>
        <time>2019-11-01T15:05:50Z</time>
      </trkpt>
      <trkpt lat="42.83494" lon="2.49956">
        <ele>320.03</ele>
        <time>2019-11-01T15:06:10Z</time>
      </trkpt>
      <trkpt lat="42.83469" lon="2.49927">
        <ele>317.352</ele>
        <time>2019-11-01T15:06:30Z</time>
      </trkpt>
      <trkpt lat="42.83439" lon="2.49903">
        <ele>319.478</ele>
        <time>2019-11-01T15:06:50Z</time>
      </trkpt>
      <trkpt lat="42.83414" lon="2.49895">
        <ele>318.297</ele>
        <time>2019-11-01T15:07:10Z</time>
      </trkpt>
      <trkpt lat="42.83396" lon="2.49859">
        <ele>325.077</ele>
        <time>2019-11-01T15:07:30Z</time>
      </trkpt>
      <trkpt lat="42.83375" lon="2.49874">
        <ele>321.961</ele>
        <time>2019-11-01T15:07:50Z</time>
      </trkpt>
      <trkpt lat="42.83357" lon="2.49873">
        <ele>323.027</ele>
        <time>2019-11-01T15:08:10Z</time>
      </trkpt>
      <trkpt lat="42.83346" lon="2.49853">
        <ele>327.108</ele>
        <time>2019-11-01T15:08:30Z</time>
      </trkpt>
      <trkpt lat="42.83275" lon="2.4986">
        <ele>331.593</ele>
        <time>2019-11-01T15:08:50Z</time>
      </trkpt>
      <trkpt lat="42.83249" lon="2.49874">
        <ele>331.259</ele>
        <time>2019-11-01T15:09:10Z</time>
      </trkpt>
      <trkpt lat="42.83223" lon="2.49874">
        <ele>333.424</ele>
        <time>2019-11-01T15:09:30Z</time>
      </trkpt>
      <trkpt lat="42.83212" lon="2.49818">
        <ele>334.187</ele>
        <time>2019-11-01T15:09:50Z</time>
      </trkpt>
      <trkpt lat="42.83199" lon="2.49758">
        <ele>330.033</ele>
        <time>2019-11-01T15:10:10Z</time>
      </trkpt>
      <trkpt lat="42.83182" lon="2.49731">
        <ele>324.225</ele>
        <time>2019-11-01T15:10:30Z</time>
      </trkpt>
      <trkpt lat="42.83186" lon="2.49702">
        <ele>322.581</ele>
        <time>2019-11-01T15:10:50Z</time>
      </trkpt>
      <trkpt lat="42.83177" lon="2.49657">
        <ele>323.12</ele>
        <time>2019-11-01T15:11:10Z</time>
      </trkpt>
      <trkpt lat="42.83217" lon="2.49621">
        <ele>329.467</ele>
        <time>2019-11-01T15:11:30Z</time>
      </trkpt>
      <trkpt lat="42.83262" lon="2.49529">
        <ele>338.181</ele>
        <time>2019-11-01T15:11:50Z</time>
      </trkpt>
      <trkpt lat="42.83317" lon="2.49447">
        <ele>341.519</ele>
        <time>2019-11-01T15:12:10Z</time>
      </trkpt>
      <trkpt lat="42.83342" lon="2.49433">
        <ele>344.608</ele>
        <time>2019-11-01T15:12:30Z</time>
      </trkpt>
      <trkpt lat="42.83364" lon="2.49345">
        <ele>345.782</ele>
        <time>2019-11-01T15:12:50Z</time>
      </trkpt>
      <trkpt lat="42.83393" lon="2.49317">
        <ele>351.978</ele>
        <time>2019-11-01T15:13:10Z</time>
      </trkpt>
      <trkpt lat="42.83409" lon="2.49253">
        <ele>353.893</ele>
        <time>2019-11-01T15:13:30Z</time>
      </trkpt>
      <trkpt lat="42.83442" lon="2.49205">
        <ele>357.796</ele>
        <time>2019-11-01T15:13:50Z</time>
      </trkpt>
      <trkpt lat="42.83484" lon="2.49191">
        <ele>364.952</ele>
        <time>2019-11-01T15:14:10Z</time>
      </trkpt>
      <trkpt lat="42.83531" lon="2.49211">
        <ele>374.124</ele>
        <time>2019-11-01T15:14:30Z</time>
      </trkpt>
      <trkpt lat="42.83572" lon="2.49245">
        <ele>374.33</ele>
        <time>2019-11-01T15:14:50Z</time>
      </trkpt>
      <trkpt lat="42.83594" lon="2.49229">
        <ele>367.929</ele>
        <time>2019-11-01T15:15:10Z</time>
      </trkpt>
      <trkpt lat="42.83607" lon="2.49193">
        <ele>369.435</ele>
        <time>2019-11-01T15:15:30Z</time>
      </trkpt>
      <trkpt lat="42.83575" lon="2.49066">
        <ele>379.986</ele>
        <time>2019-11-01T15:15:50Z</time>
      </trkpt>
      <trkpt lat="42.83613" lon="2.48961">
        <ele>381.114</ele>
        <time>2019-11-01T15:16:10Z</time>
      </trkpt>
      <trkpt lat="42.8361" lon="2.48864">
        <ele>376.408</ele>
        <time>2019-11-01T15:16:30Z</time>
      </trkpt>
      <trkpt lat="42.83579" lon="2.48737">
        <ele>378.149</ele>
        <time>2019-11-01T15:16:50Z</time>
      </trkpt>
      <trkpt lat="42.83515" lon="2.48595">
        <ele>380.715</ele>
        <time>2019-11-01T15:17:10Z</time>
      </trkpt>
      <trkpt lat="42.83528" lon="2.48507">
        <ele>380.93</ele>
        <time>2019-11-01T15:17:30Z</time>
      </trkpt>
      <trkpt lat="42.83506" lon="2.48442">
        <ele>383.513</ele>
        <time>2019-11-01T15:17:50Z</time>
      </trkpt>
      <trkpt lat="42.83423" lon="2.48352">
        <ele>383.489</ele>
        <time>2019-11-01T15:18:10Z</time>
      </trkpt>
      <trkpt lat="42.83398" lon="2.4829">
        <ele>385.981</ele>
        <time>2019-11-01T15:18:30Z</time>
      </trkpt>
      <trkpt lat="42.8339" lon="2.48214">
        <ele>385.427</ele>
        <time>2020-12-27T21:06:55Z</time>
      </trkpt>
      <trkpt lat="42.83376" lon="2.48235">
        <ele>378.586</ele>
        <time>2020-12-27T21:07:15Z</time>
      </trkpt>
      <trkpt lat="42.83371" lon="2.482">
        <ele>373.732</ele>
        <time>2020-12-27T21:07:35Z</time>
      </trkpt>
      <trkpt lat="42.83355" lon="2.48233">
        <ele>366.892</ele>
        <time>2020-12-27T21:07:55Z</time>
      </trkpt>
      <trkpt lat="42.83357" lon="2.48327">
        <ele>357.011</ele>
        <time>2020-12-27T21:08:15Z</time>
      </trkpt>
      <trkpt lat="42.83336" lon="2.48291">
        <ele>351.708</ele>
        <time>2020-12-27T21:08:35Z</time>
      </trkpt>
      <trkpt lat="42.83334" lon="2.48326">
        <ele>346.329</ele>
        <time>2020-12-27T21:08:55Z</time>
      </trkpt>
      <trkpt lat="42.83307" lon="2.48329">
        <ele>334.515</ele>
        <time>2020-12-27T21:09:15Z</time>
      </trkpt>
      <trkpt lat="42.83298" lon="2.4835">
        <ele>327.62</ele>
        <time>2020-12-27T21:09:35Z</time>
      </trkpt>
      <trkpt lat="42.83281" lon="2.4834">
        <ele>322.613</ele>
        <time>2020-12-27T21:09:55Z</time>
      </trkpt>
      <trkpt lat="42.83279" lon="2.48403">
        <ele>312.219</ele>
        <time>2020-12-27T21:10:15Z</time>
      </trkpt>
      <trkpt lat="42.83233" lon="2.48413">
        <ele>300.261</ele>
        <time>2020-12-27T21:10:35Z</time>
      </trkpt>
      <trkpt lat="42.83207" lon="2.48407">
        <ele>297.037</ele>
        <time>2020-12-27T21:10:55Z</time>
      </trkpt>
      <trkpt lat="42.83151" lon="2.48426">
        <ele>288.956</ele>
        <time>2020-12-27T21:11:15Z</time>
      </trkpt>
      <trkpt lat="42.83137" lon="2.48449">
        <ele>286.655</ele>
        <time>2020-12-27T21:11:35Z</time>
      </trkpt>
      <trkpt lat="42.83038" lon="2.48502">
        <ele>276.307</ele>
        <time>2020-12-27T21:11:55Z</time>
      </trkpt>
      <trkpt lat="42.83017" lon="2.48519">
        <ele>276.317</ele>
        <time>2020-12-27T21:12:15Z</time>
      </trkpt>
      <trkpt lat="42.82983" lon="2.48523">
        <ele>274.608</ele>
        <time>2020-12-27T21:12:35Z</time>
      </trkpt>
      <trkpt lat="42.82949" lon="2.48568">
        <ele>277.671</ele>
        <time>2020-12-27T21:12:55Z</time>
      </trkpt>
      <trkpt lat="42.82898" lon="2.48592">
        <ele>279.227</ele>
        <time>2020-12-27T21:13:15Z</time>
      </trkpt>
      <trkpt lat="42.82832" lon="2.48607">
        <ele>277.452</ele>
        <time>2020-12-27T21:13:35Z</time>
      </trkpt>
      <trkpt lat="42.82752" lon="2.48679">
        <ele>271.265</ele>
        <time>2020-12-27T21:13:55Z</time>
      </trkpt>
      <trkpt lat="42.82716" lon="2.4876">
        <ele>272.521</ele>
        <time>2020-12-27T21:14:15Z</time>
      </trkpt>
      <trkpt lat="42.82715" lon="2.4885">
        <ele>275.373</ele>
        <time>2020-12-27T21:14:35Z</time>
      </trkpt>
      <trkpt lat="42.82686" lon="2.4893">
        <ele>272.569</ele>
        <time>2020-12-27T21:14:55Z</time>
      </trkpt>
      <trkpt lat="42.82654" lon="2.48965">
        <ele>269.048</ele>
        <time>2020-12-27T21:15:15Z</time>
      </trkpt>
      <trkpt lat="42.82644" lon="2.49084">
        <ele>269.138</ele>
        <time>2020-12-27T21:15:35Z</time>
      </trkpt>
      <trkpt lat="42.82593" lon="2.49195">
        <ele>266.47</ele>
        <time>2020-12-27T21:15:55Z</time>
      </trkpt>
      <trkpt lat="42.82612" lon="2.49241">
        <ele>268.217</ele>
        <time>2020-12-27T21:16:15Z</time>
      </trkpt>
      <trkpt lat="42.82514" lon="2.49349">
        <ele>274.308</ele>
        <time>2020-12-27T21:16:35Z</time>
      </trkpt>
      <trkpt lat="42.82443" lon="2.49362">
        <ele>272.079</ele>
        <time>2020-12-27T21:16:55Z</time>
      </trkpt>
      <trkpt lat="42.82408" lon="2.49333">
        <ele>264.915</ele>
        <time>2020-12-27T21:17:15Z</time>
      </trkpt>
      <trkpt lat="42.82372" lon="2.49342">
        <ele>265.84</ele>
        <time>2020-12-27T21:17:35Z</time>
      </trkpt>
      <trkpt lat="42.82344" lon="2.49366">
        <ele>268.793</ele>
        <time>2020-12-27T21:17:55Z</time>
      </trkpt>
      <trkpt lat="42.82302" lon="2.49342">
        <ele>264.939</ele>
        <time>2020-12-27T21:18:15Z</time>
      </trkpt>
      <trkpt lat="42.82251" lon="2.49348">
        <ele>265.041</ele>
        <time>2020-12-27T21:18:35Z</time>
      </trkpt>
      <trkpt lat="42.82205" lon="2.49327">
        <ele>263.197</ele>
        <time>2020-12-27T21:18:55Z</time>
      </trkpt>
      <trkpt lat="42.8211" lon="2.49383">
        <ele>266.316</ele>
        <time>2020-12-27T21:19:15Z</time>
      </trkpt>
      <trkpt lat="42.82049" lon="2.49398">
        <ele>268.521</ele>
        <time>2020-12-27T21:19:35Z</time>
      </trkpt>
      <trkpt lat="42.81986" lon="2.49443">
        <ele>270.241</ele>
        <time>2020-12-27T21:19:55Z</time>
      </trkpt>
      <trkpt lat="42.81939" lon="2.49523">
        <ele>270.605</ele>
        <time>2020-12-27T21:20:15Z</time>
      </trkpt>
      <trkpt lat="42.81827" lon="2.49613">
        <ele>271.708</ele>
        <time>2020-12-27T21:20:35Z</time>
      </trkpt>
      <trkpt lat="42.81691" lon="2.4988">
        <ele>262.848</ele>
        <time>2020-12-27T21:20:55Z</time>
      </trkpt>
      <trkpt lat="42.81705" lon="2.49951">
        <ele>263.224</ele>
        <time>2020-12-27T21:21:15Z</time>
      </trkpt>
      <trkpt lat="42.81637" lon="2.50003">
        <ele>261.849</ele>
        <time>2020-12-27T21:21:35Z</time>
      </trkpt>
      <trkpt lat="42.81425" lon="2.5014">
        <ele>259.632</ele>
        <time>2020-12-27T21:21:55Z</time>
      </trkpt>
      <trkpt lat="42.81389" lon="2.50188">
        <ele>260.328</ele>
        <time>2020-12-27T21:22:15Z</time>
      </trkpt>
      <trkpt lat="42.81344" lon="2.50201">
        <ele>257.95</ele>
        <time>2020-12-27T21:22:35Z</time>
      </trkpt>
      <trkpt lat="42.8132" lon="2.50241">
        <ele>259.296</ele>
        <time>2020-12-27T21:22:55Z</time>
      </trkpt>
      <trkpt lat="42.81261" lon="2.50222">
        <ele>256.835</ele>
        <time>2020-12-27T21:23:15Z</time>
      </trkpt>
      <trkpt lat="42.81221" lon="2.50321">
        <ele>263.163</ele>
        <time>2020-12-27T21:23:35Z</time>
      </trkpt>
      <trkpt lat="42.8115" lon="2.50323">
        <ele>260.044</ele>
        <time>2020-12-27T21:23:55Z</time>
      </trkpt>
      <trkpt lat="42.811" lon="2.50392">
        <ele>263.018</ele>
        <time>2020-12-27T21:24:15Z</time>
      </trkpt>
      <trkpt lat="42.80982" lon="2.50435">
        <ele>263.508</ele>
        <time>2020-12-27T21:24:35Z</time>
      </trkpt>
      <trkpt lat="42.80933" lon="2.50312">
        <ele>258.192</ele>
        <time>2020-12-27T21:24:55Z</time>
      </trkpt>
      <trkpt lat="42.80913" lon="2.50239">
        <ele>252.628</ele>
        <time>2020-12-27T21:25:15Z</time>
      </trkpt>
      <trkpt lat="42.80934" lon="2.5016">
        <ele>250.373</ele>
        <time>2020-12-27T21:25:35Z</time>
      </trkpt>
      <trkpt lat="42.80966" lon="2.50134">
        <ele>251.016</ele>
        <time>2020-12-27T21:25:55Z</time>
      </trkpt>
      <trkpt lat="42.81037" lon="2.50115">
        <ele>251.242</ele>
        <time>2020-12-27T21:26:15Z</time>
      </trkpt>
      <trkpt lat="42.81051" lon="2.5008">
        <ele>250.954</ele>
        <time>2020-12-27T21:26:35Z</time>
      </trkpt>
      <trkpt lat="42.81059" lon="2.50026">
        <ele>253.11</ele>
        <time>2020-12-27T21:26:55Z</time>
      </trkpt>
      <trkpt lat="42.81089" lon="2.50005">
        <ele>253.979</ele>
        <time>2020-12-27T21:27:15Z</time>
      </trkpt>
      <trkpt lat="42.81235" lon="2.49824">
        <ele>257.416</ele>
        <time>2020-12-27T21:27:35Z</time>
      </trkpt>
      <trkpt lat="42.81274" lon="2.49755">
        <ele>259.276</ele>
        <time>2020-12-27T21:27:55Z</time>
      </trkpt>
      <trkpt lat="42.8132" lon="2.49755">
        <ele>259.713</ele>
        <time>2020-12-27T21:28:15Z</time>
      </trkpt>
      <trkpt lat="42.81337" lon="2.49721">
        <ele>261.408</ele>
        <time>2020-12-27T21:28:35Z</time>
      </trkpt>
      <trkpt lat="42.81321" lon="2.49684">
        <ele>263.697</ele>
        <time>2020-12-27T21:28:55Z</time>
      </trkpt>
      <trkpt lat="42.81372" lon="2.49561">
        <ele>266.153</ele>
        <time>2020-12-27T21:29:15Z</time>
      </trkpt>
      <trkpt lat="42.81384" lon="2.49497">
        <ele>270.468</ele>
        <time>2020-12-27T21:29:35Z</time>
      </trkpt>
      <trkpt lat="42.81388" lon="2.49454">
        <ele>275.811</ele>
        <time>2020-12-27T21:29:55Z</time>
      </trkpt>
      <trkpt lat="42.81425" lon="2.49346">
        <ele>282.457</ele>
        <time>2020-12-27T21:30:15Z</time>
      </trkpt>
      <trkpt lat="42.81447" lon="2.49219">
        <ele>286.059</ele>
        <time>2020-12-27T21:30:35Z</time>
      </trkpt>
      <trkpt lat="42.81459" lon="2.49112">
        <ele>290.235</ele>
        <time>2020-12-27T21:30:55Z</time>
      </trkpt>
      <trkpt lat="42.81483" lon="2.49088">
        <ele>290.984</ele>
        <time>2020-12-27T21:31:15Z</time>
      </trkpt>
      <trkpt lat="42.81553" lon="2.49101">
        <ele>291.575</ele>
        <time>2020-12-27T21:31:35Z</time>
      </trkpt>
      <trkpt lat="42.81591" lon="2.49084">
        <ele>294.328</ele>
        <time>2020-12-27T21:31:55Z</time>
      </trkpt>
      <trkpt lat="42.81637" lon="2.49094">
        <ele>289.82</ele>
        <time>2020-12-27T21:32:15Z</time>
      </trkpt>
      <trkpt lat="42.81717" lon="2.48924">
        <ele>286.808</ele>
        <time>2020-12-27T21:32:35Z</time>
      </trkpt>
      <trkpt lat="42.81807" lon="2.48849">
        <ele>285.993</ele>
        <time>2020-12-27T21:32:55Z</time>
      </trkpt>
      <trkpt lat="42.82022" lon="2.485">
        <ele>295.659</ele>
        <time>2020-12-27T21:33:15Z</time>
      </trkpt>
      <trkpt lat="42.8209" lon="2.4844">
        <ele>301.174</ele>
        <time>2020-12-27T21:33:35Z</time>
      </trkpt>
      <trkpt lat="42.82127" lon="2.48447">
        <ele>302.677</ele>
        <time>2020-12-27T21:33:55Z</time>
      </trkpt>
      <trkpt lat="42.82225" lon="2.48393">
        <ele>316.223</ele>
        <time>2020-12-27T21:34:15Z</time>
      </trkpt>
      <trkpt lat="42.8225" lon="2.48311">
        <ele>330.335</ele>
        <time>2020-12-27T21:34:35Z</time>
      </trkpt>
      <trkpt lat="42.82276" lon="2.48292">
        <ele>335.811</ele>
        <time>2020-12-27T21:34:55Z</time>
      </trkpt>
      <trkpt lat="42.8231" lon="2.48178">
        <ele>344.71</ele>
        <time>2020-12-27T21:35:15Z</time>
      </trkpt>
      <trkpt lat="42.82391" lon="2.48167">
        <ele>349.078</ele>
        <time>2020-12-27T21:35:35Z</time>
      </trkpt>
      <trkpt lat="42.82465" lon="2.4809">
        <ele>349.833</ele>
        <time>2020-12-27T21:35:55Z</time>
      </trkpt>
      <trkpt lat="42.82495" lon="2.47973">
        <ele>371.926</ele>
        <time>2020-12-27T21:36:15Z</time>
      </trkpt>
      <trkpt lat="42.82524" lon="2.47934">
        <ele>379.708</ele>
        <time>2020-12-27T21:36:35Z</time>
      </trkpt>
      <trkpt lat="42.82527" lon="2.47887">
        <ele>381.953</ele>
        <time>2020-12-27T21:36:55Z</time>
      </trkpt>
      <trkpt lat="42.82555" lon="2.47842">
        <ele>382.319</ele>
        <time>2020-12-27T21:37:15Z</time>
      </trkpt>
      <trkpt lat="42.82554" lon="2.47792">
        <ele>384.694</ele>
        <time>2020-12-27T21:37:35Z</time>
      </trkpt>
      <trkpt lat="42.82572" lon="2.47743">
        <ele>386.687</ele>
        <time>2020-12-27T21:37:55Z</time>
      </trkpt>
      <trkpt lat="42.82583" lon="2.47694">
        <ele>391.753</ele>
        <time>2020-12-27T21:38:15Z</time>
      </trkpt>
      <trkpt lat="42.82606" lon="2.47627">
        <ele>385.355</ele>
        <time>2020-12-27T21:38:35Z</time>
      </trkpt>
      <trkpt lat="42.82597" lon="2.47545">
        <ele>397.721</ele>
        <time>2020-12-27T21:38:55Z</time>
      </trkpt>
      <trkpt lat="42.82645" lon="2.47425">
        <ele>389.03</ele>
        <time>2020-12-27T21:39:15Z</time>
      </trkpt>
      <trkpt lat="42.8266" lon="2.47368">
        <ele>389.524</ele>
        <time>2020-12-27T21:39:35Z</time>
      </trkpt>
      <trkpt lat="42.82696" lon="2.47292">
        <ele>390.204</ele>
        <time>2020-12-27T21:39:55Z</time>
      </trkpt>
      <trkpt lat="42.8273" lon="2.47284">
        <ele>392.014</ele>
        <time>2020-12-27T21:40:15Z</time>
      </trkpt>
      <trkpt lat="42.8271" lon="2.47216">
        <ele>392.108</ele>
        <time>2020-12-27T21:40:35Z</time>
      </trkpt>
      <trkpt lat="42.82709" lon="2.47128">
        <ele>385.568</ele>
        <time>2020-12-27T21:40:55Z</time>
      </trkpt>
      <trkpt lat="42.82715" lon="2.47102">
        <ele>385.824</ele>
        <time>2020-12-27T21:41:15Z</time>
      </trkpt>
      <trkpt lat="42.82701" lon="2.47041">
        <ele>377.099</ele>
        <time>2020-12-27T21:41:35Z</time>
      </trkpt>
      <trkpt lat="42.82709" lon="2.47008">
        <ele>379.172</ele>
        <time>2020-12-27T21:41:55Z</time>
      </trkpt>
      <trkpt lat="42.8271" lon="2.46987">
        <ele>379.538</ele>
        <time>2020-12-27T21:42:15Z</time>
      </trkpt>
      <trkpt lat="42.82701" lon="2.46965">
        <ele>375.75</ele>
        <time>2020-12-27T21:42:35Z</time>
      </trkpt>
      <trkpt lat="42.82707" lon="2.46867">
        <ele>374.136</ele>
        <time>2020-12-27T21:42:55Z</time>
      </trkpt>
      <trkpt lat="42.82689" lon="2.46796">
        <ele>361.485</ele>
        <time>2020-12-27T21:43:15Z</time>
      </trkpt>
      <trkpt lat="42.82709" lon="2.46707">
        <ele>367.022</ele>
        <time>2020-12-27T21:43:35Z</time>
      </trkpt>
      <trkpt lat="42.82732" lon="2.46629">
        <ele>372.862</ele>
        <time>2020-12-27T21:43:55Z</time>
      </trkpt>
      <trkpt lat="42.82737" lon="2.46568">
        <ele>372.408</ele>
        <time>2020-12-27T21:44:15Z</time>
      </trkpt>
      <trkpt lat="42.82797" lon="2.46322">
        <ele>385.808</ele>
        <time>2020-12-27T21:44:35Z</time>
      </trkpt>
      <trkpt lat="42.82797" lon="2.46272">
        <ele>385.538</ele>
        <time>2020-12-27T21:44:55Z</time>
      </trkpt>
      <trkpt lat="42.82791" lon="2.46218">
        <ele>384.264</ele>
        <time>2020-12-27T21:45:15Z</time>
      </trkpt>
      <trkpt lat="42.82801" lon="2.46172">
        <ele>387.399</ele>
        <time>2020-12-27T21:45:35Z</time>
      </trkpt>
      <trkpt lat="42.82795" lon="2.46145">
        <ele>386.182</ele>
        <time>2020-12-27T21:45:55Z</time>
      </trkpt>
      <trkpt lat="42.82799" lon="2.46111">
        <ele>387.428</ele>
        <time>2020-12-27T21:46:15Z</time>
      </trkpt>
      <trkpt lat="42.82775" lon="2.46013">
        <ele>384.31</ele>
        <time>2020-12-27T21:46:35Z</time>
      </trkpt>
      <trkpt lat="42.82776" lon="2.4599">
        <ele>385.776</ele>
        <time>2020-12-27T21:46:55Z</time>
      </trkpt>
      <trkpt lat="42.82783" lon="2.4596">
        <ele>389.235</ele>
        <time>2020-12-27T21:47:15Z</time>
      </trkpt>
      <trkpt lat="42.82776" lon="2.45922">
        <ele>390.054</ele>
        <time>2020-12-27T21:47:35Z</time>
      </trkpt>
      <trkpt lat="42.82766" lon="2.45897">
        <ele>389.556</ele>
        <time>2020-12-27T21:47:55Z</time>
      </trkpt>
      <trkpt lat="42.82759" lon="2.45826">
        <ele>392.711</ele>
        <time>2020-12-27T21:48:15Z</time>
      </trkpt>
      <trkpt lat="42.82748" lon="2.45778">
        <ele>393.608</ele>
        <time>2020-12-27T21:48:35Z</time>
      </trkpt>
      <trkpt lat="42.82735" lon="2.45746">
        <ele>398.471</ele>
        <time>2020-12-27T21:48:55Z</time>
      </trkpt>
      <trkpt lat="42.82746" lon="2.45656">
        <ele>400.497</ele>
        <time>2020-12-27T21:49:15Z</time>
      </trkpt>
      <trkpt lat="42.8276" lon="2.45617">
        <ele>400.962</ele>
        <time>2020-12-27T21:49:35Z</time>
      </trkpt>
      <trkpt lat="42.82779" lon="2.45589">
        <ele>403.665</ele>
        <time>2020-12-27T21:49:55Z</time>
      </trkpt>
      <trkpt lat="42.82778" lon="2.45544">
        <ele>401.441</ele>
        <time>2020-12-27T21:50:15Z</time>
      </trkpt>
      <trkpt lat="42.82786" lon="2.454">
        <ele>392.163</ele>
        <time>2020-12-27T21:50:35Z</time>
      </trkpt>
      <trkpt lat="42.82772" lon="2.45298">
        <ele>383.689</ele>
        <time>2020-12-27T21:50:55Z</time>
      </trkpt>
      <trkpt lat="42.82772" lon="2.4521">
        <ele>383.328</ele>
        <time>2020-12-27T21:51:15Z</time>
      </trkpt>
      <trkpt lat="42.82789" lon="2.45139">
        <ele>390.653</ele>
        <time>2020-12-27T21:51:35Z</time>
      </trkpt>
      <trkpt lat="42.82788" lon="2.45115">
        <ele>390.904</ele>
        <time>2020-12-27T21:51:55Z</time>
      </trkpt>
      <trkpt lat="42.82797" lon="2.45088">
        <ele>393.714</ele>
        <time>2020-12-27T21:52:15Z</time>
      </trkpt>
      <trkpt lat="42.8281" lon="2.44975">
        <ele>401.808</ele>
        <time>2020-12-27T21:52:35Z</time>
      </trkpt>
      <trkpt lat="42.82789" lon="2.44973">
        <ele>400.471</ele>
        <time>2020-12-27T21:52:55Z</time>
      </trkpt>
      <trkpt lat="42.82784" lon="2.44938">
        <ele>401.817</ele>
        <time>2020-12-27T21:53:15Z</time>
      </trkpt>
      <trkpt lat="42.82803" lon="2.44874">
        <ele>403.452</ele>
        <time>2020-12-27T21:53:35Z</time>
      </trkpt>
      <trkpt lat="42.82813" lon="2.44814">
        <ele>404.175</ele>
        <time>2020-12-27T21:53:55Z</time>
      </trkpt>
      <trkpt lat="42.82827" lon="2.44791">
        <ele>405.541</ele>
        <time>2020-12-27T21:54:15Z</time>
      </trkpt>
      <trkpt lat="42.82831" lon="2.44718">
        <ele>409.093</ele>
        <time>2020-12-27T21:54:35Z</time>
      </trkpt>
      <trkpt lat="42.8284" lon="2.44624">
        <ele>416.579</ele>
        <time>2020-12-27T21:54:55Z</time>
      </trkpt>
      <trkpt lat="42.8285" lon="2.44572">
        <ele>418.938</ele>
        <time>2020-12-27T21:55:15Z</time>
      </trkpt>
      <trkpt lat="42.82843" lon="2.44523">
        <ele>413.258</ele>
        <time>2020-12-27T21:55:35Z</time>
      </trkpt>
      <trkpt lat="42.82845" lon="2.44432">
        <ele>406.652</ele>
        <time>2020-12-27T21:55:55Z</time>
      </trkpt>
      <trkpt lat="42.82857" lon="2.44344">
        <ele>403.017</ele>
        <time>2020-12-27T21:56:15Z</time>
      </trkpt>
      <trkpt lat="42.82854" lon="2.44326">
        <ele>401.308</ele>
        <time>2020-12-27T21:56:35Z</time>
      </trkpt>
      <trkpt lat="42.82882" lon="2.44321">
        <ele>411.771</ele>
        <time>2020-12-27T21:56:55Z</time>
      </trkpt>
      <trkpt lat="42.8291" lon="2.44342">
        <ele>421.077</ele>
        <time>2020-12-27T21:57:15Z</time>
      </trkpt>
      <trkpt lat="42.82918" lon="2.4437">
        <ele>425.322</ele>
        <time>2020-12-27T21:57:35Z</time>
      </trkpt>
      <trkpt lat="42.82915" lon="2.44396">
        <ele>424.715</ele>
        <time>2020-12-27T21:57:55Z</time>
      </trkpt>
      <trkpt lat="42.82931" lon="2.4445">
        <ele>435.661</ele>
        <time>2020-12-27T21:58:15Z</time>
      </trkpt>
      <trkpt lat="42.82945" lon="2.44467">
        <ele>443.983</ele>
        <time>2020-12-27T21:58:35Z</time>
      </trkpt>
      <trkpt lat="42.82945" lon="2.44491">
        <ele>444.449</ele>
        <time>2020-12-27T21:58:55Z</time>
      </trkpt>
      <trkpt lat="42.82956" lon="2.44528">
        <ele>453.088</ele>
        <time>2020-12-27T21:59:15Z</time>
      </trkpt>
      <trkpt lat="42.82976" lon="2.44518">
        <ele>462.695</ele>
        <time>2020-12-27T21:59:35Z</time>
      </trkpt>
      <trkpt lat="42.82986" lon="2.44643">
        <ele>479.349</ele>
        <time>2020-12-27T21:59:55Z</time>
      </trkpt>
      <trkpt lat="42.82994" lon="2.44703">
        <ele>485.723</ele>
        <time>2020-12-27T22:00:15Z</time>
      </trkpt>
      <trkpt lat="42.83017" lon="2.44785">
        <ele>494.708</ele>
        <time>2020-12-27T22:00:35Z</time>
      </trkpt>
      <trkpt lat="42.83052" lon="2.44834">
        <ele>508.455</ele>
        <time>2020-12-27T22:00:55Z</time>
      </trkpt>
      <trkpt lat="42.8305" lon="2.44869">
        <ele>504.751</ele>
        <time>2020-12-27T22:01:15Z</time>
      </trkpt>
      <trkpt lat="42.83077" lon="2.44875">
        <ele>522.156</ele>
        <time>2020-12-27T22:01:35Z</time>
      </trkpt>
      <trkpt lat="42.83097" lon="2.44869">
        <ele>531.899</ele>
        <time>2020-12-27T22:01:55Z</time>
      </trkpt>
      <trkpt lat="42.83121" lon="2.44879">
        <ele>539.545</ele>
        <time>2020-12-27T22:02:15Z</time>
      </trkpt>
      <trkpt lat="42.83168" lon="2.44928">
        <ele>550.877</ele>
        <time>2020-12-27T22:02:35Z</time>
      </trkpt>
      <trkpt lat="42.83206" lon="2.4492">
        <ele>561.153</ele>
        <time>2020-12-27T22:02:55Z</time>
      </trkpt>
      <trkpt lat="42.83261" lon="2.44956">
        <ele>579.842</ele>
        <time>2020-12-27T22:03:15Z</time>
      </trkpt>
      <trkpt lat="42.83289" lon="2.44993">
        <ele>587.678</ele>
        <time>2020-12-27T22:03:35Z</time>
      </trkpt>
      <trkpt lat="42.83275" lon="2.45013">
        <ele>585.733</ele>
        <time>2020-12-27T22:03:55Z</time>
      </trkpt>
      <trkpt lat="42.83224" lon="2.45026">
        <ele>579.626</ele>
        <time>2020-12-27T22:04:15Z</time>
      </trkpt>
      <trkpt lat="42.83213" lon="2.45047">
        <ele>584.508</ele>
        <time>2020-12-27T22:04:35Z</time>
      </trkpt>
      <trkpt lat="42.83294" lon="2.45115">
        <ele>605.073</ele>
        <time>2020-12-27T22:04:55Z</time>
      </trkpt>
      <trkpt lat="42.83286" lon="2.45151">
        <ele>610.759</ele>
        <time>2020-12-27T22:05:15Z</time>
      </trkpt>
      <trkpt lat="42.83295" lon="2.45171">
        <ele>614.284</ele>
        <time>2020-12-27T22:05:35Z</time>
      </trkpt>
      <trkpt lat="42.83276" lon="2.45204">
        <ele>618.537</ele>
        <time>2020-12-27T22:05:55Z</time>
      </trkpt>
      <trkpt lat="42.83308" lon="2.45278">
        <ele>628.523</ele>
        <time>2020-12-27T22:06:15Z</time>
      </trkpt>
      <trkpt lat="42.83329" lon="2.45288">
        <ele>632.095</ele>
        <time>2020-12-27T22:06:35Z</time>
      </trkpt>
      <trkpt lat="42.83341" lon="2.45303">
        <ele>635.541</ele>
        <time>2020-12-27T22:06:55Z</time>
      </trkpt>
      <trkpt lat="42.83401" lon="2.45282">
        <ele>644.18</ele>
        <time>2020-12-27T22:07:15Z</time>
      </trkpt>
      <trkpt lat="42.83454" lon="2.45307">
        <ele>661.534</ele>
        <time>2020-12-27T22:07:35Z</time>
      </trkpt>
      <trkpt lat="42.83508" lon="2.45308">
        <ele>676.555</ele>
        <time>2020-12-27T22:07:55Z</time>
      </trkpt>
      <trkpt lat="42.83555" lon="2.45298">
        <ele>688.21</ele>
        <time>2020-12-27T22:08:15Z</time>
      </trkpt>
      <trkpt lat="42.83613" lon="2.45245">
        <ele>692.408</ele>
        <time>2019-11-01T15:38:30Z</time>
      </trkpt>
      <trkpt lat="42.83693" lon="2.45206">
        <ele>708.459</ele>
        <time>2019-11-01T15:38:50Z</time>
      </trkpt>
      <trkpt lat="42.83727" lon="2.45244">
        <ele>713.795</ele>
        <time>2019-11-01T15:39:10Z</time>
      </trkpt>
      <trkpt lat="42.83767" lon="2.45232">
        <ele>716.52</ele>
        <time>2019-11-01T15:39:30Z</time>
      </trkpt>
      <trkpt lat="42.83802" lon="2.45242">
        <ele>720.273</ele>
        <time>2019-11-01T15:39:50Z</time>
      </trkpt>
      <trkpt lat="42.83831" lon="2.45227">
        <ele>720.999</ele>
        <time>2019-11-01T15:40:10Z</time>
      </trkpt>
      <trkpt lat="42.83967" lon="2.45047">
        <ele>712.931</ele>
        <time>2019-11-01T15:40:30Z</time>
      </trkpt>
      <trkpt lat="42.84022" lon="2.44903">
        <ele>711.347</ele>
        <time>2019-11-01T15:40:50Z</time>
      </trkpt>
      <trkpt lat="42.84061" lon="2.44853">
        <ele>706.346</ele>
        <time>2019-11-01T15:41:10Z</time>
      </trkpt>
      <trkpt lat="42.84165" lon="2.44634">
        <ele>692.591</ele>
        <time>2019-11-01T15:41:30Z</time>
      </trkpt>
      <trkpt lat="42.84223" lon="2.4457">
        <ele>691.081</ele>
        <time>2019-11-01T15:41:50Z</time>
      </trkpt>
      <trkpt lat="42.84258" lon="2.44572">
        <ele>690.719</ele>
        <time>2019-11-01T15:42:10Z</time>
      </trkpt>
      <trkpt lat="42.84292" lon="2.44501">
        <ele>691.508</ele>
        <time>2019-11-01T15:42:30Z</time>
      </trkpt>
      <trkpt lat="42.84324" lon="2.44466">
        <ele>689.355</ele>
        <time>2019-11-01T15:42:50Z</time>
      </trkpt>
      <trkpt lat="42.84369" lon="2.44351">
        <ele>683.551</ele>
        <time>2019-11-01T15:43:10Z</time>
      </trkpt>
      <trkpt lat="42.84388" lon="2.44349">
        <ele>680.266</ele>
        <time>2019-11-01T15:43:30Z</time>
      </trkpt>
      <trkpt lat="42.84415" lon="2.44285">
        <ele>677.339</ele>
        <time>2019-11-01T15:43:50Z</time>
      </trkpt>
      <trkpt lat="42.84415" lon="2.44255">
        <ele>678.945</ele>
        <time>2019-11-01T15:44:10Z</time>
      </trkpt>
      <trkpt lat="42.84445" lon="2.44216">
        <ele>676.417</ele>
        <time>2019-11-01T15:44:30Z</time>
      </trkpt>
      <trkpt lat="42.84469" lon="2.44211">
        <ele>674.663</ele>
        <time>2019-11-01T15:44:50Z</time>
      </trkpt>
      <trkpt lat="42.84497" lon="2.44147">
        <ele>677.012</ele>
        <time>2019-11-01T15:45:10Z</time>
      </trkpt>
      <trkpt lat="42.84454" lon="2.44179">
        <ele>678.527</ele>
        <time>2019-11-01T15:45:30Z</time>
      </trkpt>
      <trkpt lat="42.84423" lon="2.44183">
        <ele>681.668</ele>
        <time>2019-11-01T15:45:50Z</time>
      </trkpt>
      <trkpt lat="42.844" lon="2.44209">
        <ele>683.314</ele>
        <time>2019-11-01T15:46:10Z</time>
      </trkpt>
      <trkpt lat="42.84342" lon="2.44234">
        <ele>687.808</ele>
        <time>2019-11-01T15:46:30Z</time>
      </trkpt>
      <trkpt lat="42.84309" lon="2.44273">
        <ele>691.498</ele>
        <time>2019-11-01T15:46:50Z</time>
      </trkpt>
      <trkpt lat="42.84278" lon="2.44291">
        <ele>697.984</ele>
        <time>2019-11-01T15:47:10Z</time>
      </trkpt>
      <trkpt lat="42.84241" lon="2.4431">
        <ele>706.999</ele>
        <time>2019-11-01T15:47:30Z</time>
      </trkpt>
      <trkpt lat="42.84199" lon="2.44335">
        <ele>711.522</ele>
        <time>2019-11-01T15:47:50Z</time>
      </trkpt>
      <trkpt lat="42.84184" lon="2.44312">
        <ele>714.638</ele>
        <time>2019-11-01T15:48:10Z</time>
      </trkpt>
      <trkpt lat="42.84177" lon="2.44183">
        <ele>725.26</ele>
        <time>2019-11-01T15:48:30Z</time>
      </trkpt>
      <trkpt lat="42.84182" lon="2.44156">
        <ele>726.086</ele>
        <time>2019-11-01T15:48:50Z</time>
      </trkpt>
      <trkpt lat="42.84167" lon="2.44124">
        <ele>730.545</ele>
        <time>2019-11-01T15:49:10Z</time>
      </trkpt>
      <trkpt lat="42.84164" lon="2.44078">
        <ele>734.068</ele>
        <time>2019-11-01T15:49:30Z</time>
      </trkpt>
      <trkpt lat="42.84169" lon="2.4405">
        <ele>734.842</ele>
        <time>2019-11-01T15:49:50Z</time>
      </trkpt>
      <trkpt lat="42.84158" lon="2.43974">
        <ele>741.426</ele>
        <time>2019-11-01T15:50:10Z</time>
      </trkpt>
      <trkpt lat="42.84128" lon="2.43923">
        <ele>751.208</ele>
        <time>2019-11-01T15:50:30Z</time>
      </trkpt>
      <trkpt lat="42.84104" lon="2.43914">
        <ele>756.952</ele>
        <time>2019-11-01T15:50:50Z</time>
      </trkpt>
      <trkpt lat="42.84106" lon="2.43843">
        <ele>762.798</ele>
        <time>2019-11-01T15:51:10Z</time>
      </trkpt>
      <trkpt lat="42.84067" lon="2.4376">
        <ele>773.413</ele>
        <time>2019-11-01T15:51:30Z</time>
      </trkpt>
      <trkpt lat="42.8403" lon="2.43574">
        <ele>790.576</ele>
        <time>2019-11-01T15:51:50Z</time>
      </trkpt>
      <trkpt lat="42.84044" lon="2.43505">
        <ele>793.622</ele>
        <time>2019-11-01T15:52:10Z</time>
      </trkpt>
      <trkpt lat="42.84059" lon="2.43459">
        <ele>795.074</ele>
        <time>2019-11-01T15:52:30Z</time>
      </trkpt>
      <trkpt lat="42.84049" lon="2.43399">
        <ele>798.83</ele>
        <time>2019-11-01T15:52:50Z</time>
      </trkpt>
      <trkpt lat="42.84025" lon="2.43344">
        <ele>804.029</ele>
        <time>2019-11-01T15:53:10Z</time>
      </trkpt>
      <trkpt lat="42.83961" lon="2.43167">
        <ele>799.633</ele>
        <time>2019-11-01T15:53:30Z</time>
      </trkpt>
      <trkpt lat="42.83966" lon="2.43079">
        <ele>804.323</ele>
        <time>2019-11-01T15:53:50Z</time>
      </trkpt>
      <trkpt lat="42.83978" lon="2.43038">
        <ele>806.815</ele>
        <time>2019-11-01T15:54:10Z</time>
      </trkpt>
      <trkpt lat="42.83976" lon="2.42969">
        <ele>805.708</ele>
        <time>2019-11-01T15:54:30Z</time>
      </trkpt>
      <trkpt lat="42.8399" lon="2.42817">
        <ele>812.189</ele>
        <time>2019-11-01T15:54:50Z</time>
      </trkpt>
      <trkpt lat="42.83968" lon="2.42735">
        <ele>815.175</ele>
        <time>2019-11-01T15:55:10Z</time>
      </trkpt>
      <trkpt lat="42.83966" lon="2.42654">
        <ele>821.87</ele>
        <time>2019-11-01T15:55:30Z</time>
      </trkpt>
      <trkpt lat="42.8397" lon="2.42603">
        <ele>826.593</ele>
        <time>2019-11-01T15:55:50Z</time>
      </trkpt>
      <trkpt lat="42.83965" lon="2.42472">
        <ele>836.269</ele>
        <time>2019-11-01T15:56:10Z</time>
      </trkpt>
      <trkpt lat="42.84018" lon="2.4241">
        <ele>846.911</ele>
        <time>2019-11-01T15:56:30Z</time>
      </trkpt>
      <trkpt lat="42.84062" lon="2.4233">
        <ele>856.857</ele>
        <time>2019-11-01T15:56:50Z</time>
      </trkpt>
      <trkpt lat="42.84081" lon="2.423">
        <ele>859.416</ele>
        <time>2019-11-01T15:57:10Z</time>
      </trkpt>
      <trkpt lat="42.84072" lon="2.42242">
        <ele>865.477</ele>
        <time>2019-11-01T15:57:30Z</time>
      </trkpt>
      <trkpt lat="42.84083" lon="2.42203">
        <ele>870.761</ele>
        <time>2019-11-01T15:57:50Z</time>
      </trkpt>
      <trkpt lat="42.84079" lon="2.42176">
        <ele>874.727</ele>
        <time>2019-11-01T15:58:10Z</time>
      </trkpt>
      <trkpt lat="42.84098" lon="2.42102">
        <ele>884.608</ele>
        <time>2019-11-01T15:58:30Z</time>
      </trkpt>
      <trkpt lat="42.84093" lon="2.42048">
        <ele>892.473</ele>
        <time>2019-11-01T15:58:50Z</time>
      </trkpt>
      <trkpt lat="42.84068" lon="2.42005">
        <ele>896.269</ele>
        <time>2019-11-01T15:59:10Z</time>
      </trkpt>
      <trkpt lat="42.84043" lon="2.41886">
        <ele>876.114</ele>
        <time>2019-11-01T15:59:30Z</time>
      </trkpt>
      <trkpt lat="42.8404" lon="2.41832">
        <ele>874.947</ele>
        <time>2019-11-01T15:59:50Z</time>
      </trkpt>
      <trkpt lat="42.84042" lon="2.41785">
        <ele>875.093</ele>
        <time>2019-11-01T16:00:10Z</time>
      </trkpt>
      <trkpt lat="42.84013" lon="2.41755">
        <ele>873.425</ele>
        <time>2019-11-01T16:00:30Z</time>
      </trkpt>
      <trkpt lat="42.83996" lon="2.41705">
        <ele>873.421</ele>
        <time>2019-11-01T16:00:50Z</time>
      </trkpt>
      <trkpt lat="42.8399" lon="2.41663">
        <ele>872.66</ele>
        <time>2019-11-01T16:01:10Z</time>
      </trkpt>
      <trkpt lat="42.8395" lon="2.41602">
        <ele>871.273</ele>
        <time>2019-11-01T16:01:30Z</time>
      </trkpt>
      <trkpt lat="42.83945" lon="2.41564">
        <ele>870.485</ele>
        <time>2019-11-01T16:01:50Z</time>
      </trkpt>
      <trkpt lat="42.83898" lon="2.41496">
        <ele>862.713</ele>
        <time>2019-11-01T16:02:10Z</time>
      </trkpt>
      <trkpt lat="42.83822" lon="2.41323">
        <ele>840.808</ele>
        <time>2019-11-01T16:02:30Z</time>
      </trkpt>
      <trkpt lat="42.83808" lon="2.41239">
        <ele>833.533</ele>
        <time>2019-11-01T16:02:50Z</time>
      </trkpt>
      <trkpt lat="42.83811" lon="2.41165">
        <ele>826.689</ele>
        <time>2019-11-01T16:03:10Z</time>
      </trkpt>
      <trkpt lat="42.83799" lon="2.41077">
        <ele>812.654</ele>
        <time>2019-11-01T16:03:30Z</time>
      </trkpt>
      <trkpt lat="42.83763" lon="2.40968">
        <ele>807.557</ele>
        <time>2019-11-01T16:03:50Z</time>
      </trkpt>
      <trkpt lat="42.83753" lon="2.40887">
        <ele>815.873</ele>
        <time>2019-11-01T16:04:10Z</time>
      </trkpt>
      <trkpt lat="42.83756" lon="2.40836">
        <ele>821.925</ele>
        <time>2019-11-01T16:04:30Z</time>
      </trkpt>
      <trkpt lat="42.83741" lon="2.40787">
        <ele>822.831</ele>
        <time>2019-11-01T16:04:50Z</time>
      </trkpt>
      <trkpt lat="42.8374" lon="2.40738">
        <ele>824.84</ele>
        <time>2019-11-01T16:05:10Z</time>
      </trkpt>
      <trkpt lat="42.83723" lon="2.40681">
        <ele>826.618</ele>
        <time>2019-11-01T16:05:30Z</time>
      </trkpt>
      <trkpt lat="42.83663" lon="2.404">
        <ele>809.198</ele>
        <time>2019-11-01T16:05:50Z</time>
      </trkpt>
      <trkpt lat="42.83663" lon="2.40371">
        <ele>804.417</ele>
        <time>2019-11-01T16:06:10Z</time>
      </trkpt>
      <trkpt lat="42.83654" lon="2.4035">
        <ele>802.108</ele>
        <time>2019-11-01T16:06:30Z</time>
      </trkpt>
      <trkpt lat="42.83609" lon="2.4033">
        <ele>793.477</ele>
        <time>2019-11-01T16:06:50Z</time>
      </trkpt>
      <trkpt lat="42.83599" lon="2.40277">
        <ele>807.393</ele>
        <time>2019-11-01T16:07:10Z</time>
      </trkpt>
      <trkpt lat="42.83575" lon="2.40241">
        <ele>807.518</ele>
        <time>2019-11-01T16:07:30Z</time>
      </trkpt>
      <trkpt lat="42.83583" lon="2.4017">
        <ele>811.811</ele>
        <time>2019-11-01T16:07:50Z</time>
      </trkpt>
      <trkpt lat="42.83586" lon="2.40068">
        <ele>812.017</ele>
        <time>2019-11-01T16:08:10Z</time>
      </trkpt>
      <trkpt lat="42.83675" lon="2.39924">
        <ele>813.619</ele>
        <time>2019-11-01T16:08:30Z</time>
      </trkpt>
      <trkpt lat="42.83763" lon="2.39839">
        <ele>817.245</ele>
        <time>2019-11-01T16:08:50Z</time>
      </trkpt>
      <trkpt lat="42.83843" lon="2.39804">
        <ele>831.594</ele>
        <time>2019-11-01T16:09:10Z</time>
      </trkpt>
      <trkpt lat="42.83961" lon="2.39839">
        <ele>828.848</ele>
        <time>2019-11-01T16:09:30Z</time>
      </trkpt>
      <trkpt lat="42.84001" lon="2.39811">
        <ele>816.061</ele>
        <time>2019-11-01T16:09:50Z</time>
      </trkpt>
      <trkpt lat="42.84061" lon="2.39752">
        <ele>799.317</ele>
        <time>2019-11-01T16:10:10Z</time>
      </trkpt>
      <trkpt lat="42.84129" lon="2.39746">
        <ele>788.508</ele>
        <time>2019-11-01T16:10:30Z</time>
      </trkpt>
      <trkpt lat="42.8419" lon="2.39725">
        <ele>787.96</ele>
        <time>2019-11-01T16:10:50Z</time>
      </trkpt>
      <trkpt lat="42.84349" lon="2.39606">
        <ele>796.696</ele>
        <time>2020-12-27T22:41:15Z</time>
      </trkpt>
      <trkpt lat="42.8446" lon="2.39564">
        <ele>803.261</ele>
        <time>2020-12-27T22:41:35Z</time>
      </trkpt>
      <trkpt lat="42.84483" lon="2.39546">
        <ele>803.514</ele>
        <time>2020-12-27T22:41:55Z</time>
      </trkpt>
      <trkpt lat="42.84488" lon="2.39511">
        <ele>797.01</ele>
        <time>2020-12-27T22:42:15Z</time>
      </trkpt>
      <trkpt lat="42.84475" lon="2.39477">
        <ele>791.342</ele>
        <time>2020-12-27T22:42:35Z</time>
      </trkpt>
      <trkpt lat="42.84455" lon="2.3947">
        <ele>789.758</ele>
        <time>2020-12-27T22:42:55Z</time>
      </trkpt>
      <trkpt lat="42.84419" lon="2.39477">
        <ele>787.787</ele>
        <time>2020-12-27T22:43:15Z</time>
      </trkpt>
      <trkpt lat="42.84566" lon="2.39334">
        <ele>790.564</ele>
        <time>2020-12-27T22:43:35Z</time>
      </trkpt>
      <trkpt lat="42.84601" lon="2.3934">
        <ele>792.306</ele>
        <time>2020-12-27T22:43:55Z</time>
      </trkpt>
      <trkpt lat="42.84634" lon="2.39307">
        <ele>794.716</ele>
        <time>2020-12-27T22:44:15Z</time>
      </trkpt>
      <trkpt lat="42.84681" lon="2.39285">
        <ele>795.708</ele>
        <time>2020-12-27T22:44:35Z</time>
      </trkpt>
      <trkpt lat="42.85" lon="2.39101">
        <ele>800.022</ele>
        <time>2019-11-01T16:14:30Z</time>
      </trkpt>
      <trkpt lat="42.85055" lon="2.39016">
        <ele>800.048</ele>
        <time>2019-11-01T16:14:50Z</time>
      </trkpt>
      <trkpt lat="42.85084" lon="2.38993">
        <ele>800.013</ele>
        <time>2019-11-01T16:15:10Z</time>
      </trkpt>
      <trkpt lat="42.85084" lon="2.3894">
        <ele>800.376</ele>
        <time>2019-11-01T16:15:30Z</time>
      </trkpt>
      <trkpt lat="42.85101" lon="2.38919">
        <ele>801.212</ele>
        <time>2019-11-01T16:15:50Z</time>
      </trkpt>
      <trkpt lat="42.85079" lon="2.38747">
        <ele>818.354</ele>
        <time>2019-11-01T16:16:10Z</time>
      </trkpt>
      <trkpt lat="42.85003" lon="2.38427">
        <ele>857.04</ele>
        <time>2019-11-01T16:16:30Z</time>
      </trkpt>
      <trkpt lat="42.8497" lon="2.38524">
        <ele>848.559</ele>
        <time>2019-11-01T16:16:50Z</time>
      </trkpt>
      <trkpt lat="42.84894" lon="2.38581">
        <ele>843.297</ele>
        <time>2019-11-01T16:17:10Z</time>
      </trkpt>
      <trkpt lat="42.84863" lon="2.38572">
        <ele>843.423</ele>
        <time>2019-11-01T16:17:30Z</time>
      </trkpt>
      <trkpt lat="42.84779" lon="2.3859">
        <ele>829.225</ele>
        <time>2019-11-01T16:17:50Z</time>
      </trkpt>
      <trkpt lat="42.84737" lon="2.38565">
        <ele>830.608</ele>
        <time>2019-11-01T16:18:10Z</time>
      </trkpt>
      <trkpt lat="42.84673" lon="2.38574">
        <ele>822.265</ele>
        <time>2019-11-01T16:18:30Z</time>
      </trkpt>
      <trkpt lat="42.84609" lon="2.38563">
        <ele>817.571</ele>
        <time>2019-11-01T16:18:50Z</time>
      </trkpt>
      <trkpt lat="42.84546" lon="2.38519">
        <ele>820.136</ele>
        <time>2019-11-01T16:19:10Z</time>
      </trkpt>
      <trkpt lat="42.8447" lon="2.38544">
        <ele>812.229</ele>
        <time>2019-11-01T16:19:30Z</time>
      </trkpt>
      <trkpt lat="42.84401" lon="2.38549">
        <ele>803.445</ele>
        <time>2019-11-01T16:19:50Z</time>
      </trkpt>
      <trkpt lat="42.84359" lon="2.38533">
        <ele>797.867</ele>
        <time>2019-11-01T16:20:10Z</time>
      </trkpt>
      <trkpt lat="42.84332" lon="2.38498">
        <ele>793.883</ele>
        <time>2019-11-01T16:20:30Z</time>
      </trkpt>
      <trkpt lat="42.84297" lon="2.38402">
        <ele>785.052</ele>
        <time>2019-11-01T16:20:50Z</time>
      </trkpt>
      <trkpt lat="42.84251" lon="2.38229">
        <ele>773.281</ele>
        <time>2019-11-01T16:21:10Z</time>
      </trkpt>
      <trkpt lat="42.84278" lon="2.3811">
        <ele>770.161</ele>
        <time>2019-11-01T16:21:30Z</time>
      </trkpt>
      <trkpt lat="42.84283" lon="2.37997">
        <ele>769.617</ele>
        <time>2019-11-01T16:21:50Z</time>
      </trkpt>
      <trkpt lat="42.84236" lon="2.3782">
        <ele>762.208</ele>
        <time>2019-11-01T16:22:10Z</time>
      </trkpt>
      <trkpt lat="42.84239" lon="2.37723">
        <ele>761.354</ele>
        <time>2019-11-01T16:22:30Z</time>
      </trkpt>
      <trkpt lat="42.84258" lon="2.37537">
        <ele>760.19</ele>
        <time>2019-11-01T16:22:50Z</time>
      </trkpt>
      <trkpt lat="42.84231" lon="2.37505">
        <ele>760.085</ele>
        <time>2019-11-01T16:23:10Z</time>
      </trkpt>
      <trkpt lat="42.84224" lon="2.37348">
        <ele>760.058</ele>
        <time>2019-11-01T16:23:30Z</time>
      </trkpt>
      <trkpt lat="42.84196" lon="2.37266">
        <ele>762.314</ele>
        <time>2019-11-01T16:23:50Z</time>
      </trkpt>
      <trkpt lat="42.84182" lon="2.37169">
        <ele>764.266</ele>
        <time>2019-11-01T16:24:10Z</time>
      </trkpt>
      <trkpt lat="42.84088" lon="2.37109">
        <ele>754.342</ele>
        <time>2019-11-01T16:24:30Z</time>
      </trkpt>
      <trkpt lat="42.84064" lon="2.37029">
        <ele>751.921</ele>
        <time>2019-11-01T16:24:50Z</time>
      </trkpt>
      <trkpt lat="42.84039" lon="2.37033">
        <ele>749.863</ele>
        <time>2019-11-01T16:25:10Z</time>
      </trkpt>
      <trkpt lat="42.84024" lon="2.37049">
        <ele>748.444</ele>
        <time>2019-11-01T16:25:30Z</time>
      </trkpt>
      <trkpt lat="42.8398" lon="2.37036">
        <ele>743.318</ele>
        <time>2019-11-01T16:25:50Z</time>
      </trkpt>
      <trkpt lat="42.83946" lon="2.37008">
        <ele>741.708</ele>
        <time>2019-11-01T16:26:10Z</time>
      </trkpt>
      <trkpt lat="42.83879" lon="2.37017">
        <ele>737.782</ele>
        <time>2019-11-01T16:26:30Z</time>
      </trkpt>
      <trkpt lat="42.83843" lon="2.37047">
        <ele>733.718</ele>
        <time>2019-11-01T16:26:50Z</time>
      </trkpt>
      <trkpt lat="42.8384" lon="2.36974">
        <ele>726.013</ele>
        <time>2019-11-01T16:27:10Z</time>
      </trkpt>
      <trkpt lat="42.83776" lon="2.37056">
        <ele>722.636</ele>
        <time>2019-11-01T16:27:30Z</time>
      </trkpt>
      <trkpt lat="42.83757" lon="2.36985">
        <ele>715.282</ele>
        <time>2019-11-01T16:27:50Z</time>
      </trkpt>
      <trkpt lat="42.83754" lon="2.36914">
        <ele>712.554</ele>
        <time>2019-11-01T16:28:10Z</time>
      </trkpt>
      <trkpt lat="42.8371" lon="2.36849">
        <ele>708.75</ele>
        <time>2019-11-01T16:28:30Z</time>
      </trkpt>
      <trkpt lat="42.837" lon="2.36787">
        <ele>704.269</ele>
        <time>2019-11-01T16:28:50Z</time>
      </trkpt>
      <trkpt lat="42.83663" lon="2.36714">
        <ele>698.668</ele>
        <time>2019-11-01T16:29:10Z</time>
      </trkpt>
      <trkpt lat="42.83663" lon="2.36668">
        <ele>696.942</ele>
        <time>2019-11-01T16:29:30Z</time>
      </trkpt>
      <trkpt lat="42.83577" lon="2.36626">
        <ele>689.926</ele>
        <time>2019-11-01T16:29:50Z</time>
      </trkpt>
      <trkpt lat="42.83511" lon="2.36567">
        <ele>683.208</ele>
        <time>2019-11-01T16:30:10Z</time>
      </trkpt>
      <trkpt lat="42.83433" lon="2.36546">
        <ele>678.122</ele>
        <time>2019-11-01T16:30:30Z</time>
      </trkpt>
      <trkpt lat="42.83396" lon="2.36564">
        <ele>671.528</ele>
        <time>2019-11-01T16:30:50Z</time>
      </trkpt>
      <trkpt lat="42.83391" lon="2.36599">
        <ele>673.643</ele>
        <time>2019-11-01T16:31:10Z</time>
      </trkpt>
      <trkpt lat="42.83344" lon="2.36619">
        <ele>667.596</ele>
        <time>2019-11-01T16:31:30Z</time>
      </trkpt>
      <trkpt lat="42.83325" lon="2.36635">
        <ele>665.042</ele>
        <time>2019-11-01T16:31:50Z</time>
      </trkpt>
      <trkpt lat="42.83283" lon="2.36615">
        <ele>659.974</ele>
        <time>2019-11-01T16:32:10Z</time>
      </trkpt>
      <trkpt lat="42.8326" lon="2.36544">
        <ele>661.09</ele>
        <time>2019-11-01T16:32:30Z</time>
      </trkpt>
      <trkpt lat="42.83147" lon="2.36675">
        <ele>650.639</ele>
        <time>2019-11-01T16:32:50Z</time>
      </trkpt>
      <trkpt lat="42.83118" lon="2.3667">
        <ele>650.091</ele>
        <time>2019-11-01T16:33:10Z</time>
      </trkpt>
      <trkpt lat="42.83067" lon="2.36709">
        <ele>634.981</ele>
        <time>2019-11-01T16:33:30Z</time>
      </trkpt>
      <trkpt lat="42.83044" lon="2.36801">
        <ele>618.319</ele>
        <time>2019-11-01T16:33:50Z</time>
      </trkpt>
      <trkpt lat="42.83026" lon="2.36806">
        <ele>604.408</ele>
        <time>2019-11-01T16:34:10Z</time>
      </trkpt>
      <trkpt lat="42.83027" lon="2.36785">
        <ele>602.185</ele>
        <time>2019-11-01T16:34:30Z</time>
      </trkpt>
      <trkpt lat="42.83013" lon="2.36781">
        <ele>588.211</ele>
        <time>2019-11-01T16:34:50Z</time>
      </trkpt>
      <trkpt lat="42.83013" lon="2.36761">
        <ele>587.296</ele>
        <time>2019-11-01T16:35:10Z</time>
      </trkpt>
      <trkpt lat="42.83" lon="2.36768">
        <ele>574.979</ele>
        <time>2019-11-01T16:35:30Z</time>
      </trkpt>
      <trkpt lat="42.82999" lon="2.36738">
        <ele>571.225</ele>
        <time>2019-11-01T16:35:50Z</time>
      </trkpt>
      <trkpt lat="42.82987" lon="2.36735">
        <ele>559.267</ele>
        <time>2019-11-01T16:36:10Z</time>
      </trkpt>
      <trkpt lat="42.82987" lon="2.36711">
        <ele>561.513</ele>
        <time>2019-11-01T16:36:30Z</time>
      </trkpt>
      <trkpt lat="42.82971" lon="2.36703">
        <ele>549.982</ele>
        <time>2019-11-01T16:36:50Z</time>
      </trkpt>
      <trkpt lat="42.82954" lon="2.36661">
        <ele>555.546</ele>
        <time>2019-11-01T16:37:10Z</time>
      </trkpt>
      <trkpt lat="42.82934" lon="2.36636">
        <ele>546.788</ele>
        <time>2019-11-01T16:37:30Z</time>
      </trkpt>
      <trkpt lat="42.82928" lon="2.36647">
        <ele>536.816</ele>
        <time>2019-11-01T16:37:50Z</time>
      </trkpt>
      <trkpt lat="42.82917" lon="2.36636">
        <ele>530.708</ele>
        <time>2019-11-01T16:38:10Z</time>
      </trkpt>
      <trkpt lat="42.8292" lon="2.3667">
        <ele>520.78</ele>
        <time>2019-11-01T16:38:30Z</time>
      </trkpt>
      <trkpt lat="42.82872" lon="2.36642">
        <ele>502.166</ele>
        <time>2019-11-01T16:38:50Z</time>
      </trkpt>
      <trkpt lat="42.82877" lon="2.36669">
        <ele>497.831</ele>
        <time>2019-11-01T16:39:10Z</time>
      </trkpt>
      <trkpt lat="42.82875" lon="2.36693">
        <ele>489.894</ele>
        <time>2019-11-01T16:39:30Z</time>
      </trkpt>
      <trkpt lat="42.82886" lon="2.36718">
        <ele>487.24</ele>
        <time>2019-11-01T16:39:50Z</time>
      </trkpt>
      <trkpt lat="42.82874" lon="2.36722">
        <ele>481.152</ele>
        <time>2019-11-01T16:40:10Z</time>
      </trkpt>
      <trkpt lat="42.8289" lon="2.36739">
        <ele>482.518</ele>
        <time>2019-11-01T16:40:30Z</time>
      </trkpt>
      <trkpt lat="42.82869" lon="2.36777">
        <ele>469.147</ele>
        <time>2019-11-01T16:40:50Z</time>
      </trkpt>
      <trkpt lat="42.82785" lon="2.36822">
        <ele>441.846</ele>
        <time>2019-11-01T16:41:10Z</time>
      </trkpt>
      <trkpt lat="42.82758" lon="2.36811">
        <ele>434.088</ele>
        <time>2019-11-01T16:41:30Z</time>
      </trkpt>
      <trkpt lat="42.8271" lon="2.36812">
        <ele>425.316</ele>
        <time>2019-11-01T16:41:50Z</time>
      </trkpt>
      <trkpt lat="42.82695" lon="2.36829">
        <ele>424.608</ele>
        <time>2019-11-01T16:42:10Z</time>
      </trkpt>
      <trkpt lat="42.82585" lon="2.36835">
        <ele>413.21</ele>
        <time>2019-11-01T16:42:30Z</time>
      </trkpt>
      <trkpt lat="42.82545" lon="2.3685">
        <ele>406.816</ele>
        <time>2019-11-01T16:42:50Z</time>
      </trkpt>
      <trkpt lat="42.82488" lon="2.3685">
        <ele>396.071</ele>
        <time>2019-11-01T16:43:10Z</time>
      </trkpt>
      <trkpt lat="42.82421" lon="2.36878">
        <ele>385.214</ele>
        <time>2019-11-01T16:43:30Z</time>
      </trkpt>
      <trkpt lat="42.82318" lon="2.36955">
        <ele>373.93</ele>
        <time>2019-11-01T16:43:50Z</time>
      </trkpt>
      <trkpt lat="42.82289" lon="2.36946">
        <ele>369.392</ele>
        <time>2019-11-01T16:44:10Z</time>
      </trkpt>
      <trkpt lat="42.8226" lon="2.36975">
        <ele>367.878</ele>
        <time>2019-11-01T16:44:30Z</time>
      </trkpt>
      <trkpt lat="42.82242" lon="2.36982">
        <ele>366.817</ele>
        <time>2019-11-01T16:44:50Z</time>
      </trkpt>
      <trkpt lat="42.82215" lon="2.37003">
        <ele>365.695</ele>
        <time>2019-11-01T16:45:10Z</time>
      </trkpt>
      <trkpt lat="42.82163" lon="2.36943">
        <ele>359.949</ele>
        <time>2019-11-01T16:45:30Z</time>
      </trkpt>
      <trkpt lat="42.82112" lon="2.36933">
        <ele>358.023</ele>
        <time>2019-11-01T16:45:50Z</time>
      </trkpt>
      <trkpt lat="42.82044" lon="2.36951">
        <ele>355.608</ele>
        <time>2019-11-01T16:46:10Z</time>
      </trkpt>
      <trkpt lat="42.81995" lon="2.36996">
        <ele>353.865</ele>
        <time>2019-11-01T16:46:30Z</time>
      </trkpt>
      <trkpt lat="42.81891" lon="2.37024">
        <ele>350.191</ele>
        <time>2019-11-01T16:46:50Z</time>
      </trkpt>
      <trkpt lat="42.81828" lon="2.37019">
        <ele>349.026</ele>
        <time>2019-11-01T16:47:10Z</time>
      </trkpt>
      <trkpt lat="42.81804" lon="2.37">
        <ele>349.049</ele>
        <time>2019-11-01T16:47:30Z</time>
      </trkpt>
      <trkpt lat="42.8177" lon="2.36995">
        <ele>349.025</ele>
        <time>2019-11-01T16:47:50Z</time>
      </trkpt>
      <trkpt lat="42.81715" lon="2.36969">
        <ele>349.077</ele>
        <time>2019-11-01T16:48:10Z</time>
      </trkpt>
      <trkpt lat="42.81695" lon="2.36975">
        <ele>348.993</ele>
        <time>2019-11-01T16:48:30Z</time>
      </trkpt>
      <trkpt lat="42.81675" lon="2.37038">
        <ele>348.092</ele>
        <time>2019-11-01T16:48:50Z</time>
      </trkpt>
      <trkpt lat="42.81666" lon="2.37039">
        <ele>348.089</ele>
        <time>2019-11-01T16:49:10Z</time>
      </trkpt>
      <trkpt lat="42.81553" lon="2.37208">
        <ele>346.906</ele>
        <time>2019-11-01T16:49:30Z</time>
      </trkpt>
      <trkpt lat="42.81484" lon="2.37302">
        <ele>345.126</ele>
        <time>2019-11-01T16:49:50Z</time>
      </trkpt>
      <trkpt lat="42.81456" lon="2.37335">
        <ele>341.708</ele>
        <time>2019-11-01T16:50:10Z</time>
      </trkpt>
      <trkpt lat="42.81408" lon="2.37349">
        <ele>340.694</ele>
        <time>2019-11-01T16:50:30Z</time>
      </trkpt>
      <trkpt lat="42.81423" lon="2.37414">
        <ele>340.09</ele>
        <time>2019-11-01T16:50:50Z</time>
      </trkpt>
      <trkpt lat="42.81409" lon="2.37494">
        <ele>340.085</ele>
        <time>2019-11-01T16:51:10Z</time>
      </trkpt>
      <trkpt lat="42.81393" lon="2.37522">
        <ele>340.018</ele>
        <time>2019-11-01T16:51:30Z</time>
      </trkpt>
      <trkpt lat="42.81405" lon="2.37653">
        <ele>340.074</ele>
        <time>2019-11-01T16:51:50Z</time>
      </trkpt>
      <trkpt lat="42.81401" lon="2.37684">
        <ele>339.636</ele>
        <time>2019-11-01T16:52:10Z</time>
      </trkpt>
      <trkpt lat="42.81366" lon="2.37647">
        <ele>339.852</ele>
        <time>2019-11-01T16:52:30Z</time>
      </trkpt>
      <trkpt lat="42.81327" lon="2.37635">
        <ele>340.021</ele>
        <time>2019-11-01T16:52:50Z</time>
      </trkpt>
      <trkpt lat="42.81274" lon="2.37652">
        <ele>340.069</ele>
        <time>2019-11-01T16:53:10Z</time>
      </trkpt>
      <trkpt lat="42.81201" lon="2.37592">
        <ele>340.804</ele>
        <time>2019-11-01T16:53:30Z</time>
      </trkpt>
      <trkpt lat="42.81139" lon="2.37647">
        <ele>342.024</ele>
        <time>2019-11-01T16:53:50Z</time>
      </trkpt>
      <trkpt lat="42.80977" lon="2.37733">
        <ele>346.908</ele>
        <time>2019-11-01T16:54:10Z</time>
      </trkpt>
      <trkpt lat="42.80934" lon="2.37805">
        <ele>346.452</ele>
        <time>2019-11-01T16:54:30Z</time>
      </trkpt>
      <trkpt lat="42.80832" lon="2.37795">
        <ele>348.538</ele>
        <time>2019-11-01T16:54:50Z</time>
      </trkpt>
      <trkpt lat="42.80813" lon="2.37824">
        <ele>348.843</ele>
        <time>2019-11-01T16:55:10Z</time>
      </trkpt>
      <trkpt lat="42.80802" lon="2.37814">
        <ele>349.986</ele>
        <time>2019-11-01T16:55:30Z</time>
      </trkpt>
      <trkpt lat="42.80773" lon="2.37809">
        <ele>351.122</ele>
        <time>2019-11-01T16:55:50Z</time>
      </trkpt>
      <trkpt lat="42.80719" lon="2.37787">
        <ele>352.844</ele>
        <time>2019-11-01T16:56:10Z</time>
      </trkpt>
      <trkpt lat="42.8066" lon="2.37816">
        <ele>353.92</ele>
        <time>2019-11-01T16:56:30Z</time>
      </trkpt>
      <trkpt lat="42.80641" lon="2.3779">
        <ele>355.949</ele>
        <time>2019-11-01T16:56:50Z</time>
      </trkpt>
      <trkpt lat="42.80603" lon="2.37805">
        <ele>357.352</ele>
        <time>2019-11-01T16:57:10Z</time>
      </trkpt>
      <trkpt lat="42.80526" lon="2.37793">
        <ele>364.653</ele>
        <time>2019-11-01T16:57:30Z</time>
      </trkpt>
      <trkpt lat="42.80482" lon="2.37774">
        <ele>370.908</ele>
        <time>2019-11-01T16:57:50Z</time>
      </trkpt>
      <trkpt lat="42.80428" lon="2.3777">
        <ele>379.008</ele>
        <time>2019-11-01T16:58:10Z</time>
      </trkpt>
      <trkpt lat="42.8043" lon="2.37788">
        <ele>378.311</ele>
        <time>2019-11-01T16:58:30Z</time>
      </trkpt>
      <trkpt lat="42.804" lon="2.37813">
        <ele>380.137</ele>
        <time>2019-11-01T16:58:50Z</time>
      </trkpt>
      <trkpt lat="42.8037" lon="2.37863">
        <ele>383.262</ele>
        <time>2019-11-01T16:59:10Z</time>
      </trkpt>
      <trkpt lat="42.80341" lon="2.37853">
        <ele>385.055</ele>
        <time>2019-11-01T16:59:30Z</time>
      </trkpt>
      <trkpt lat="42.80316" lon="2.37879">
        <ele>393.641</ele>
        <time>2019-11-01T16:59:50Z</time>
      </trkpt>
      <trkpt lat="42.80305" lon="2.37907">
        <ele>399.033</ele>
        <time>2019-11-01T17:00:10Z</time>
      </trkpt>
      <trkpt lat="42.8029" lon="2.3792">
        <ele>399.999</ele>
        <time>2019-11-01T17:00:30Z</time>
      </trkpt>
      <trkpt lat="42.80231" lon="2.38">
        <ele>396.488</ele>
        <time>2019-11-01T17:00:50Z</time>
      </trkpt>
      <trkpt lat="42.80189" lon="2.38014">
        <ele>403.379</ele>
        <time>2019-11-01T17:01:10Z</time>
      </trkpt>
      <trkpt lat="42.8019" lon="2.38045">
        <ele>399.105</ele>
        <time>2019-11-01T17:01:30Z</time>
      </trkpt>
      <trkpt lat="42.80211" lon="2.38055">
        <ele>394.125</ele>
        <time>2019-11-01T17:01:50Z</time>
      </trkpt>
      <trkpt lat="42.80231" lon="2.38097">
        <ele>389.008</ele>
        <time>2019-11-01T17:02:10Z</time>
      </trkpt>
      <trkpt lat="42.80229" lon="2.38123">
        <ele>389.883</ele>
        <time>2019-11-01T17:02:30Z</time>
      </trkpt>
      <trkpt lat="42.80208" lon="2.3813">
        <ele>392.819</ele>
        <time>2019-11-01T17:02:50Z</time>
      </trkpt>
      <trkpt lat="42.80172" lon="2.38291">
        <ele>381.234</ele>
        <time>2019-11-01T17:03:10Z</time>
      </trkpt>
      <trkpt lat="42.8014" lon="2.38387">
        <ele>374.387</ele>
        <time>2019-11-01T17:03:30Z</time>
      </trkpt>
      <trkpt lat="42.80128" lon="2.38458">
        <ele>369.743</ele>
        <time>2019-11-01T17:03:50Z</time>
      </trkpt>
      <trkpt lat="42.80087" lon="2.38518">
        <ele>365.855</ele>
        <time>2019-11-01T17:04:10Z</time>
      </trkpt>
      <trkpt lat="42.80072" lon="2.38502">
        <ele>364.511</ele>
        <time>2019-11-01T17:04:30Z</time>
      </trkpt>
      <trkpt lat="42.80061" lon="2.38413">
        <ele>369.08</ele>
        <time>2019-11-01T17:04:50Z</time>
      </trkpt>
      <trkpt lat="42.80036" lon="2.38354">
        <ele>371.355</ele>
        <time>2019-11-01T17:05:10Z</time>
      </trkpt>
      <trkpt lat="42.79998" lon="2.38327">
        <ele>372.007</ele>
        <time>2019-11-01T17:05:30Z</time>
      </trkpt>
      <trkpt lat="42.7995" lon="2.38333">
        <ele>373.017</ele>
        <time>2019-11-01T17:05:50Z</time>
      </trkpt>
      <trkpt lat="42.79895" lon="2.38271">
        <ele>386.908</ele>
        <time>2019-11-01T17:06:10Z</time>
      </trkpt>
      <trkpt lat="42.79843" lon="2.38276">
        <ele>374.691</ele>
        <time>2019-11-01T17:06:30Z</time>
      </trkpt>
      <trkpt lat="42.79823" lon="2.38296">
        <ele>371.777</ele>
        <time>2019-11-01T17:06:50Z</time>
      </trkpt>
      <trkpt lat="42.79797" lon="2.38289">
        <ele>373.672</ele>
        <time>2019-11-01T17:07:10Z</time>
      </trkpt>
      <trkpt lat="42.79783" lon="2.38266">
        <ele>379.955</ele>
        <time>2019-11-01T17:07:30Z</time>
      </trkpt>
      <trkpt lat="42.79721" lon="2.38229">
        <ele>378.611</ele>
        <time>2019-11-01T17:07:50Z</time>
      </trkpt>
      <trkpt lat="42.79711" lon="2.38201">
        <ele>384.493</ele>
        <time>2019-11-01T17:08:10Z</time>
      </trkpt>
      <trkpt lat="42.79685" lon="2.38179">
        <ele>388.899</ele>
        <time>2019-11-01T17:08:30Z</time>
      </trkpt>
      <trkpt lat="42.79664" lon="2.38174">
        <ele>391.758</ele>
        <time>2019-11-01T17:08:50Z</time>
      </trkpt>
      <trkpt lat="42.79678" lon="2.38084">
        <ele>420.694</ele>
        <time>2019-11-01T17:09:10Z</time>
      </trkpt>
      <trkpt lat="42.79668" lon="2.38006">
        <ele>418.357</ele>
        <time>2019-11-01T17:09:30Z</time>
      </trkpt>
      <trkpt lat="42.79648" lon="2.37959">
        <ele>404.622</ele>
        <time>2019-11-01T17:09:50Z</time>
      </trkpt>
      <trkpt lat="42.7961" lon="2.37956">
        <ele>415.708</ele>
        <time>2019-11-01T17:10:10Z</time>
      </trkpt>
      <trkpt lat="42.79588" lon="2.37987">
        <ele>397.795</ele>
        <time>2019-11-01T17:10:30Z</time>
      </trkpt>
      <trkpt lat="42.7956" lon="2.37998">
        <ele>396.731</ele>
        <time>2019-11-01T17:10:50Z</time>
      </trkpt>
      <trkpt lat="42.79519" lon="2.37983">
        <ele>407.856</ele>
        <time>2019-11-01T17:11:10Z</time>
      </trkpt>
      <trkpt lat="42.79494" lon="2.37923">
        <ele>402.659</ele>
        <time>2019-11-01T17:11:30Z</time>
      </trkpt>
      <trkpt lat="42.79445" lon="2.3794">
        <ele>408.485</ele>
        <time>2019-11-01T17:11:50Z</time>
      </trkpt>
      <trkpt lat="42.79414" lon="2.37936">
        <ele>411.457</ele>
        <time>2019-11-01T17:12:10Z</time>
      </trkpt>
      <trkpt lat="42.79411" lon="2.37907">
        <ele>416.293</ele>
        <time>2019-11-01T17:12:30Z</time>
      </trkpt>
      <trkpt lat="42.79436" lon="2.37847">
        <ele>415.492</ele>
        <time>2019-11-01T17:12:50Z</time>
      </trkpt>
      <trkpt lat="42.79405" lon="2.37821">
        <ele>425.098</ele>
        <time>2019-11-01T17:13:10Z</time>
      </trkpt>
      <trkpt lat="42.79345" lon="2.3786">
        <ele>419.515</ele>
        <time>2019-11-01T17:13:30Z</time>
      </trkpt>
      <trkpt lat="42.79311" lon="2.37856">
        <ele>448.926</ele>
        <time>2020-12-27T23:44:15Z</time>
      </trkpt>
      <trkpt lat="42.7928" lon="2.37807">
        <ele>446.408</ele>
        <time>2020-12-27T23:44:35Z</time>
      </trkpt>
      <trkpt lat="42.79246" lon="2.37789">
        <ele>444.095</ele>
        <time>2020-12-27T23:44:55Z</time>
      </trkpt>
      <trkpt lat="42.79184" lon="2.37707">
        <ele>430.011</ele>
        <time>2019-11-01T17:15:10Z</time>
      </trkpt>
      <trkpt lat="42.79098" lon="2.37652">
        <ele>430.096</ele>
        <time>2019-11-01T17:15:30Z</time>
      </trkpt>
      <trkpt lat="42.79061" lon="2.37649">
        <ele>441.959</ele>
        <time>2020-12-27T23:45:55Z</time>
      </trkpt>
      <trkpt lat="42.79008" lon="2.37678">
        <ele>445.655</ele>
        <time>2020-12-27T23:46:15Z</time>
      </trkpt>
      <trkpt lat="42.79024" lon="2.37695">
        <ele>446.327</ele>
        <time>2020-12-27T23:46:35Z</time>
      </trkpt>
      <trkpt lat="42.78998" lon="2.37696">
        <ele>438.463</ele>
        <time>2019-11-01T17:16:30Z</time>
      </trkpt>
      <trkpt lat="42.78983" lon="2.37735">
        <ele>447.982</ele>
        <time>2019-11-01T17:16:50Z</time>
      </trkpt>
      <trkpt lat="42.78942" lon="2.37811">
        <ele>458.516</ele>
        <time>2019-11-01T17:17:10Z</time>
      </trkpt>
      <trkpt lat="42.7899" lon="2.37774">
        <ele>462.076</ele>
        <time>2019-11-01T17:17:30Z</time>
      </trkpt>
      <trkpt lat="42.79065" lon="2.37827">
        <ele>466.713</ele>
        <time>2019-11-01T17:17:50Z</time>
      </trkpt>
      <trkpt lat="42.79091" lon="2.37893">
        <ele>476.708</ele>
        <time>2019-11-01T17:18:10Z</time>
      </trkpt>
      <trkpt lat="42.79135" lon="2.37958">
        <ele>480.237</ele>
        <time>2019-11-01T17:18:30Z</time>
      </trkpt>
      <trkpt lat="42.79172" lon="2.38048">
        <ele>487.443</ele>
        <time>2019-11-01T17:18:50Z</time>
      </trkpt>
      <trkpt lat="42.79119" lon="2.38073">
        <ele>494.038</ele>
        <time>2019-11-01T17:19:10Z</time>
      </trkpt>
      <trkpt lat="42.79089" lon="2.38114">
        <ele>496.141</ele>
        <time>2019-11-01T17:19:30Z</time>
      </trkpt>
      <trkpt lat="42.7906" lon="2.38135">
        <ele>504.557</ele>
        <time>2019-11-01T17:19:50Z</time>
      </trkpt>
      <trkpt lat="42.79028" lon="2.38172">
        <ele>508.149</ele>
        <time>2019-11-01T17:20:10Z</time>
      </trkpt>
      <trkpt lat="42.78949" lon="2.38153">
        <ele>510.425</ele>
        <time>2019-11-01T17:20:30Z</time>
      </trkpt>
      <trkpt lat="42.78855" lon="2.38259">
        <ele>511.154</ele>
        <time>2019-11-01T17:20:50Z</time>
      </trkpt>
      <trkpt lat="42.78784" lon="2.38248">
        <ele>506.188</ele>
        <time>2019-11-01T17:21:10Z</time>
      </trkpt>
      <trkpt lat="42.7873" lon="2.38261">
        <ele>501.824</ele>
        <time>2019-11-01T17:21:30Z</time>
      </trkpt>
      <trkpt lat="42.78696" lon="2.38278">
        <ele>502.926</ele>
        <time>2019-11-01T17:21:50Z</time>
      </trkpt>
      <trkpt lat="42.78738" lon="2.3848">
        <ele>489.908</ele>
        <time>2019-11-01T17:22:10Z</time>
      </trkpt>
      <trkpt lat="42.78747" lon="2.38632">
        <ele>480.784</ele>
        <time>2019-11-01T17:22:30Z</time>
      </trkpt>
      <trkpt lat="42.78713" lon="2.38673">
        <ele>481.14</ele>
        <time>2019-11-01T17:22:50Z</time>
      </trkpt>
      <trkpt lat="42.78757" lon="2.38749">
        <ele>482.685</ele>
        <time>2019-11-01T17:23:10Z</time>
      </trkpt>
      <trkpt lat="42.7878" lon="2.3882">
        <ele>487.438</ele>
        <time>2019-11-01T17:23:30Z</time>
      </trkpt>
      <trkpt lat="42.78745" lon="2.38961">
        <ele>501.834</ele>
        <time>2019-11-01T17:23:50Z</time>
      </trkpt>
      <trkpt lat="42.78755" lon="2.39023">
        <ele>493.496</ele>
        <time>2019-11-01T17:24:10Z</time>
      </trkpt>
      <trkpt lat="42.78741" lon="2.39039">
        <ele>493.112</ele>
        <time>2019-11-01T17:24:30Z</time>
      </trkpt>
      <trkpt lat="42.78716" lon="2.39041">
        <ele>493.161</ele>
        <time>2019-11-01T17:24:50Z</time>
      </trkpt>
      <trkpt lat="42.78747" lon="2.39096">
        <ele>485.967</ele>
        <time>2019-11-01T17:25:10Z</time>
      </trkpt>
      <trkpt lat="42.78733" lon="2.39145">
        <ele>485.781</ele>
        <time>2019-11-01T17:25:30Z</time>
      </trkpt>
      <trkpt lat="42.78792" lon="2.39239">
        <ele>482.319</ele>
        <time>2019-11-01T17:25:50Z</time>
      </trkpt>
      <trkpt lat="42.78787" lon="2.39289">
        <ele>485.108</ele>
        <time>2019-11-01T17:26:10Z</time>
      </trkpt>
      <trkpt lat="42.78817" lon="2.39299">
        <ele>486.472</ele>
        <time>2019-11-01T17:26:30Z</time>
      </trkpt>
      <trkpt lat="42.78865" lon="2.39163">
        <ele>485.518</ele>
        <time>2019-11-01T17:26:50Z</time>
      </trkpt>
      <trkpt lat="42.78888" lon="2.39145">
        <ele>491.223</ele>
        <time>2019-11-01T17:27:10Z</time>
      </trkpt>
      <trkpt lat="42.789" lon="2.39112">
        <ele>494.886</ele>
        <time>2019-11-01T17:27:30Z</time>
      </trkpt>
      <trkpt lat="42.78909" lon="2.39151">
        <ele>498.332</ele>
        <time>2019-11-01T17:27:50Z</time>
      </trkpt>
      <trkpt lat="42.7888" lon="2.39239">
        <ele>502.064</ele>
        <time>2019-11-01T17:28:10Z</time>
      </trkpt>
      <trkpt lat="42.78856" lon="2.39483">
        <ele>514.06</ele>
        <time>2019-11-01T17:28:30Z</time>
      </trkpt>
      <trkpt lat="42.78817" lon="2.39936">
        <ele>534.349</ele>
        <time>2019-11-01T17:28:50Z</time>
      </trkpt>
      <trkpt lat="42.78826" lon="2.4003">
        <ele>542.426</ele>
        <time>2019-11-01T17:29:10Z</time>
      </trkpt>
      <trkpt lat="42.78784" lon="2.40184">
        <ele>550.247</ele>
        <time>2019-11-01T17:29:30Z</time>
      </trkpt>
      <trkpt lat="42.78888" lon="2.40361">
        <ele>562.911</ele>
        <time>2019-11-01T17:29:50Z</time>
      </trkpt>
      <trkpt lat="42.78898" lon="2.40423">
        <ele>563.908</ele>
        <time>2019-11-01T17:30:10Z</time>
      </trkpt>
      <trkpt lat="42.7889" lon="2.40575">
        <ele>563.698</ele>
        <time>2019-11-01T17:30:30Z</time>
      </trkpt>
      <trkpt lat="42.78909" lon="2.40656">
        <ele>569.164</ele>
        <time>2019-11-01T17:30:50Z</time>
      </trkpt>
      <trkpt lat="42.78882" lon="2.40766">
        <ele>558.279</ele>
        <time>2019-11-01T17:31:10Z</time>
      </trkpt>
      <trkpt lat="42.78897" lon="2.40876">
        <ele>557.332</ele>
        <time>2019-11-01T17:31:30Z</time>
      </trkpt>
      <trkpt lat="42.78893" lon="2.40991">
        <ele>558.828</ele>
        <time>2019-11-01T17:31:50Z</time>
      </trkpt>
      <trkpt lat="42.78922" lon="2.41102">
        <ele>570.48</ele>
        <time>2019-11-01T17:32:10Z</time>
      </trkpt>
      <trkpt lat="42.7891" lon="2.41214">
        <ele>556.856</ele>
        <time>2019-11-01T17:32:30Z</time>
      </trkpt>
      <trkpt lat="42.78851" lon="2.41382">
        <ele>539.355</ele>
        <time>2019-11-01T17:32:50Z</time>
      </trkpt>
      <trkpt lat="42.78824" lon="2.41511">
        <ele>532.916</ele>
        <time>2019-11-01T17:33:10Z</time>
      </trkpt>
      <trkpt lat="42.78824" lon="2.41651">
        <ele>529.776</ele>
        <time>2019-11-01T17:33:30Z</time>
      </trkpt>
      <trkpt lat="42.78801" lon="2.41794">
        <ele>522.213</ele>
        <time>2019-11-01T17:33:50Z</time>
      </trkpt>
      <trkpt lat="42.78811" lon="2.41964">
        <ele>508.308</ele>
        <time>2019-11-01T17:34:10Z</time>
      </trkpt>
      <trkpt lat="42.7878" lon="2.42127">
        <ele>504.377</ele>
        <time>2019-11-01T17:34:30Z</time>
      </trkpt>
      <trkpt lat="42.78767" lon="2.42295">
        <ele>503.013</ele>
        <time>2019-11-01T17:34:50Z</time>
      </trkpt>
      <trkpt lat="42.78748" lon="2.42385">
        <ele>501.358</ele>
        <time>2019-11-01T17:35:10Z</time>
      </trkpt>
      <trkpt lat="42.78758" lon="2.42477">
        <ele>504.281</ele>
        <time>2019-11-01T17:35:30Z</time>
      </trkpt>
      <trkpt lat="42.78728" lon="2.42737">
        <ele>499.597</ele>
        <time>2019-11-01T17:35:50Z</time>
      </trkpt>
      <trkpt lat="42.78738" lon="2.42838">
        <ele>499.569</ele>
        <time>2019-11-01T17:36:10Z</time>
      </trkpt>
      <trkpt lat="42.78755" lon="2.42928">
        <ele>498.645</ele>
        <time>2019-11-01T17:36:30Z</time>
      </trkpt>
      <trkpt lat="42.78806" lon="2.42978">
        <ele>508.864</ele>
        <time>2019-11-01T17:36:50Z</time>
      </trkpt>
      <trkpt lat="42.78806" lon="2.43027">
        <ele>508.048</ele>
        <time>2019-11-01T17:37:10Z</time>
      </trkpt>
      <trkpt lat="42.78826" lon="2.43075">
        <ele>513.661</ele>
        <time>2019-11-01T17:37:30Z</time>
      </trkpt>
      <trkpt lat="42.78844" lon="2.43148">
        <ele>514.817</ele>
        <time>2019-11-01T17:37:50Z</time>
      </trkpt>
      <trkpt lat="42.78856" lon="2.43243">
        <ele>508.608</ele>
        <time>2019-11-01T17:38:10Z</time>
      </trkpt>
      <trkpt lat="42.78851" lon="2.43342">
        <ele>497.51</ele>
        <time>2019-11-01T17:38:30Z</time>
      </trkpt>
      <trkpt lat="42.78841" lon="2.43418">
        <ele>489.976</ele>
        <time>2019-11-01T17:38:50Z</time>
      </trkpt>
      <trkpt lat="42.78822" lon="2.43484">
        <ele>481.391</ele>
        <time>2019-11-01T17:39:10Z</time>
      </trkpt>
      <trkpt lat="42.78814" lon="2.43585">
        <ele>475.984</ele>
        <time>2019-11-01T17:39:30Z</time>
      </trkpt>
      <trkpt lat="42.78792" lon="2.43671">
        <ele>471.09</ele>
        <time>2019-11-01T17:39:50Z</time>
      </trkpt>
      <trkpt lat="42.7877" lon="2.4382">
        <ele>467.452</ele>
        <time>2019-11-01T17:40:10Z</time>
      </trkpt>
      <trkpt lat="42.78748" lon="2.43884">
        <ele>466.618</ele>
        <time>2019-11-01T17:40:30Z</time>
      </trkpt>
      <trkpt lat="42.78743" lon="2.44388">
        <ele>467.547</ele>
        <time>2019-11-01T17:40:50Z</time>
      </trkpt>
      <trkpt lat="42.78812" lon="2.4445">
        <ele>472.196</ele>
        <time>2019-11-01T17:41:10Z</time>
      </trkpt>
      <trkpt lat="42.78792" lon="2.44565">
        <ele>496.231</ele>
        <time>2019-11-01T17:41:30Z</time>
      </trkpt>
      <trkpt lat="42.78816" lon="2.44802">
        <ele>514.024</ele>
        <time>2019-11-01T17:41:50Z</time>
      </trkpt>
      <trkpt lat="42.78795" lon="2.44807">
        <ele>508.708</ele>
        <time>2019-11-01T17:42:10Z</time>
      </trkpt>
      <trkpt lat="42.78789" lon="2.44827">
        <ele>507.015</ele>
        <time>2019-11-01T17:42:30Z</time>
      </trkpt>
      <trkpt lat="42.78736" lon="2.4485">
        <ele>495.091</ele>
        <time>2019-11-01T17:42:50Z</time>
      </trkpt>
      <trkpt lat="42.78708" lon="2.4485">
        <ele>497.366</ele>
        <time>2019-11-01T17:43:10Z</time>
      </trkpt>
      <trkpt lat="42.78704" lon="2.44961">
        <ele>501.369</ele>
        <time>2019-11-01T17:43:30Z</time>
      </trkpt>
      <trkpt lat="42.78728" lon="2.44954">
        <ele>500.265</ele>
        <time>2019-11-01T17:43:50Z</time>
      </trkpt>
      <trkpt lat="42.78809" lon="2.45064">
        <ele>515.397</ele>
        <time>2019-11-01T17:44:10Z</time>
      </trkpt>
      <trkpt lat="42.78828" lon="2.45165">
        <ele>518.463</ele>
        <time>2019-11-01T17:44:30Z</time>
      </trkpt>
      <trkpt lat="42.78816" lon="2.4525">
        <ele>518.772</ele>
        <time>2019-11-01T17:44:50Z</time>
      </trkpt>
      <trkpt lat="42.78812" lon="2.45326">
        <ele>518.378</ele>
        <time>2019-11-01T17:45:10Z</time>
      </trkpt>
      <trkpt lat="42.78839" lon="2.45437">
        <ele>518.233</ele>
        <time>2019-11-01T17:45:30Z</time>
      </trkpt>
      <trkpt lat="42.78851" lon="2.45549">
        <ele>516.226</ele>
        <time>2019-11-01T17:45:50Z</time>
      </trkpt>
      <trkpt lat="42.78831" lon="2.45664">
        <ele>510.308</ele>
        <time>2019-11-01T17:46:10Z</time>
      </trkpt>
      <trkpt lat="42.78858" lon="2.45731">
        <ele>505.073</ele>
        <time>2019-11-01T17:46:30Z</time>
      </trkpt>
      <trkpt lat="42.78863" lon="2.45793">
        <ele>501.249</ele>
        <time>2019-11-01T17:46:50Z</time>
      </trkpt>
      <trkpt lat="42.78829" lon="2.45802">
        <ele>496.144</ele>
        <time>2019-11-01T17:47:10Z</time>
      </trkpt>
      <trkpt lat="42.78785" lon="2.45904">
        <ele>499.887</ele>
        <time>2019-11-01T17:47:30Z</time>
      </trkpt>
      <trkpt lat="42.7878" lon="2.46005">
        <ele>495.053</ele>
        <time>2019-11-01T17:47:50Z</time>
      </trkpt>
      <trkpt lat="42.78768" lon="2.46104">
        <ele>491.275</ele>
        <time>2019-11-01T17:48:10Z</time>
      </trkpt>
      <trkpt lat="42.78782" lon="2.46221">
        <ele>477.561</ele>
        <time>2019-11-01T17:48:30Z</time>
      </trkpt>
      <trkpt lat="42.78674" lon="2.46492">
        <ele>459.88</ele>
        <time>2019-11-01T17:48:50Z</time>
      </trkpt>
      <trkpt lat="42.7864" lon="2.46596">
        <ele>454.032</ele>
        <time>2019-11-01T17:49:10Z</time>
      </trkpt>
      <trkpt lat="42.78578" lon="2.46699">
        <ele>452.692</ele>
        <time>2019-11-01T17:49:30Z</time>
      </trkpt>
      <trkpt lat="42.78571" lon="2.4678">
        <ele>445.911</ele>
        <time>2019-11-01T17:49:50Z</time>
      </trkpt>
      <trkpt lat="42.78564" lon="2.46913">
        <ele>429.408</ele>
        <time>2019-11-01T17:50:10Z</time>
      </trkpt>
      <trkpt lat="42.78529" lon="2.46904">
        <ele>421.739</ele>
        <time>2019-11-01T17:50:30Z</time>
      </trkpt>
      <trkpt lat="42.78512" lon="2.46872">
        <ele>419.775</ele>
        <time>2019-11-01T17:50:50Z</time>
      </trkpt>
      <trkpt lat="42.78503" lon="2.46819">
        <ele>422.51</ele>
        <time>2019-11-01T17:51:10Z</time>
      </trkpt>
      <trkpt lat="42.78471" lon="2.4687">
        <ele>428.033</ele>
        <time>2019-11-01T17:51:30Z</time>
      </trkpt>
      <trkpt lat="42.78439" lon="2.46886">
        <ele>431.689</ele>
        <time>2019-11-01T17:51:50Z</time>
      </trkpt>
      <trkpt lat="42.7846" lon="2.46955">
        <ele>429.721</ele>
        <time>2019-11-01T17:52:10Z</time>
      </trkpt>
      <trkpt lat="42.7846" lon="2.47017">
        <ele>435.927</ele>
        <time>2019-11-01T17:52:30Z</time>
      </trkpt>
      <trkpt lat="42.78441" lon="2.46961">
        <ele>439.466</ele>
        <time>2019-11-01T17:52:50Z</time>
      </trkpt>
      <trkpt lat="42.78385" lon="2.46927">
        <ele>454.735</ele>
        <time>2019-11-01T17:53:10Z</time>
      </trkpt>
      <trkpt lat="42.7836" lon="2.46893">
        <ele>455.886</ele>
        <time>2019-11-01T17:53:30Z</time>
      </trkpt>
      <trkpt lat="42.7825" lon="2.46801">
        <ele>478.914</ele>
        <time>2019-11-01T17:53:50Z</time>
      </trkpt>
      <trkpt lat="42.78201" lon="2.46798">
        <ele>479.208</ele>
        <time>2019-11-01T17:54:10Z</time>
      </trkpt>
      <trkpt lat="42.78146" lon="2.46755">
        <ele>475.099</ele>
        <time>2019-11-01T17:54:30Z</time>
      </trkpt>
      <trkpt lat="42.78122" lon="2.4672">
        <ele>476.585</ele>
        <time>2019-11-01T17:54:50Z</time>
      </trkpt>
      <trkpt lat="42.78103" lon="2.46732">
        <ele>477.53</ele>
        <time>2019-11-01T17:55:10Z</time>
      </trkpt>
      <trkpt lat="42.78085" lon="2.46787">
        <ele>480.643</ele>
        <time>2019-11-01T17:55:30Z</time>
      </trkpt>
      <trkpt lat="42.78058" lon="2.46715">
        <ele>486.979</ele>
        <time>2019-11-01T17:55:50Z</time>
      </trkpt>
      <trkpt lat="42.78036" lon="2.46711">
        <ele>488.161</ele>
        <time>2019-11-01T17:56:10Z</time>
      </trkpt>
      <trkpt lat="42.77979" lon="2.46736">
        <ele>488.937</ele>
        <time>2019-11-01T17:56:30Z</time>
      </trkpt>
      <trkpt lat="42.77933" lon="2.46692">
        <ele>491.216</ele>
        <time>2019-11-01T17:56:50Z</time>
      </trkpt>
      <trkpt lat="42.77909" lon="2.46704">
        <ele>492.928</ele>
        <time>2019-11-01T17:57:10Z</time>
      </trkpt>
      <trkpt lat="42.77855" lon="2.46828">
        <ele>495.589</ele>
        <time>2019-11-01T17:57:30Z</time>
      </trkpt>
      <trkpt lat="42.77837" lon="2.46922">
        <ele>495.617</ele>
        <time>2019-11-01T17:57:50Z</time>
      </trkpt>
      <trkpt lat="42.77761" lon="2.47001">
        <ele>501.908</ele>
        <time>2019-11-01T17:58:10Z</time>
      </trkpt>
      <trkpt lat="42.77756" lon="2.47037">
        <ele>500.958</ele>
        <time>2019-11-01T17:58:30Z</time>
      </trkpt>
      <trkpt lat="42.77712" lon="2.47017">
        <ele>509.634</ele>
        <time>2019-11-01T17:58:50Z</time>
      </trkpt>
      <trkpt lat="42.77746" lon="2.46768">
        <ele>512.689</ele>
        <time>2019-11-01T17:59:10Z</time>
      </trkpt>
      <trkpt lat="42.77756" lon="2.46428">
        <ele>518.642</ele>
        <time>2019-11-01T17:59:30Z</time>
      </trkpt>
      <trkpt lat="42.77737" lon="2.46318">
        <ele>509.768</ele>
        <time>2019-11-01T17:59:50Z</time>
      </trkpt>
      <trkpt lat="42.77671" lon="2.46324">
        <ele>497.76</ele>
        <time>2019-11-01T18:00:10Z</time>
      </trkpt>
      <trkpt lat="42.77627" lon="2.46329">
        <ele>490.376</ele>
        <time>2019-11-01T18:00:30Z</time>
      </trkpt>
      <trkpt lat="42.7753" lon="2.46389">
        <ele>473.375</ele>
        <time>2019-11-01T18:00:50Z</time>
      </trkpt>
      <trkpt lat="42.77508" lon="2.46366">
        <ele>472.676</ele>
        <time>2019-11-01T18:01:10Z</time>
      </trkpt>
      <trkpt lat="42.77514" lon="2.46219">
        <ele>466.29</ele>
        <time>2019-11-01T18:01:30Z</time>
      </trkpt>
      <trkpt lat="42.77508" lon="2.46062">
        <ele>456.819</ele>
        <time>2019-11-01T18:01:50Z</time>
      </trkpt>
      <trkpt lat="42.77497" lon="2.45904">
        <ele>456.108</ele>
        <time>2019-11-01T18:02:10Z</time>
      </trkpt>
      <trkpt lat="42.77484" lon="2.45828">
        <ele>450.663</ele>
        <time>2019-11-01T18:02:30Z</time>
      </trkpt>
      <trkpt lat="42.77482" lon="2.45759">
        <ele>442.929</ele>
        <time>2019-11-01T18:02:50Z</time>
      </trkpt>
      <trkpt lat="42.77437" lon="2.45658">
        <ele>428.474</ele>
        <time>2019-11-01T18:03:10Z</time>
      </trkpt>
      <trkpt lat="42.77347" lon="2.45582">
        <ele>418.937</ele>
        <time>2019-11-01T18:03:30Z</time>
      </trkpt>
      <trkpt lat="42.77307" lon="2.45586">
        <ele>412.723</ele>
        <time>2019-11-01T18:03:50Z</time>
      </trkpt>
      <trkpt lat="42.77276" lon="2.45623">
        <ele>410.485</ele>
        <time>2019-11-01T18:04:10Z</time>
      </trkpt>
      <trkpt lat="42.77251" lon="2.45589">
        <ele>411.631</ele>
        <time>2019-11-01T18:04:30Z</time>
      </trkpt>
      <trkpt lat="42.77222" lon="2.45625">
        <ele>410.54</ele>
        <time>2019-11-01T18:04:50Z</time>
      </trkpt>
      <trkpt lat="42.77199" lon="2.45612">
        <ele>412.761</ele>
        <time>2019-11-01T18:05:10Z</time>
      </trkpt>
      <trkpt lat="42.77205" lon="2.45548">
        <ele>419.021</ele>
        <time>2019-11-01T18:05:30Z</time>
      </trkpt>
      <trkpt lat="42.772" lon="2.45518">
        <ele>421.113</ele>
        <time>2019-11-01T18:05:50Z</time>
      </trkpt>
      <trkpt lat="42.77209" lon="2.45492">
        <ele>424.108</ele>
        <time>2019-11-01T18:06:10Z</time>
      </trkpt>
      <trkpt lat="42.77182" lon="2.45434">
        <ele>423.482</ele>
        <time>2019-11-01T18:06:30Z</time>
      </trkpt>
      <trkpt lat="42.77124" lon="2.45359">
        <ele>424.758</ele>
        <time>2019-11-01T18:06:50Z</time>
      </trkpt>
      <trkpt lat="42.77082" lon="2.45345">
        <ele>429.613</ele>
        <time>2019-11-01T18:07:10Z</time>
      </trkpt>
      <trkpt lat="42.77096" lon="2.45306">
        <ele>430.296</ele>
        <time>2019-11-01T18:07:30Z</time>
      </trkpt>
      <trkpt lat="42.77101" lon="2.4517">
        <ele>440.412</ele>
        <time>2019-11-01T18:07:50Z</time>
      </trkpt>
      <trkpt lat="42.77124" lon="2.44979">
        <ele>452.334</ele>
        <time>2019-11-01T18:08:10Z</time>
      </trkpt>
      <trkpt lat="42.77167" lon="2.44905">
        <ele>446.32</ele>
        <time>2019-11-01T18:08:30Z</time>
      </trkpt>
      <trkpt lat="42.77185" lon="2.44788">
        <ele>447.249</ele>
        <time>2019-11-01T18:08:50Z</time>
      </trkpt>
      <trkpt lat="42.77172" lon="2.44646">
        <ele>455.498</ele>
        <time>2019-11-01T18:09:10Z</time>
      </trkpt>
      <trkpt lat="42.77216" lon="2.44517">
        <ele>465.215</ele>
        <time>2019-11-01T18:09:30Z</time>
      </trkpt>
      <trkpt lat="42.77266" lon="2.44324">
        <ele>476.326</ele>
        <time>2019-11-01T18:09:50Z</time>
      </trkpt>
      <trkpt lat="42.77313" lon="2.44181">
        <ele>483.008</ele>
        <time>2019-11-01T18:10:10Z</time>
      </trkpt>
      <trkpt lat="42.7733" lon="2.4408">
        <ele>486.165</ele>
        <time>2019-11-01T18:10:30Z</time>
      </trkpt>
      <trkpt lat="42.77324" lon="2.43958">
        <ele>496.441</ele>
        <time>2019-11-01T18:10:50Z</time>
      </trkpt>
      <trkpt lat="42.77308" lon="2.43866">
        <ele>503.056</ele>
        <time>2019-11-01T18:11:10Z</time>
      </trkpt>
      <trkpt lat="42.77276" lon="2.43829">
        <ele>510.179</ele>
        <time>2019-11-01T18:11:30Z</time>
      </trkpt>
      <trkpt lat="42.77212" lon="2.43776">
        <ele>514.195</ele>
        <time>2019-11-01T18:11:50Z</time>
      </trkpt>
      <trkpt lat="42.7716" lon="2.43671">
        <ele>520.487</ele>
        <time>2019-11-01T18:12:10Z</time>
      </trkpt>
      <trkpt lat="42.77133" lon="2.4359">
        <ele>526.623</ele>
        <time>2019-11-01T18:12:30Z</time>
      </trkpt>
      <trkpt lat="42.77075" lon="2.43487">
        <ele>536.182</ele>
        <time>2019-11-01T18:12:50Z</time>
      </trkpt>
      <trkpt lat="42.77025" lon="2.43443">
        <ele>542.256</ele>
        <time>2019-11-01T18:13:10Z</time>
      </trkpt>
      <trkpt lat="42.76952" lon="2.43443">
        <ele>549.859</ele>
        <time>2019-11-01T18:13:30Z</time>
      </trkpt>
      <trkpt lat="42.76868" lon="2.43459">
        <ele>554.814</ele>
        <time>2019-11-01T18:13:50Z</time>
      </trkpt>
      <trkpt lat="42.76812" lon="2.43392">
        <ele>557.108</ele>
        <time>2019-11-01T18:14:10Z</time>
      </trkpt>
      <trkpt lat="42.76709" lon="2.43289">
        <ele>567.261</ele>
        <time>2019-11-01T18:14:30Z</time>
      </trkpt>
      <trkpt lat="42.7664" lon="2.43247">
        <ele>576.267</ele>
        <time>2019-11-01T18:14:50Z</time>
      </trkpt>
      <trkpt lat="42.76505" lon="2.43132">
        <ele>592.722</ele>
        <time>2019-11-01T18:15:10Z</time>
      </trkpt>
      <trkpt lat="42.76446" lon="2.43125">
        <ele>602.025</ele>
        <time>2019-11-01T18:15:30Z</time>
      </trkpt>
      <trkpt lat="42.76344" lon="2.43155">
        <ele>612.671</ele>
        <time>2019-11-01T18:15:50Z</time>
      </trkpt>
      <trkpt lat="42.76294" lon="2.43123">
        <ele>610.643</ele>
        <time>2019-11-01T18:16:10Z</time>
      </trkpt>
      <trkpt lat="42.7624" lon="2.43027">
        <ele>626.169</ele>
        <time>2019-11-01T18:16:30Z</time>
      </trkpt>
      <trkpt lat="42.76194" lon="2.42849">
        <ele>637.668</ele>
        <time>2019-11-01T18:16:50Z</time>
      </trkpt>
      <trkpt lat="42.76108" lon="2.42748">
        <ele>649.816</ele>
        <time>2019-11-01T18:17:10Z</time>
      </trkpt>
      <trkpt lat="42.76046" lon="2.42647">
        <ele>660.476</ele>
        <time>2019-11-01T18:17:30Z</time>
      </trkpt>
      <trkpt lat="42.76002" lon="2.42528">
        <ele>668.613</ele>
        <time>2019-11-01T18:17:50Z</time>
      </trkpt>
      <trkpt lat="42.75978" lon="2.42406">
        <ele>680.308</ele>
        <time>2019-11-01T18:18:10Z</time>
      </trkpt>
      <trkpt lat="42.75915" lon="2.42318">
        <ele>690.187</ele>
        <time>2019-11-01T18:18:30Z</time>
      </trkpt>
      <trkpt lat="42.75814" lon="2.42215">
        <ele>703.423</ele>
        <time>2019-11-01T18:18:50Z</time>
      </trkpt>
      <trkpt lat="42.75767" lon="2.4213">
        <ele>707.298</ele>
        <time>2019-11-01T18:19:10Z</time>
      </trkpt>
      <trkpt lat="42.75718" lon="2.42086">
        <ele>710.921</ele>
        <time>2019-11-01T18:19:30Z</time>
      </trkpt>
      <trkpt lat="42.75672" lon="2.42061">
        <ele>717.857</ele>
        <time>2019-11-01T18:19:50Z</time>
      </trkpt>
      <trkpt lat="42.75644" lon="2.42012">
        <ele>724.469</ele>
        <time>2019-11-01T18:20:10Z</time>
      </trkpt>
      <trkpt lat="42.7559" lon="2.41987">
        <ele>736.785</ele>
        <time>2019-11-01T18:20:30Z</time>
      </trkpt>
      <trkpt lat="42.75414" lon="2.41946">
        <ele>761.894</ele>
        <time>2019-11-01T18:20:50Z</time>
      </trkpt>
      <trkpt lat="42.7533" lon="2.41957">
        <ele>782.295</ele>
        <time>2019-11-01T18:21:10Z</time>
      </trkpt>
      <trkpt lat="42.75245" lon="2.41955">
        <ele>805.649</ele>
        <time>2019-11-01T18:21:50Z</time>
      </trkpt>
      <trkpt lat="42.75114" lon="2.41895">
        <ele>858.823</ele>
        <time>2020-12-28T00:52:15Z</time>
      </trkpt>
      <trkpt lat="42.74906" lon="2.41728">
        <ele>901.208</ele>
        <time>2020-12-28T00:52:35Z</time>
      </trkpt>
      <trkpt lat="42.7481" lon="2.41717">
        <ele>923.325</ele>
        <time>2020-12-28T00:52:55Z</time>
      </trkpt>
      <trkpt lat="42.7476" lon="2.41734">
        <ele>932.981</ele>
        <time>2020-12-28T00:53:15Z</time>
      </trkpt>
      <trkpt lat="42.74689" lon="2.41793">
        <ele>952.916</ele>
        <time>2020-12-28T00:53:35Z</time>
      </trkpt>
      <trkpt lat="42.74663" lon="2.41808">
        <ele>957.529</ele>
        <time>2020-12-28T00:53:55Z</time>
      </trkpt>
      <trkpt lat="42.7465" lon="2.41841">
        <ele>960.355</ele>
        <time>2020-12-28T00:54:15Z</time>
      </trkpt>
      <trkpt lat="42.74627" lon="2.41846">
        <ele>963.037</ele>
        <time>2020-12-28T00:54:35Z</time>
      </trkpt>
      <trkpt lat="42.74626" lon="2.41821">
        <ele>962.053</ele>
        <time>2020-12-28T00:54:55Z</time>
      </trkpt>
      <trkpt lat="42.74619" lon="2.41787">
        <ele>952.732</ele>
        <time>2019-11-01T18:25:30Z</time>
      </trkpt>
      <trkpt lat="42.74568" lon="2.41792">
        <ele>959.668</ele>
        <time>2019-11-01T18:25:50Z</time>
      </trkpt>
      <trkpt lat="42.74553" lon="2.41964">
        <ele>968.542</ele>
        <time>2020-12-28T00:55:55Z</time>
      </trkpt>
      <trkpt lat="42.74551" lon="2.42118">
        <ele>980.026</ele>
        <time>2019-11-01T18:26:10Z</time>
      </trkpt>
      <trkpt lat="42.7449" lon="2.42201">
        <ele>979.908</ele>
        <time>2019-11-01T18:26:30Z</time>
      </trkpt>
      <trkpt lat="42.74433" lon="2.42321">
        <ele>986.862</ele>
        <time>2019-11-01T18:26:50Z</time>
      </trkpt>
      <trkpt lat="42.74465" lon="2.42548">
        <ele>969.478</ele>
        <time>2019-11-01T18:27:10Z</time>
      </trkpt>
      <trkpt lat="42.74487" lon="2.4258">
        <ele>959.533</ele>
        <time>2019-11-01T18:27:30Z</time>
      </trkpt>
      <trkpt lat="42.74468" lon="2.42716">
        <ele>956.536</ele>
        <time>2019-11-01T18:27:50Z</time>
      </trkpt>
      <trkpt lat="42.74483" lon="2.42893">
        <ele>955.282</ele>
        <time>2019-11-01T18:28:10Z</time>
      </trkpt>
      <trkpt lat="42.74477" lon="2.42944">
        <ele>956.444</ele>
        <time>2019-11-01T18:28:30Z</time>
      </trkpt>
      <trkpt lat="42.74445" lon="2.42978">
        <ele>955.64</ele>
        <time>2019-11-01T18:28:50Z</time>
      </trkpt>
      <trkpt lat="42.74428" lon="2.43082">
        <ele>946.729</ele>
        <time>2019-11-01T18:29:10Z</time>
      </trkpt>
      <trkpt lat="42.74429" lon="2.43201">
        <ele>938.847</ele>
        <time>2019-11-01T18:29:30Z</time>
      </trkpt>
      <trkpt lat="42.74384" lon="2.43139">
        <ele>934.929</ele>
        <time>2019-11-01T18:29:50Z</time>
      </trkpt>
      <trkpt lat="42.74413" lon="2.43376">
        <ele>918.021</ele>
        <time>2019-11-01T18:30:10Z</time>
      </trkpt>
      <trkpt lat="42.74348" lon="2.43321">
        <ele>910.408</ele>
        <time>2019-11-01T18:30:30Z</time>
      </trkpt>
      <trkpt lat="42.74375" lon="2.43415">
        <ele>905.73</ele>
        <time>2019-11-01T18:30:50Z</time>
      </trkpt>
      <trkpt lat="42.74416" lon="2.43512">
        <ele>900.656</ele>
        <time>2019-11-01T18:31:10Z</time>
      </trkpt>
      <trkpt lat="42.74468" lon="2.43684">
        <ele>893.351</ele>
        <time>2019-11-01T18:31:30Z</time>
      </trkpt>
      <trkpt lat="42.74472" lon="2.43751">
        <ele>886.894</ele>
        <time>2019-11-01T18:31:50Z</time>
      </trkpt>
      <trkpt lat="42.74399" lon="2.43749">
        <ele>877.86</ele>
        <time>2019-11-01T18:32:10Z</time>
      </trkpt>
      <trkpt lat="42.74331" lon="2.43779">
        <ele>868.642</ele>
        <time>2019-11-01T18:32:30Z</time>
      </trkpt>
      <trkpt lat="42.74282" lon="2.43795">
        <ele>861.338</ele>
        <time>2019-11-01T18:32:50Z</time>
      </trkpt>
      <trkpt lat="42.74259" lon="2.43854">
        <ele>854.827</ele>
        <time>2019-11-01T18:33:10Z</time>
      </trkpt>
      <trkpt lat="42.74242" lon="2.43992">
        <ele>847.751</ele>
        <time>2019-11-01T18:33:30Z</time>
      </trkpt>
      <trkpt lat="42.74252" lon="2.4417">
        <ele>833.001</ele>
        <time>2019-11-01T18:33:50Z</time>
      </trkpt>
      <trkpt lat="42.74212" lon="2.4422">
        <ele>831.311</ele>
        <time>2019-11-01T18:34:10Z</time>
      </trkpt>
      <trkpt lat="42.7413" lon="2.44241">
        <ele>822.008</ele>
        <time>2019-11-01T18:34:30Z</time>
      </trkpt>
      <trkpt lat="42.74081" lon="2.44216">
        <ele>817.591</ele>
        <time>2019-11-01T18:34:50Z</time>
      </trkpt>
      <trkpt lat="42.74171" lon="2.44471">
        <ele>799.117</ele>
        <time>2019-11-01T18:35:10Z</time>
      </trkpt>
      <trkpt lat="42.74206" lon="2.44503">
        <ele>794.522</ele>
        <time>2019-11-01T18:35:30Z</time>
      </trkpt>
      <trkpt lat="42.74201" lon="2.44574">
        <ele>788.515</ele>
        <time>2019-11-01T18:35:50Z</time>
      </trkpt>
      <trkpt lat="42.7421" lon="2.44618">
        <ele>783.271</ele>
        <time>2019-11-01T18:36:10Z</time>
      </trkpt>
      <trkpt lat="42.74201" lon="2.44692">
        <ele>777.153</ele>
        <time>2019-11-01T18:36:30Z</time>
      </trkpt>
      <trkpt lat="42.74169" lon="2.44731">
        <ele>774.919</ele>
        <time>2019-11-01T18:36:50Z</time>
      </trkpt>
      <trkpt lat="42.74075" lon="2.44728">
        <ele>770.698</ele>
        <time>2019-11-01T18:37:10Z</time>
      </trkpt>
      <trkpt lat="42.74038" lon="2.44754">
        <ele>764.535</ele>
        <time>2019-11-01T18:37:30Z</time>
      </trkpt>
      <trkpt lat="42.73995" lon="2.44722">
        <ele>754.986</ele>
        <time>2019-11-01T18:37:50Z</time>
      </trkpt>
      <trkpt lat="42.73904" lon="2.44715">
        <ele>738.414</ele>
        <time>2019-11-01T18:38:10Z</time>
      </trkpt>
      <trkpt lat="42.73766" lon="2.44607">
        <ele>708.908</ele>
        <time>2019-11-01T18:38:30Z</time>
      </trkpt>
      <trkpt lat="42.73607" lon="2.44749">
        <ele>674.679</ele>
        <time>2019-11-01T18:38:50Z</time>
      </trkpt>
      <trkpt lat="42.73548" lon="2.44768">
        <ele>659.465</ele>
        <time>2019-11-01T18:39:10Z</time>
      </trkpt>
      <trkpt lat="42.73495" lon="2.44761">
        <ele>642.05</ele>
        <time>2019-11-01T18:39:30Z</time>
      </trkpt>
      <trkpt lat="42.73482" lon="2.44717">
        <ele>643.033</ele>
        <time>2019-11-01T18:39:50Z</time>
      </trkpt>
      <trkpt lat="42.7335" lon="2.44687">
        <ele>629.679</ele>
        <time>2019-11-01T18:40:10Z</time>
      </trkpt>
      <trkpt lat="42.73321" lon="2.44671">
        <ele>628.011</ele>
        <time>2019-11-01T18:40:30Z</time>
      </trkpt>
      <trkpt lat="42.73176" lon="2.44634">
        <ele>613.117</ele>
        <time>2019-11-01T18:40:50Z</time>
      </trkpt>
      <trkpt lat="42.73109" lon="2.44604">
        <ele>606.016</ele>
        <time>2019-11-01T18:41:10Z</time>
      </trkpt>
      <trkpt lat="42.7307" lon="2.44556">
        <ele>602.089</ele>
        <time>2019-11-01T18:41:30Z</time>
      </trkpt>
      <trkpt lat="42.73041" lon="2.44512">
        <ele>592.806</ele>
        <time>2019-11-01T18:41:50Z</time>
      </trkpt>
      <trkpt lat="42.7297" lon="2.4445">
        <ele>572.326</ele>
        <time>2019-11-01T18:42:10Z</time>
      </trkpt>
      <trkpt lat="42.72897" lon="2.44411">
        <ele>558.208</ele>
        <time>2019-11-01T18:42:30Z</time>
      </trkpt>
      <trkpt lat="42.72845" lon="2.44406">
        <ele>550.534</ele>
        <time>2019-11-01T18:42:50Z</time>
      </trkpt>
      <trkpt lat="42.72786" lon="2.44429">
        <ele>542.79</ele>
        <time>2019-11-01T18:43:10Z</time>
      </trkpt>
      <trkpt lat="42.72799" lon="2.44356">
        <ele>541.385</ele>
        <time>2019-11-01T18:43:30Z</time>
      </trkpt>
      <trkpt lat="42.72792" lon="2.44322">
        <ele>540.598</ele>
        <time>2020-03-30T04:12:21Z</time>
      </trkpt>
      <trkpt lat="42.72767" lon="2.44296">
        <ele>535.164</ele>
        <time>2020-03-30T04:12:41Z</time>
      </trkpt>
      <trkpt lat="42.72774" lon="2.4418">
        <ele>530.856</ele>
        <time>2020-03-30T04:13:01Z</time>
      </trkpt>
      <trkpt lat="42.72787" lon="2.44157">
        <ele>532.642</ele>
        <time>2020-03-30T04:13:21Z</time>
      </trkpt>
      <trkpt lat="42.72797" lon="2.44083">
        <ele>532.771</ele>
        <time>2020-03-30T04:13:41Z</time>
      </trkpt>
      <trkpt lat="42.72678" lon="2.44066">
        <ele>512.889</ele>
        <time>2019-11-01T13:59:29Z</time>
      </trkpt>
      <trkpt lat="42.72647" lon="2.44048">
        <ele>508.606</ele>
        <time>2019-11-01T13:59:49Z</time>
      </trkpt>
      <trkpt lat="42.7264" lon="2.4403">
        <ele>507.126</ele>
        <time>2019-11-01T14:00:09Z</time>
      </trkpt>
      <trkpt lat="42.72609" lon="2.44018">
        <ele>502.908</ele>
        <time>2019-11-01T14:00:29Z</time>
      </trkpt>
      <trkpt lat="42.72593" lon="2.43992">
        <ele>499.044</ele>
        <time>2019-11-01T14:00:49Z</time>
      </trkpt>
      <trkpt lat="42.72581" lon="2.44012">
        <ele>498.52</ele>
        <time>2019-11-01T14:01:09Z</time>
      </trkpt>
      <trkpt lat="42.72551" lon="2.43997">
        <ele>493.275</ele>
        <time>2019-11-01T14:01:29Z</time>
      </trkpt>
      <trkpt lat="42.7255" lon="2.43946">
        <ele>492.428</ele>
        <time>2019-11-01T14:01:49Z</time>
      </trkpt>
      <trkpt lat="42.72497" lon="2.43809">
        <ele>496.924</ele>
        <time>2019-11-01T14:02:09Z</time>
      </trkpt>
      <trkpt lat="42.72473" lon="2.43831">
        <ele>497.016</ele>
        <time>2019-11-01T14:02:29Z</time>
      </trkpt>
      <trkpt lat="42.7249" lon="2.43882">
        <ele>498.792</ele>
        <time>2019-11-01T14:02:49Z</time>
      </trkpt>
      <trkpt lat="42.72479" lon="2.43998">
        <ele>491.051</ele>
        <time>2019-11-01T14:03:09Z</time>
      </trkpt>
      <trkpt lat="42.72451" lon="2.44022">
        <ele>491.826</ele>
        <time>2019-11-01T14:03:29Z</time>
      </trkpt>
      <trkpt lat="42.72422" lon="2.44026">
        <ele>494.947</ele>
        <time>2019-11-01T14:03:49Z</time>
      </trkpt>
      <trkpt lat="42.72413" lon="2.44056">
        <ele>490.011</ele>
        <time>2019-11-01T14:04:09Z</time>
      </trkpt>
      <trkpt lat="42.72416" lon="2.44088">
        <ele>490.008</ele>
        <time>2019-11-01T14:04:29Z</time>
      </trkpt>
      <trkpt lat="42.72383" lon="2.44151">
        <ele>491.458</ele>
        <time>2019-11-01T14:04:49Z</time>
      </trkpt>
      <trkpt lat="42.72382" lon="2.44178">
        <ele>495.274</ele>
        <time>2019-11-01T14:05:09Z</time>
      </trkpt>
      <trkpt lat="42.72372" lon="2.44137">
        <ele>491.829</ele>
        <time>2019-11-01T14:05:29Z</time>
      </trkpt>
      <trkpt lat="42.72352" lon="2.44157">
        <ele>500.692</ele>
        <time>2019-11-01T14:05:49Z</time>
      </trkpt>
      <trkpt lat="42.72365" lon="2.44173">
        <ele>502.128</ele>
        <time>2019-11-01T14:06:09Z</time>
      </trkpt>
      <trkpt lat="42.72352" lon="2.44214">
        <ele>521.73</ele>
        <time>2019-11-01T14:06:29Z</time>
      </trkpt>
      <trkpt lat="42.72356" lon="2.44248">
        <ele>522.826</ele>
        <time>2019-11-01T14:06:49Z</time>
      </trkpt>
      <trkpt lat="42.72343" lon="2.44254">
        <ele>523.545</ele>
        <time>2019-11-01T14:07:09Z</time>
      </trkpt>
      <trkpt lat="42.72342" lon="2.44234">
        <ele>525.828</ele>
        <time>2019-11-01T14:07:29Z</time>
      </trkpt>
      <trkpt lat="42.72315" lon="2.44207">
        <ele>528.589</ele>
        <time>2019-11-01T14:07:49Z</time>
      </trkpt>
      <trkpt lat="42.72249" lon="2.44203">
        <ele>534.817</ele>
        <time>2019-11-01T14:08:09Z</time>
      </trkpt>
      <trkpt lat="42.72211" lon="2.44256">
        <ele>540.808</ele>
        <time>2019-11-01T14:08:29Z</time>
      </trkpt>
      <trkpt lat="42.72175" lon="2.44273">
        <ele>547.218</ele>
        <time>2019-11-01T14:08:49Z</time>
      </trkpt>
      <trkpt lat="42.72143" lon="2.44242">
        <ele>545.634</ele>
        <time>2019-11-01T14:09:09Z</time>
      </trkpt>
      <trkpt lat="42.72061" lon="2.44271">
        <ele>561.419</ele>
        <time>2019-11-01T14:09:29Z</time>
      </trkpt>
      <trkpt lat="42.72001" lon="2.44178">
        <ele>573.132</ele>
        <time>2019-11-01T14:09:49Z</time>
      </trkpt>
      <trkpt lat="42.7195" lon="2.44157">
        <ele>581.368</ele>
        <time>2019-11-01T14:10:09Z</time>
      </trkpt>
      <trkpt lat="42.71922" lon="2.44114">
        <ele>585.82</ele>
        <time>2019-11-01T14:10:29Z</time>
      </trkpt>
      <trkpt lat="42.71929" lon="2.44046">
        <ele>587.416</ele>
        <time>2019-11-01T14:10:49Z</time>
      </trkpt>
      <trkpt lat="42.71883" lon="2.43964">
        <ele>598.225</ele>
        <time>2019-11-01T14:11:09Z</time>
      </trkpt>
      <trkpt lat="42.7189" lon="2.43898">
        <ele>600.174</ele>
        <time>2019-11-01T14:11:29Z</time>
      </trkpt>
      <trkpt lat="42.71824" lon="2.43803">
        <ele>606.656</ele>
        <time>2019-11-01T14:11:49Z</time>
      </trkpt>
      <trkpt lat="42.71812" lon="2.4375">
        <ele>604.221</ele>
        <time>2019-11-01T14:12:09Z</time>
      </trkpt>
      <trkpt lat="42.71785" lon="2.43724">
        <ele>606.108</ele>
        <time>2019-11-01T14:12:29Z</time>
      </trkpt>
      <trkpt lat="42.71717" lon="2.43715">
        <ele>612.063</ele>
        <time>2019-11-01T14:12:49Z</time>
      </trkpt>
      <trkpt lat="42.71697" lon="2.43674">
        <ele>611.359</ele>
        <time>2019-11-01T14:13:09Z</time>
      </trkpt>
      <trkpt lat="42.71633" lon="2.43614">
        <ele>612.044</ele>
        <time>2019-11-01T14:13:29Z</time>
      </trkpt>
      <trkpt lat="42.71582" lon="2.43577">
        <ele>607.627</ele>
        <time>2019-11-01T14:13:49Z</time>
      </trkpt>
      <trkpt lat="42.71558" lon="2.43577">
        <ele>608.223</ele>
        <time>2019-11-01T14:14:09Z</time>
      </trkpt>
      <trkpt lat="42.71533" lon="2.43672">
        <ele>627.835</ele>
        <time>2019-11-01T14:14:29Z</time>
      </trkpt>
      <trkpt lat="42.71537" lon="2.43721">
        <ele>636.591</ele>
        <time>2019-11-01T14:14:49Z</time>
      </trkpt>
      <trkpt lat="42.71523" lon="2.4375">
        <ele>640.05</ele>
        <time>2019-11-01T14:15:09Z</time>
      </trkpt>
      <trkpt lat="42.71527" lon="2.43774">
        <ele>641.789</ele>
        <time>2019-11-01T14:15:29Z</time>
      </trkpt>
      <trkpt lat="42.71509" lon="2.43781">
        <ele>642.206</ele>
        <time>2019-11-01T14:15:49Z</time>
      </trkpt>
      <trkpt lat="42.71494" lon="2.43822">
        <ele>645.526</ele>
        <time>2019-11-01T14:16:09Z</time>
      </trkpt>
      <trkpt lat="42.71462" lon="2.43869">
        <ele>651.408</ele>
        <time>2019-11-01T14:16:29Z</time>
      </trkpt>
      <trkpt lat="42.71406" lon="2.4393">
        <ele>654.224</ele>
        <time>2019-11-01T14:16:49Z</time>
      </trkpt>
      <trkpt lat="42.71394" lon="2.43997">
        <ele>654.07</ele>
        <time>2019-11-01T14:17:09Z</time>
      </trkpt>
      <trkpt lat="42.71391" lon="2.44032">
        <ele>652.495</ele>
        <time>2019-11-01T14:17:29Z</time>
      </trkpt>
      <trkpt lat="42.71354" lon="2.44053">
        <ele>655.218</ele>
        <time>2019-11-01T14:17:49Z</time>
      </trkpt>
      <trkpt lat="42.7133" lon="2.44026">
        <ele>661.434</ele>
        <time>2019-11-01T14:18:09Z</time>
      </trkpt>
      <trkpt lat="42.7131" lon="2.44023">
        <ele>663.146</ele>
        <time>2019-11-01T14:18:29Z</time>
      </trkpt>
      <trkpt lat="42.71278" lon="2.44102">
        <ele>664.922</ele>
        <time>2019-11-01T14:18:49Z</time>
      </trkpt>
      <trkpt lat="42.71289" lon="2.44149">
        <ele>663.821</ele>
        <time>2019-11-01T14:19:09Z</time>
      </trkpt>
      <trkpt lat="42.71275" lon="2.44226">
        <ele>663.555</ele>
        <time>2019-11-01T14:19:29Z</time>
      </trkpt>
      <trkpt lat="42.71274" lon="2.44308">
        <ele>661.007</ele>
        <time>2019-11-01T14:19:49Z</time>
      </trkpt>
      <trkpt lat="42.71209" lon="2.44337">
        <ele>656.717</ele>
        <time>2019-11-01T14:20:09Z</time>
      </trkpt>
      <trkpt lat="42.71182" lon="2.44324">
        <ele>656.608</ele>
        <time>2019-11-01T14:20:29Z</time>
      </trkpt>
      <trkpt lat="42.71149" lon="2.44273">
        <ele>663.871</ele>
        <time>2019-11-01T14:20:49Z</time>
      </trkpt>
      <trkpt lat="42.71134" lon="2.44279">
        <ele>662.047</ele>
        <time>2019-11-01T14:21:09Z</time>
      </trkpt>
      <trkpt lat="42.71134" lon="2.44299">
        <ele>660.022</ele>
        <time>2019-11-01T14:21:29Z</time>
      </trkpt>
      <trkpt lat="42.71164" lon="2.44372">
        <ele>651.385</ele>
        <time>2019-11-01T14:21:49Z</time>
      </trkpt>
      <trkpt lat="42.71164" lon="2.44433">
        <ele>651.041</ele>
        <time>2019-11-01T14:22:09Z</time>
      </trkpt>
      <trkpt lat="42.71123" lon="2.44546">
        <ele>652.673</ele>
        <time>2019-11-01T14:22:29Z</time>
      </trkpt>
      <trkpt lat="42.71117" lon="2.446">
        <ele>649.159</ele>
        <time>2019-11-01T14:22:49Z</time>
      </trkpt>
      <trkpt lat="42.71126" lon="2.44624">
        <ele>644.718</ele>
        <time>2019-11-01T14:23:09Z</time>
      </trkpt>
      <trkpt lat="42.71155" lon="2.44616">
        <ele>642.194</ele>
        <time>2019-11-01T14:23:29Z</time>
      </trkpt>
      <trkpt lat="42.71133" lon="2.44658">
        <ele>642.457</ele>
        <time>2019-11-01T14:23:49Z</time>
      </trkpt>
      <trkpt lat="42.71213" lon="2.44755">
        <ele>650.722</ele>
        <time>2019-11-01T14:24:09Z</time>
      </trkpt>
      <trkpt lat="42.71221" lon="2.44822">
        <ele>653.708</ele>
        <time>2019-11-01T14:24:29Z</time>
      </trkpt>
      <trkpt lat="42.71211" lon="2.44872">
        <ele>656.015</ele>
        <time>2019-11-01T14:24:49Z</time>
      </trkpt>
      <trkpt lat="42.71151" lon="2.44956">
        <ele>660.241</ele>
        <time>2019-11-01T14:25:09Z</time>
      </trkpt>
      <trkpt lat="42.71112" lon="2.45053">
        <ele>657.996</ele>
        <time>2019-11-01T14:25:29Z</time>
      </trkpt>
      <trkpt lat="42.7113" lon="2.45111">
        <ele>650.989</ele>
        <time>2019-11-01T14:25:49Z</time>
      </trkpt>
      <trkpt lat="42.71124" lon="2.45169">
        <ele>649.595</ele>
        <time>2019-11-01T14:26:09Z</time>
      </trkpt>
      <trkpt lat="42.711" lon="2.45307">
        <ele>646.997</ele>
        <time>2019-11-01T14:26:29Z</time>
      </trkpt>
      <trkpt lat="42.71113" lon="2.45346">
        <ele>648.983</ele>
        <time>2019-11-01T14:26:49Z</time>
      </trkpt>
      <trkpt lat="42.711" lon="2.45365">
        <ele>649.792</ele>
        <time>2019-11-01T14:27:09Z</time>
      </trkpt>
      <trkpt lat="42.71089" lon="2.45684">
        <ele>663.643</ele>
        <time>2019-11-01T14:27:29Z</time>
      </trkpt>
      <trkpt lat="42.71023" lon="2.45836">
        <ele>662.564</ele>
        <time>2019-11-01T14:27:49Z</time>
      </trkpt>
      <trkpt lat="42.70973" lon="2.4592">
        <ele>665.01</ele>
        <time>2019-11-01T14:28:09Z</time>
      </trkpt>
      <trkpt lat="42.70924" lon="2.45826">
        <ele>667.708</ele>
        <time>2019-11-01T14:28:29Z</time>
      </trkpt>
      <trkpt lat="42.70883" lon="2.45785">
        <ele>670.65</ele>
        <time>2019-11-01T14:28:49Z</time>
      </trkpt>
      <trkpt lat="42.7085" lon="2.45804">
        <ele>673.346</ele>
        <time>2019-11-01T14:29:09Z</time>
      </trkpt>
      <trkpt lat="42.70818" lon="2.45813">
        <ele>675.341</ele>
        <time>2019-11-01T14:29:29Z</time>
      </trkpt>
      <trkpt lat="42.70733" lon="2.45881">
        <ele>676.954</ele>
        <time>2019-11-01T14:29:49Z</time>
      </trkpt>
      <trkpt lat="42.70681" lon="2.45879">
        <ele>678.02</ele>
        <time>2019-11-01T14:30:09Z</time>
      </trkpt>
      <trkpt lat="42.70621" lon="2.45884">
        <ele>675.242</ele>
        <time>2019-11-01T14:30:29Z</time>
      </trkpt>
      <trkpt lat="42.7054" lon="2.45793">
        <ele>675.968</ele>
        <time>2019-11-01T14:30:49Z</time>
      </trkpt>
      <trkpt lat="42.70548" lon="2.45716">
        <ele>676.377</ele>
        <time>2019-11-01T14:31:09Z</time>
      </trkpt>
      <trkpt lat="42.70545" lon="2.45683">
        <ele>675.654</ele>
        <time>2019-11-01T14:31:29Z</time>
      </trkpt>
      <trkpt lat="42.70573" lon="2.45503">
        <ele>675.856</ele>
        <time>2019-11-01T14:31:49Z</time>
      </trkpt>
      <trkpt lat="42.70567" lon="2.45464">
        <ele>676.711</ele>
        <time>2019-11-01T14:32:09Z</time>
      </trkpt>
      <trkpt lat="42.70504" lon="2.45417">
        <ele>673.108</ele>
        <time>2019-11-01T14:32:29Z</time>
      </trkpt>
      <trkpt lat="42.70442" lon="2.45401">
        <ele>672.451</ele>
        <time>2019-11-01T14:32:49Z</time>
      </trkpt>
      <trkpt lat="42.70409" lon="2.45335">
        <ele>676.047</ele>
        <time>2019-11-01T14:33:09Z</time>
      </trkpt>
      <trkpt lat="42.70369" lon="2.4533">
        <ele>672.232</ele>
        <time>2019-11-01T14:33:29Z</time>
      </trkpt>
      <trkpt lat="42.70361" lon="2.45275">
        <ele>676.125</ele>
        <time>2019-11-01T14:33:49Z</time>
      </trkpt>
      <trkpt lat="42.7033" lon="2.4527">
        <ele>676.551</ele>
        <time>2019-11-01T14:34:09Z</time>
      </trkpt>
      <trkpt lat="42.70262" lon="2.45371">
        <ele>676.353</ele>
        <time>2019-11-01T14:34:29Z</time>
      </trkpt>
      <trkpt lat="42.70214" lon="2.45404">
        <ele>679.159</ele>
        <time>2019-11-01T14:34:49Z</time>
      </trkpt>
      <trkpt lat="42.70172" lon="2.45455">
        <ele>676.398</ele>
        <time>2019-11-01T14:35:09Z</time>
      </trkpt>
      <trkpt lat="42.70139" lon="2.45415">
        <ele>675.269</ele>
        <time>2019-11-01T14:35:29Z</time>
      </trkpt>
      <trkpt lat="42.70041" lon="2.45389">
        <ele>676.304</ele>
        <time>2019-11-01T14:35:49Z</time>
      </trkpt>
      <trkpt lat="42.70007" lon="2.45384">
        <ele>672.424</ele>
        <time>2019-11-01T14:36:09Z</time>
      </trkpt>
      <trkpt lat="42.6998" lon="2.45348">
        <ele>676.108</ele>
        <time>2019-11-01T14:36:29Z</time>
      </trkpt>
      <trkpt lat="42.69943" lon="2.4532">
        <ele>669.972</ele>
        <time>2019-11-01T14:36:49Z</time>
      </trkpt>
      <trkpt lat="42.6993" lon="2.45268">
        <ele>672.968</ele>
        <time>2019-11-01T14:37:09Z</time>
      </trkpt>
      <trkpt lat="42.6993" lon="2.45197">
        <ele>671.463</ele>
        <time>2019-11-01T14:37:29Z</time>
      </trkpt>
      <trkpt lat="42.69941" lon="2.45104">
        <ele>672.096</ele>
        <time>2019-11-01T14:37:49Z</time>
      </trkpt>
      <trkpt lat="42.69934" lon="2.45049">
        <ele>668.882</ele>
        <time>2019-11-01T14:38:09Z</time>
      </trkpt>
      <trkpt lat="42.69971" lon="2.45012">
        <ele>674.954</ele>
        <time>2019-11-01T14:38:29Z</time>
      </trkpt>
      <trkpt lat="42.69977" lon="2.44991">
        <ele>677.25</ele>
        <time>2019-11-01T14:38:49Z</time>
      </trkpt>
      <trkpt lat="42.6989" lon="2.45008">
        <ele>666.249</ele>
        <time>2019-11-01T14:39:09Z</time>
      </trkpt>
      <trkpt lat="42.69851" lon="2.44939">
        <ele>662.273</ele>
        <time>2019-11-01T14:39:29Z</time>
      </trkpt>
      <trkpt lat="42.69862" lon="2.44896">
        <ele>662.685</ele>
        <time>2019-11-01T14:39:49Z</time>
      </trkpt>
      <trkpt lat="42.6983" lon="2.44907">
        <ele>667.713</ele>
        <time>2019-11-01T14:40:09Z</time>
      </trkpt>
      <trkpt lat="42.69803" lon="2.4495">
        <ele>668.208</ele>
        <time>2019-11-01T14:40:29Z</time>
      </trkpt>
      <trkpt lat="42.69813" lon="2.45008">
        <ele>664.763</ele>
        <time>2019-11-01T14:40:49Z</time>
      </trkpt>
      <trkpt lat="42.69808" lon="2.45066">
        <ele>669.329</ele>
        <time>2019-11-01T14:41:09Z</time>
      </trkpt>
      <trkpt lat="42.69829" lon="2.4513">
        <ele>664.714</ele>
        <time>2019-11-01T14:41:29Z</time>
      </trkpt>
      <trkpt lat="42.69798" lon="2.45148">
        <ele>669.067</ele>
        <time>2019-11-01T14:41:49Z</time>
      </trkpt>
      <trkpt lat="42.69731" lon="2.45118">
        <ele>678.533</ele>
        <time>2019-11-01T14:42:09Z</time>
      </trkpt>
      <trkpt lat="42.69693" lon="2.45089">
        <ele>683.845</ele>
        <time>2019-11-01T14:42:29Z</time>
      </trkpt>
      <trkpt lat="42.69658" lon="2.45089">
        <ele>684.051</ele>
        <time>2019-11-01T14:42:49Z</time>
      </trkpt>
      <trkpt lat="42.69658" lon="2.45122">
        <ele>680.33</ele>
        <time>2019-11-01T14:43:09Z</time>
      </trkpt>
      <trkpt lat="42.69675" lon="2.45203">
        <ele>680.297</ele>
        <time>2019-11-01T14:43:29Z</time>
      </trkpt>
      <trkpt lat="42.69636" lon="2.45272">
        <ele>686.823</ele>
        <time>2019-11-01T14:43:49Z</time>
      </trkpt>
      <trkpt lat="42.69619" lon="2.45328">
        <ele>684.425</ele>
        <time>2019-11-01T14:44:09Z</time>
      </trkpt>
      <trkpt lat="42.6959" lon="2.45343">
        <ele>685.708</ele>
        <time>2019-11-01T14:44:29Z</time>
      </trkpt>
      <trkpt lat="42.69568" lon="2.45316">
        <ele>689.025</ele>
        <time>2019-11-01T14:44:49Z</time>
      </trkpt>
      <trkpt lat="42.69533" lon="2.45245">
        <ele>696.481</ele>
        <time>2019-11-01T14:45:09Z</time>
      </trkpt>
      <trkpt lat="42.69509" lon="2.45259">
        <ele>691.146</ele>
        <time>2019-11-01T14:45:29Z</time>
      </trkpt>
      <trkpt lat="42.69511" lon="2.45337">
        <ele>694.289</ele>
        <time>2019-11-01T14:45:49Z</time>
      </trkpt>
      <trkpt lat="42.6954" lon="2.45419">
        <ele>696.695</ele>
        <time>2019-11-01T14:46:09Z</time>
      </trkpt>
      <trkpt lat="42.6957" lon="2.45455">
        <ele>697.627</ele>
        <time>2019-11-01T14:46:29Z</time>
      </trkpt>
      <trkpt lat="42.69584" lon="2.45513">
        <ele>701.263</ele>
        <time>2019-11-01T14:46:49Z</time>
      </trkpt>
      <trkpt lat="42.69568" lon="2.45612">
        <ele>706.572</ele>
        <time>2019-11-01T14:47:09Z</time>
      </trkpt>
      <trkpt lat="42.69568" lon="2.45666">
        <ele>706.095</ele>
        <time>2019-11-01T14:47:29Z</time>
      </trkpt>
      <trkpt lat="42.69507" lon="2.45712">
        <ele>712.849</ele>
        <time>2019-11-01T14:47:49Z</time>
      </trkpt>
      <trkpt lat="42.6948" lon="2.45698">
        <ele>717.023</ele>
        <time>2019-11-01T14:48:09Z</time>
      </trkpt>
      <trkpt lat="42.69402" lon="2.45739">
        <ele>716.608</ele>
        <time>2019-11-01T14:48:29Z</time>
      </trkpt>
      <trkpt lat="42.69392" lon="2.45793">
        <ele>712.315</ele>
        <time>2019-11-01T14:48:49Z</time>
      </trkpt>
      <trkpt lat="42.6936" lon="2.45836">
        <ele>712.831</ele>
        <time>2019-11-01T14:49:09Z</time>
      </trkpt>
      <trkpt lat="42.69351" lon="2.45881">
        <ele>708.926</ele>
        <time>2019-11-01T14:49:29Z</time>
      </trkpt>
      <trkpt lat="42.69296" lon="2.45918">
        <ele>709.189</ele>
        <time>2019-11-01T14:49:49Z</time>
      </trkpt>
      <trkpt lat="42.692" lon="2.45927">
        <ele>714.955</ele>
        <time>2019-11-01T14:50:09Z</time>
      </trkpt>
      <trkpt lat="42.69148" lon="2.45959">
        <ele>723.067</ele>
        <time>2019-11-01T14:50:29Z</time>
      </trkpt>
      <trkpt lat="42.69091" lon="2.45952">
        <ele>718.973</ele>
        <time>2019-11-01T14:50:49Z</time>
      </trkpt>
      <trkpt lat="42.69089" lon="2.45995">
        <ele>714.332</ele>
        <time>2019-11-01T14:51:09Z</time>
      </trkpt>
      <trkpt lat="42.69056" lon="2.46013">
        <ele>717.383</ele>
        <time>2019-11-01T14:51:29Z</time>
      </trkpt>
      <trkpt lat="42.69011" lon="2.4601">
        <ele>722.425</ele>
        <time>2019-11-01T14:51:49Z</time>
      </trkpt>
      <trkpt lat="42.69006" lon="2.4609">
        <ele>717.217</ele>
        <time>2019-11-01T14:52:09Z</time>
      </trkpt>
      <trkpt lat="42.68938" lon="2.46112">
        <ele>715.408</ele>
        <time>2019-11-01T14:52:29Z</time>
      </trkpt>
      <trkpt lat="42.68893" lon="2.46165">
        <ele>706.954</ele>
        <time>2019-11-01T14:52:49Z</time>
      </trkpt>
      <trkpt lat="42.68853" lon="2.46184">
        <ele>709.93</ele>
        <time>2019-11-01T14:53:09Z</time>
      </trkpt>
      <trkpt lat="42.68858" lon="2.46205">
        <ele>708.525</ele>
        <time>2019-11-01T14:53:29Z</time>
      </trkpt>
      <trkpt lat="42.68919" lon="2.46226">
        <ele>704.868</ele>
        <time>2019-11-01T14:53:49Z</time>
      </trkpt>
      <trkpt lat="42.68974" lon="2.4626">
        <ele>705.984</ele>
        <time>2019-11-01T14:54:09Z</time>
      </trkpt>
      <trkpt lat="42.68988" lon="2.46308">
        <ele>713.056</ele>
        <time>2019-11-01T14:54:29Z</time>
      </trkpt>
      <trkpt lat="42.69014" lon="2.46313">
        <ele>711.662</ele>
        <time>2019-11-01T14:54:49Z</time>
      </trkpt>
      <trkpt lat="42.69092" lon="2.46372">
        <ele>717.571</ele>
        <time>2019-11-01T14:55:09Z</time>
      </trkpt>
      <trkpt lat="42.69099" lon="2.46459">
        <ele>727.487</ele>
        <time>2019-11-01T14:55:29Z</time>
      </trkpt>
      <trkpt lat="42.69101" lon="2.46522">
        <ele>731.042</ele>
        <time>2019-11-01T14:55:49Z</time>
      </trkpt>
      <trkpt lat="42.69087" lon="2.46572">
        <ele>732.026</ele>
        <time>2019-11-01T14:56:09Z</time>
      </trkpt>
      <trkpt lat="42.69034" lon="2.46639">
        <ele>734.908</ele>
        <time>2019-11-01T14:56:29Z</time>
      </trkpt>
      <trkpt lat="42.69008" lon="2.46731">
        <ele>735.954</ele>
        <time>2019-11-01T14:56:49Z</time>
      </trkpt>
      <trkpt lat="42.69015" lon="2.46778">
        <ele>738.51</ele>
        <time>2019-11-01T14:57:09Z</time>
      </trkpt>
      <trkpt lat="42.69074" lon="2.46754">
        <ele>732.875</ele>
        <time>2019-11-01T14:57:29Z</time>
      </trkpt>
      <trkpt lat="42.69107" lon="2.46757">
        <ele>731.578</ele>
        <time>2019-11-01T14:57:49Z</time>
      </trkpt>
      <trkpt lat="42.6913" lon="2.46789">
        <ele>729.834</ele>
        <time>2019-11-01T14:58:09Z</time>
      </trkpt>
      <trkpt lat="42.69128" lon="2.46836">
        <ele>726.946</ele>
        <time>2019-11-01T14:58:29Z</time>
      </trkpt>
      <trkpt lat="42.69116" lon="2.46891">
        <ele>726.432</ele>
        <time>2019-11-01T14:58:49Z</time>
      </trkpt>
      <trkpt lat="42.69144" lon="2.46961">
        <ele>724.851</ele>
        <time>2019-11-01T14:59:09Z</time>
      </trkpt>
      <trkpt lat="42.6913" lon="2.47043">
        <ele>728.287</ele>
        <time>2019-11-01T14:59:29Z</time>
      </trkpt>
      <trkpt lat="42.69103" lon="2.47135">
        <ele>732.042</ele>
        <time>2019-11-01T14:59:49Z</time>
      </trkpt>
      <trkpt lat="42.69208" lon="2.47216">
        <ele>739.626</ele>
        <time>2019-11-01T15:00:09Z</time>
      </trkpt>
      <trkpt lat="42.69224" lon="2.47287">
        <ele>741.208</ele>
        <time>2019-11-01T15:00:29Z</time>
      </trkpt>
      <trkpt lat="42.69167" lon="2.47327">
        <ele>746.594</ele>
        <time>2019-11-01T15:00:49Z</time>
      </trkpt>
      <trkpt lat="42.69107" lon="2.47327">
        <ele>748.58</ele>
        <time>2019-11-01T15:01:09Z</time>
      </trkpt>
      <trkpt lat="42.6906" lon="2.47364">
        <ele>755.395</ele>
        <time>2019-11-01T15:01:29Z</time>
      </trkpt>
      <trkpt lat="42.68999" lon="2.47383">
        <ele>756.258</ele>
        <time>2019-11-01T15:01:49Z</time>
      </trkpt>
      <trkpt lat="42.6888" lon="2.47386">
        <ele>764.424</ele>
        <time>2019-11-01T15:02:09Z</time>
      </trkpt>
      <trkpt lat="42.68889" lon="2.47463">
        <ele>771.066</ele>
        <time>2019-11-01T15:02:29Z</time>
      </trkpt>
      <trkpt lat="42.68926" lon="2.47496">
        <ele>772.752</ele>
        <time>2019-11-01T15:02:49Z</time>
      </trkpt>
      <trkpt lat="42.68912" lon="2.47519">
        <ele>774.451</ele>
        <time>2019-11-01T15:03:09Z</time>
      </trkpt>
      <trkpt lat="42.68807" lon="2.47632">
        <ele>781.245</ele>
        <time>2019-11-01T15:03:29Z</time>
      </trkpt>
      <trkpt lat="42.6878" lon="2.47634">
        <ele>784.247</ele>
        <time>2019-11-01T15:03:49Z</time>
      </trkpt>
      <trkpt lat="42.68753" lon="2.47658">
        <ele>784.911</ele>
        <time>2019-11-01T15:04:09Z</time>
      </trkpt>
      <trkpt lat="42.6867" lon="2.47665">
        <ele>790.008</ele>
        <time>2019-11-01T15:04:29Z</time>
      </trkpt>
      <trkpt lat="42.68604" lon="2.47698">
        <ele>795.82</ele>
        <time>2019-11-01T15:04:49Z</time>
      </trkpt>
      <trkpt lat="42.68434" lon="2.47831">
        <ele>812.476</ele>
        <time>2019-11-01T15:05:09Z</time>
      </trkpt>
      <trkpt lat="42.6839" lon="2.47913">
        <ele>820.651</ele>
        <time>2019-11-01T15:05:29Z</time>
      </trkpt>
      <trkpt lat="42.68338" lon="2.48023">
        <ele>820.584</ele>
        <time>2019-11-01T15:05:49Z</time>
      </trkpt>
      <trkpt lat="42.68332" lon="2.4807">
        <ele>815.04</ele>
        <time>2019-11-01T15:06:09Z</time>
      </trkpt>
      <trkpt lat="42.68346" lon="2.48152">
        <ele>814.212</ele>
        <time>2019-11-01T15:06:29Z</time>
      </trkpt>
      <trkpt lat="42.68326" lon="2.48354">
        <ele>799.278</ele>
        <time>2019-11-01T15:06:49Z</time>
      </trkpt>
      <trkpt lat="42.68333" lon="2.48409">
        <ele>797.747</ele>
        <time>2019-11-01T15:07:09Z</time>
      </trkpt>
      <trkpt lat="42.68354" lon="2.48472">
        <ele>796.582</ele>
        <time>2019-11-01T15:07:29Z</time>
      </trkpt>
      <trkpt lat="42.68346" lon="2.48544">
        <ele>793.643</ele>
        <time>2019-11-01T15:07:49Z</time>
      </trkpt>
      <trkpt lat="42.68293" lon="2.48582">
        <ele>784.117</ele>
        <time>2019-11-01T15:08:09Z</time>
      </trkpt>
      <trkpt lat="42.68285" lon="2.48613">
        <ele>782.708</ele>
        <time>2019-11-01T15:08:29Z</time>
      </trkpt>
      <trkpt lat="42.68292" lon="2.48669">
        <ele>778.384</ele>
        <time>2019-11-01T15:08:49Z</time>
      </trkpt>
      <trkpt lat="42.68261" lon="2.48641">
        <ele>773.02</ele>
        <time>2019-11-01T15:09:09Z</time>
      </trkpt>
      <trkpt lat="42.68291" lon="2.48735">
        <ele>765.845</ele>
        <time>2019-11-01T15:09:29Z</time>
      </trkpt>
      <trkpt lat="42.68219" lon="2.48653">
        <ele>756.148</ele>
        <time>2019-11-01T15:09:49Z</time>
      </trkpt>
      <trkpt lat="42.68256" lon="2.48784">
        <ele>745.994</ele>
        <time>2019-11-01T15:10:09Z</time>
      </trkpt>
      <trkpt lat="42.68178" lon="2.48695">
        <ele>736.026</ele>
        <time>2019-11-01T15:10:29Z</time>
      </trkpt>
      <trkpt lat="42.68164" lon="2.48636">
        <ele>733.462</ele>
        <time>2019-11-01T15:10:49Z</time>
      </trkpt>
      <trkpt lat="42.68155" lon="2.48683">
        <ele>728.011</ele>
        <time>2019-11-01T15:11:09Z</time>
      </trkpt>
      <trkpt lat="42.68168" lon="2.48753">
        <ele>724.136</ele>
        <time>2019-11-01T15:11:29Z</time>
      </trkpt>
      <trkpt lat="42.68178" lon="2.48823">
        <ele>719.017</ele>
        <time>2019-11-01T15:11:49Z</time>
      </trkpt>
      <trkpt lat="42.68205" lon="2.48861">
        <ele>719.618</ele>
        <time>2019-11-01T15:12:09Z</time>
      </trkpt>
      <trkpt lat="42.6826" lon="2.48873">
        <ele>723.808</ele>
        <time>2019-11-01T15:12:29Z</time>
      </trkpt>
      <trkpt lat="42.68326" lon="2.48828">
        <ele>730.729</ele>
        <time>2019-11-01T15:12:49Z</time>
      </trkpt>
      <trkpt lat="42.68381" lon="2.48772">
        <ele>741.055</ele>
        <time>2019-11-01T15:13:09Z</time>
      </trkpt>
      <trkpt lat="42.68404" lon="2.48758">
        <ele>746.58</ele>
        <time>2019-11-01T15:13:29Z</time>
      </trkpt>
      <trkpt lat="42.68384" lon="2.48873">
        <ele>740.933</ele>
        <time>2019-11-01T15:13:49Z</time>
      </trkpt>
      <trkpt lat="42.68387" lon="2.48915">
        <ele>743.189</ele>
        <time>2019-11-01T15:14:09Z</time>
      </trkpt>
      <trkpt lat="42.68382" lon="2.48962">
        <ele>743.241</ele>
        <time>2019-11-01T15:14:29Z</time>
      </trkpt>
      <trkpt lat="42.68364" lon="2.49009">
        <ele>740.017</ele>
        <time>2019-11-01T15:14:49Z</time>
      </trkpt>
      <trkpt lat="42.68365" lon="2.49126">
        <ele>742.546</ele>
        <time>2019-11-01T15:15:09Z</time>
      </trkpt>
      <trkpt lat="42.6834" lon="2.4918">
        <ele>742.078</ele>
        <time>2019-11-01T15:15:29Z</time>
      </trkpt>
      <trkpt lat="42.68288" lon="2.49192">
        <ele>737.233</ele>
        <time>2019-11-01T15:15:49Z</time>
      </trkpt>
      <trkpt lat="42.68222" lon="2.49225">
        <ele>734.826</ele>
        <time>2019-11-01T15:16:09Z</time>
      </trkpt>
      <trkpt lat="42.68183" lon="2.49215">
        <ele>730.908</ele>
        <time>2019-11-01T15:16:29Z</time>
      </trkpt>
      <trkpt lat="42.68158" lon="2.4922">
        <ele>729.393</ele>
        <time>2019-11-01T15:16:49Z</time>
      </trkpt>
      <trkpt lat="42.68097" lon="2.49281">
        <ele>728.749</ele>
        <time>2019-11-01T15:17:09Z</time>
      </trkpt>
      <trkpt lat="42.68096" lon="2.49398">
        <ele>723.364</ele>
        <time>2019-11-01T15:17:29Z</time>
      </trkpt>
      <trkpt lat="42.68119" lon="2.49469">
        <ele>720.367</ele>
        <time>2019-11-01T15:17:49Z</time>
      </trkpt>
      <trkpt lat="42.68118" lon="2.49507">
        <ele>718.433</ele>
        <time>2020-12-28T02:34:15Z</time>
      </trkpt>
      <trkpt lat="42.68137" lon="2.4952">
        <ele>721.455</ele>
        <time>2020-12-28T02:34:35Z</time>
      </trkpt>
      <trkpt lat="42.68158" lon="2.49552">
        <ele>722.261</ele>
        <time>2020-12-28T02:34:55Z</time>
      </trkpt>
      <trkpt lat="42.68156" lon="2.49577">
        <ele>718.58</ele>
        <time>2020-12-28T02:35:15Z</time>
      </trkpt>
      <trkpt lat="42.68146" lon="2.49601">
        <ele>712.032</ele>
        <time>2020-12-28T02:35:35Z</time>
      </trkpt>
      <trkpt lat="42.68157" lon="2.49628">
        <ele>708.992</ele>
        <time>2020-12-28T02:35:55Z</time>
      </trkpt>
      <trkpt lat="42.68174" lon="2.49635">
        <ele>711.211</ele>
        <time>2020-12-28T02:36:15Z</time>
      </trkpt>
      <trkpt lat="42.68178" lon="2.49655">
        <ele>708.108</ele>
        <time>2020-12-28T02:36:35Z</time>
      </trkpt>
      <trkpt lat="42.68163" lon="2.49662">
        <ele>703.219</ele>
        <time>2020-12-28T02:36:55Z</time>
      </trkpt>
      <trkpt lat="42.6816" lon="2.49688">
        <ele>697.675</ele>
        <time>2020-12-28T02:37:15Z</time>
      </trkpt>
      <trkpt lat="42.68175" lon="2.49688">
        <ele>701.02</ele>
        <time>2020-12-28T02:37:35Z</time>
      </trkpt>
      <trkpt lat="42.68188" lon="2.4968">
        <ele>706.083</ele>
        <time>2020-12-28T02:37:55Z</time>
      </trkpt>
      <trkpt lat="42.68185" lon="2.49722">
        <ele>696.669</ele>
        <time>2020-12-28T02:38:15Z</time>
      </trkpt>
      <trkpt lat="42.68204" lon="2.49718">
        <ele>702.571</ele>
        <time>2020-12-28T02:38:35Z</time>
      </trkpt>
      <trkpt lat="42.68199" lon="2.49759">
        <ele>693.777</ele>
        <time>2020-12-28T02:38:55Z</time>
      </trkpt>
      <trkpt lat="42.68211" lon="2.49804">
        <ele>690.856</ele>
        <time>2020-12-28T02:39:15Z</time>
      </trkpt>
      <trkpt lat="42.682" lon="2.49831">
        <ele>687.394</ele>
        <time>2020-12-28T02:39:35Z</time>
      </trkpt>
      <trkpt lat="42.68151" lon="2.49822">
        <ele>685.057</ele>
        <time>2020-12-28T02:39:55Z</time>
      </trkpt>
      <trkpt lat="42.6809" lon="2.49819">
        <ele>677.722</ele>
        <time>2020-12-28T02:40:15Z</time>
      </trkpt>
      <trkpt lat="42.6805" lon="2.49804">
        <ele>667.308</ele>
        <time>2019-11-01T15:20:49Z</time>
      </trkpt>
      <trkpt lat="42.67968" lon="2.49797">
        <ele>657.815</ele>
        <time>2019-11-01T15:21:09Z</time>
      </trkpt>
      <trkpt lat="42.67923" lon="2.49804">
        <ele>654.651</ele>
        <time>2019-11-01T15:21:29Z</time>
      </trkpt>
      <trkpt lat="42.67805" lon="2.49792">
        <ele>642.066</ele>
        <time>2019-11-01T15:21:49Z</time>
      </trkpt>
      <trkpt lat="42.67754" lon="2.498">
        <ele>636.659</ele>
        <time>2019-11-01T15:22:09Z</time>
      </trkpt>
      <trkpt lat="42.67694" lon="2.49825">
        <ele>633.385</ele>
        <time>2019-11-01T15:22:29Z</time>
      </trkpt>
      <trkpt lat="42.67667" lon="2.49825">
        <ele>628.587</ele>
        <time>2019-11-01T15:22:49Z</time>
      </trkpt>
      <trkpt lat="42.67622" lon="2.49868">
        <ele>625.233</ele>
        <time>2019-11-01T15:23:09Z</time>
      </trkpt>
      <trkpt lat="42.67588" lon="2.49859">
        <ele>616.762</ele>
        <time>2019-11-01T15:23:29Z</time>
      </trkpt>
      <trkpt lat="42.67539" lon="2.4987">
        <ele>612.821</ele>
        <time>2019-11-01T15:23:49Z</time>
      </trkpt>
      <trkpt lat="42.67505" lon="2.49862">
        <ele>607.541</ele>
        <time>2019-11-01T15:24:09Z</time>
      </trkpt>
      <trkpt lat="42.67481" lon="2.49875">
        <ele>609.205</ele>
        <time>2019-11-01T15:24:29Z</time>
      </trkpt>
      <trkpt lat="42.67441" lon="2.49882">
        <ele>603.008</ele>
        <time>2019-11-01T15:24:49Z</time>
      </trkpt>
      <trkpt lat="42.67377" lon="2.49967">
        <ele>603.698</ele>
        <time>2019-11-01T15:25:09Z</time>
      </trkpt>
      <trkpt lat="42.67336" lon="2.49982">
        <ele>604.594</ele>
        <time>2019-11-01T15:25:29Z</time>
      </trkpt>
      <trkpt lat="42.67322" lon="2.49972">
        <ele>602.529</ele>
        <time>2019-11-01T15:25:49Z</time>
      </trkpt>
      <trkpt lat="42.6729" lon="2.49973">
        <ele>600.992</ele>
        <time>2019-11-01T15:26:09Z</time>
      </trkpt>
      <trkpt lat="42.67276" lon="2.49992">
        <ele>602.738</ele>
        <time>2019-11-01T15:26:29Z</time>
      </trkpt>
      <trkpt lat="42.67269" lon="2.50028">
        <ele>606.47</ele>
        <time>2019-11-01T15:26:49Z</time>
      </trkpt>
      <trkpt lat="42.67222" lon="2.50062">
        <ele>605.726</ele>
        <time>2019-11-01T15:27:09Z</time>
      </trkpt>
      <trkpt lat="42.67207" lon="2.50086">
        <ele>607.165</ele>
        <time>2019-11-01T15:27:29Z</time>
      </trkpt>
      <trkpt lat="42.67145" lon="2.50121">
        <ele>604.335</ele>
        <time>2019-11-01T15:27:49Z</time>
      </trkpt>
      <trkpt lat="42.67131" lon="2.50124">
        <ele>603.686</ele>
        <time>2019-11-01T15:28:09Z</time>
      </trkpt>
      <trkpt lat="42.67113" lon="2.50142">
        <ele>604.614</ele>
        <time>2019-11-01T15:28:29Z</time>
      </trkpt>
      <trkpt lat="42.67089" lon="2.50133">
        <ele>600.908</ele>
        <time>2019-11-01T15:28:49Z</time>
      </trkpt>
      <trkpt lat="42.67055" lon="2.50131">
        <ele>599.149</ele>
        <time>2019-11-01T15:29:09Z</time>
      </trkpt>
      <trkpt lat="42.67" lon="2.50132">
        <ele>594.465</ele>
        <time>2019-11-01T15:29:29Z</time>
      </trkpt>
      <trkpt lat="42.66984" lon="2.50138">
        <ele>592.07</ele>
        <time>2019-11-01T15:29:49Z</time>
      </trkpt>
      <trkpt lat="42.66927" lon="2.50154">
        <ele>591.113</ele>
        <time>2019-11-01T15:30:09Z</time>
      </trkpt>
      <trkpt lat="42.6691" lon="2.50143">
        <ele>593.939</ele>
        <time>2019-11-01T15:30:29Z</time>
      </trkpt>
      <trkpt lat="42.66866" lon="2.50146">
        <ele>592.941</ele>
        <time>2019-11-01T15:30:49Z</time>
      </trkpt>
      <trkpt lat="42.66831" lon="2.50128">
        <ele>590.497</ele>
        <time>2019-11-01T15:31:09Z</time>
      </trkpt>
      <trkpt lat="42.66816" lon="2.5011">
        <ele>591.096</ele>
        <time>2019-11-01T15:31:29Z</time>
      </trkpt>
      <trkpt lat="42.66723" lon="2.50092">
        <ele>582.877</ele>
        <time>2019-11-01T15:31:49Z</time>
      </trkpt>
      <trkpt lat="42.66648" lon="2.501">
        <ele>586.161</ele>
        <time>2019-11-01T15:32:09Z</time>
      </trkpt>
      <trkpt lat="42.66629" lon="2.50067">
        <ele>583.027</ele>
        <time>2019-11-01T15:32:29Z</time>
      </trkpt>
      <trkpt lat="42.66593" lon="2.50074">
        <ele>583.208</ele>
        <time>2019-11-01T15:32:49Z</time>
      </trkpt>
      <trkpt lat="42.66561" lon="2.5006">
        <ele>582.033</ele>
        <time>2019-11-01T15:33:09Z</time>
      </trkpt>
      <trkpt lat="42.66533" lon="2.50058">
        <ele>581.319</ele>
        <time>2019-11-01T15:33:29Z</time>
      </trkpt>
      <trkpt lat="42.66526" lon="2.50032">
        <ele>580.194</ele>
        <time>2019-11-01T15:33:49Z</time>
      </trkpt>
      <trkpt lat="42.66496" lon="2.50011">
        <ele>578.767</ele>
        <time>2019-11-01T15:34:09Z</time>
      </trkpt>
      <trkpt lat="42.66398" lon="2.50048">
        <ele>572.183</ele>
        <time>2019-11-01T15:34:29Z</time>
      </trkpt>
      <trkpt lat="42.66356" lon="2.50055">
        <ele>568.915</ele>
        <time>2019-11-01T15:34:49Z</time>
      </trkpt>
      <trkpt lat="42.66298" lon="2.49996">
        <ele>568.591</ele>
        <time>2019-11-01T15:35:09Z</time>
      </trkpt>
      <trkpt lat="42.66267" lon="2.49983">
        <ele>564.49</ele>
        <time>2019-11-01T15:35:29Z</time>
      </trkpt>
      <trkpt lat="42.66252" lon="2.50011">
        <ele>565.583</ele>
        <time>2019-11-01T15:35:49Z</time>
      </trkpt>
      <trkpt lat="42.6623" lon="2.50025">
        <ele>565.925</ele>
        <time>2019-11-01T15:36:09Z</time>
      </trkpt>
      <trkpt lat="42.66193" lon="2.50011">
        <ele>565.417</ele>
        <time>2019-11-01T15:36:29Z</time>
      </trkpt>
      <trkpt lat="42.6615" lon="2.50045">
        <ele>563.408</ele>
        <time>2019-11-01T15:36:49Z</time>
      </trkpt>
      <trkpt lat="42.66135" lon="2.50079">
        <ele>557.834</ele>
        <time>2019-11-01T15:37:09Z</time>
      </trkpt>
      <trkpt lat="42.66071" lon="2.50089">
        <ele>544.39</ele>
        <time>2019-11-01T15:37:29Z</time>
      </trkpt>
      <trkpt lat="42.6609" lon="2.50151">
        <ele>539.315</ele>
        <time>2019-11-01T15:37:49Z</time>
      </trkpt>
      <trkpt lat="42.66077" lon="2.50178">
        <ele>535.598</ele>
        <time>2019-11-01T15:38:09Z</time>
      </trkpt>
      <trkpt lat="42.65998" lon="2.50204">
        <ele>534.084</ele>
        <time>2019-11-01T15:38:29Z</time>
      </trkpt>
      <trkpt lat="42.65956" lon="2.50211">
        <ele>526.656</ele>
        <time>2019-11-01T15:38:49Z</time>
      </trkpt>
      <trkpt lat="42.65926" lon="2.50225">
        <ele>523.492</ele>
        <time>2019-11-01T15:39:09Z</time>
      </trkpt>
      <trkpt lat="42.65793" lon="2.50237">
        <ele>513.661</ele>
        <time>2019-11-01T15:39:29Z</time>
      </trkpt>
      <trkpt lat="42.65749" lon="2.50232">
        <ele>506.922</ele>
        <time>2019-11-01T15:39:49Z</time>
      </trkpt>
      <trkpt lat="42.65692" lon="2.5024">
        <ele>495.562</ele>
        <time>2019-11-01T15:40:09Z</time>
      </trkpt>
      <trkpt lat="42.65634" lon="2.5029">
        <ele>487.508</ele>
        <time>2019-11-01T15:40:29Z</time>
      </trkpt>
      <trkpt lat="42.6561" lon="2.50336">
        <ele>486.108</ele>
        <time>2019-11-01T15:40:49Z</time>
      </trkpt>
      <trkpt lat="42.65589" lon="2.50354">
        <ele>483.488</ele>
        <time>2019-11-01T15:41:09Z</time>
      </trkpt>
      <trkpt lat="42.65573" lon="2.50385">
        <ele>485.174</ele>
        <time>2019-11-01T15:41:29Z</time>
      </trkpt>
      <trkpt lat="42.65542" lon="2.50409">
        <ele>486.299</ele>
        <time>2019-11-01T15:41:49Z</time>
      </trkpt>
      <trkpt lat="42.65515" lon="2.50468">
        <ele>484.972</ele>
        <time>2019-11-01T15:42:09Z</time>
      </trkpt>
      <trkpt lat="42.65444" lon="2.50523">
        <ele>485.728</ele>
        <time>2019-11-01T15:42:29Z</time>
      </trkpt>
      <trkpt lat="42.65377" lon="2.50572">
        <ele>472.04</ele>
        <time>2019-11-01T15:42:49Z</time>
      </trkpt>
      <trkpt lat="42.65369" lon="2.50611">
        <ele>467.376</ele>
        <time>2019-11-01T15:43:09Z</time>
      </trkpt>
      <trkpt lat="42.65334" lon="2.50643">
        <ele>457.665</ele>
        <time>2019-11-01T15:43:29Z</time>
      </trkpt>
      <trkpt lat="42.65306" lon="2.50712">
        <ele>447.563</ele>
        <time>2019-11-01T15:43:49Z</time>
      </trkpt>
      <trkpt lat="42.65224" lon="2.5076">
        <ele>427.444</ele>
        <time>2019-11-01T15:44:09Z</time>
      </trkpt>
      <trkpt lat="42.65232" lon="2.50796">
        <ele>425.018</ele>
        <time>2019-11-01T15:44:29Z</time>
      </trkpt>
      <trkpt lat="42.65224" lon="2.50832">
        <ele>417.508</ele>
        <time>2019-11-01T15:44:49Z</time>
      </trkpt>
      <trkpt lat="42.65247" lon="2.50918">
        <ele>401.032</ele>
        <time>2019-11-01T15:45:09Z</time>
      </trkpt>
      <trkpt lat="42.65193" lon="2.50933">
        <ele>386.628</ele>
        <time>2019-11-01T15:45:29Z</time>
      </trkpt>
      <trkpt lat="42.6519" lon="2.5099">
        <ele>372.113</ele>
        <time>2019-11-01T15:45:49Z</time>
      </trkpt>
      <trkpt lat="42.6517" lon="2.51045">
        <ele>356.086</ele>
        <time>2019-11-01T15:46:09Z</time>
      </trkpt>
      <trkpt lat="42.65178" lon="2.51071">
        <ele>352.292</ele>
        <time>2019-11-01T15:46:29Z</time>
      </trkpt>
      <trkpt lat="42.65169" lon="2.51099">
        <ele>343.744</ele>
        <time>2019-11-01T15:46:49Z</time>
      </trkpt>
      <trkpt lat="42.6511" lon="2.51074">
        <ele>334.82</ele>
        <time>2019-11-01T15:47:09Z</time>
      </trkpt>
      <trkpt lat="42.6512" lon="2.51104">
        <ele>328.879</ele>
        <time>2019-11-01T15:47:29Z</time>
      </trkpt>
      <trkpt lat="42.65116" lon="2.51126">
        <ele>322.889</ele>
        <time>2019-11-01T15:47:49Z</time>
      </trkpt>
      <trkpt lat="42.6514" lon="2.51185">
        <ele>311.006</ele>
        <time>2019-11-01T15:48:09Z</time>
      </trkpt>
      <trkpt lat="42.6512" lon="2.51187">
        <ele>303.826</ele>
        <time>2019-11-01T15:48:29Z</time>
      </trkpt>
      <trkpt lat="42.65089" lon="2.5116">
        <ele>297.808</ele>
        <time>2019-11-01T15:48:49Z</time>
      </trkpt>
      <trkpt lat="42.65124" lon="2.51218">
        <ele>294.294</ele>
        <time>2019-11-01T15:49:09Z</time>
      </trkpt>
      <trkpt lat="42.65132" lon="2.51273">
        <ele>276.81</ele>
        <time>2019-11-01T15:49:29Z</time>
      </trkpt>
      <trkpt lat="42.65158" lon="2.51282">
        <ele>279.355</ele>
        <time>2019-11-01T15:49:49Z</time>
      </trkpt>
      <trkpt lat="42.65136" lon="2.51294">
        <ele>268.728</ele>
        <time>2019-11-01T15:50:09Z</time>
      </trkpt>
      <trkpt lat="42.65104" lon="2.51274">
        <ele>261.764</ele>
        <time>2019-11-01T15:50:29Z</time>
      </trkpt>
      <trkpt lat="42.65119" lon="2.51312">
        <ele>256.446</ele>
        <time>2019-11-01T15:50:49Z</time>
      </trkpt>
      <trkpt lat="42.6465" lon="2.51294">
        <ele>250.022</ele>
        <time>2019-11-01T15:51:09Z</time>
      </trkpt>
      <trkpt lat="42.64585" lon="2.51343">
        <ele>254.291</ele>
        <time>2019-11-01T15:51:29Z</time>
      </trkpt>
      <trkpt lat="42.6456" lon="2.51255">
        <ele>253.811</ele>
        <time>2019-11-01T15:51:49Z</time>
      </trkpt>
      <trkpt lat="42.64539" lon="2.51141">
        <ele>250.121</ele>
        <time>2019-11-01T15:52:09Z</time>
      </trkpt>
      <trkpt lat="42.64524" lon="2.51117">
        <ele>249.303</ele>
        <time>2019-11-01T15:52:29Z</time>
      </trkpt>
      <trkpt lat="42.64467" lon="2.511">
        <ele>250.108</ele>
        <time>2019-11-01T15:52:49Z</time>
      </trkpt>
      <trkpt lat="42.64423" lon="2.51045">
        <ele>248.787</ele>
        <time>2019-11-01T15:53:09Z</time>
      </trkpt>
      <trkpt lat="42.64411" lon="2.50954">
        <ele>246.633</ele>
        <time>2019-11-01T15:53:29Z</time>
      </trkpt>
      <trkpt lat="42.64384" lon="2.50931">
        <ele>246.638</ele>
        <time>2019-11-01T15:53:49Z</time>
      </trkpt>
      <trkpt lat="42.64358" lon="2.50928">
        <ele>246.811</ele>
        <time>2019-11-01T15:54:09Z</time>
      </trkpt>
      <trkpt lat="42.64274" lon="2.50964">
        <ele>248.497</ele>
        <time>2019-11-01T15:54:29Z</time>
      </trkpt>
      <trkpt lat="42.64208" lon="2.50908">
        <ele>247.849</ele>
        <time>2019-11-01T15:54:49Z</time>
      </trkpt>
      <trkpt lat="42.64163" lon="2.50887">
        <ele>248.165</ele>
        <time>2019-11-01T15:55:09Z</time>
      </trkpt>
      <trkpt lat="42.64125" lon="2.50855">
        <ele>249.184</ele>
        <time>2019-11-01T15:55:29Z</time>
      </trkpt>
      <trkpt lat="42.64078" lon="2.50856">
        <ele>250.083</ele>
        <time>2019-11-01T15:55:49Z</time>
      </trkpt>
      <trkpt lat="42.64052" lon="2.50837">
        <ele>250.025</ele>
        <time>2019-11-01T15:56:09Z</time>
      </trkpt>
      <trkpt lat="42.64015" lon="2.50832">
        <ele>250.017</ele>
        <time>2019-11-01T15:56:29Z</time>
      </trkpt>
      <trkpt lat="42.63991" lon="2.50807">
        <ele>253.408</ele>
        <time>2020-12-28T03:16:35Z</time>
      </trkpt>
      <trkpt lat="42.63929" lon="2.50824">
        <ele>257.054</ele>
        <time>2020-12-28T03:16:55Z</time>
      </trkpt>
      <trkpt lat="42.63834" lon="2.50757">
        <ele>257.75</ele>
        <time>2020-12-28T03:17:15Z</time>
      </trkpt>
      <trkpt lat="42.63817" lon="2.50733">
        <ele>256.925</ele>
        <time>2020-12-28T03:17:35Z</time>
      </trkpt>
      <trkpt lat="42.63763" lon="2.507">
        <ele>257.268</ele>
        <time>2020-12-28T03:17:55Z</time>
      </trkpt>
      <trkpt lat="42.63732" lon="2.50658">
        <ele>256.824</ele>
        <time>2020-12-28T03:18:15Z</time>
      </trkpt>
      <trkpt lat="42.63728" lon="2.5062">
        <ele>256.626</ele>
        <time>2020-12-28T03:18:35Z</time>
      </trkpt>
      <trkpt lat="42.63702" lon="2.50584">
        <ele>256.662</ele>
        <time>2020-12-28T03:18:55Z</time>
      </trkpt>
      <trkpt lat="42.63704" lon="2.50555">
        <ele>258.031</ele>
        <time>2020-12-28T03:19:15Z</time>
      </trkpt>
      <trkpt lat="42.63617" lon="2.50459">
        <ele>260.923</ele>
        <time>2020-12-28T03:19:35Z</time>
      </trkpt>
      <trkpt lat="42.6359" lon="2.50438">
        <ele>260.983</ele>
        <time>2020-12-28T03:19:55Z</time>
      </trkpt>
      <trkpt lat="42.63566" lon="2.5043">
        <ele>261.311</ele>
        <time>2020-12-28T03:20:15Z</time>
      </trkpt>
      <trkpt lat="42.63556" lon="2.50411">
        <ele>261.608</ele>
        <time>2020-12-28T03:20:35Z</time>
      </trkpt>
      <trkpt lat="42.63531" lon="2.50387">
        <ele>262.518</ele>
        <time>2020-12-28T03:20:55Z</time>
      </trkpt>
      <trkpt lat="42.63522" lon="2.50389">
        <ele>262.454</ele>
        <time>2020-12-28T03:21:15Z</time>
      </trkpt>
      <trkpt lat="42.63506" lon="2.50375">
        <ele>262.659</ele>
        <time>2020-12-28T03:21:35Z</time>
      </trkpt>
      <trkpt lat="42.63487" lon="2.50391">
        <ele>262.882</ele>
        <time>2020-12-28T03:21:55Z</time>
      </trkpt>
      <trkpt lat="42.63466" lon="2.50396">
        <ele>263.638</ele>
        <time>2020-12-28T03:22:15Z</time>
      </trkpt>
      <trkpt lat="42.63438" lon="2.50418">
        <ele>265.14</ele>
        <time>2020-12-28T03:22:35Z</time>
      </trkpt>
      <trkpt lat="42.63418" lon="2.50418">
        <ele>266.076</ele>
        <time>2020-12-28T03:22:55Z</time>
      </trkpt>
      <trkpt lat="42.63381" lon="2.505">
        <ele>274.275</ele>
        <time>2020-12-28T03:23:15Z</time>
      </trkpt>
      <trkpt lat="42.63399" lon="2.50541">
        <ele>276.762</ele>
        <time>2020-12-28T03:23:35Z</time>
      </trkpt>
      <trkpt lat="42.63407" lon="2.506">
        <ele>278.583</ele>
        <time>2020-12-28T03:23:55Z</time>
      </trkpt>
      <trkpt lat="42.63402" lon="2.50715">
        <ele>279.811</ele>
        <time>2020-12-28T03:24:15Z</time>
      </trkpt>
      <trkpt lat="42.63385" lon="2.50761">
        <ele>281.308</ele>
        <time>2020-12-28T03:24:35Z</time>
      </trkpt>
      <trkpt lat="42.6333" lon="2.50821">
        <ele>283.162</ele>
        <time>2019-11-01T16:00:29Z</time>
      </trkpt>
      <trkpt lat="42.63318" lon="2.50848">
        <ele>284.078</ele>
        <time>2019-11-01T16:00:49Z</time>
      </trkpt>
      <trkpt lat="42.63248" lon="2.50834">
        <ele>284.053</ele>
        <time>2019-11-01T16:01:09Z</time>
      </trkpt>
      <trkpt lat="42.63189" lon="2.50863">
        <ele>286.356</ele>
        <time>2019-11-01T16:01:29Z</time>
      </trkpt>
      <trkpt lat="42.63126" lon="2.50853">
        <ele>288.242</ele>
        <time>2019-11-01T16:01:49Z</time>
      </trkpt>
      <trkpt lat="42.63086" lon="2.50841">
        <ele>293.014</ele>
        <time>2020-12-28T03:26:35Z</time>
      </trkpt>
      <trkpt lat="42.63057" lon="2.50853">
        <ele>294.44</ele>
        <time>2020-12-28T03:26:55Z</time>
      </trkpt>
      <trkpt lat="42.63005" lon="2.50853">
        <ele>296.889</ele>
        <time>2020-12-28T03:27:15Z</time>
      </trkpt>
      <trkpt lat="42.62977" lon="2.50879">
        <ele>297.511</ele>
        <time>2020-12-28T03:27:35Z</time>
      </trkpt>
      <trkpt lat="42.62926" lon="2.50883">
        <ele>298.821</ele>
        <time>2020-12-28T03:27:55Z</time>
      </trkpt>
      <trkpt lat="42.6288" lon="2.50911">
        <ele>299.803</ele>
        <time>2020-12-28T03:28:15Z</time>
      </trkpt>
      <trkpt lat="42.62871" lon="2.50951">
        <ele>300.908</ele>
        <time>2020-12-28T03:28:35Z</time>
      </trkpt>
      <trkpt lat="42.62827" lon="2.50979">
        <ele>302.077</ele>
        <time>2020-12-28T03:28:55Z</time>
      </trkpt>
      <trkpt lat="42.62799" lon="2.50977">
        <ele>302.833</ele>
        <time>2020-12-28T03:29:15Z</time>
      </trkpt>
      <trkpt lat="42.62756" lon="2.50851">
        <ele>301.378</ele>
        <time>2020-12-28T03:29:35Z</time>
      </trkpt>
      <trkpt lat="42.62731" lon="2.50822">
        <ele>298.731</ele>
        <time>2019-11-01T16:03:49Z</time>
      </trkpt>
      <trkpt lat="42.62696" lon="2.50822">
        <ele>299.967</ele>
        <time>2019-11-01T16:04:09Z</time>
      </trkpt>
      <trkpt lat="42.6265" lon="2.50886">
        <ele>301.669</ele>
        <time>2019-11-01T16:04:29Z</time>
      </trkpt>
      <trkpt lat="42.62601" lon="2.50887">
        <ele>303.475</ele>
        <time>2019-11-01T16:04:49Z</time>
      </trkpt>
      <trkpt lat="42.62594" lon="2.50895">
        <ele>303.744</ele>
        <time>2019-11-01T16:05:09Z</time>
      </trkpt>
      <trkpt lat="42.62575" lon="2.50897">
        <ele>304.144</ele>
        <time>2019-11-01T16:05:29Z</time>
      </trkpt>
      <trkpt lat="42.62566" lon="2.50922">
        <ele>304.705</ele>
        <time>2019-11-01T16:05:49Z</time>
      </trkpt>
      <trkpt lat="42.62544" lon="2.50935">
        <ele>305.015</ele>
        <time>2019-11-01T16:06:09Z</time>
      </trkpt>
      <trkpt lat="42.62538" lon="2.50959">
        <ele>305.008</ele>
        <time>2019-11-01T16:06:29Z</time>
      </trkpt>
      <trkpt lat="42.62529" lon="2.50976">
        <ele>305.06</ele>
        <time>2019-11-01T16:06:49Z</time>
      </trkpt>
      <trkpt lat="42.62526" lon="2.50998">
        <ele>305.186</ele>
        <time>2019-11-01T16:07:09Z</time>
      </trkpt>
      <trkpt lat="42.62514" lon="2.5102">
        <ele>306.071</ele>
        <time>2019-11-01T16:07:29Z</time>
      </trkpt>
      <trkpt lat="42.62535" lon="2.51054">
        <ele>305.034</ele>
        <time>2019-11-01T16:07:49Z</time>
      </trkpt>
      <trkpt lat="42.62537" lon="2.51087">
        <ele>307.36</ele>
        <time>2019-11-01T16:08:09Z</time>
      </trkpt>
      <trkpt lat="42.62526" lon="2.5113">
        <ele>309.792</ele>
        <time>2019-11-01T16:08:29Z</time>
      </trkpt>
      <trkpt lat="42.62421" lon="2.51151">
        <ele>313.718</ele>
        <time>2019-11-01T16:08:49Z</time>
      </trkpt>
      <trkpt lat="42.62365" lon="2.51179">
        <ele>314.947</ele>
        <time>2019-11-01T16:09:09Z</time>
      </trkpt>
      <trkpt lat="42.62326" lon="2.51174">
        <ele>314.937</ele>
        <time>2019-11-01T16:09:29Z</time>
      </trkpt>
      <trkpt lat="42.62214" lon="2.51205">
        <ele>319.749</ele>
        <time>2019-11-01T16:09:49Z</time>
      </trkpt>
      <trkpt lat="42.62132" lon="2.51203">
        <ele>323.513</ele>
        <time>2019-11-01T16:10:09Z</time>
      </trkpt>
      <trkpt lat="42.62102" lon="2.51184">
        <ele>323.608</ele>
        <time>2019-11-01T16:10:29Z</time>
      </trkpt>
      <trkpt lat="42.62037" lon="2.51198">
        <ele>324.819</ele>
        <time>2019-11-01T16:10:49Z</time>
      </trkpt>
      <trkpt lat="42.61988" lon="2.51181">
        <ele>326.445</ele>
        <time>2019-11-01T16:11:09Z</time>
      </trkpt>
      <trkpt lat="42.61926" lon="2.51196">
        <ele>328.78</ele>
        <time>2019-11-01T16:11:29Z</time>
      </trkpt>
      <trkpt lat="42.61905" lon="2.51156">
        <ele>328.193</ele>
        <time>2019-11-01T16:11:49Z</time>
      </trkpt>
      <trkpt lat="42.61878" lon="2.51158">
        <ele>329.859</ele>
        <time>2019-11-01T16:12:09Z</time>
      </trkpt>
      <trkpt lat="42.61796" lon="2.51249">
        <ele>338.921</ele>
        <time>2019-11-01T16:12:29Z</time>
      </trkpt>
      <trkpt lat="42.61776" lon="2.51169">
        <ele>332.127</ele>
        <time>2019-11-01T16:12:49Z</time>
      </trkpt>
      <trkpt lat="42.61747" lon="2.51151">
        <ele>327.296</ele>
        <time>2019-11-01T16:13:09Z</time>
      </trkpt>
      <trkpt lat="42.61697" lon="2.51186">
        <ele>324.263</ele>
        <time>2019-11-01T16:13:29Z</time>
      </trkpt>
      <trkpt lat="42.61621" lon="2.51207">
        <ele>319.144</ele>
        <time>2019-11-01T16:13:49Z</time>
      </trkpt>
      <trkpt lat="42.6157" lon="2.51174">
        <ele>308.518</ele>
        <time>2019-11-01T16:14:09Z</time>
      </trkpt>
      <trkpt lat="42.61607" lon="2.51133">
        <ele>304.008</ele>
        <time>2019-11-01T16:14:29Z</time>
      </trkpt>
      <trkpt lat="42.61613" lon="2.51092">
        <ele>299.722</ele>
        <time>2019-11-01T16:14:49Z</time>
      </trkpt>
      <trkpt lat="42.6163" lon="2.51005">
        <ele>299.078</ele>
        <time>2019-11-01T16:15:09Z</time>
      </trkpt>
      <trkpt lat="42.61654" lon="2.50959">
        <ele>298.123</ele>
        <time>2019-11-01T16:15:29Z</time>
      </trkpt>
      <trkpt lat="42.61713" lon="2.50918">
        <ele>296.866</ele>
        <time>2019-11-01T16:15:49Z</time>
      </trkpt>
      <trkpt lat="42.61688" lon="2.50829">
        <ele>309.892</ele>
        <time>2019-11-01T16:16:09Z</time>
      </trkpt>
      <trkpt lat="42.61675" lon="2.50752">
        <ele>320.474</ele>
        <time>2019-11-01T16:16:29Z</time>
      </trkpt>
      <trkpt lat="42.61651" lon="2.50743">
        <ele>324.15</ele>
        <time>2019-11-01T16:16:49Z</time>
      </trkpt>
      <trkpt lat="42.61774" lon="2.50703">
        <ele>328.569</ele>
        <time>2019-11-01T16:17:09Z</time>
      </trkpt>
      <trkpt lat="42.61844" lon="2.50696">
        <ele>331.349</ele>
        <time>2019-11-01T16:17:29Z</time>
      </trkpt>
      <trkpt lat="42.61875" lon="2.50649">
        <ele>337.302</ele>
        <time>2019-11-01T16:17:49Z</time>
      </trkpt>
      <trkpt lat="42.61843" lon="2.50646">
        <ele>344.522</ele>
        <time>2019-11-01T16:18:09Z</time>
      </trkpt>
      <trkpt lat="42.6179" lon="2.50628">
        <ele>348.908</ele>
        <time>2019-11-01T16:18:29Z</time>
      </trkpt>
      <trkpt lat="42.61758" lon="2.50637">
        <ele>347.76</ele>
        <time>2019-11-01T16:18:49Z</time>
      </trkpt>
      <trkpt lat="42.61643" lon="2.50623">
        <ele>359.396</ele>
        <time>2019-11-01T16:19:09Z</time>
      </trkpt>
      <trkpt lat="42.6156" lon="2.50628">
        <ele>359.971</ele>
        <time>2019-11-01T16:19:29Z</time>
      </trkpt>
      <trkpt lat="42.61536" lon="2.50639">
        <ele>357.524</ele>
        <time>2019-11-01T16:19:49Z</time>
      </trkpt>
      <trkpt lat="42.61507" lon="2.50628">
        <ele>366.14</ele>
        <time>2019-11-01T16:20:09Z</time>
      </trkpt>
      <trkpt lat="42.61454" lon="2.50642">
        <ele>371.192</ele>
        <time>2019-11-01T16:20:29Z</time>
      </trkpt>
      <trkpt lat="42.61388" lon="2.50633">
        <ele>381.168</ele>
        <time>2019-11-01T16:20:49Z</time>
      </trkpt>
      <trkpt lat="42.61357" lon="2.50644">
        <ele>383.657</ele>
        <time>2019-11-01T16:21:09Z</time>
      </trkpt>
      <trkpt lat="42.6139" lon="2.50616">
        <ele>389.492</ele>
        <time>2019-11-01T16:21:29Z</time>
      </trkpt>
      <trkpt lat="42.61427" lon="2.50604">
        <ele>388.773</ele>
        <time>2019-11-01T16:21:49Z</time>
      </trkpt>
      <trkpt lat="42.61459" lon="2.50562">
        <ele>393.92</ele>
        <time>2019-11-01T16:22:09Z</time>
      </trkpt>
      <trkpt lat="42.61472" lon="2.50524">
        <ele>395.108</ele>
        <time>2019-11-01T16:22:29Z</time>
      </trkpt>
      <trkpt lat="42.61403" lon="2.50489">
        <ele>403.785</ele>
        <time>2019-11-01T16:22:49Z</time>
      </trkpt>
      <trkpt lat="42.61338" lon="2.50473">
        <ele>409.861</ele>
        <time>2019-11-01T16:23:09Z</time>
      </trkpt>
      <trkpt lat="42.61268" lon="2.50504">
        <ele>418.476</ele>
        <time>2019-11-01T16:23:29Z</time>
      </trkpt>
      <trkpt lat="42.61199" lon="2.50489">
        <ele>419.869</ele>
        <time>2019-11-01T16:23:49Z</time>
      </trkpt>
      <trkpt lat="42.61005" lon="2.50508">
        <ele>434.815</ele>
        <time>2019-11-01T16:24:09Z</time>
      </trkpt>
      <trkpt lat="42.60944" lon="2.5048">
        <ele>442.067</ele>
        <time>2019-11-01T16:24:29Z</time>
      </trkpt>
      <trkpt lat="42.60877" lon="2.50477">
        <ele>447.853</ele>
        <time>2019-11-01T16:24:49Z</time>
      </trkpt>
      <trkpt lat="42.60846" lon="2.50497">
        <ele>449.572</ele>
        <time>2019-11-01T16:25:09Z</time>
      </trkpt>
      <trkpt lat="42.60758" lon="2.50515">
        <ele>458.887</ele>
        <time>2019-11-01T16:25:29Z</time>
      </trkpt>
      <trkpt lat="42.60767" lon="2.50618">
        <ele>476.242</ele>
        <time>2019-11-01T16:25:49Z</time>
      </trkpt>
      <trkpt lat="42.6073" lon="2.50665">
        <ele>495.626</ele>
        <time>2019-11-01T16:26:09Z</time>
      </trkpt>
      <trkpt lat="42.60707" lon="2.50663">
        <ele>503.008</ele>
        <time>2019-11-01T16:26:29Z</time>
      </trkpt>
      <trkpt lat="42.60681" lon="2.50666">
        <ele>511.224</ele>
        <time>2019-11-01T16:26:49Z</time>
      </trkpt>
      <trkpt lat="42.60648" lon="2.50655">
        <ele>521.97</ele>
        <time>2019-11-01T16:27:09Z</time>
      </trkpt>
      <trkpt lat="42.60627" lon="2.50662">
        <ele>532.975</ele>
        <time>2019-11-01T16:27:29Z</time>
      </trkpt>
      <trkpt lat="42.6059" lon="2.50652">
        <ele>548.178</ele>
        <time>2019-11-01T16:27:49Z</time>
      </trkpt>
      <trkpt lat="42.60562" lon="2.50625">
        <ele>552.464</ele>
        <time>2019-11-01T16:28:09Z</time>
      </trkpt>
      <trkpt lat="42.60535" lon="2.50634">
        <ele>567.456</ele>
        <time>2019-11-01T16:28:29Z</time>
      </trkpt>
      <trkpt lat="42.60514" lon="2.50647">
        <ele>576.432</ele>
        <time>2019-11-01T16:28:49Z</time>
      </trkpt>
      <trkpt lat="42.60503" lon="2.50628">
        <ele>577.321</ele>
        <time>2019-11-01T16:29:09Z</time>
      </trkpt>
      <trkpt lat="42.60458" lon="2.50619">
        <ele>588.061</ele>
        <time>2019-11-01T16:29:29Z</time>
      </trkpt>
      <trkpt lat="42.60451" lon="2.50605">
        <ele>588.921</ele>
        <time>2019-11-01T16:29:49Z</time>
      </trkpt>
      <trkpt lat="42.60413" lon="2.50578">
        <ele>600.713</ele>
        <time>2019-11-01T16:30:09Z</time>
      </trkpt>
      <trkpt lat="42.60396" lon="2.50545">
        <ele>606.108</ele>
        <time>2020-12-28T03:56:35Z</time>
      </trkpt>
      <trkpt lat="42.60389" lon="2.50498">
        <ele>604.032</ele>
        <time>2020-12-28T03:56:55Z</time>
      </trkpt>
      <trkpt lat="42.60361" lon="2.50501">
        <ele>616.318</ele>
        <time>2020-12-28T03:57:15Z</time>
      </trkpt>
      <trkpt lat="42.60346" lon="2.50521">
        <ele>625.313</ele>
        <time>2020-12-28T03:57:35Z</time>
      </trkpt>
      <trkpt lat="42.6033" lon="2.50523">
        <ele>631.596</ele>
        <time>2020-12-28T03:57:55Z</time>
      </trkpt>
      <trkpt lat="42.60284" lon="2.50572">
        <ele>654.142</ele>
        <time>2020-12-28T03:58:15Z</time>
      </trkpt>
      <trkpt lat="42.60281" lon="2.50604">
        <ele>660.214</ele>
        <time>2019-11-01T16:31:29Z</time>
      </trkpt>
      <trkpt lat="42.60235" lon="2.5065">
        <ele>677.48</ele>
        <time>2019-11-01T16:31:49Z</time>
      </trkpt>
      <trkpt lat="42.60205" lon="2.5065">
        <ele>686.189</ele>
        <time>2019-11-01T16:32:09Z</time>
      </trkpt>
      <trkpt lat="42.60177" lon="2.50635">
        <ele>689.227</ele>
        <time>2019-11-01T16:32:29Z</time>
      </trkpt>
      <trkpt lat="42.60155" lon="2.50637">
        <ele>692.068</ele>
        <time>2019-11-01T16:32:49Z</time>
      </trkpt>
      <trkpt lat="42.60128" lon="2.50628">
        <ele>698.414</ele>
        <time>2019-11-01T16:33:09Z</time>
      </trkpt>
      <trkpt lat="42.60103" lon="2.50636">
        <ele>706.708</ele>
        <time>2019-11-01T16:33:29Z</time>
      </trkpt>
      <trkpt lat="42.60072" lon="2.50616">
        <ele>712.218</ele>
        <time>2019-11-01T16:33:49Z</time>
      </trkpt>
      <trkpt lat="42.60056" lon="2.50626">
        <ele>713.694</ele>
        <time>2019-11-01T16:34:09Z</time>
      </trkpt>
      <trkpt lat="42.60005" lon="2.50616">
        <ele>719.839</ele>
        <time>2019-11-01T16:34:29Z</time>
      </trkpt>
      <trkpt lat="42.59965" lon="2.50573">
        <ele>715.082</ele>
        <time>2019-11-01T16:34:49Z</time>
      </trkpt>
      <trkpt lat="42.59934" lon="2.50581">
        <ele>713.278</ele>
        <time>2019-11-01T16:35:09Z</time>
      </trkpt>
      <trkpt lat="42.59914" lon="2.50603">
        <ele>704.15</ele>
        <time>2019-11-01T16:35:29Z</time>
      </trkpt>
      <trkpt lat="42.59886" lon="2.5061">
        <ele>703.236</ele>
        <time>2019-11-01T16:35:49Z</time>
      </trkpt>
      <trkpt lat="42.59878" lon="2.50576">
        <ele>708.585</ele>
        <time>2019-11-01T16:36:09Z</time>
      </trkpt>
      <trkpt lat="42.59847" lon="2.50551">
        <ele>704.055</ele>
        <time>2019-11-01T16:36:29Z</time>
      </trkpt>
      <trkpt lat="42.59774" lon="2.50555">
        <ele>694.407</ele>
        <time>2019-11-01T16:36:49Z</time>
      </trkpt>
      <trkpt lat="42.59755" lon="2.5057">
        <ele>689.817</ele>
        <time>2019-11-01T16:37:09Z</time>
      </trkpt>
      <trkpt lat="42.59707" lon="2.50578">
        <ele>693.608</ele>
        <time>2019-11-01T16:37:29Z</time>
      </trkpt>
      <trkpt lat="42.5968" lon="2.50599">
        <ele>690.011</ele>
        <time>2019-11-01T16:37:49Z</time>
      </trkpt>
      <trkpt lat="42.59629" lon="2.50577">
        <ele>691.987</ele>
        <time>2019-11-01T16:38:09Z</time>
      </trkpt>
      <trkpt lat="42.59601" lon="2.50586">
        <ele>684.922</ele>
        <time>2019-11-01T16:38:29Z</time>
      </trkpt>
      <trkpt lat="42.59559" lon="2.50618">
        <ele>679.375</ele>
        <time>2019-11-01T16:38:49Z</time>
      </trkpt>
      <trkpt lat="42.59524" lon="2.5063">
        <ele>679.141</ele>
        <time>2019-11-01T16:39:09Z</time>
      </trkpt>
      <trkpt lat="42.59508" lon="2.50649">
        <ele>672.543</ele>
        <time>2019-11-01T16:39:29Z</time>
      </trkpt>
      <trkpt lat="42.59467" lon="2.50647">
        <ele>665.779</ele>
        <time>2019-11-01T16:39:49Z</time>
      </trkpt>
      <trkpt lat="42.59465" lon="2.50593">
        <ele>667.058</ele>
        <time>2019-11-01T16:40:09Z</time>
      </trkpt>
      <trkpt lat="42.59446" lon="2.50531">
        <ele>662.316</ele>
        <time>2019-11-01T16:40:29Z</time>
      </trkpt>
      <trkpt lat="42.59425" lon="2.50528">
        <ele>657.476</ele>
        <time>2019-11-01T16:40:49Z</time>
      </trkpt>
      <trkpt lat="42.59387" lon="2.50543">
        <ele>645.413</ele>
        <time>2019-11-01T16:41:09Z</time>
      </trkpt>
      <trkpt lat="42.59362" lon="2.5054">
        <ele>642.308</ele>
        <time>2019-11-01T16:41:29Z</time>
      </trkpt>
      <trkpt lat="42.59357" lon="2.50554">
        <ele>635.867</ele>
        <time>2019-11-01T16:41:49Z</time>
      </trkpt>
      <trkpt lat="42.59295" lon="2.50536">
        <ele>623.533</ele>
        <time>2019-11-01T16:42:09Z</time>
      </trkpt>
      <trkpt lat="42.59248" lon="2.50468">
        <ele>623.958</ele>
        <time>2019-11-01T16:42:29Z</time>
      </trkpt>
      <trkpt lat="42.59202" lon="2.50432">
        <ele>613.481</ele>
        <time>2019-11-01T16:42:49Z</time>
      </trkpt>
      <trkpt lat="42.59117" lon="2.50539">
        <ele>599.427</ele>
        <time>2019-11-01T16:43:09Z</time>
      </trkpt>
      <trkpt lat="42.59095" lon="2.50543">
        <ele>595.899</ele>
        <time>2019-11-01T16:43:29Z</time>
      </trkpt>
      <trkpt lat="42.59065" lon="2.50485">
        <ele>597.375</ele>
        <time>2019-11-01T16:43:49Z</time>
      </trkpt>
      <trkpt lat="42.59052" lon="2.50465">
        <ele>593.264</ele>
        <time>2019-11-01T16:44:09Z</time>
      </trkpt>
      <trkpt lat="42.59033" lon="2.50417">
        <ele>591.819</ele>
        <time>2019-11-01T16:44:29Z</time>
      </trkpt>
      <trkpt lat="42.59009" lon="2.50405">
        <ele>586.309</ele>
        <time>2019-11-01T16:44:49Z</time>
      </trkpt>
      <trkpt lat="42.59" lon="2.50442">
        <ele>571.019</ele>
        <time>2019-11-01T16:45:09Z</time>
      </trkpt>
      <trkpt lat="42.58969" lon="2.50479">
        <ele>574.208</ele>
        <time>2019-11-01T16:45:29Z</time>
      </trkpt>
      <trkpt lat="42.58937" lon="2.50476">
        <ele>577.997</ele>
        <time>2019-11-01T16:45:49Z</time>
      </trkpt>
      <trkpt lat="42.58903" lon="2.50422">
        <ele>590.763</ele>
        <time>2019-11-01T16:46:09Z</time>
      </trkpt>
      <trkpt lat="42.5887" lon="2.50441">
        <ele>572.458</ele>
        <time>2019-11-01T16:46:29Z</time>
      </trkpt>
      <trkpt lat="42.58835" lon="2.50426">
        <ele>588.391</ele>
        <time>2019-11-01T16:46:49Z</time>
      </trkpt>
      <trkpt lat="42.58847" lon="2.50482">
        <ele>584.247</ele>
        <time>2019-11-01T16:47:09Z</time>
      </trkpt>
      <trkpt lat="42.58863" lon="2.50508">
        <ele>572.549</ele>
        <time>2019-11-01T16:47:29Z</time>
      </trkpt>
      <trkpt lat="42.58861" lon="2.50553">
        <ele>570.435</ele>
        <time>2019-11-01T16:47:49Z</time>
      </trkpt>
      <trkpt lat="42.58878" lon="2.50572">
        <ele>558.764</ele>
        <time>2019-11-01T16:48:09Z</time>
      </trkpt>
      <trkpt lat="42.58886" lon="2.50607">
        <ele>551.578</ele>
        <time>2019-11-01T16:48:29Z</time>
      </trkpt>
      <trkpt lat="42.58877" lon="2.50687">
        <ele>543.833</ele>
        <time>2019-11-01T16:48:49Z</time>
      </trkpt>
      <trkpt lat="42.58846" lon="2.50687">
        <ele>550.426</ele>
        <time>2019-11-01T16:49:09Z</time>
      </trkpt>
      <trkpt lat="42.58823" lon="2.50717">
        <ele>534.408</ele>
        <time>2019-11-01T16:49:29Z</time>
      </trkpt>
      <trkpt lat="42.58807" lon="2.50718">
        <ele>538.413</ele>
        <time>2019-11-01T16:49:49Z</time>
      </trkpt>
      <trkpt lat="42.58722" lon="2.50791">
        <ele>534.499</ele>
        <time>2019-11-01T16:50:09Z</time>
      </trkpt>
      <trkpt lat="42.58692" lon="2.5078">
        <ele>536.154</ele>
        <time>2019-11-01T16:50:29Z</time>
      </trkpt>
      <trkpt lat="42.58681" lon="2.50764">
        <ele>540.687</ele>
        <time>2019-11-01T16:50:49Z</time>
      </trkpt>
      <trkpt lat="42.58636" lon="2.50746">
        <ele>532.863</ele>
        <time>2019-11-01T16:51:09Z</time>
      </trkpt>
      <trkpt lat="42.58606" lon="2.50761">
        <ele>530.045</ele>
        <time>2019-11-01T16:51:29Z</time>
      </trkpt>
      <trkpt lat="42.58586" lon="2.50791">
        <ele>524.491</ele>
        <time>2019-11-01T16:51:49Z</time>
      </trkpt>
      <trkpt lat="42.58543" lon="2.50808">
        <ele>523.32</ele>
        <time>2019-11-01T16:52:09Z</time>
      </trkpt>
      <trkpt lat="42.58521" lon="2.50787">
        <ele>532.031</ele>
        <time>2019-11-01T16:52:29Z</time>
      </trkpt>
      <trkpt lat="42.58498" lon="2.50799">
        <ele>533.661</ele>
        <time>2019-11-01T16:52:49Z</time>
      </trkpt>
      <trkpt lat="42.5846" lon="2.50787">
        <ele>538.607</ele>
        <time>2019-11-01T16:53:09Z</time>
      </trkpt>
      <trkpt lat="42.58432" lon="2.50787">
        <ele>539.808</ele>
        <time>2019-11-01T16:53:29Z</time>
      </trkpt>
      <trkpt lat="42.58404" lon="2.50753">
        <ele>551.059</ele>
        <time>2019-11-01T16:53:49Z</time>
      </trkpt>
      <trkpt lat="42.58358" lon="2.50746">
        <ele>552.085</ele>
        <time>2019-11-01T16:54:09Z</time>
      </trkpt>
      <trkpt lat="42.58312" lon="2.50791">
        <ele>549.34</ele>
        <time>2019-11-01T16:54:29Z</time>
      </trkpt>
      <trkpt lat="42.5826" lon="2.5078">
        <ele>558.423</ele>
        <time>2019-11-01T16:54:49Z</time>
      </trkpt>
      <trkpt lat="42.58271" lon="2.50865">
        <ele>540.559</ele>
        <time>2019-11-01T16:55:09Z</time>
      </trkpt>
      <trkpt lat="42.58259" lon="2.50877">
        <ele>536.991</ele>
        <time>2019-11-01T16:55:29Z</time>
      </trkpt>
      <trkpt lat="42.5822" lon="2.50873">
        <ele>532.657</ele>
        <time>2019-11-01T16:55:49Z</time>
      </trkpt>
      <trkpt lat="42.58185" lon="2.50884">
        <ele>526.216</ele>
        <time>2019-11-01T16:56:09Z</time>
      </trkpt>
      <trkpt lat="42.58198" lon="2.50893">
        <ele>520.668</ele>
        <time>2019-11-01T16:56:29Z</time>
      </trkpt>
      <trkpt lat="42.58155" lon="2.50907">
        <ele>514.542</ele>
        <time>2019-11-01T16:56:49Z</time>
      </trkpt>
      <trkpt lat="42.58136" lon="2.50924">
        <ele>508.926</ele>
        <time>2019-11-01T16:57:09Z</time>
      </trkpt>
      <trkpt lat="42.5812" lon="2.50962">
        <ele>500.508</ele>
        <time>2019-11-01T16:57:29Z</time>
      </trkpt>
      <trkpt lat="42.58106" lon="2.50968">
        <ele>503.982</ele>
        <time>2019-11-01T16:57:49Z</time>
      </trkpt>
      <trkpt lat="42.58115" lon="2.51062">
        <ele>491.728</ele>
        <time>2019-11-01T16:58:09Z</time>
      </trkpt>
      <trkpt lat="42.58091" lon="2.51093">
        <ele>495.073</ele>
        <time>2019-11-01T16:58:29Z</time>
      </trkpt>
      <trkpt lat="42.58083" lon="2.51137">
        <ele>496.196</ele>
        <time>2019-11-01T16:58:49Z</time>
      </trkpt>
      <trkpt lat="42.58061" lon="2.51167">
        <ele>498.672</ele>
        <time>2019-11-01T16:59:09Z</time>
      </trkpt>
      <trkpt lat="42.58051" lon="2.51207">
        <ele>499.374</ele>
        <time>2019-11-01T16:59:29Z</time>
      </trkpt>
      <trkpt lat="42.5801" lon="2.51243">
        <ele>500.22</ele>
        <time>2019-11-01T16:59:49Z</time>
      </trkpt>
      <trkpt lat="42.57976" lon="2.51263">
        <ele>501.769</ele>
        <time>2019-11-01T17:00:09Z</time>
      </trkpt>
      <trkpt lat="42.57902" lon="2.51266">
        <ele>502.967</ele>
        <time>2019-11-01T17:00:29Z</time>
      </trkpt>
      <trkpt lat="42.57889" lon="2.51242">
        <ele>507.081</ele>
        <time>2019-11-01T17:00:49Z</time>
      </trkpt>
      <trkpt lat="42.57853" lon="2.51241">
        <ele>501.619</ele>
        <time>2019-11-01T17:01:09Z</time>
      </trkpt>
      <trkpt lat="42.5781" lon="2.51278">
        <ele>505.408</ele>
        <time>2019-11-01T17:01:29Z</time>
      </trkpt>
      <trkpt lat="42.57748" lon="2.51349">
        <ele>510.532</ele>
        <time>2019-11-01T17:01:49Z</time>
      </trkpt>
      <trkpt lat="42.57699" lon="2.5138">
        <ele>523.558</ele>
        <time>2019-11-01T17:02:09Z</time>
      </trkpt>
      <trkpt lat="42.57656" lon="2.51447">
        <ele>526.413</ele>
        <time>2019-11-01T17:02:29Z</time>
      </trkpt>
      <trkpt lat="42.57593" lon="2.5149">
        <ele>522.446</ele>
        <time>2019-11-01T17:02:49Z</time>
      </trkpt>
      <trkpt lat="42.5754" lon="2.515">
        <ele>523.872</ele>
        <time>2019-11-01T17:03:09Z</time>
      </trkpt>
      <trkpt lat="42.57489" lon="2.51619">
        <ele>527.624</ele>
        <time>2019-11-01T17:03:29Z</time>
      </trkpt>
      <trkpt lat="42.57488" lon="2.51709">
        <ele>527.37</ele>
        <time>2019-11-01T17:03:49Z</time>
      </trkpt>
      <trkpt lat="42.57462" lon="2.51739">
        <ele>529.029</ele>
        <time>2019-11-01T17:04:09Z</time>
      </trkpt>
      <trkpt lat="42.57425" lon="2.51727">
        <ele>529.527</ele>
        <time>2019-11-01T17:04:29Z</time>
      </trkpt>
      <trkpt lat="42.57386" lon="2.51688">
        <ele>531.868</ele>
        <time>2019-11-01T17:04:49Z</time>
      </trkpt>
      <trkpt lat="42.57338" lon="2.51677">
        <ele>539.214</ele>
        <time>2019-11-01T17:05:09Z</time>
      </trkpt>
      <trkpt lat="42.57296" lon="2.51696">
        <ele>541.508</ele>
        <time>2019-11-01T17:05:29Z</time>
      </trkpt>
      <trkpt lat="42.57275" lon="2.51727">
        <ele>542.238</ele>
        <time>2019-11-01T17:05:49Z</time>
      </trkpt>
      <trkpt lat="42.57246" lon="2.51797">
        <ele>540.474</ele>
        <time>2019-11-01T17:06:09Z</time>
      </trkpt>
      <trkpt lat="42.57225" lon="2.51817">
        <ele>540.589</ele>
        <time>2019-11-01T17:06:29Z</time>
      </trkpt>
      <trkpt lat="42.57184" lon="2.51851">
        <ele>548.482</ele>
        <time>2019-11-01T17:06:49Z</time>
      </trkpt>
      <trkpt lat="42.57157" lon="2.51939">
        <ele>549.688</ele>
        <time>2019-11-01T17:07:09Z</time>
      </trkpt>
      <trkpt lat="42.57095" lon="2.52051">
        <ele>549.13</ele>
        <time>2019-11-01T17:07:29Z</time>
      </trkpt>
      <trkpt lat="42.56976" lon="2.52101">
        <ele>560.716</ele>
        <time>2019-11-01T17:07:49Z</time>
      </trkpt>
      <trkpt lat="42.56858" lon="2.5223">
        <ele>560.175</ele>
        <time>2019-11-01T17:08:09Z</time>
      </trkpt>
      <trkpt lat="42.56795" lon="2.5228">
        <ele>560.026</ele>
        <time>2019-11-01T17:08:29Z</time>
      </trkpt>
      <trkpt lat="42.56781" lon="2.52259">
        <ele>561.847</ele>
        <time>2019-11-01T17:08:49Z</time>
      </trkpt>
      <trkpt lat="42.56769" lon="2.52283">
        <ele>561.311</ele>
        <time>2019-11-01T17:09:09Z</time>
      </trkpt>
      <trkpt lat="42.56675" lon="2.52317">
        <ele>575.008</ele>
        <time>2019-11-01T17:09:29Z</time>
      </trkpt>
      <trkpt lat="42.56705" lon="2.52222">
        <ele>579.698</ele>
        <time>2019-11-01T17:09:49Z</time>
      </trkpt>
      <trkpt lat="42.56681" lon="2.52217">
        <ele>591.064</ele>
        <time>2019-11-01T17:10:09Z</time>
      </trkpt>
      <trkpt lat="42.56729" lon="2.52159">
        <ele>591.349</ele>
        <time>2019-11-01T17:10:29Z</time>
      </trkpt>
      <trkpt lat="42.56667" lon="2.522">
        <ele>601.992</ele>
        <time>2019-11-01T17:10:49Z</time>
      </trkpt>
      <trkpt lat="42.56657" lon="2.52226">
        <ele>604.678</ele>
        <time>2019-11-01T17:11:09Z</time>
      </trkpt>
      <trkpt lat="42.56634" lon="2.52271">
        <ele>612.68</ele>
        <time>2019-11-01T17:11:29Z</time>
      </trkpt>
      <trkpt lat="42.56608" lon="2.52348">
        <ele>608.076</ele>
        <time>2019-11-01T17:11:49Z</time>
      </trkpt>
      <trkpt lat="42.56512" lon="2.52402">
        <ele>628.925</ele>
        <time>2019-11-01T17:12:09Z</time>
      </trkpt>
      <trkpt lat="42.56473" lon="2.5245">
        <ele>631.553</ele>
        <time>2019-11-01T17:12:29Z</time>
      </trkpt>
      <trkpt lat="42.56499" lon="2.52382">
        <ele>644.004</ele>
        <time>2019-11-01T17:12:49Z</time>
      </trkpt>
      <trkpt lat="42.56521" lon="2.52357">
        <ele>645.614</ele>
        <time>2019-11-01T17:13:09Z</time>
      </trkpt>
      <trkpt lat="42.56517" lon="2.52354">
        <ele>648.408</ele>
        <time>2019-11-01T17:13:29Z</time>
      </trkpt>
      <trkpt lat="42.5647" lon="2.52401">
        <ele>645.391</ele>
        <time>2019-11-01T17:13:49Z</time>
      </trkpt>
      <trkpt lat="42.56454" lon="2.52399">
        <ele>643.237</ele>
        <time>2019-11-01T17:14:09Z</time>
      </trkpt>
      <trkpt lat="42.56439" lon="2.52363">
        <ele>646.552</ele>
        <time>2019-11-01T17:14:29Z</time>
      </trkpt>
      <trkpt lat="42.56436" lon="2.52339">
        <ele>649.835</ele>
        <time>2019-11-01T17:14:49Z</time>
      </trkpt>
      <trkpt lat="42.56427" lon="2.52313">
        <ele>650.771</ele>
        <time>2019-11-01T17:15:09Z</time>
      </trkpt>
      <trkpt lat="42.56423" lon="2.52274">
        <ele>656.483</ele>
        <time>2019-11-01T17:15:29Z</time>
      </trkpt>
      <trkpt lat="42.56403" lon="2.52219">
        <ele>661.069</ele>
        <time>2019-11-01T17:15:49Z</time>
      </trkpt>
      <trkpt lat="42.56374" lon="2.52178">
        <ele>664.068</ele>
        <time>2019-11-01T17:16:09Z</time>
      </trkpt>
      <trkpt lat="42.56342" lon="2.5214">
        <ele>667.498</ele>
        <time>2019-11-01T17:16:29Z</time>
      </trkpt>
      <trkpt lat="42.56326" lon="2.52105">
        <ele>675.515</ele>
        <time>2019-11-01T17:16:49Z</time>
      </trkpt>
      <trkpt lat="42.56273" lon="2.52119">
        <ele>674.726</ele>
        <time>2019-11-01T17:17:09Z</time>
      </trkpt>
      <trkpt lat="42.56228" lon="2.52099">
        <ele>674.808</ele>
        <time>2019-11-01T17:17:29Z</time>
      </trkpt>
      <trkpt lat="42.56218" lon="2.52047">
        <ele>683.835</ele>
        <time>2019-11-01T17:17:49Z</time>
      </trkpt>
      <trkpt lat="42.56203" lon="2.52018">
        <ele>695.421</ele>
        <time>2019-11-01T17:18:09Z</time>
      </trkpt>
      <trkpt lat="42.56207" lon="2.51961">
        <ele>705.996</ele>
        <time>2019-11-01T17:18:29Z</time>
      </trkpt>
      <trkpt lat="42.56191" lon="2.51983">
        <ele>709.539</ele>
        <time>2019-11-01T17:18:49Z</time>
      </trkpt>
      <trkpt lat="42.56196" lon="2.51904">
        <ele>723.685</ele>
        <time>2019-11-01T17:19:09Z</time>
      </trkpt>
      <trkpt lat="42.56184" lon="2.51899">
        <ele>732.367</ele>
        <time>2019-11-01T17:19:29Z</time>
      </trkpt>
      <trkpt lat="42.56185" lon="2.51914">
        <ele>730.493</ele>
        <time>2019-11-01T17:19:49Z</time>
      </trkpt>
      <trkpt lat="42.56147" lon="2.51954">
        <ele>755.412</ele>
        <time>2019-11-01T17:20:09Z</time>
      </trkpt>
      <trkpt lat="42.56134" lon="2.52005">
        <ele>752.259</ele>
        <time>2019-11-01T17:20:29Z</time>
      </trkpt>
      <trkpt lat="42.5609" lon="2.52071">
        <ele>764.703</ele>
        <time>2019-11-01T17:20:49Z</time>
      </trkpt>
      <trkpt lat="42.56035" lon="2.52114">
        <ele>783.523</ele>
        <time>2019-11-01T17:21:09Z</time>
      </trkpt>
      <trkpt lat="42.56022" lon="2.52156">
        <ele>781.708</ele>
        <time>2019-11-01T17:21:29Z</time>
      </trkpt>
      <trkpt lat="42.56002" lon="2.5218">
        <ele>792.311</ele>
        <time>2019-11-01T17:21:49Z</time>
      </trkpt>
      <trkpt lat="42.55995" lon="2.52267">
        <ele>802.127</ele>
        <time>2019-11-01T17:22:09Z</time>
      </trkpt>
      <trkpt lat="42.5591" lon="2.52371">
        <ele>803.862</ele>
        <time>2019-11-01T17:22:29Z</time>
      </trkpt>
      <trkpt lat="42.5587" lon="2.52358">
        <ele>797.185</ele>
        <time>2019-11-01T17:22:49Z</time>
      </trkpt>
      <trkpt lat="42.55817" lon="2.52258">
        <ele>773.141</ele>
        <time>2019-11-01T17:23:09Z</time>
      </trkpt>
      <trkpt lat="42.55808" lon="2.52214">
        <ele>781.283</ele>
        <time>2019-11-01T17:23:29Z</time>
      </trkpt>
      <trkpt lat="42.55767" lon="2.52192">
        <ele>772.249</ele>
        <time>2019-11-01T17:23:49Z</time>
      </trkpt>
      <trkpt lat="42.55717" lon="2.52207">
        <ele>777.258</ele>
        <time>2019-11-01T17:24:09Z</time>
      </trkpt>
      <trkpt lat="42.55693" lon="2.522">
        <ele>782.763</ele>
        <time>2019-11-01T17:24:29Z</time>
      </trkpt>
      <trkpt lat="42.5564" lon="2.52202">
        <ele>807.244</ele>
        <time>2019-11-01T17:24:49Z</time>
      </trkpt>
      <trkpt lat="42.55672" lon="2.52242">
        <ele>807.318</ele>
        <time>2019-11-01T17:25:09Z</time>
      </trkpt>
      <trkpt lat="42.55678" lon="2.52279">
        <ele>814.708</ele>
        <time>2019-11-01T17:25:29Z</time>
      </trkpt>
      <trkpt lat="42.55635" lon="2.52305">
        <ele>842.562</ele>
        <time>2019-11-01T17:25:49Z</time>
      </trkpt>
      <trkpt lat="42.55526" lon="2.52312">
        <ele>898.698</ele>
        <time>2019-11-01T17:26:09Z</time>
      </trkpt>
      <trkpt lat="42.55501" lon="2.52338">
        <ele>900.843</ele>
        <time>2019-11-01T17:26:29Z</time>
      </trkpt>
      <trkpt lat="42.55476" lon="2.52338">
        <ele>917.356</ele>
        <time>2019-11-01T17:26:49Z</time>
      </trkpt>
      <trkpt lat="42.55446" lon="2.52387">
        <ele>919.892</ele>
        <time>2019-11-01T17:27:09Z</time>
      </trkpt>
      <trkpt lat="42.55347" lon="2.52418">
        <ele>941.434</ele>
        <time>2019-11-01T17:27:29Z</time>
      </trkpt>
      <trkpt lat="42.55271" lon="2.52483">
        <ele>939.99</ele>
        <time>2019-11-01T17:27:49Z</time>
      </trkpt>
      <trkpt lat="42.55194" lon="2.52518">
        <ele>967.599</ele>
        <time>2019-11-01T17:28:09Z</time>
      </trkpt>
      <trkpt lat="42.5521" lon="2.52589">
        <ele>974.872</ele>
        <time>2019-11-01T17:28:29Z</time>
      </trkpt>
      <trkpt lat="42.55215" lon="2.52645">
        <ele>984.813</ele>
        <time>2019-11-01T17:28:49Z</time>
      </trkpt>
      <trkpt lat="42.55233" lon="2.52695">
        <ele>989.014</ele>
        <time>2019-11-01T17:29:09Z</time>
      </trkpt>
      <trkpt lat="42.55221" lon="2.5276">
        <ele>991.008</ele>
        <time>2019-11-01T17:29:29Z</time>
      </trkpt>
      <trkpt lat="42.55193" lon="2.528">
        <ele>993.383</ele>
        <time>2019-11-01T17:29:49Z</time>
      </trkpt>
      <trkpt lat="42.55096" lon="2.52871">
        <ele>1003.339</ele>
        <time>2019-11-01T17:30:09Z</time>
      </trkpt>
      <trkpt lat="42.55037" lon="2.52927">
        <ele>1003.654</ele>
        <time>2020-12-28T04:57:35Z</time>
      </trkpt>
      <trkpt lat="42.55003" lon="2.52888">
        <ele>1016.367</ele>
        <time>2020-12-28T04:57:55Z</time>
      </trkpt>
      <trkpt lat="42.54929" lon="2.52839">
        <ele>1020.113</ele>
        <time>2020-12-28T04:58:15Z</time>
      </trkpt>
      <trkpt lat="42.54876" lon="2.52831">
        <ele>1030.635</ele>
        <time>2020-12-28T04:58:35Z</time>
      </trkpt>
      <trkpt lat="42.54803" lon="2.53015">
        <ele>1043.421</ele>
        <time>2020-12-28T04:58:55Z</time>
      </trkpt>
      <trkpt lat="42.54728" lon="2.53078">
        <ele>1069.48</ele>
        <time>2020-12-28T04:59:15Z</time>
      </trkpt>
      <trkpt lat="42.54718" lon="2.53213">
        <ele>1076.523</ele>
        <time>2020-12-28T04:59:35Z</time>
      </trkpt>
      <trkpt lat="42.54745" lon="2.53333">
        <ele>1078.883</ele>
        <time>2020-12-28T04:59:55Z</time>
      </trkpt>
      <trkpt lat="42.5472" lon="2.53384">
        <ele>1083.511</ele>
        <time>2020-12-28T05:00:15Z</time>
      </trkpt>
      <trkpt lat="42.54653" lon="2.53402">
        <ele>1089.208</ele>
        <time>2020-12-28T05:00:35Z</time>
      </trkpt>
      <trkpt lat="42.54624" lon="2.53385">
        <ele>1095.598</ele>
        <time>2020-12-28T05:00:55Z</time>
      </trkpt>
      <trkpt lat="42.54566" lon="2.5338">
        <ele>1104.574</ele>
        <time>2020-12-28T05:01:15Z</time>
      </trkpt>
      <trkpt lat="42.54498" lon="2.53431">
        <ele>1107.329</ele>
        <time>2020-12-28T05:01:35Z</time>
      </trkpt>
      <trkpt lat="42.54473" lon="2.53553">
        <ele>1081.612</ele>
        <time>2020-12-28T05:01:55Z</time>
      </trkpt>
      <trkpt lat="42.54481" lon="2.53592">
        <ele>1073.958</ele>
        <time>2020-12-28T05:02:15Z</time>
      </trkpt>
      <trkpt lat="42.54491" lon="2.53761">
        <ele>1044.04</ele>
        <time>2020-12-28T05:02:35Z</time>
      </trkpt>
      <trkpt lat="42.54514" lon="2.53835">
        <ele>1026.176</ele>
        <time>2020-12-28T05:02:55Z</time>
      </trkpt>
      <trkpt lat="42.5451" lon="2.53854">
        <ele>1022.745</ele>
        <time>2020-12-28T05:03:15Z</time>
      </trkpt>
      <trkpt lat="42.54375" lon="2.53835">
        <ele>977.948</ele>
        <time>2019-11-01T17:38:09Z</time>
      </trkpt>
      <trkpt lat="42.54352" lon="2.53806">
        <ele>969.861</ele>
        <time>2019-11-01T17:38:29Z</time>
      </trkpt>
      <trkpt lat="42.54337" lon="2.53736">
        <ele>951.317</ele>
        <time>2019-11-01T17:38:49Z</time>
      </trkpt>
      <trkpt lat="42.54298" lon="2.53715">
        <ele>935.808</ele>
        <time>2019-11-01T17:39:09Z</time>
      </trkpt>
      <trkpt lat="42.5429" lon="2.53689">
        <ele>939.97</ele>
        <time>2019-11-01T17:39:29Z</time>
      </trkpt>
      <trkpt lat="42.54272" lon="2.53668">
        <ele>931.796</ele>
        <time>2019-11-01T17:39:49Z</time>
      </trkpt>
      <trkpt lat="42.54262" lon="2.5364">
        <ele>929.291</ele>
        <time>2019-11-01T17:40:09Z</time>
      </trkpt>
      <trkpt lat="42.54225" lon="2.536">
        <ele>928.574</ele>
        <time>2019-11-01T17:40:29Z</time>
      </trkpt>
      <trkpt lat="42.54202" lon="2.53597">
        <ele>919.72</ele>
        <time>2019-11-01T17:40:49Z</time>
      </trkpt>
      <trkpt lat="42.54188" lon="2.53571">
        <ele>918.512</ele>
        <time>2019-11-01T17:41:09Z</time>
      </trkpt>
      <trkpt lat="42.54167" lon="2.5357">
        <ele>908.148</ele>
        <time>2019-11-01T17:41:29Z</time>
      </trkpt>
      <trkpt lat="42.54138" lon="2.53587">
        <ele>892.127</ele>
        <time>2019-11-01T17:41:49Z</time>
      </trkpt>
      <trkpt lat="42.54108" lon="2.53579">
        <ele>890.426</ele>
        <time>2019-11-01T17:42:09Z</time>
      </trkpt>
      <trkpt lat="42.54084" lon="2.53593">
        <ele>879.747</ele>
        <time>2019-11-01T17:42:29Z</time>
      </trkpt>
      <trkpt lat="42.54063" lon="2.53591">
        <ele>873.511</ele>
        <time>2019-11-01T17:42:49Z</time>
      </trkpt>
      <trkpt lat="42.54053" lon="2.53604">
        <ele>865.808</ele>
        <time>2019-11-01T17:43:09Z</time>
      </trkpt>
      <trkpt lat="42.54048" lon="2.53558">
        <ele>872.898</ele>
        <time>2019-11-01T17:43:29Z</time>
      </trkpt>
      <trkpt lat="42.54021" lon="2.53539">
        <ele>869.294</ele>
        <time>2019-11-01T17:43:49Z</time>
      </trkpt>
      <trkpt lat="42.5399" lon="2.53489">
        <ele>872.139</ele>
        <time>2019-11-01T17:44:09Z</time>
      </trkpt>
      <trkpt lat="42.53916" lon="2.53393">
        <ele>876.822</ele>
        <time>2019-11-01T17:44:29Z</time>
      </trkpt>
      <trkpt lat="42.539" lon="2.53407">
        <ele>873.388</ele>
        <time>2019-11-01T17:44:49Z</time>
      </trkpt>
      <trkpt lat="42.5388" lon="2.53396">
        <ele>875.56</ele>
        <time>2019-11-01T17:45:09Z</time>
      </trkpt>
      <trkpt lat="42.53851" lon="2.53399">
        <ele>872.996</ele>
        <time>2019-11-01T17:45:29Z</time>
      </trkpt>
      <trkpt lat="42.53848" lon="2.5338">
        <ele>875.225</ele>
        <time>2019-11-01T17:45:49Z</time>
      </trkpt>
      <trkpt lat="42.53857" lon="2.53346">
        <ele>883.339</ele>
        <time>2019-11-01T17:46:09Z</time>
      </trkpt>
      <trkpt lat="42.53822" lon="2.53298">
        <ele>896.601</ele>
        <time>2019-11-01T17:46:29Z</time>
      </trkpt>
      <trkpt lat="42.53798" lon="2.53297">
        <ele>893.521</ele>
        <time>2019-11-01T17:46:49Z</time>
      </trkpt>
      <trkpt lat="42.53787" lon="2.53281">
        <ele>898.308</ele>
        <time>2019-11-01T17:47:09Z</time>
      </trkpt>
      <trkpt lat="42.53783" lon="2.53258">
        <ele>905.549</ele>
        <time>2019-11-01T17:47:29Z</time>
      </trkpt>
      <trkpt lat="42.53783" lon="2.53218">
        <ele>910.515</ele>
        <time>2019-11-01T17:47:49Z</time>
      </trkpt>
      <trkpt lat="42.5379" lon="2.53197">
        <ele>915.36</ele>
        <time>2019-11-01T17:48:09Z</time>
      </trkpt>
      <trkpt lat="42.53787" lon="2.53136">
        <ele>911.283</ele>
        <time>2019-11-01T17:48:29Z</time>
      </trkpt>
      <trkpt lat="42.53795" lon="2.53087">
        <ele>916.599</ele>
        <time>2019-11-01T17:48:49Z</time>
      </trkpt>
      <trkpt lat="42.53751" lon="2.52993">
        <ele>916.091</ele>
        <time>2019-11-01T17:49:09Z</time>
      </trkpt>
      <trkpt lat="42.53746" lon="2.5295">
        <ele>919.177</ele>
        <time>2019-11-01T17:49:29Z</time>
      </trkpt>
      <trkpt lat="42.5375" lon="2.52896">
        <ele>928.116</ele>
        <time>2019-11-01T17:49:49Z</time>
      </trkpt>
      <trkpt lat="42.53728" lon="2.5281">
        <ele>929.788</ele>
        <time>2019-11-01T17:50:09Z</time>
      </trkpt>
      <trkpt lat="42.53732" lon="2.52748">
        <ele>934.424</ele>
        <time>2019-11-01T17:50:29Z</time>
      </trkpt>
      <trkpt lat="42.5371" lon="2.52603">
        <ele>945.826</ele>
        <time>2019-11-01T17:50:49Z</time>
      </trkpt>
      <trkpt lat="42.53675" lon="2.52544">
        <ele>951.308</ele>
        <time>2019-11-01T17:51:09Z</time>
      </trkpt>
      <trkpt lat="42.53671" lon="2.5245">
        <ele>965.244</ele>
        <time>2019-11-01T17:51:29Z</time>
      </trkpt>
      <trkpt lat="42.53526" lon="2.52362">
        <ele>965.38</ele>
        <time>2019-11-01T17:51:49Z</time>
      </trkpt>
      <trkpt lat="42.53511" lon="2.52312">
        <ele>975.845</ele>
        <time>2019-11-01T17:52:09Z</time>
      </trkpt>
      <trkpt lat="42.53452" lon="2.52232">
        <ele>981.468</ele>
        <time>2019-11-01T17:52:29Z</time>
      </trkpt>
      <trkpt lat="42.53388" lon="2.52195">
        <ele>982.024</ele>
        <time>2019-11-01T17:52:49Z</time>
      </trkpt>
      <trkpt lat="42.5339" lon="2.52165">
        <ele>991.446</ele>
        <time>2019-11-01T17:53:09Z</time>
      </trkpt>
      <trkpt lat="42.5341" lon="2.52169">
        <ele>991.242</ele>
        <time>2019-11-01T17:53:29Z</time>
      </trkpt>
      <trkpt lat="42.53475" lon="2.52204">
        <ele>991.091</ele>
        <time>2019-11-01T17:53:49Z</time>
      </trkpt>
      <trkpt lat="42.53514" lon="2.52247">
        <ele>990.583</ele>
        <time>2019-11-01T17:54:09Z</time>
      </trkpt>
      <trkpt lat="42.53529" lon="2.52239">
        <ele>994.625</ele>
        <time>2019-11-01T17:54:29Z</time>
      </trkpt>
      <trkpt lat="42.53525" lon="2.52219">
        <ele>998.117</ele>
        <time>2019-11-01T17:54:49Z</time>
      </trkpt>
      <trkpt lat="42.53478" lon="2.52186">
        <ele>995.608</ele>
        <time>2019-11-01T17:55:09Z</time>
      </trkpt>
      <trkpt lat="42.53447" lon="2.52141">
        <ele>1001.934</ele>
        <time>2019-11-01T17:55:29Z</time>
      </trkpt>
      <trkpt lat="42.53357" lon="2.52073">
        <ele>1007.29</ele>
        <time>2019-11-01T17:55:49Z</time>
      </trkpt>
      <trkpt lat="42.53309" lon="2.52017">
        <ele>1015.135</ele>
        <time>2019-11-01T17:56:09Z</time>
      </trkpt>
      <trkpt lat="42.53264" lon="2.52021">
        <ele>1017.038</ele>
        <time>2019-11-01T17:56:29Z</time>
      </trkpt>
      <trkpt lat="42.53176" lon="2.51965">
        <ele>1025.974</ele>
        <time>2019-11-01T17:56:49Z</time>
      </trkpt>
      <trkpt lat="42.53155" lon="2.51913">
        <ele>1033.056</ele>
        <time>2019-11-01T17:57:09Z</time>
      </trkpt>
      <trkpt lat="42.53121" lon="2.5189">
        <ele>1036.682</ele>
        <time>2019-11-01T17:57:29Z</time>
      </trkpt>
      <trkpt lat="42.53081" lon="2.51726">
        <ele>1059.461</ele>
        <time>2019-11-01T17:57:49Z</time>
      </trkpt>
      <trkpt lat="42.53028" lon="2.5165">
        <ele>1070.192</ele>
        <time>2019-11-01T17:58:09Z</time>
      </trkpt>
      <trkpt lat="42.53032" lon="2.51637">
        <ele>1072.673</ele>
        <time>2019-11-01T17:58:29Z</time>
      </trkpt>
      <trkpt lat="42.53053" lon="2.51635">
        <ele>1074.42</ele>
        <time>2019-11-01T17:58:49Z</time>
      </trkpt>
      <trkpt lat="42.53081" lon="2.516">
        <ele>1078.708</ele>
        <time>2019-11-01T17:59:09Z</time>
      </trkpt>
      <trkpt lat="42.53103" lon="2.516">
        <ele>1077.625</ele>
        <time>2019-11-01T17:59:29Z</time>
      </trkpt>
      <trkpt lat="42.53118" lon="2.51566">
        <ele>1083.121</ele>
        <time>2019-11-01T17:59:49Z</time>
      </trkpt>
      <trkpt lat="42.53149" lon="2.51551">
        <ele>1095.126</ele>
        <time>2019-11-01T18:00:09Z</time>
      </trkpt>
      <trkpt lat="42.5318" lon="2.5159">
        <ele>1097.639</ele>
        <time>2019-11-01T18:00:29Z</time>
      </trkpt>
      <trkpt lat="42.53198" lon="2.51629">
        <ele>1091.975</ele>
        <time>2019-11-01T18:00:49Z</time>
      </trkpt>
      <trkpt lat="42.53285" lon="2.5169">
        <ele>1096.967</ele>
        <time>2019-11-01T18:01:09Z</time>
      </trkpt>
      <trkpt lat="42.53311" lon="2.51646">
        <ele>1114.793</ele>
        <time>2019-11-01T18:01:29Z</time>
      </trkpt>
      <trkpt lat="42.53308" lon="2.51614">
        <ele>1128.352</ele>
        <time>2019-11-01T18:01:49Z</time>
      </trkpt>
      <trkpt lat="42.53322" lon="2.51596">
        <ele>1134.646</ele>
        <time>2019-11-01T18:02:09Z</time>
      </trkpt>
      <trkpt lat="42.53337" lon="2.51569">
        <ele>1148.188</ele>
        <time>2019-11-01T18:02:29Z</time>
      </trkpt>
      <trkpt lat="42.53371" lon="2.51561">
        <ele>1150.916</ele>
        <time>2019-11-01T18:02:49Z</time>
      </trkpt>
      <trkpt lat="42.53374" lon="2.51546">
        <ele>1159.008</ele>
        <time>2019-11-01T18:03:09Z</time>
      </trkpt>
      <trkpt lat="42.53404" lon="2.5152">
        <ele>1169.27</ele>
        <time>2019-11-01T18:03:29Z</time>
      </trkpt>
      <trkpt lat="42.53387" lon="2.5151">
        <ele>1176.966</ele>
        <time>2019-11-01T18:03:49Z</time>
      </trkpt>
      <trkpt lat="42.53415" lon="2.51487">
        <ele>1184.491</ele>
        <time>2019-11-01T18:04:09Z</time>
      </trkpt>
      <trkpt lat="42.53389" lon="2.51467">
        <ele>1200.454</ele>
        <time>2019-11-01T18:04:29Z</time>
      </trkpt>
      <trkpt lat="42.53368" lon="2.5146">
        <ele>1204.96</ele>
        <time>2019-11-01T18:04:49Z</time>
      </trkpt>
      <trkpt lat="42.53359" lon="2.51435">
        <ele>1217.132</ele>
        <time>2019-11-01T18:05:09Z</time>
      </trkpt>
      <trkpt lat="42.5334" lon="2.51402">
        <ele>1230.158</ele>
        <time>2019-11-01T18:05:29Z</time>
      </trkpt>
      <trkpt lat="42.5335" lon="2.51401">
        <ele>1232.717</ele>
        <time>2019-11-01T18:05:49Z</time>
      </trkpt>
      <trkpt lat="42.53352" lon="2.51386">
        <ele>1240.291</ele>
        <time>2019-11-01T18:06:09Z</time>
      </trkpt>
      <trkpt lat="42.53371" lon="2.51391">
        <ele>1236.781</ele>
        <time>2019-11-01T18:06:29Z</time>
      </trkpt>
      <trkpt lat="42.5339" lon="2.51337">
        <ele>1258.519</ele>
        <time>2019-11-01T18:06:49Z</time>
      </trkpt>
      <trkpt lat="42.53412" lon="2.5132">
        <ele>1258.208</ele>
        <time>2019-11-01T18:07:09Z</time>
      </trkpt>
      <trkpt lat="42.53428" lon="2.51312">
        <ele>1257.095</ele>
        <time>2019-11-01T18:07:29Z</time>
      </trkpt>
      <trkpt lat="42.53428" lon="2.51292">
        <ele>1263.351</ele>
        <time>2019-11-01T18:07:49Z</time>
      </trkpt>
      <trkpt lat="42.53394" lon="2.51259">
        <ele>1290.096</ele>
        <time>2019-11-01T18:08:09Z</time>
      </trkpt>
      <trkpt lat="42.53374" lon="2.5117">
        <ele>1327.819</ele>
        <time>2019-11-01T18:08:29Z</time>
      </trkpt>
      <trkpt lat="42.5331" lon="2.51093">
        <ele>1374.275</ele>
        <time>2019-11-01T18:08:49Z</time>
      </trkpt>
      <trkpt lat="42.53311" lon="2.51049">
        <ele>1388.887</ele>
        <time>2019-11-01T18:09:09Z</time>
      </trkpt>
      <trkpt lat="42.53296" lon="2.51023">
        <ele>1389.363</ele>
        <time>2019-11-01T18:09:29Z</time>
      </trkpt>
      <trkpt lat="42.53311" lon="2.50969">
        <ele>1403.322</ele>
        <time>2019-11-01T18:09:49Z</time>
      </trkpt>
      <trkpt lat="42.53293" lon="2.50952">
        <ele>1405.162</ele>
        <time>2019-11-01T18:10:09Z</time>
      </trkpt>
      <trkpt lat="42.5335" lon="2.50846">
        <ele>1421.483</ele>
        <time>2019-11-01T18:10:29Z</time>
      </trkpt>
      <trkpt lat="42.53296" lon="2.50786">
        <ele>1472.611</ele>
        <time>2019-11-01T18:10:49Z</time>
      </trkpt>
      <trkpt lat="42.53361" lon="2.50699">
        <ele>1488.008</ele>
        <time>2019-11-01T18:11:09Z</time>
      </trkpt>
      <trkpt lat="42.53407" lon="2.5066">
        <ele>1494.432</ele>
        <time>2019-11-01T18:11:29Z</time>
      </trkpt>
      <trkpt lat="42.53469" lon="2.50645">
        <ele>1497.688</ele>
        <time>2019-11-01T18:11:49Z</time>
      </trkpt>
      <trkpt lat="42.53488" lon="2.50614">
        <ele>1508.943</ele>
        <time>2019-11-01T18:12:09Z</time>
      </trkpt>
      <trkpt lat="42.53533" lon="2.50616">
        <ele>1509.146</ele>
        <time>2019-11-01T18:12:29Z</time>
      </trkpt>
      <trkpt lat="42.5351" lon="2.50569">
        <ele>1529.842</ele>
        <time>2019-11-01T18:12:49Z</time>
      </trkpt>
      <trkpt lat="42.53544" lon="2.50578">
        <ele>1533.914</ele>
        <time>2019-11-01T18:13:09Z</time>
      </trkpt>
      <trkpt lat="42.53559" lon="2.50542">
        <ele>1555.74</ele>
        <time>2019-11-01T18:13:29Z</time>
      </trkpt>
      <trkpt lat="42.53537" lon="2.50515">
        <ele>1567.339</ele>
        <time>2019-11-01T18:13:49Z</time>
      </trkpt>
      <trkpt lat="42.53544" lon="2.50492">
        <ele>1579.887</ele>
        <time>2019-11-01T18:14:09Z</time>
      </trkpt>
      <trkpt lat="42.53501" lon="2.50453">
        <ele>1594.842</ele>
        <time>2019-11-01T18:14:29Z</time>
      </trkpt>
      <trkpt lat="42.53506" lon="2.50439">
        <ele>1603.126</ele>
        <time>2019-11-01T18:14:49Z</time>
      </trkpt>
      <trkpt lat="42.53464" lon="2.50424">
        <ele>1609.808</ele>
        <time>2019-11-01T18:15:09Z</time>
      </trkpt>
      <trkpt lat="42.53454" lon="2.50405">
        <ele>1621.614</ele>
        <time>2019-11-01T18:15:29Z</time>
      </trkpt>
      <trkpt lat="42.53466" lon="2.50395">
        <ele>1626.82</ele>
        <time>2019-11-01T18:15:49Z</time>
      </trkpt>
      <trkpt lat="42.53422" lon="2.50374">
        <ele>1641.615</ele>
        <time>2019-11-01T18:16:09Z</time>
      </trkpt>
      <trkpt lat="42.53403" lon="2.50346">
        <ele>1654.148</ele>
        <time>2019-11-01T18:16:29Z</time>
      </trkpt>
      <trkpt lat="42.534" lon="2.50319">
        <ele>1660.584</ele>
        <time>2019-11-01T18:16:49Z</time>
      </trkpt>
      <trkpt lat="42.53403" lon="2.50302">
        <ele>1664.796</ele>
        <time>2019-11-01T18:17:09Z</time>
      </trkpt>
      <trkpt lat="42.53381" lon="2.50255">
        <ele>1664.162</ele>
        <time>2019-11-01T18:17:29Z</time>
      </trkpt>
      <trkpt lat="42.53342" lon="2.50225">
        <ele>1654.661</ele>
        <time>2019-11-01T18:17:49Z</time>
      </trkpt>
      <trkpt lat="42.53324" lon="2.50172">
        <ele>1650.657</ele>
        <time>2019-11-01T18:18:09Z</time>
      </trkpt>
      <trkpt lat="42.533" lon="2.50146">
        <ele>1649.5</ele>
        <time>2019-11-01T18:18:29Z</time>
      </trkpt>
      <trkpt lat="42.53256" lon="2.5012">
        <ele>1654.72</ele>
        <time>2019-11-01T18:18:49Z</time>
      </trkpt>
      <trkpt lat="42.53215" lon="2.5006">
        <ele>1656.408</ele>
        <time>2019-11-01T18:19:09Z</time>
      </trkpt>
      <trkpt lat="42.53182" lon="2.50031">
        <ele>1659.731</ele>
        <time>2019-11-01T18:19:29Z</time>
      </trkpt>
      <trkpt lat="42.53133" lon="2.49944">
        <ele>1659.277</ele>
        <time>2019-11-01T18:19:49Z</time>
      </trkpt>
      <trkpt lat="42.53073" lon="2.49891">
        <ele>1664.222</ele>
        <time>2019-11-01T18:20:09Z</time>
      </trkpt>
      <trkpt lat="42.53058" lon="2.4986">
        <ele>1670.655</ele>
        <time>2019-11-01T18:20:29Z</time>
      </trkpt>
      <trkpt lat="42.53062" lon="2.49814">
        <ele>1674.631</ele>
        <time>2019-11-01T18:20:49Z</time>
      </trkpt>
      <trkpt lat="42.5305" lon="2.49794">
        <ele>1678.523</ele>
        <time>2019-11-01T18:21:09Z</time>
      </trkpt>
      <trkpt lat="42.53027" lon="2.49788">
        <ele>1682.369</ele>
        <time>2019-11-01T18:21:29Z</time>
      </trkpt>
      <trkpt lat="42.53014" lon="2.49747">
        <ele>1692.158</ele>
        <time>2019-11-01T18:21:49Z</time>
      </trkpt>
      <trkpt lat="42.52989" lon="2.49765">
        <ele>1692.151</ele>
        <time>2019-11-01T18:22:09Z</time>
      </trkpt>
      <trkpt lat="42.52974" lon="2.49717">
        <ele>1705.601</ele>
        <time>2019-11-01T18:22:29Z</time>
      </trkpt>
      <trkpt lat="42.52954" lon="2.4971">
        <ele>1711.211</ele>
        <time>2019-11-01T18:22:49Z</time>
      </trkpt>
      <trkpt lat="42.5295" lon="2.49665">
        <ele>1721.108</ele>
        <time>2019-11-01T18:23:09Z</time>
      </trkpt>
      <trkpt lat="42.52941" lon="2.49632">
        <ele>1727.761</ele>
        <time>2019-11-01T18:23:29Z</time>
      </trkpt>
      <trkpt lat="42.52949" lon="2.49598">
        <ele>1733.157</ele>
        <time>2020-12-28T05:49:15Z</time>
      </trkpt>
      <trkpt lat="42.52937" lon="2.49574">
        <ele>1741.012</ele>
        <time>2020-12-28T05:49:35Z</time>
      </trkpt>
      <trkpt lat="42.52951" lon="2.49527">
        <ele>1756.845</ele>
        <time>2020-12-28T05:49:55Z</time>
      </trkpt>
      <trkpt lat="42.52937" lon="2.49525">
        <ele>1758.231</ele>
        <time>2020-12-28T05:50:15Z</time>
      </trkpt>
      <trkpt lat="42.52925" lon="2.49508">
        <ele>1765.293</ele>
        <time>2020-12-28T05:50:35Z</time>
      </trkpt>
      <trkpt lat="42.5293" lon="2.49482">
        <ele>1772.829</ele>
        <time>2020-12-28T05:50:55Z</time>
      </trkpt>
      <trkpt lat="42.52908" lon="2.49476">
        <ele>1773.028</ele>
        <time>2020-12-28T05:51:15Z</time>
      </trkpt>
      <trkpt lat="42.52895" lon="2.49424">
        <ele>1785.043</ele>
        <time>2020-12-28T05:51:35Z</time>
      </trkpt>
      <trkpt lat="42.52886" lon="2.49409">
        <ele>1786.964</ele>
        <time>2020-12-28T05:51:55Z</time>
      </trkpt>
      <trkpt lat="42.52885" lon="2.49358">
        <ele>1802.21</ele>
        <time>2020-12-28T05:52:15Z</time>
      </trkpt>
      <trkpt lat="42.52893" lon="2.49331">
        <ele>1812.508</ele>
        <time>2020-12-28T05:52:35Z</time>
      </trkpt>
      <trkpt lat="42.5289" lon="2.49304">
        <ele>1817.26</ele>
        <time>2020-12-28T05:52:55Z</time>
      </trkpt>
      <trkpt lat="42.52879" lon="2.49268">
        <ele>1822.186</ele>
        <time>2020-12-28T05:53:15Z</time>
      </trkpt>
      <trkpt lat="42.52877" lon="2.49223">
        <ele>1830.161</ele>
        <time>2020-12-28T05:53:35Z</time>
      </trkpt>
      <trkpt lat="42.5285" lon="2.49169">
        <ele>1840.974</ele>
        <time>2020-12-28T05:53:55Z</time>
      </trkpt>
      <trkpt lat="42.5285" lon="2.49128">
        <ele>1846.81</ele>
        <time>2020-12-28T05:54:15Z</time>
      </trkpt>
      <trkpt lat="42.52821" lon="2.49064">
        <ele>1856.672</ele>
        <time>2020-12-28T05:54:35Z</time>
      </trkpt>
      <trkpt lat="42.52811" lon="2.4906">
        <ele>1855.568</ele>
        <time>2020-12-28T05:54:55Z</time>
      </trkpt>
      <trkpt lat="42.52798" lon="2.49003">
        <ele>1864.217</ele>
        <time>2020-12-28T05:55:15Z</time>
      </trkpt>
      <trkpt lat="42.52756" lon="2.48899">
        <ele>1904.789</ele>
        <time>2020-12-28T05:55:35Z</time>
      </trkpt>
      <trkpt lat="42.52733" lon="2.48864">
        <ele>1915.206</ele>
        <time>2020-12-28T05:55:55Z</time>
      </trkpt>
      <trkpt lat="42.52711" lon="2.4885">
        <ele>1916.726</ele>
        <time>2020-12-28T05:56:15Z</time>
      </trkpt>
      <trkpt lat="42.52744" lon="2.48853">
        <ele>1921.608</ele>
        <time>2020-12-28T05:56:35Z</time>
      </trkpt>
      <trkpt lat="42.52745" lon="2.48829">
        <ele>1930.354</ele>
        <time>2020-12-28T05:56:55Z</time>
      </trkpt>
      <trkpt lat="42.52726" lon="2.48812">
        <ele>1933.16</ele>
        <time>2020-12-28T05:57:15Z</time>
      </trkpt>
      <trkpt lat="42.52732" lon="2.48788">
        <ele>1941.815</ele>
        <time>2020-12-28T05:57:35Z</time>
      </trkpt>
      <trkpt lat="42.52715" lon="2.48788">
        <ele>1940.528</ele>
        <time>2020-12-28T05:57:55Z</time>
      </trkpt>
      <trkpt lat="42.52732" lon="2.48738">
        <ele>1958.364</ele>
        <time>2020-12-28T05:58:15Z</time>
      </trkpt>
      <trkpt lat="42.52709" lon="2.48716">
        <ele>1965.796</ele>
        <time>2020-12-28T05:58:35Z</time>
      </trkpt>
      <trkpt lat="42.52729" lon="2.487">
        <ele>1970.882</ele>
        <time>2020-12-28T05:58:55Z</time>
      </trkpt>
      <trkpt lat="42.52712" lon="2.48672">
        <ele>1979.411</ele>
        <time>2020-12-28T05:59:15Z</time>
      </trkpt>
      <trkpt lat="42.52722" lon="2.48651">
        <ele>1986.836</ele>
        <time>2020-12-28T05:59:35Z</time>
      </trkpt>
      <trkpt lat="42.52705" lon="2.48646">
        <ele>1989.517</ele>
        <time>2020-12-28T05:59:55Z</time>
      </trkpt>
      <trkpt lat="42.52708" lon="2.48635">
        <ele>1993.618</ele>
        <time>2020-12-28T06:00:15Z</time>
      </trkpt>
      <trkpt lat="42.52679" lon="2.48614">
        <ele>2007.108</ele>
        <time>2020-12-28T06:00:35Z</time>
      </trkpt>
      <trkpt lat="42.52697" lon="2.48557">
        <ele>2023.399</ele>
        <time>2020-12-28T06:00:55Z</time>
      </trkpt>
      <trkpt lat="42.52693" lon="2.48525">
        <ele>2031.585</ele>
        <time>2020-12-28T06:01:15Z</time>
      </trkpt>
      <trkpt lat="42.52678" lon="2.48531">
        <ele>2034.17</ele>
        <time>2020-12-28T06:01:35Z</time>
      </trkpt>
      <trkpt lat="42.52666" lon="2.48552">
        <ele>2032.483</ele>
        <time>2020-12-28T06:01:55Z</time>
      </trkpt>
      <trkpt lat="42.52643" lon="2.48527">
        <ele>2037.179</ele>
        <time>2020-12-28T06:02:15Z</time>
      </trkpt>
      <trkpt lat="42.52654" lon="2.485">
        <ele>2043.521</ele>
        <time>2020-12-28T06:02:35Z</time>
      </trkpt>
      <trkpt lat="42.526" lon="2.4849">
        <ele>2048.877</ele>
        <time>2020-12-28T06:02:55Z</time>
      </trkpt>
      <trkpt lat="42.52529" lon="2.48447">
        <ele>2047.666</ele>
        <time>2020-12-28T06:03:15Z</time>
      </trkpt>
      <trkpt lat="42.52533" lon="2.4844">
        <ele>2051.039</ele>
        <time>2020-12-28T06:03:35Z</time>
      </trkpt>
      <trkpt lat="42.52606" lon="2.48442">
        <ele>2060.301</ele>
        <time>2020-12-28T06:03:55Z</time>
      </trkpt>
      <trkpt lat="42.52643" lon="2.48396">
        <ele>2071.021</ele>
        <time>2020-12-28T06:04:15Z</time>
      </trkpt>
      <trkpt lat="42.52683" lon="2.48376">
        <ele>2072.408</ele>
        <time>2020-12-28T06:04:35Z</time>
      </trkpt>
      <trkpt lat="42.52728" lon="2.48331">
        <ele>2080.619</ele>
        <time>2020-12-28T06:04:55Z</time>
      </trkpt>
      <trkpt lat="42.52764" lon="2.48333">
        <ele>2079.095</ele>
        <time>2020-12-28T06:05:15Z</time>
      </trkpt>
      <trkpt lat="42.52808" lon="2.48337">
        <ele>2082.77</ele>
        <time>2020-12-28T06:05:35Z</time>
      </trkpt>
      <trkpt lat="42.52855" lon="2.48354">
        <ele>2079.623</ele>
        <time>2020-12-28T06:05:55Z</time>
      </trkpt>
      <trkpt lat="42.52953" lon="2.48323">
        <ele>2086.569</ele>
        <time>2020-12-28T06:06:15Z</time>
      </trkpt>
      <trkpt lat="42.52965" lon="2.483">
        <ele>2089.191</ele>
        <time>2020-12-28T06:06:35Z</time>
      </trkpt>
      <trkpt lat="42.52958" lon="2.48268">
        <ele>2096.377</ele>
        <time>2020-12-28T06:06:55Z</time>
      </trkpt>
      <trkpt lat="42.52945" lon="2.48247">
        <ele>2104.626</ele>
        <time>2020-12-28T06:07:15Z</time>
      </trkpt>
      <trkpt lat="42.5296" lon="2.48202">
        <ele>2110.688</ele>
        <time>2020-12-28T06:07:35Z</time>
      </trkpt>
      <trkpt lat="42.52961" lon="2.48078">
        <ele>2142.224</ele>
        <time>2020-12-28T06:07:55Z</time>
      </trkpt>
      <trkpt lat="42.52967" lon="2.48045">
        <ele>2149.926</ele>
        <time>2020-12-28T06:08:15Z</time>
      </trkpt>
      <trkpt lat="42.53028" lon="2.47902">
        <ele>2165.608</ele>
        <time>2020-12-28T06:08:35Z</time>
      </trkpt>
      <trkpt lat="42.53055" lon="2.47878">
        <ele>2161.034</ele>
        <time>2020-12-28T06:08:55Z</time>
      </trkpt>
      <trkpt lat="42.53069" lon="2.47827">
        <ele>2166.16</ele>
        <time>2020-12-28T06:09:15Z</time>
      </trkpt>
      <trkpt lat="42.53077" lon="2.47766">
        <ele>2167.475</ele>
        <time>2020-12-28T06:09:35Z</time>
      </trkpt>
      <trkpt lat="42.53071" lon="2.47667">
        <ele>2165.718</ele>
        <time>2020-12-28T06:09:55Z</time>
      </trkpt>
      <trkpt lat="42.53076" lon="2.47646">
        <ele>2154.834</ele>
        <time>2020-12-28T06:10:15Z</time>
      </trkpt>
      <trkpt lat="42.53066" lon="2.47598">
        <ele>2143.076</ele>
        <time>2020-12-28T06:10:35Z</time>
      </trkpt>
      <trkpt lat="42.52945" lon="2.47503">
        <ele>2168.492</ele>
        <time>2020-12-28T06:10:55Z</time>
      </trkpt>
      <trkpt lat="42.52937" lon="2.47467">
        <ele>2167.231</ele>
        <time>2020-12-28T06:11:15Z</time>
      </trkpt>
      <trkpt lat="42.5292" lon="2.47444">
        <ele>2174.677</ele>
        <time>2020-12-28T06:11:35Z</time>
      </trkpt>
      <trkpt lat="42.52913" lon="2.47385">
        <ele>2178.561</ele>
        <time>2020-12-28T06:11:55Z</time>
      </trkpt>
      <trkpt lat="42.52917" lon="2.47371">
        <ele>2176.327</ele>
        <time>2020-12-28T06:12:15Z</time>
      </trkpt>
      <trkpt lat="42.52913" lon="2.47352">
        <ele>2180.308</ele>
        <time>2020-12-28T06:12:35Z</time>
      </trkpt>
      <trkpt lat="42.52929" lon="2.47315">
        <ele>2174.873</ele>
        <time>2020-12-28T06:12:55Z</time>
      </trkpt>
      <trkpt lat="42.52959" lon="2.4723">
        <ele>2177.289</ele>
        <time>2020-12-28T06:13:15Z</time>
      </trkpt>
      <trkpt lat="42.52973" lon="2.47177">
        <ele>2185.614</ele>
        <time>2020-12-28T06:13:35Z</time>
      </trkpt>
      <trkpt lat="42.53001" lon="2.4712">
        <ele>2184.077</ele>
        <time>2020-12-28T06:13:55Z</time>
      </trkpt>
      <trkpt lat="42.53022" lon="2.47071">
        <ele>2189.063</ele>
        <time>2020-12-28T06:14:15Z</time>
      </trkpt>
      <trkpt lat="42.53051" lon="2.47045">
        <ele>2186.225</ele>
        <time>2020-12-28T06:14:35Z</time>
      </trkpt>
      <trkpt lat="42.53079" lon="2.47029">
        <ele>2179.971</ele>
        <time>2020-12-28T06:14:55Z</time>
      </trkpt>
      <trkpt lat="42.53102" lon="2.46979">
        <ele>2190.33</ele>
        <time>2020-12-28T06:15:15Z</time>
      </trkpt>
      <trkpt lat="42.53164" lon="2.46942">
        <ele>2180.269</ele>
        <time>2020-12-28T06:15:35Z</time>
      </trkpt>
      <trkpt lat="42.53198" lon="2.46886">
        <ele>2175.804</ele>
        <time>2020-12-28T06:15:55Z</time>
      </trkpt>
      <trkpt lat="42.53206" lon="2.46832">
        <ele>2179.824</ele>
        <time>2020-12-28T06:16:15Z</time>
      </trkpt>
      <trkpt lat="42.53221" lon="2.46786">
        <ele>2176.408</ele>
        <time>2020-12-28T06:16:35Z</time>
      </trkpt>
      <trkpt lat="42.53241" lon="2.46747">
        <ele>2174.682</ele>
        <time>2020-12-28T06:16:55Z</time>
      </trkpt>
      <trkpt lat="42.53243" lon="2.46721">
        <ele>2175.558</ele>
        <time>2020-12-28T06:17:15Z</time>
      </trkpt>
      <trkpt lat="42.53288" lon="2.46679">
        <ele>2161.823</ele>
        <time>2020-12-28T06:17:35Z</time>
      </trkpt>
      <trkpt lat="42.53325" lon="2.46623">
        <ele>2157.456</ele>
        <time>2020-12-28T06:17:55Z</time>
      </trkpt>
      <trkpt lat="42.53381" lon="2.46572">
        <ele>2154.342</ele>
        <time>2020-12-28T06:18:15Z</time>
      </trkpt>
      <trkpt lat="42.53422" lon="2.46532">
        <ele>2153.164</ele>
        <time>2020-12-28T06:18:35Z</time>
      </trkpt>
      <trkpt lat="42.53417" lon="2.46511">
        <ele>2146.81</ele>
        <time>2019-11-01T18:48:49Z</time>
      </trkpt>
      <trkpt lat="42.53412" lon="2.46471">
        <ele>2148.119</ele>
        <time>2019-11-01T18:49:09Z</time>
      </trkpt>
      <trkpt lat="42.53394" lon="2.46457">
        <ele>2147.784</ele>
        <time>2019-11-01T18:49:29Z</time>
      </trkpt>
      <trkpt lat="42.53352" lon="2.46439">
        <ele>2148.507</ele>
        <time>2019-11-01T18:49:49Z</time>
      </trkpt>
      <trkpt lat="42.53338" lon="2.46408">
        <ele>2148.617</ele>
        <time>2019-11-01T18:50:09Z</time>
      </trkpt>
      <trkpt lat="42.53307" lon="2.46408">
        <ele>2149.008</ele>
        <time>2019-11-01T18:50:29Z</time>
      </trkpt>
      <trkpt lat="42.53287" lon="2.46377">
        <ele>2149.334</ele>
        <time>2019-11-01T18:50:49Z</time>
      </trkpt>
      <trkpt lat="42.53294" lon="2.4635">
        <ele>2150.13</ele>
        <time>2019-11-01T18:51:09Z</time>
      </trkpt>
      <trkpt lat="42.53295" lon="2.46316">
        <ele>2153.865</ele>
        <time>2019-11-01T18:51:29Z</time>
      </trkpt>
      <trkpt lat="42.53322" lon="2.463">
        <ele>2152.688</ele>
        <time>2019-11-01T18:51:49Z</time>
      </trkpt>
      <trkpt lat="42.53328" lon="2.46245">
        <ele>2158.734</ele>
        <time>2019-11-01T18:52:09Z</time>
      </trkpt>
      <trkpt lat="42.53288" lon="2.46208">
        <ele>2163.956</ele>
        <time>2019-11-01T18:52:29Z</time>
      </trkpt>
      <trkpt lat="42.53286" lon="2.46154">
        <ele>2164.112</ele>
        <time>2019-11-01T18:52:49Z</time>
      </trkpt>
      <trkpt lat="42.53268" lon="2.46111">
        <ele>2167.431</ele>
        <time>2019-11-01T18:53:09Z</time>
      </trkpt>
      <trkpt lat="42.53199" lon="2.46068">
        <ele>2177.261</ele>
        <time>2019-11-01T18:53:29Z</time>
      </trkpt>
      <trkpt lat="42.53177" lon="2.46062">
        <ele>2179.721</ele>
        <time>2019-11-01T18:53:49Z</time>
      </trkpt>
      <trkpt lat="42.53168" lon="2.46036">
        <ele>2182.413</ele>
        <time>2019-11-01T18:54:09Z</time>
      </trkpt>
      <trkpt lat="42.53123" lon="2.45963">
        <ele>2192.608</ele>
        <time>2019-11-01T18:54:29Z</time>
      </trkpt>
      <trkpt lat="42.53137" lon="2.4591">
        <ele>2201.652</ele>
        <time>2019-11-01T18:54:49Z</time>
      </trkpt>
      <trkpt lat="42.5319" lon="2.45818">
        <ele>2217.298</ele>
        <time>2019-11-01T18:55:09Z</time>
      </trkpt>
      <trkpt lat="42.53257" lon="2.45784">
        <ele>2220.813</ele>
        <time>2019-11-01T18:55:29Z</time>
      </trkpt>
      <trkpt lat="42.53289" lon="2.45758">
        <ele>2224.756</ele>
        <time>2019-11-01T18:55:49Z</time>
      </trkpt>
      <trkpt lat="42.53314" lon="2.45708">
        <ele>2231.752</ele>
        <time>2019-11-01T18:56:09Z</time>
      </trkpt>
      <trkpt lat="42.53337" lon="2.45598">
        <ele>2250.634</ele>
        <time>2019-11-01T18:56:29Z</time>
      </trkpt>
      <trkpt lat="42.53366" lon="2.45524">
        <ele>2261.34</ele>
        <time>2019-11-01T18:56:49Z</time>
      </trkpt>
      <trkpt lat="42.53443" lon="2.45488">
        <ele>2243.959</ele>
        <time>2019-11-01T18:57:09Z</time>
      </trkpt>
      <trkpt lat="42.5347" lon="2.45435">
        <ele>2234.747</ele>
        <time>2019-11-01T18:57:29Z</time>
      </trkpt>
      <trkpt lat="42.53483" lon="2.45361">
        <ele>2221.829</ele>
        <time>2019-11-01T18:57:49Z</time>
      </trkpt>
      <trkpt lat="42.53461" lon="2.45274">
        <ele>2213.221</ele>
        <time>2019-11-01T18:58:09Z</time>
      </trkpt>
      <trkpt lat="42.53493" lon="2.45161">
        <ele>2186.308</ele>
        <time>2019-11-01T18:58:29Z</time>
      </trkpt>
      <trkpt lat="42.53536" lon="2.45093">
        <ele>2170.71</ele>
        <time>2019-11-01T18:58:49Z</time>
      </trkpt>
      <trkpt lat="42.53534" lon="2.45015">
        <ele>2166.696</ele>
        <time>2019-11-01T18:59:09Z</time>
      </trkpt>
      <trkpt lat="42.53561" lon="2.44957">
        <ele>2153.861</ele>
        <time>2019-11-01T18:59:29Z</time>
      </trkpt>
      <trkpt lat="42.53608" lon="2.44931">
        <ele>2137.444</ele>
        <time>2019-11-01T18:59:49Z</time>
      </trkpt>
      <trkpt lat="42.53624" lon="2.44885">
        <ele>2136.08</ele>
        <time>2019-11-01T19:00:09Z</time>
      </trkpt>
      <trkpt lat="42.53613" lon="2.44817">
        <ele>2129.452</ele>
        <time>2019-11-01T19:00:29Z</time>
      </trkpt>
      <trkpt lat="42.53615" lon="2.44757">
        <ele>2119.488</ele>
        <time>2019-11-01T19:00:49Z</time>
      </trkpt>
      <trkpt lat="42.5364" lon="2.44669">
        <ele>2106.587</ele>
        <time>2019-11-01T19:01:09Z</time>
      </trkpt>
      <trkpt lat="42.53678" lon="2.44609">
        <ele>2094.568</ele>
        <time>2019-11-01T19:01:29Z</time>
      </trkpt>
      <trkpt lat="42.53664" lon="2.44557">
        <ele>2090.742</ele>
        <time>2019-11-01T19:01:49Z</time>
      </trkpt>
      <trkpt lat="42.5367" lon="2.4447">
        <ele>2078.926</ele>
        <time>2019-11-01T19:02:09Z</time>
      </trkpt>
      <trkpt lat="42.53715" lon="2.4436">
        <ele>2059.008</ele>
        <time>2019-11-01T19:02:29Z</time>
      </trkpt>
      <trkpt lat="42.53631" lon="2.44311">
        <ele>2048.332</ele>
        <time>2019-11-01T19:02:49Z</time>
      </trkpt>
      <trkpt lat="42.53536" lon="2.44236">
        <ele>2022.178</ele>
        <time>2019-11-01T19:03:09Z</time>
      </trkpt>
      <trkpt lat="42.53501" lon="2.44178">
        <ele>2008.443</ele>
        <time>2019-11-01T19:03:29Z</time>
      </trkpt>
      <trkpt lat="42.53495" lon="2.44135">
        <ele>1999.936</ele>
        <time>2019-11-01T19:03:49Z</time>
      </trkpt>
      <trkpt lat="42.53503" lon="2.44032">
        <ele>1982.032</ele>
        <time>2019-11-01T19:04:09Z</time>
      </trkpt>
      <trkpt lat="42.53511" lon="2.43949">
        <ele>1965.374</ele>
        <time>2019-11-01T19:04:29Z</time>
      </trkpt>
      <trkpt lat="42.53523" lon="2.439">
        <ele>1950.46</ele>
        <time>2019-11-01T19:04:49Z</time>
      </trkpt>
      <trkpt lat="42.53513" lon="2.43855">
        <ele>1942.519</ele>
        <time>2019-11-01T19:05:09Z</time>
      </trkpt>
      <trkpt lat="42.53544" lon="2.43865">
        <ele>1932.958</ele>
        <time>2019-11-01T19:05:29Z</time>
      </trkpt>
      <trkpt lat="42.53542" lon="2.43846">
        <ele>1929.452</ele>
        <time>2019-11-01T19:05:49Z</time>
      </trkpt>
      <trkpt lat="42.53515" lon="2.43826">
        <ele>1934.417</ele>
        <time>2019-11-01T19:06:09Z</time>
      </trkpt>
      <trkpt lat="42.53513" lon="2.438">
        <ele>1925.708</ele>
        <time>2019-11-01T19:06:29Z</time>
      </trkpt>
      <trkpt lat="42.5353" lon="2.43799">
        <ele>1922.691</ele>
        <time>2019-11-01T19:06:49Z</time>
      </trkpt>
      <trkpt lat="42.53519" lon="2.43784">
        <ele>1918.457</ele>
        <time>2019-11-01T19:07:09Z</time>
      </trkpt>
      <trkpt lat="42.53532" lon="2.43739">
        <ele>1897.242</ele>
        <time>2019-11-01T19:07:29Z</time>
      </trkpt>
      <trkpt lat="42.53548" lon="2.43748">
        <ele>1895.995</ele>
        <time>2019-11-01T19:07:49Z</time>
      </trkpt>
      <trkpt lat="42.53568" lon="2.43693">
        <ele>1868.471</ele>
        <time>2019-11-01T19:08:09Z</time>
      </trkpt>
      <trkpt lat="42.53588" lon="2.43728">
        <ele>1866.543</ele>
        <time>2019-11-01T19:08:29Z</time>
      </trkpt>
      <trkpt lat="42.53592" lon="2.43676">
        <ele>1851.249</ele>
        <time>2019-11-01T19:08:49Z</time>
      </trkpt>
      <trkpt lat="42.53617" lon="2.43741">
        <ele>1849.838</ele>
        <time>2019-11-01T19:09:09Z</time>
      </trkpt>
      <trkpt lat="42.53624" lon="2.43699">
        <ele>1833.318</ele>
        <time>2019-11-01T19:09:29Z</time>
      </trkpt>
      <trkpt lat="42.5362" lon="2.43626">
        <ele>1820.298</ele>
        <time>2019-11-01T19:09:49Z</time>
      </trkpt>
      <trkpt lat="42.53632" lon="2.43604">
        <ele>1810.517</ele>
        <time>2019-11-01T19:10:09Z</time>
      </trkpt>
      <trkpt lat="42.53641" lon="2.43634">
        <ele>1807.708</ele>
        <time>2019-11-01T19:10:29Z</time>
      </trkpt>
      <trkpt lat="42.53656" lon="2.43583">
        <ele>1792.867</ele>
        <time>2019-11-01T19:10:49Z</time>
      </trkpt>
      <trkpt lat="42.53667" lon="2.43622">
        <ele>1784.193</ele>
        <time>2019-11-01T19:11:09Z</time>
      </trkpt>
      <trkpt lat="42.5367" lon="2.43551">
        <ele>1780.398</ele>
        <time>2019-11-01T19:11:29Z</time>
      </trkpt>
      <trkpt lat="42.53709" lon="2.43442">
        <ele>1753.631</ele>
        <time>2019-11-01T19:11:49Z</time>
      </trkpt>
      <trkpt lat="42.53718" lon="2.434">
        <ele>1747.117</ele>
        <time>2019-11-01T19:12:09Z</time>
      </trkpt>
      <trkpt lat="42.53719" lon="2.43367">
        <ele>1741.929</ele>
        <time>2019-11-01T19:12:29Z</time>
      </trkpt>
      <trkpt lat="42.53696" lon="2.43343">
        <ele>1744.995</ele>
        <time>2019-11-01T19:12:49Z</time>
      </trkpt>
      <trkpt lat="42.53674" lon="2.43355">
        <ele>1746.174</ele>
        <time>2019-11-01T19:13:09Z</time>
      </trkpt>
      <trkpt lat="42.53661" lon="2.43402">
        <ele>1753.278</ele>
        <time>2019-11-01T19:13:29Z</time>
      </trkpt>
      <trkpt lat="42.53613" lon="2.4349">
        <ele>1759.633</ele>
        <time>2019-11-01T19:13:49Z</time>
      </trkpt>
      <trkpt lat="42.53572" lon="2.43517">
        <ele>1754.126</ele>
        <time>2019-11-01T19:14:09Z</time>
      </trkpt>
      <trkpt lat="42.53515" lon="2.43519">
        <ele>1750.708</ele>
        <time>2019-11-01T19:14:29Z</time>
      </trkpt>
      <trkpt lat="42.53435" lon="2.43537">
        <ele>1756.753</ele>
        <time>2019-11-01T19:14:49Z</time>
      </trkpt>
      <trkpt lat="42.5342" lon="2.43547">
        <ele>1759.289</ele>
        <time>2019-11-01T19:15:09Z</time>
      </trkpt>
      <trkpt lat="42.53377" lon="2.43553">
        <ele>1754.044</ele>
        <time>2019-11-01T19:15:29Z</time>
      </trkpt>
      <trkpt lat="42.53346" lon="2.43574">
        <ele>1755.347</ele>
        <time>2019-11-01T19:15:49Z</time>
      </trkpt>
      <trkpt lat="42.53302" lon="2.43693">
        <ele>1758.113</ele>
        <time>2019-11-01T19:16:09Z</time>
      </trkpt>
      <trkpt lat="42.53246" lon="2.43662">
        <ele>1745.385</ele>
        <time>2019-11-01T19:16:29Z</time>
      </trkpt>
      <trkpt lat="42.53228" lon="2.43612">
        <ele>1736.391</ele>
        <time>2019-11-01T19:16:49Z</time>
      </trkpt>
      <trkpt lat="42.53204" lon="2.43602">
        <ele>1748.54</ele>
        <time>2019-11-01T19:17:09Z</time>
      </trkpt>
      <trkpt lat="42.53199" lon="2.43574">
        <ele>1737.445</ele>
        <time>2019-11-01T19:17:29Z</time>
      </trkpt>
      <trkpt lat="42.53179" lon="2.43573">
        <ele>1739.047</ele>
        <time>2019-11-01T19:17:49Z</time>
      </trkpt>
      <trkpt lat="42.53146" lon="2.436">
        <ele>1750.611</ele>
        <time>2019-11-01T19:18:09Z</time>
      </trkpt>
      <trkpt lat="42.53124" lon="2.43581">
        <ele>1744.808</ele>
        <time>2019-11-01T19:18:29Z</time>
      </trkpt>
      <trkpt lat="42.53063" lon="2.43485">
        <ele>1740.72</ele>
        <time>2019-11-01T19:18:49Z</time>
      </trkpt>
      <trkpt lat="42.53015" lon="2.43498">
        <ele>1744.566</ele>
        <time>2019-11-01T19:19:09Z</time>
      </trkpt>
      <trkpt lat="42.52978" lon="2.43542">
        <ele>1744.921</ele>
        <time>2019-11-01T19:19:29Z</time>
      </trkpt>
      <trkpt lat="42.52972" lon="2.43597">
        <ele>1764.264</ele>
        <time>2019-11-01T19:19:49Z</time>
      </trkpt>
      <trkpt lat="42.52947" lon="2.43606">
        <ele>1758.98</ele>
        <time>2019-11-01T19:20:09Z</time>
      </trkpt>
      <trkpt lat="42.52916" lon="2.43635">
        <ele>1760.062</ele>
        <time>2019-11-01T19:20:29Z</time>
      </trkpt>
      <trkpt lat="42.52909" lon="2.43659">
        <ele>1769.028</ele>
        <time>2019-11-01T19:20:49Z</time>
      </trkpt>
      <trkpt lat="42.52857" lon="2.43676">
        <ele>1774.077</ele>
        <time>2019-11-01T19:21:09Z</time>
      </trkpt>
      <trkpt lat="42.5282" lon="2.43706">
        <ele>1779.493</ele>
        <time>2019-11-01T19:21:29Z</time>
      </trkpt>
      <trkpt lat="42.52805" lon="2.43743">
        <ele>1790.165</ele>
        <time>2019-11-01T19:21:49Z</time>
      </trkpt>
      <trkpt lat="42.52777" lon="2.43771">
        <ele>1791.021</ele>
        <time>2019-11-01T19:22:09Z</time>
      </trkpt>
      <trkpt lat="42.52775" lon="2.43843">
        <ele>1809.008</ele>
        <time>2019-11-01T19:22:29Z</time>
      </trkpt>
      <trkpt lat="42.52802" lon="2.43804">
        <ele>1812.755</ele>
        <time>2019-11-01T19:22:49Z</time>
      </trkpt>
      <trkpt lat="42.52817" lon="2.43819">
        <ele>1822.031</ele>
        <time>2019-11-01T19:23:09Z</time>
      </trkpt>
      <trkpt lat="42.52867" lon="2.43798">
        <ele>1832.536</ele>
        <time>2019-11-01T19:23:29Z</time>
      </trkpt>
      <trkpt lat="42.52845" lon="2.43885">
        <ele>1846.639</ele>
        <time>2019-11-01T19:23:49Z</time>
      </trkpt>
      <trkpt lat="42.52846" lon="2.43958">
        <ele>1859.045</ele>
        <time>2019-11-01T19:24:09Z</time>
      </trkpt>
      <trkpt lat="42.52845" lon="2.44009">
        <ele>1865.247</ele>
        <time>2019-11-01T19:24:29Z</time>
      </trkpt>
      <trkpt lat="42.52871" lon="2.43989">
        <ele>1876.433</ele>
        <time>2019-11-01T19:24:49Z</time>
      </trkpt>
      <trkpt lat="42.52861" lon="2.44036">
        <ele>1879.842</ele>
        <time>2019-11-01T19:25:09Z</time>
      </trkpt>
      <trkpt lat="42.52863" lon="2.44072">
        <ele>1889.132</ele>
        <time>2019-11-01T19:25:29Z</time>
      </trkpt>
      <trkpt lat="42.52839" lon="2.44143">
        <ele>1896.092</ele>
        <time>2019-11-01T19:25:49Z</time>
      </trkpt>
      <trkpt lat="42.52809" lon="2.4408">
        <ele>1878.911</ele>
        <time>2019-11-01T19:26:09Z</time>
      </trkpt>
      <trkpt lat="42.5274" lon="2.44093">
        <ele>1883.908</ele>
        <time>2019-11-01T19:26:29Z</time>
      </trkpt>
      <trkpt lat="42.52669" lon="2.44026">
        <ele>1886.979</ele>
        <time>2019-11-01T19:26:49Z</time>
      </trkpt>
      <trkpt lat="42.52609" lon="2.44009">
        <ele>1894.815</ele>
        <time>2019-11-01T19:27:09Z</time>
      </trkpt>
      <trkpt lat="42.52563" lon="2.4391">
        <ele>1894.07</ele>
        <time>2019-11-01T19:27:29Z</time>
      </trkpt>
      <trkpt lat="42.52524" lon="2.43895">
        <ele>1901.693</ele>
        <time>2019-11-01T19:27:49Z</time>
      </trkpt>
      <trkpt lat="42.525" lon="2.43899">
        <ele>1903.929</ele>
        <time>2019-11-01T19:28:09Z</time>
      </trkpt>
      <trkpt lat="42.52492" lon="2.43894">
        <ele>1900.631</ele>
        <time>2019-11-01T19:28:29Z</time>
      </trkpt>
      <trkpt lat="42.52474" lon="2.43901">
        <ele>1901.337</ele>
        <time>2019-11-01T19:28:49Z</time>
      </trkpt>
      <trkpt lat="42.52485" lon="2.43916">
        <ele>1910.466</ele>
        <time>2019-11-01T19:29:09Z</time>
      </trkpt>
      <trkpt lat="42.52463" lon="2.43932">
        <ele>1914.961</ele>
        <time>2019-11-01T19:29:29Z</time>
      </trkpt>
      <trkpt lat="42.5248" lon="2.4395">
        <ele>1922.721</ele>
        <time>2019-11-01T19:29:49Z</time>
      </trkpt>
      <trkpt lat="42.52461" lon="2.43958">
        <ele>1923.813</ele>
        <time>2019-11-01T19:30:09Z</time>
      </trkpt>
      <trkpt lat="42.52466" lon="2.43973">
        <ele>1928.608</ele>
        <time>2019-11-01T19:30:29Z</time>
      </trkpt>
      <trkpt lat="42.52428" lon="2.43993">
        <ele>1936.442</ele>
        <time>2019-11-01T19:30:49Z</time>
      </trkpt>
      <trkpt lat="42.52427" lon="2.43967">
        <ele>1929.818</ele>
        <time>2019-11-01T19:31:09Z</time>
      </trkpt>
      <trkpt lat="42.5238" lon="2.43962">
        <ele>1936.983</ele>
        <time>2019-11-01T19:31:29Z</time>
      </trkpt>
      <trkpt lat="42.52347" lon="2.43912">
        <ele>1933.096</ele>
        <time>2019-11-01T19:31:49Z</time>
      </trkpt>
      <trkpt lat="42.52271" lon="2.43874">
        <ele>1929.012</ele>
        <time>2019-11-01T19:32:09Z</time>
      </trkpt>
      <trkpt lat="42.52257" lon="2.4383">
        <ele>1923.514</ele>
        <time>2019-11-01T19:32:29Z</time>
      </trkpt>
      <trkpt lat="42.52262" lon="2.4379">
        <ele>1918.05</ele>
        <time>2019-11-01T19:32:49Z</time>
      </trkpt>
      <trkpt lat="42.52291" lon="2.43751">
        <ele>1906.659</ele>
        <time>2019-11-01T19:33:09Z</time>
      </trkpt>
      <trkpt lat="42.52325" lon="2.43729">
        <ele>1898.511</ele>
        <time>2019-11-01T19:33:29Z</time>
      </trkpt>
      <trkpt lat="42.52334" lon="2.43677">
        <ele>1890.921</ele>
        <time>2019-11-01T19:33:49Z</time>
      </trkpt>
      <trkpt lat="42.52395" lon="2.43605">
        <ele>1877.803</ele>
        <time>2019-11-01T19:34:09Z</time>
      </trkpt>
      <trkpt lat="42.52426" lon="2.43555">
        <ele>1872.408</ele>
        <time>2019-11-01T19:34:29Z</time>
      </trkpt>
      <trkpt lat="42.52436" lon="2.43487">
        <ele>1874.697</ele>
        <time>2019-11-01T19:34:49Z</time>
      </trkpt>
      <trkpt lat="42.52427" lon="2.43456">
        <ele>1879.373</ele>
        <time>2019-11-01T19:35:09Z</time>
      </trkpt>
      <trkpt lat="42.52427" lon="2.43408">
        <ele>1881.788</ele>
        <time>2019-11-01T19:35:29Z</time>
      </trkpt>
      <trkpt lat="42.52372" lon="2.43275">
        <ele>1910.811</ele>
        <time>2019-11-01T19:35:49Z</time>
      </trkpt>
      <trkpt lat="42.52333" lon="2.43218">
        <ele>1925.967</ele>
        <time>2019-11-01T19:36:09Z</time>
      </trkpt>
      <trkpt lat="42.52293" lon="2.43191">
        <ele>1939.199</ele>
        <time>2019-11-01T19:36:29Z</time>
      </trkpt>
      <trkpt lat="42.5225" lon="2.43158">
        <ele>1941.675</ele>
        <time>2019-11-01T19:36:49Z</time>
      </trkpt>
      <trkpt lat="42.52223" lon="2.431">
        <ele>1950.464</ele>
        <time>2019-11-01T19:37:09Z</time>
      </trkpt>
      <trkpt lat="42.522" lon="2.43053">
        <ele>1956.216</ele>
        <time>2019-11-01T19:37:29Z</time>
      </trkpt>
      <trkpt lat="42.52174" lon="2.43032">
        <ele>1972.676</ele>
        <time>2019-11-01T19:37:49Z</time>
      </trkpt>
      <trkpt lat="42.52189" lon="2.4301">
        <ele>1966.513</ele>
        <time>2019-11-01T19:38:09Z</time>
      </trkpt>
      <trkpt lat="42.52209" lon="2.42965">
        <ele>1969.508</ele>
        <time>2019-11-01T19:38:29Z</time>
      </trkpt>
      <trkpt lat="42.52208" lon="2.42932">
        <ele>1976.357</ele>
        <time>2019-11-01T19:38:49Z</time>
      </trkpt>
      <trkpt lat="42.52188" lon="2.4297">
        <ele>1982.833</ele>
        <time>2019-11-01T19:39:09Z</time>
      </trkpt>
      <trkpt lat="42.52153" lon="2.4299">
        <ele>1998.528</ele>
        <time>2019-11-01T19:39:29Z</time>
      </trkpt>
      <trkpt lat="42.52174" lon="2.42933">
        <ele>2000.461</ele>
        <time>2019-11-01T19:39:49Z</time>
      </trkpt>
      <trkpt lat="42.52168" lon="2.42817">
        <ele>2017.877</ele>
        <time>2019-11-01T19:40:09Z</time>
      </trkpt>
      <trkpt lat="42.52174" lon="2.42707">
        <ele>2027.769</ele>
        <time>2019-11-01T19:40:29Z</time>
      </trkpt>
      <trkpt lat="42.52156" lon="2.4271">
        <ele>2029.925</ele>
        <time>2019-11-01T19:40:49Z</time>
      </trkpt>
      <trkpt lat="42.52144" lon="2.42734">
        <ele>2035.154</ele>
        <time>2019-11-01T19:41:09Z</time>
      </trkpt>
      <trkpt lat="42.52035" lon="2.42732">
        <ele>2046.254</ele>
        <time>2019-11-01T19:41:29Z</time>
      </trkpt>
      <trkpt lat="42.51884" lon="2.4277">
        <ele>2064.456</ele>
        <time>2019-11-01T19:41:49Z</time>
      </trkpt>
      <trkpt lat="42.5185" lon="2.42798">
        <ele>2074.211</ele>
        <time>2019-11-01T19:42:09Z</time>
      </trkpt>
      <trkpt lat="42.51822" lon="2.42786">
        <ele>2067.008</ele>
        <time>2019-11-01T19:42:29Z</time>
      </trkpt>
      <trkpt lat="42.5176" lon="2.428">
        <ele>2079.791</ele>
        <time>2019-11-01T19:42:49Z</time>
      </trkpt>
      <trkpt lat="42.51725" lon="2.42792">
        <ele>2080.087</ele>
        <time>2019-11-01T19:43:09Z</time>
      </trkpt>
      <trkpt lat="42.51707" lon="2.42802">
        <ele>2092.462</ele>
        <time>2019-11-01T19:43:29Z</time>
      </trkpt>
      <trkpt lat="42.51707" lon="2.4275">
        <ele>2076.085</ele>
        <time>2019-11-01T19:43:49Z</time>
      </trkpt>
      <trkpt lat="42.51676" lon="2.4265">
        <ele>2067.031</ele>
        <time>2019-11-01T19:44:09Z</time>
      </trkpt>
      <trkpt lat="42.51632" lon="2.42596">
        <ele>2078.433</ele>
        <time>2019-11-01T19:44:29Z</time>
      </trkpt>
      <trkpt lat="42.51629" lon="2.42514">
        <ele>2071.929</ele>
        <time>2019-11-01T19:44:49Z</time>
      </trkpt>
      <trkpt lat="42.51574" lon="2.42388">
        <ele>2074.328</ele>
        <time>2019-11-01T19:45:09Z</time>
      </trkpt>
      <trkpt lat="42.51537" lon="2.42404">
        <ele>2090.234</ele>
        <time>2019-11-01T19:45:29Z</time>
      </trkpt>
      <trkpt lat="42.51493" lon="2.42404">
        <ele>2087.355</ele>
        <time>2019-11-01T19:45:49Z</time>
      </trkpt>
      <trkpt lat="42.5145" lon="2.42426">
        <ele>2091.91</ele>
        <time>2019-11-01T19:46:09Z</time>
      </trkpt>
      <trkpt lat="42.51382" lon="2.42404">
        <ele>2075.608</ele>
        <time>2019-11-01T19:46:29Z</time>
      </trkpt>
      <trkpt lat="42.51363" lon="2.42416">
        <ele>2079.019</ele>
        <time>2019-11-01T19:46:49Z</time>
      </trkpt>
      <trkpt lat="42.51289" lon="2.42368">
        <ele>2076.185</ele>
        <time>2019-11-01T19:47:09Z</time>
      </trkpt>
      <trkpt lat="42.51251" lon="2.42372">
        <ele>2081.81</ele>
        <time>2019-11-01T19:47:29Z</time>
      </trkpt>
      <trkpt lat="42.51208" lon="2.42368">
        <ele>2077.563</ele>
        <time>2019-11-01T19:47:49Z</time>
      </trkpt>
      <trkpt lat="42.51152" lon="2.42382">
        <ele>2070.599</ele>
        <time>2019-11-01T19:48:09Z</time>
      </trkpt>
      <trkpt lat="42.51099" lon="2.42362">
        <ele>2067.161</ele>
        <time>2019-11-01T19:48:29Z</time>
      </trkpt>
      <trkpt lat="42.51058" lon="2.42296">
        <ele>2061.897</ele>
        <time>2019-11-01T19:48:49Z</time>
      </trkpt>
      <trkpt lat="42.51013" lon="2.42236">
        <ele>2058.576</ele>
        <time>2019-11-01T19:49:09Z</time>
      </trkpt>
      <trkpt lat="42.50972" lon="2.42232">
        <ele>2060.511</ele>
        <time>2019-11-01T19:49:29Z</time>
      </trkpt>
      <trkpt lat="42.50923" lon="2.422">
        <ele>2049.421</ele>
        <time>2019-11-01T19:49:49Z</time>
      </trkpt>
      <trkpt lat="42.50863" lon="2.42192">
        <ele>2048.303</ele>
        <time>2019-11-01T19:50:09Z</time>
      </trkpt>
      <trkpt lat="42.50816" lon="2.4216">
        <ele>2051.508</ele>
        <time>2019-11-01T19:50:29Z</time>
      </trkpt>
      <trkpt lat="42.50755" lon="2.42018">
        <ele>2033.317</ele>
        <time>2019-11-01T19:50:49Z</time>
      </trkpt>
      <trkpt lat="42.50687" lon="2.42028">
        <ele>2046.733</ele>
        <time>2019-11-01T19:51:09Z</time>
      </trkpt>
      <trkpt lat="42.50659" lon="2.42092">
        <ele>2053.588</ele>
        <time>2019-11-01T19:51:29Z</time>
      </trkpt>
      <trkpt lat="42.50661" lon="2.42218">
        <ele>2055.871</ele>
        <time>2019-11-01T19:51:49Z</time>
      </trkpt>
      <trkpt lat="42.50647" lon="2.42312">
        <ele>2052.867</ele>
        <time>2019-11-01T19:52:09Z</time>
      </trkpt>
      <trkpt lat="42.50699" lon="2.42466">
        <ele>2054.269</ele>
        <time>2019-11-01T19:52:29Z</time>
      </trkpt>
      <trkpt lat="42.507" lon="2.42658">
        <ele>2055.665</ele>
        <time>2019-11-01T19:52:49Z</time>
      </trkpt>
      <trkpt lat="42.50714" lon="2.42742">
        <ele>2054.914</ele>
        <time>2019-11-01T19:53:09Z</time>
      </trkpt>
      <trkpt lat="42.50717" lon="2.42852">
        <ele>2052.713</ele>
        <time>2019-11-01T19:53:29Z</time>
      </trkpt>
      <trkpt lat="42.50736" lon="2.42911">
        <ele>2052.743</ele>
        <time>2019-11-01T19:53:49Z</time>
      </trkpt>
      <trkpt lat="42.5079" lon="2.43001">
        <ele>2055.307</ele>
        <time>2019-11-01T19:54:09Z</time>
      </trkpt>
      <trkpt lat="42.5079" lon="2.43043">
        <ele>2047.308</ele>
        <time>2019-11-01T19:54:29Z</time>
      </trkpt>
      <trkpt lat="42.5083" lon="2.43101">
        <ele>2055.247</ele>
        <time>2019-11-01T19:54:49Z</time>
      </trkpt>
      <trkpt lat="42.50827" lon="2.43171">
        <ele>2047.043</ele>
        <time>2019-11-01T19:55:09Z</time>
      </trkpt>
      <trkpt lat="42.50858" lon="2.43249">
        <ele>2047.698</ele>
        <time>2019-11-01T19:55:29Z</time>
      </trkpt>
      <trkpt lat="42.50851" lon="2.43339">
        <ele>2054.331</ele>
        <time>2019-11-01T19:55:49Z</time>
      </trkpt>
      <trkpt lat="42.50832" lon="2.43391">
        <ele>2055.887</ele>
        <time>2019-11-01T19:56:09Z</time>
      </trkpt>
      <trkpt lat="42.50782" lon="2.43467">
        <ele>2058.559</ele>
        <time>2019-11-01T19:56:29Z</time>
      </trkpt>
      <trkpt lat="42.50752" lon="2.43453">
        <ele>2053.655</ele>
        <time>2019-11-01T19:56:49Z</time>
      </trkpt>
      <trkpt lat="42.50708" lon="2.43475">
        <ele>2054.724</ele>
        <time>2019-11-01T19:57:09Z</time>
      </trkpt>
      <trkpt lat="42.50618" lon="2.43475">
        <ele>2049.819</ele>
        <time>2019-11-01T19:57:29Z</time>
      </trkpt>
      <trkpt lat="42.5056" lon="2.43453">
        <ele>2042.209</ele>
        <time>2019-11-01T19:57:49Z</time>
      </trkpt>
      <trkpt lat="42.50442" lon="2.43355">
        <ele>2030.319</ele>
        <time>2019-11-01T19:58:09Z</time>
      </trkpt>
      <trkpt lat="42.50401" lon="2.43349">
        <ele>2029.308</ele>
        <time>2019-11-01T19:58:29Z</time>
      </trkpt>
      <trkpt lat="42.50365" lon="2.43403">
        <ele>2023.137</ele>
        <time>2019-11-01T19:58:49Z</time>
      </trkpt>
      <trkpt lat="42.50306" lon="2.43567">
        <ele>2011.123</ele>
        <time>2019-11-01T19:59:09Z</time>
      </trkpt>
      <trkpt lat="42.50247" lon="2.43689">
        <ele>1995.838</ele>
        <time>2019-11-01T19:59:29Z</time>
      </trkpt>
      <trkpt lat="42.50253" lon="2.43727">
        <ele>2002.031</ele>
        <time>2019-11-01T19:59:49Z</time>
      </trkpt>
      <trkpt lat="42.50193" lon="2.43735">
        <ele>1992.717</ele>
        <time>2019-11-01T20:00:09Z</time>
      </trkpt>
      <trkpt lat="42.50147" lon="2.43793">
        <ele>1991.099</ele>
        <time>2019-11-01T20:00:29Z</time>
      </trkpt>
      <trkpt lat="42.50088" lon="2.43813">
        <ele>1983.585</ele>
        <time>2019-11-01T20:00:49Z</time>
      </trkpt>
      <trkpt lat="42.50045" lon="2.43904">
        <ele>1982.374</ele>
        <time>2019-11-01T20:01:09Z</time>
      </trkpt>
      <trkpt lat="42.50017" lon="2.43932">
        <ele>1976.985</ele>
        <time>2019-11-01T20:01:29Z</time>
      </trkpt>
      <trkpt lat="42.50019" lon="2.43968">
        <ele>1978.889</ele>
        <time>2019-11-01T20:01:49Z</time>
      </trkpt>
      <trkpt lat="42.49973" lon="2.43982">
        <ele>1970.717</ele>
        <time>2019-11-01T20:02:09Z</time>
      </trkpt>
      <trkpt lat="42.49937" lon="2.43906">
        <ele>1971.708</ele>
        <time>2019-11-01T20:02:29Z</time>
      </trkpt>
      <trkpt lat="42.49962" lon="2.43829">
        <ele>1967.324</ele>
        <time>2019-11-01T20:02:49Z</time>
      </trkpt>
      <trkpt lat="42.49971" lon="2.43724">
        <ele>1971.94</ele>
        <time>2019-11-01T20:03:09Z</time>
      </trkpt>
      <trkpt lat="42.49989" lon="2.43675">
        <ele>1964.925</ele>
        <time>2019-11-01T20:03:29Z</time>
      </trkpt>
      <trkpt lat="42.49972" lon="2.43597">
        <ele>1970.718</ele>
        <time>2019-11-01T20:03:49Z</time>
      </trkpt>
      <trkpt lat="42.49987" lon="2.43485">
        <ele>1960.454</ele>
        <time>2019-11-01T20:04:09Z</time>
      </trkpt>
      <trkpt lat="42.49966" lon="2.43295">
        <ele>1947.866</ele>
        <time>2019-11-01T20:04:29Z</time>
      </trkpt>
      <trkpt lat="42.49948" lon="2.43247">
        <ele>1941.562</ele>
        <time>2019-11-01T20:04:49Z</time>
      </trkpt>
      <trkpt lat="42.49946" lon="2.43114">
        <ele>1937.631</ele>
        <time>2019-11-01T20:05:09Z</time>
      </trkpt>
      <trkpt lat="42.49926" lon="2.43064">
        <ele>1939.047</ele>
        <time>2019-11-01T20:05:29Z</time>
      </trkpt>
      <trkpt lat="42.49892" lon="2.43031">
        <ele>1942.329</ele>
        <time>2019-11-01T20:05:49Z</time>
      </trkpt>
      <trkpt lat="42.4989" lon="2.43008">
        <ele>1936.421</ele>
        <time>2019-11-01T20:06:09Z</time>
      </trkpt>
      <trkpt lat="42.49878" lon="2.42986">
        <ele>1940.308</ele>
        <time>2019-11-01T20:06:29Z</time>
      </trkpt>
      <trkpt lat="42.49886" lon="2.4295">
        <ele>1927.48</ele>
        <time>2019-11-01T20:06:49Z</time>
      </trkpt>
      <trkpt lat="42.49908" lon="2.42912">
        <ele>1919.746</ele>
        <time>2019-11-01T20:07:09Z</time>
      </trkpt>
      <trkpt lat="42.4989" lon="2.42872">
        <ele>1930.941</ele>
        <time>2019-11-01T20:07:29Z</time>
      </trkpt>
      <trkpt lat="42.49895" lon="2.42813">
        <ele>1921.954</ele>
        <time>2019-11-01T20:07:49Z</time>
      </trkpt>
      <trkpt lat="42.49885" lon="2.42758">
        <ele>1920.88</ele>
        <time>2019-11-01T20:08:09Z</time>
      </trkpt>
      <trkpt lat="42.49853" lon="2.42681">
        <ele>1914.072</ele>
        <time>2019-11-01T20:08:29Z</time>
      </trkpt>
      <trkpt lat="42.49859" lon="2.42644">
        <ele>1905.418</ele>
        <time>2019-11-01T20:08:49Z</time>
      </trkpt>
      <trkpt lat="42.49826" lon="2.42538">
        <ele>1902.077</ele>
        <time>2019-11-01T20:09:09Z</time>
      </trkpt>
      <trkpt lat="42.49838" lon="2.42471">
        <ele>1889.198</ele>
        <time>2019-11-01T20:09:29Z</time>
      </trkpt>
      <trkpt lat="42.49813" lon="2.42315">
        <ele>1878.215</ele>
        <time>2019-11-01T20:09:49Z</time>
      </trkpt>
      <trkpt lat="42.49833" lon="2.42122">
        <ele>1857.526</ele>
        <time>2019-11-01T20:10:09Z</time>
      </trkpt>
      <trkpt lat="42.4974" lon="2.42072">
        <ele>1847.708</ele>
        <time>2019-11-01T20:10:29Z</time>
      </trkpt>
      <trkpt lat="42.49663" lon="2.41978">
        <ele>1828.875</ele>
        <time>2019-11-01T20:10:49Z</time>
      </trkpt>
      <trkpt lat="42.49618" lon="2.4199">
        <ele>1830.481</ele>
        <time>2019-11-01T20:11:09Z</time>
      </trkpt>
      <trkpt lat="42.49598" lon="2.41978">
        <ele>1826.346</ele>
        <time>2019-11-01T20:11:29Z</time>
      </trkpt>
      <trkpt lat="42.49626" lon="2.41914">
        <ele>1813.039</ele>
        <time>2019-11-01T20:11:49Z</time>
      </trkpt>
      <trkpt lat="42.49668" lon="2.41858">
        <ele>1795.495</ele>
        <time>2019-11-01T20:12:09Z</time>
      </trkpt>
      <trkpt lat="42.49686" lon="2.41816">
        <ele>1789.027</ele>
        <time>2019-11-01T20:12:29Z</time>
      </trkpt>
      <trkpt lat="42.49707" lon="2.41809">
        <ele>1775.623</ele>
        <time>2019-11-01T20:12:49Z</time>
      </trkpt>
      <trkpt lat="42.49712" lon="2.41847">
        <ele>1767.672</ele>
        <time>2019-11-01T20:13:09Z</time>
      </trkpt>
      <trkpt lat="42.4973" lon="2.41788">
        <ele>1762.118</ele>
        <time>2019-11-01T20:13:29Z</time>
      </trkpt>
      <trkpt lat="42.49755" lon="2.41734">
        <ele>1753.598</ele>
        <time>2019-11-01T20:13:49Z</time>
      </trkpt>
      <trkpt lat="42.4976" lon="2.41668">
        <ele>1753.817</ele>
        <time>2019-11-01T20:14:09Z</time>
      </trkpt>
      <trkpt lat="42.49738" lon="2.41607">
        <ele>1744.208</ele>
        <time>2019-11-01T20:14:29Z</time>
      </trkpt>
      <trkpt lat="42.49642" lon="2.4153">
        <ele>1739.467</ele>
        <time>2019-11-01T20:14:49Z</time>
      </trkpt>
      <trkpt lat="42.49636" lon="2.41495">
        <ele>1728.393</ele>
        <time>2019-11-01T20:15:09Z</time>
      </trkpt>
      <trkpt lat="42.49597" lon="2.41457">
        <ele>1730.728</ele>
        <time>2019-11-01T20:15:29Z</time>
      </trkpt>
      <trkpt lat="42.49585" lon="2.41363">
        <ele>1715.571</ele>
        <time>2019-11-01T20:15:49Z</time>
      </trkpt>
      <trkpt lat="42.49564" lon="2.41312">
        <ele>1715.447</ele>
        <time>2019-11-01T20:16:09Z</time>
      </trkpt>
      <trkpt lat="42.49561" lon="2.41237">
        <ele>1703.979</ele>
        <time>2019-11-01T20:16:29Z</time>
      </trkpt>
      <trkpt lat="42.49536" lon="2.41168">
        <ele>1694.365</ele>
        <time>2019-11-01T20:16:49Z</time>
      </trkpt>
      <trkpt lat="42.495" lon="2.41166">
        <ele>1695.654</ele>
        <time>2019-11-01T20:17:09Z</time>
      </trkpt>
      <trkpt lat="42.49458" lon="2.41169">
        <ele>1696.019</ele>
        <time>2019-11-01T20:17:29Z</time>
      </trkpt>
      <trkpt lat="42.4945" lon="2.41121">
        <ele>1695.509</ele>
        <time>2019-11-01T20:17:49Z</time>
      </trkpt>
      <trkpt lat="42.49494" lon="2.41114">
        <ele>1684.719</ele>
        <time>2019-11-01T20:18:09Z</time>
      </trkpt>
      <trkpt lat="42.49519" lon="2.41077">
        <ele>1692.108</ele>
        <time>2019-11-01T20:18:29Z</time>
      </trkpt>
      <trkpt lat="42.49582" lon="2.41065">
        <ele>1691.027</ele>
        <time>2019-11-01T20:18:49Z</time>
      </trkpt>
      <trkpt lat="42.49635" lon="2.41089">
        <ele>1690.283</ele>
        <time>2019-11-01T20:19:09Z</time>
      </trkpt>
      <trkpt lat="42.49701" lon="2.41133">
        <ele>1697.088</ele>
        <time>2019-11-01T20:19:29Z</time>
      </trkpt>
      <trkpt lat="42.49722" lon="2.41156">
        <ele>1696.421</ele>
        <time>2019-11-01T20:19:49Z</time>
      </trkpt>
      <trkpt lat="42.49818" lon="2.40985">
        <ele>1708.127</ele>
        <time>2019-11-01T20:20:09Z</time>
      </trkpt>
      <trkpt lat="42.4987" lon="2.40936">
        <ele>1709.089</ele>
        <time>2019-11-01T20:20:29Z</time>
      </trkpt>
      <trkpt lat="42.49918" lon="2.40917">
        <ele>1711.975</ele>
        <time>2019-11-01T20:20:49Z</time>
      </trkpt>
      <trkpt lat="42.49991" lon="2.40898">
        <ele>1711.964</ele>
        <time>2019-11-01T20:21:09Z</time>
      </trkpt>
      <trkpt lat="42.50015" lon="2.40864">
        <ele>1718.054</ele>
        <time>2019-11-01T20:21:29Z</time>
      </trkpt>
      <trkpt lat="42.5003" lon="2.40864">
        <ele>1717.056</ele>
        <time>2019-11-01T20:21:49Z</time>
      </trkpt>
      <trkpt lat="42.50026" lon="2.4068">
        <ele>1699.411</ele>
        <time>2019-11-01T20:22:09Z</time>
      </trkpt>
      <trkpt lat="42.50049" lon="2.40723">
        <ele>1694.608</ele>
        <time>2019-11-01T20:22:29Z</time>
      </trkpt>
      <trkpt lat="42.50084" lon="2.40484">
        <ele>1649.421</ele>
        <time>2019-11-01T20:22:49Z</time>
      </trkpt>
      <trkpt lat="42.50053" lon="2.40434">
        <ele>1642.347</ele>
        <time>2019-11-01T20:23:09Z</time>
      </trkpt>
      <trkpt lat="42.4999" lon="2.40378">
        <ele>1628.722</ele>
        <time>2019-11-01T20:23:29Z</time>
      </trkpt>
      <trkpt lat="42.50023" lon="2.40329">
        <ele>1618.295</ele>
        <time>2019-11-01T20:23:49Z</time>
      </trkpt>
      <trkpt lat="42.50107" lon="2.403">
        <ele>1600.821</ele>
        <time>2019-11-01T20:24:09Z</time>
      </trkpt>
      <trkpt lat="42.50183" lon="2.40232">
        <ele>1593.143</ele>
        <time>2019-11-01T20:24:29Z</time>
      </trkpt>
      <trkpt lat="42.50207" lon="2.40179">
        <ele>1596.569</ele>
        <time>2019-11-01T20:24:49Z</time>
      </trkpt>
      <trkpt lat="42.50272" lon="2.40143">
        <ele>1584.358</ele>
        <time>2019-11-01T20:25:09Z</time>
      </trkpt>
      <trkpt lat="42.50296" lon="2.40089">
        <ele>1582.677</ele>
        <time>2019-11-01T20:25:29Z</time>
      </trkpt>
      <trkpt lat="42.50341" lon="2.4004">
        <ele>1569.161</ele>
        <time>2019-11-01T20:25:49Z</time>
      </trkpt>
      <trkpt lat="42.50365" lon="2.40016">
        <ele>1562.427</ele>
        <time>2019-11-01T20:26:09Z</time>
      </trkpt>
      <trkpt lat="42.5038" lon="2.3996">
        <ele>1556.508</ele>
        <time>2019-11-01T20:26:29Z</time>
      </trkpt>
      <trkpt lat="42.50366" lon="2.39857">
        <ele>1546.153</ele>
        <time>2019-11-01T20:26:49Z</time>
      </trkpt>
      <trkpt lat="42.50342" lon="2.3981">
        <ele>1542.329</ele>
        <time>2019-11-01T20:27:09Z</time>
      </trkpt>
      <trkpt lat="42.50311" lon="2.39798">
        <ele>1541.824</ele>
        <time>2019-11-01T20:27:29Z</time>
      </trkpt>
      <trkpt lat="42.50281" lon="2.39772">
        <ele>1539.837</ele>
        <time>2019-11-01T20:27:49Z</time>
      </trkpt>
      <trkpt lat="42.50332" lon="2.39728">
        <ele>1526.663</ele>
        <time>2019-11-01T20:28:09Z</time>
      </trkpt>
      <trkpt lat="42.504" lon="2.39691">
        <ele>1518.835</ele>
        <time>2019-11-01T20:28:29Z</time>
      </trkpt>
      <trkpt lat="42.50443" lon="2.39648">
        <ele>1522.121</ele>
        <time>2019-11-01T20:28:49Z</time>
      </trkpt>
      <trkpt lat="42.50514" lon="2.39617">
        <ele>1516.81</ele>
        <time>2019-11-01T20:29:09Z</time>
      </trkpt>
      <trkpt lat="42.50528" lon="2.39654">
        <ele>1509.132</ele>
        <time>2019-11-01T20:29:29Z</time>
      </trkpt>
      <trkpt lat="42.50544" lon="2.39629">
        <ele>1509.692</ele>
        <time>2019-11-01T20:29:49Z</time>
      </trkpt>
      <trkpt lat="42.5061" lon="2.39682">
        <ele>1478.611</ele>
        <time>2019-11-01T20:30:09Z</time>
      </trkpt>
      <trkpt lat="42.50583" lon="2.39553">
        <ele>1475.308</ele>
        <time>2019-11-01T20:30:29Z</time>
      </trkpt>
      <trkpt lat="42.50697" lon="2.39569">
        <ele>1473.469</ele>
        <time>2019-11-01T20:30:49Z</time>
      </trkpt>
      <trkpt lat="42.50831" lon="2.39559">
        <ele>1461.025</ele>
        <time>2019-11-01T20:31:09Z</time>
      </trkpt>
      <trkpt lat="42.50886" lon="2.39541">
        <ele>1448.41</ele>
        <time>2019-11-01T20:31:29Z</time>
      </trkpt>
      <trkpt lat="42.5097" lon="2.39379">
        <ele>1454.083</ele>
        <time>2019-11-01T20:31:49Z</time>
      </trkpt>
      <trkpt lat="42.51109" lon="2.39341">
        <ele>1436.749</ele>
        <time>2019-11-01T20:32:09Z</time>
      </trkpt>
      <trkpt lat="42.51096" lon="2.39327">
        <ele>1434.561</ele>
        <time>2019-11-01T20:32:29Z</time>
      </trkpt>
      <trkpt lat="42.51118" lon="2.39308">
        <ele>1423.127</ele>
        <time>2019-11-01T20:32:49Z</time>
      </trkpt>
      <trkpt lat="42.51168" lon="2.39323">
        <ele>1411.946</ele>
        <time>2019-11-01T20:33:09Z</time>
      </trkpt>
      <trkpt lat="42.51179" lon="2.39309">
        <ele>1415.349</ele>
        <time>2019-11-01T20:33:29Z</time>
      </trkpt>
      <trkpt lat="42.51161" lon="2.39248">
        <ele>1386.702</ele>
        <time>2019-11-01T20:33:49Z</time>
      </trkpt>
      <trkpt lat="42.51094" lon="2.39228">
        <ele>1382.722</ele>
        <time>2019-11-01T20:34:09Z</time>
      </trkpt>
      <trkpt lat="42.51091" lon="2.39216">
        <ele>1375.008</ele>
        <time>2019-11-01T20:34:29Z</time>
      </trkpt>
      <trkpt lat="42.51129" lon="2.39194">
        <ele>1356.17</ele>
        <time>2019-11-01T20:34:49Z</time>
      </trkpt>
      <trkpt lat="42.511" lon="2.39163">
        <ele>1342.856</ele>
        <time>2019-11-01T20:35:09Z</time>
      </trkpt>
      <trkpt lat="42.51088" lon="2.39134">
        <ele>1327.911</ele>
        <time>2019-11-01T20:35:29Z</time>
      </trkpt>
      <trkpt lat="42.51118" lon="2.39126">
        <ele>1317.564</ele>
        <time>2019-11-01T20:35:49Z</time>
      </trkpt>
      <trkpt lat="42.51166" lon="2.39088">
        <ele>1292.31</ele>
        <time>2019-11-01T20:36:09Z</time>
      </trkpt>
      <trkpt lat="42.51139" lon="2.39074">
        <ele>1290.612</ele>
        <time>2019-11-01T20:36:29Z</time>
      </trkpt>
      <trkpt lat="42.51152" lon="2.39041">
        <ele>1287.068</ele>
        <time>2019-11-01T20:36:49Z</time>
      </trkpt>
      <trkpt lat="42.51157" lon="2.3901">
        <ele>1287.537</ele>
        <time>2019-11-01T20:37:09Z</time>
      </trkpt>
      <trkpt lat="42.51176" lon="2.38969">
        <ele>1283.696</ele>
        <time>2019-11-01T20:37:29Z</time>
      </trkpt>
      <trkpt lat="42.51251" lon="2.38894">
        <ele>1257.331</ele>
        <time>2019-11-01T20:37:49Z</time>
      </trkpt>
      <trkpt lat="42.51278" lon="2.38832">
        <ele>1254.224</ele>
        <time>2019-11-01T20:38:09Z</time>
      </trkpt>
      <trkpt lat="42.51317" lon="2.38811">
        <ele>1243.108</ele>
        <time>2019-11-01T20:38:29Z</time>
      </trkpt>
      <trkpt lat="42.51399" lon="2.38723">
        <ele>1223.795</ele>
        <time>2019-11-01T20:38:49Z</time>
      </trkpt>
      <trkpt lat="42.51427" lon="2.38696">
        <ele>1228.431</ele>
        <time>2019-11-01T20:39:09Z</time>
      </trkpt>
      <trkpt lat="42.51463" lon="2.38691">
        <ele>1221.626</ele>
        <time>2019-11-01T20:39:29Z</time>
      </trkpt>
      <trkpt lat="42.51493" lon="2.38676">
        <ele>1216.379</ele>
        <time>2019-11-01T20:39:49Z</time>
      </trkpt>
      <trkpt lat="42.51528" lon="2.38689">
        <ele>1210.055</ele>
        <time>2019-11-01T20:40:09Z</time>
      </trkpt>
      <trkpt lat="42.5154" lon="2.38676">
        <ele>1206.227</ele>
        <time>2019-11-01T20:40:29Z</time>
      </trkpt>
      <trkpt lat="42.51543" lon="2.38647">
        <ele>1200.493</ele>
        <time>2019-11-01T20:40:49Z</time>
      </trkpt>
      <trkpt lat="42.51518" lon="2.38621">
        <ele>1199.832</ele>
        <time>2019-11-01T20:41:09Z</time>
      </trkpt>
      <trkpt lat="42.51508" lon="2.3854">
        <ele>1184.237</ele>
        <time>2019-11-01T20:41:29Z</time>
      </trkpt>
      <trkpt lat="42.51484" lon="2.3844">
        <ele>1168.549</ele>
        <time>2019-11-01T20:41:49Z</time>
      </trkpt>
      <trkpt lat="42.51453" lon="2.38366">
        <ele>1159.913</ele>
        <time>2019-11-01T20:42:09Z</time>
      </trkpt>
      <trkpt lat="42.51469" lon="2.38167">
        <ele>1132.608</ele>
        <time>2019-11-01T20:42:29Z</time>
      </trkpt>
      <trkpt lat="42.51469" lon="2.38128">
        <ele>1128.929</ele>
        <time>2019-11-01T20:42:49Z</time>
      </trkpt>
      <trkpt lat="42.51497" lon="2.38109">
        <ele>1123.225</ele>
        <time>2019-11-01T20:43:09Z</time>
      </trkpt>
      <trkpt lat="42.51495" lon="2.38071">
        <ele>1119.49</ele>
        <time>2019-11-01T20:43:29Z</time>
      </trkpt>
      <trkpt lat="42.51503" lon="2.38017">
        <ele>1110.943</ele>
        <time>2019-11-01T20:43:49Z</time>
      </trkpt>
      <trkpt lat="42.5146" lon="2.38039">
        <ele>1102.699</ele>
        <time>2019-11-01T20:44:09Z</time>
      </trkpt>
      <trkpt lat="42.51401" lon="2.37969">
        <ele>1100.251</ele>
        <time>2020-12-28T08:14:35Z</time>
      </trkpt>
      <trkpt lat="42.51341" lon="2.37778">
        <ele>1044.037</ele>
        <time>2020-12-28T08:14:55Z</time>
      </trkpt>
      <trkpt lat="42.5131" lon="2.37754">
        <ele>1037.336</ele>
        <time>2020-12-28T08:15:15Z</time>
      </trkpt>
      <trkpt lat="42.51237" lon="2.37772">
        <ele>1049.252</ele>
        <time>2020-12-28T08:15:35Z</time>
      </trkpt>
      <trkpt lat="42.51208" lon="2.37807">
        <ele>1065.553</ele>
        <time>2020-12-28T08:15:55Z</time>
      </trkpt>
      <trkpt lat="42.51191" lon="2.37769">
        <ele>1049.208</ele>
        <time>2020-12-28T08:16:15Z</time>
      </trkpt>
      <trkpt lat="42.51132" lon="2.37746">
        <ele>1050.608</ele>
        <time>2020-12-28T08:16:35Z</time>
      </trkpt>
      <trkpt lat="42.51124" lon="2.37717">
        <ele>1053.071</ele>
        <time>2020-12-28T08:16:55Z</time>
      </trkpt>
      <trkpt lat="42.51175" lon="2.37634">
        <ele>1032.417</ele>
        <time>2020-12-28T08:17:15Z</time>
      </trkpt>
      <trkpt lat="42.51184" lon="2.37557">
        <ele>1038.842</ele>
        <time>2020-12-28T08:17:35Z</time>
      </trkpt>
      <trkpt lat="42.51162" lon="2.37492">
        <ele>1059.215</ele>
        <time>2020-12-28T08:17:55Z</time>
      </trkpt>
      <trkpt lat="42.51281" lon="2.37445">
        <ele>1046.011</ele>
        <time>2020-12-28T08:18:15Z</time>
      </trkpt>
      <trkpt lat="42.51343" lon="2.37391">
        <ele>1045.813</ele>
        <time>2019-11-01T20:49:29Z</time>
      </trkpt>
      <trkpt lat="42.51365" lon="2.37296">
        <ele>1055.149</ele>
        <time>2019-11-01T20:49:49Z</time>
      </trkpt>
      <trkpt lat="42.5141" lon="2.37235">
        <ele>1057.628</ele>
        <time>2019-11-01T20:50:09Z</time>
      </trkpt>
      <trkpt lat="42.51461" lon="2.37146">
        <ele>1058.257</ele>
        <time>2019-11-01T20:50:29Z</time>
      </trkpt>
      <trkpt lat="42.51404" lon="2.37108">
        <ele>1057.9</ele>
        <time>2019-11-01T20:50:49Z</time>
      </trkpt>
      <trkpt lat="42.51351" lon="2.37033">
        <ele>1043.02</ele>
        <time>2019-11-01T20:51:09Z</time>
      </trkpt>
      <trkpt lat="42.51268" lon="2.37035">
        <ele>1058.008</ele>
        <time>2019-11-01T20:51:29Z</time>
      </trkpt>
      <trkpt lat="42.51238" lon="2.36975">
        <ele>1044.641</ele>
        <time>2019-11-01T20:51:49Z</time>
      </trkpt>
      <trkpt lat="42.5115" lon="2.36936">
        <ele>1050.497</ele>
        <time>2019-11-01T20:52:09Z</time>
      </trkpt>
      <trkpt lat="42.51123" lon="2.36894">
        <ele>1052.762</ele>
        <time>2019-11-01T20:52:29Z</time>
      </trkpt>
      <trkpt lat="42.51124" lon="2.36768">
        <ele>1037.935</ele>
        <time>2019-11-01T20:52:49Z</time>
      </trkpt>
      <trkpt lat="42.51063" lon="2.3674">
        <ele>1037.461</ele>
        <time>2019-11-01T20:53:09Z</time>
      </trkpt>
      <trkpt lat="42.5104" lon="2.36706">
        <ele>1037.123</ele>
        <time>2019-11-01T20:53:29Z</time>
      </trkpt>
      <trkpt lat="42.51024" lon="2.36636">
        <ele>1035.159</ele>
        <time>2019-11-01T20:53:49Z</time>
      </trkpt>
      <trkpt lat="42.51017" lon="2.36563">
        <ele>1032.048</ele>
        <time>2019-11-01T20:54:09Z</time>
      </trkpt>
      <trkpt lat="42.50976" lon="2.36505">
        <ele>1033.819</ele>
        <time>2019-11-01T20:54:29Z</time>
      </trkpt>
      <trkpt lat="42.50937" lon="2.36502">
        <ele>1041.309</ele>
        <time>2019-11-01T20:54:49Z</time>
      </trkpt>
      <trkpt lat="42.50905" lon="2.36478">
        <ele>1042.619</ele>
        <time>2019-11-01T20:55:09Z</time>
      </trkpt>
      <trkpt lat="42.50896" lon="2.36459">
        <ele>1036.808</ele>
        <time>2019-11-01T20:55:29Z</time>
      </trkpt>
      <trkpt lat="42.50863" lon="2.36445">
        <ele>1037.197</ele>
        <time>2019-11-01T20:55:49Z</time>
      </trkpt>
      <trkpt lat="42.50843" lon="2.36412">
        <ele>1030.983</ele>
        <time>2019-11-01T20:56:09Z</time>
      </trkpt>
      <trkpt lat="42.50822" lon="2.36323">
        <ele>1024.868</ele>
        <time>2019-11-01T20:56:29Z</time>
      </trkpt>
      <trkpt lat="42.5078" lon="2.36277">
        <ele>1024.841</ele>
        <time>2019-11-01T20:56:49Z</time>
      </trkpt>
      <trkpt lat="42.50765" lon="2.36218">
        <ele>1001.987</ele>
        <time>2019-11-01T20:57:09Z</time>
      </trkpt>
      <trkpt lat="42.50718" lon="2.36163">
        <ele>994.199</ele>
        <time>2019-11-01T20:57:29Z</time>
      </trkpt>
      <trkpt lat="42.50697" lon="2.36102">
        <ele>986.325</ele>
        <time>2019-11-01T20:57:49Z</time>
      </trkpt>
      <trkpt lat="42.50684" lon="2.36041">
        <ele>979.124</ele>
        <time>2019-11-01T20:58:09Z</time>
      </trkpt>
      <trkpt lat="42.5066" lon="2.36034">
        <ele>981.097</ele>
        <time>2019-11-01T20:58:29Z</time>
      </trkpt>
      <trkpt lat="42.50636" lon="2.36048">
        <ele>974.023</ele>
        <time>2019-11-01T20:58:49Z</time>
      </trkpt>
      <trkpt lat="42.50617" lon="2.36066">
        <ele>973.825</ele>
        <time>2019-11-01T20:59:09Z</time>
      </trkpt>
      <trkpt lat="42.50525" lon="2.36069">
        <ele>957.908</ele>
        <time>2019-11-01T20:59:29Z</time>
      </trkpt>
      <trkpt lat="42.50457" lon="2.36068">
        <ele>957.845</ele>
        <time>2019-11-01T20:59:49Z</time>
      </trkpt>
      <trkpt lat="42.50422" lon="2.36063">
        <ele>953.411</ele>
        <time>2019-11-01T21:00:09Z</time>
      </trkpt>
      <trkpt lat="42.50397" lon="2.36087">
        <ele>952.646</ele>
        <time>2019-11-01T21:00:29Z</time>
      </trkpt>
      <trkpt lat="42.50401" lon="2.36126">
        <ele>955.279</ele>
        <time>2019-11-01T21:00:49Z</time>
      </trkpt>
      <trkpt lat="42.50387" lon="2.36179">
        <ele>949.175</ele>
        <time>2019-11-01T21:01:09Z</time>
      </trkpt>
      <trkpt lat="42.50351" lon="2.36185">
        <ele>942.797</ele>
        <time>2019-11-01T21:01:29Z</time>
      </trkpt>
      <trkpt lat="42.50336" lon="2.3617">
        <ele>942.813</ele>
        <time>2019-11-01T21:01:49Z</time>
      </trkpt>
      <trkpt lat="42.50329" lon="2.36113">
        <ele>939.272</ele>
        <time>2019-11-01T21:02:09Z</time>
      </trkpt>
      <trkpt lat="42.50306" lon="2.36056">
        <ele>941.145</ele>
        <time>2019-11-01T21:02:29Z</time>
      </trkpt>
      <trkpt lat="42.50279" lon="2.36045">
        <ele>941.447</ele>
        <time>2019-11-01T21:02:49Z</time>
      </trkpt>
      <trkpt lat="42.50231" lon="2.36053">
        <ele>941.511</ele>
        <time>2019-11-01T21:03:09Z</time>
      </trkpt>
      <trkpt lat="42.50188" lon="2.36017">
        <ele>924.608</ele>
        <time>2019-11-01T21:03:29Z</time>
      </trkpt>
      <trkpt lat="42.50137" lon="2.36011">
        <ele>930.65</ele>
        <time>2019-11-01T21:03:49Z</time>
      </trkpt>
      <trkpt lat="42.501" lon="2.36011">
        <ele>933.156</ele>
        <time>2019-11-01T21:04:09Z</time>
      </trkpt>
      <trkpt lat="42.50017" lon="2.3597">
        <ele>941.271</ele>
        <time>2019-11-01T21:04:29Z</time>
      </trkpt>
      <trkpt lat="42.49992" lon="2.3593">
        <ele>943.164</ele>
        <time>2019-11-01T21:04:49Z</time>
      </trkpt>
      <trkpt lat="42.49947" lon="2.35845">
        <ele>933.43</ele>
        <time>2019-11-01T21:05:09Z</time>
      </trkpt>
      <trkpt lat="42.49918" lon="2.3584">
        <ele>936.812</ele>
        <time>2019-11-01T21:05:29Z</time>
      </trkpt>
      <trkpt lat="42.49904" lon="2.35821">
        <ele>937.668</ele>
        <time>2019-11-01T21:05:49Z</time>
      </trkpt>
      <trkpt lat="42.49884" lon="2.35804">
        <ele>939.097</ele>
        <time>2019-11-01T21:06:09Z</time>
      </trkpt>
      <trkpt lat="42.49885" lon="2.3576">
        <ele>940.531</ele>
        <time>2019-11-01T21:06:29Z</time>
      </trkpt>
      <trkpt lat="42.49751" lon="2.35611">
        <ele>962.361</ele>
        <time>2019-11-01T21:06:49Z</time>
      </trkpt>
      <trkpt lat="42.49721" lon="2.35593">
        <ele>960.707</ele>
        <time>2019-11-01T21:07:09Z</time>
      </trkpt>
      <trkpt lat="42.49599" lon="2.35386">
        <ele>985.408</ele>
        <time>2019-11-01T21:08:49Z</time>
      </trkpt>
      <trkpt lat="42.4957" lon="2.353">
        <ele>996.259</ele>
        <time>2019-11-01T21:09:09Z</time>
      </trkpt>
      <trkpt lat="42.49572" lon="2.35255">
        <ele>1002.245</ele>
        <time>2019-11-01T21:09:29Z</time>
      </trkpt>
      <trkpt lat="42.49561" lon="2.3509">
        <ele>1025.04</ele>
        <time>2019-11-01T21:09:49Z</time>
      </trkpt>
      <trkpt lat="42.49533" lon="2.35061">
        <ele>1022.653</ele>
        <time>2019-11-01T21:10:09Z</time>
      </trkpt>
      <trkpt lat="42.49474" lon="2.34921">
        <ele>1040.569</ele>
        <time>2019-11-01T21:10:29Z</time>
      </trkpt>
      <trkpt lat="42.49492" lon="2.34918">
        <ele>1043.661</ele>
        <time>2019-11-01T21:10:49Z</time>
      </trkpt>
      <trkpt lat="42.49479" lon="2.3484">
        <ele>1053.887</ele>
        <time>2019-11-01T21:11:09Z</time>
      </trkpt>
      <trkpt lat="42.49467" lon="2.34825">
        <ele>1055.856</ele>
        <time>2019-11-01T21:11:29Z</time>
      </trkpt>
      <trkpt lat="42.49473" lon="2.34788">
        <ele>1063.899</ele>
        <time>2019-11-01T21:11:49Z</time>
      </trkpt>
      <trkpt lat="42.49431" lon="2.3472">
        <ele>1076.407</ele>
        <time>2019-11-01T21:12:09Z</time>
      </trkpt>
      <trkpt lat="42.49396" lon="2.34624">
        <ele>1090.627</ele>
        <time>2019-11-01T21:12:29Z</time>
      </trkpt>
      <trkpt lat="42.49316" lon="2.34364">
        <ele>1135.108</ele>
        <time>2019-11-01T21:12:49Z</time>
      </trkpt>
      <trkpt lat="42.49312" lon="2.34292">
        <ele>1146.985</ele>
        <time>2019-11-01T21:13:09Z</time>
      </trkpt>
      <trkpt lat="42.49302" lon="2.34238">
        <ele>1157.121</ele>
        <time>2019-11-01T21:13:29Z</time>
      </trkpt>
      <trkpt lat="42.4931" lon="2.34191">
        <ele>1169.836</ele>
        <time>2019-11-01T21:13:49Z</time>
      </trkpt>
      <trkpt lat="42.49263" lon="2.34201">
        <ele>1182.659</ele>
        <time>2019-11-01T21:14:09Z</time>
      </trkpt>
      <trkpt lat="42.49257" lon="2.34177">
        <ele>1191.615</ele>
        <time>2019-11-01T21:14:29Z</time>
      </trkpt>
      <trkpt lat="42.4925" lon="2.34185">
        <ele>1192.877</ele>
        <time>2019-11-01T21:14:49Z</time>
      </trkpt>
      <trkpt lat="42.4925" lon="2.34149">
        <ele>1203.583</ele>
        <time>2019-11-01T21:15:09Z</time>
      </trkpt>
      <trkpt lat="42.4924" lon="2.34133">
        <ele>1213.642</ele>
        <time>2019-11-01T21:15:29Z</time>
      </trkpt>
      <trkpt lat="42.49189" lon="2.34218">
        <ele>1220.871</ele>
        <time>2019-11-01T21:15:49Z</time>
      </trkpt>
      <trkpt lat="42.49178" lon="2.34208">
        <ele>1222.441</ele>
        <time>2019-11-01T21:16:09Z</time>
      </trkpt>
      <trkpt lat="42.49181" lon="2.34186">
        <ele>1226.615</ele>
        <time>2019-11-01T21:16:29Z</time>
      </trkpt>
      <trkpt lat="42.49168" lon="2.34183">
        <ele>1225.508</ele>
        <time>2019-11-01T21:16:49Z</time>
      </trkpt>
      <trkpt lat="42.49168" lon="2.34144">
        <ele>1229.893</ele>
        <time>2019-11-01T21:17:09Z</time>
      </trkpt>
      <trkpt lat="42.49175" lon="2.34118">
        <ele>1236.459</ele>
        <time>2019-11-01T21:17:29Z</time>
      </trkpt>
      <trkpt lat="42.4917" lon="2.34103">
        <ele>1239.224</ele>
        <time>2019-11-01T21:17:49Z</time>
      </trkpt>
      <trkpt lat="42.49174" lon="2.3408">
        <ele>1247.627</ele>
        <time>2019-11-01T21:18:09Z</time>
      </trkpt>
      <trkpt lat="42.49141" lon="2.33961">
        <ele>1251.273</ele>
        <time>2019-11-01T21:18:29Z</time>
      </trkpt>
      <trkpt lat="42.49166" lon="2.33929">
        <ele>1265.485</ele>
        <time>2019-11-01T21:18:49Z</time>
      </trkpt>
      <trkpt lat="42.49166" lon="2.33799">
        <ele>1280.671</ele>
        <time>2019-11-01T21:19:09Z</time>
      </trkpt>
      <trkpt lat="42.49155" lon="2.3369">
        <ele>1291.03</ele>
        <time>2019-11-01T21:19:29Z</time>
      </trkpt>
      <trkpt lat="42.49158" lon="2.33627">
        <ele>1306.021</ele>
        <time>2019-11-01T21:19:49Z</time>
      </trkpt>
      <trkpt lat="42.49145" lon="2.33578">
        <ele>1305.941</ele>
        <time>2019-11-01T21:20:09Z</time>
      </trkpt>
      <trkpt lat="42.49148" lon="2.33541">
        <ele>1313.805</ele>
        <time>2019-11-01T21:20:29Z</time>
      </trkpt>
      <trkpt lat="42.49133" lon="2.33494">
        <ele>1314.208</ele>
        <time>2019-11-01T21:20:49Z</time>
      </trkpt>
      <trkpt lat="42.49136" lon="2.33422">
        <ele>1325.318</ele>
        <time>2019-11-01T21:21:09Z</time>
      </trkpt>
      <trkpt lat="42.49127" lon="2.33363">
        <ele>1326.384</ele>
        <time>2019-11-01T21:21:29Z</time>
      </trkpt>
      <trkpt lat="42.49135" lon="2.33328">
        <ele>1334.999</ele>
        <time>2019-11-01T21:21:49Z</time>
      </trkpt>
      <trkpt lat="42.49084" lon="2.33309">
        <ele>1335.122</ele>
        <time>2019-11-01T21:22:09Z</time>
      </trkpt>
      <trkpt lat="42.49052" lon="2.33278">
        <ele>1341.448</ele>
        <time>2019-11-01T21:22:29Z</time>
      </trkpt>
      <trkpt lat="42.4901" lon="2.33217">
        <ele>1352.99</ele>
        <time>2019-11-01T21:22:49Z</time>
      </trkpt>
      <trkpt lat="42.48966" lon="2.33169">
        <ele>1356.146</ele>
        <time>2019-11-01T21:23:09Z</time>
      </trkpt>
      <trkpt lat="42.48953" lon="2.33124">
        <ele>1371.175</ele>
        <time>2019-11-01T21:23:29Z</time>
      </trkpt>
      <trkpt lat="42.48921" lon="2.33128">
        <ele>1367.084</ele>
        <time>2019-11-01T21:23:49Z</time>
      </trkpt>
      <trkpt lat="42.48901" lon="2.33109">
        <ele>1373.307</ele>
        <time>2019-11-01T21:24:09Z</time>
      </trkpt>
      <trkpt lat="42.48905" lon="2.3309">
        <ele>1380.617</ele>
        <time>2019-11-01T21:24:29Z</time>
      </trkpt>
      <trkpt lat="42.48886" lon="2.33072">
        <ele>1380.908</ele>
        <time>2019-11-01T21:24:49Z</time>
      </trkpt>
      <trkpt lat="42.48885" lon="2.3305">
        <ele>1383.494</ele>
        <time>2019-11-01T21:25:09Z</time>
      </trkpt>
      <trkpt lat="42.48896" lon="2.33011">
        <ele>1392.59</ele>
        <time>2019-11-01T21:25:29Z</time>
      </trkpt>
      <trkpt lat="42.48888" lon="2.32949">
        <ele>1393.165</ele>
        <time>2019-11-01T21:25:49Z</time>
      </trkpt>
      <trkpt lat="42.48867" lon="2.32838">
        <ele>1391.898</ele>
        <time>2019-11-01T21:26:09Z</time>
      </trkpt>
      <trkpt lat="42.48875" lon="2.32803">
        <ele>1397.294</ele>
        <time>2019-11-01T21:26:29Z</time>
      </trkpt>
      <trkpt lat="42.48871" lon="2.32754">
        <ele>1397.616</ele>
        <time>2019-11-01T21:26:49Z</time>
      </trkpt>
      <trkpt lat="42.48833" lon="2.32675">
        <ele>1393.442</ele>
        <time>2019-11-01T21:27:09Z</time>
      </trkpt>
      <trkpt lat="42.48822" lon="2.32634">
        <ele>1403.351</ele>
        <time>2019-11-01T21:27:29Z</time>
      </trkpt>
      <trkpt lat="42.48788" lon="2.32588">
        <ele>1407.134</ele>
        <time>2019-11-01T21:27:49Z</time>
      </trkpt>
      <trkpt lat="42.4876" lon="2.32522">
        <ele>1421.155</ele>
        <time>2019-11-01T21:28:09Z</time>
      </trkpt>
      <trkpt lat="42.48734" lon="2.32515">
        <ele>1421.61</ele>
        <time>2019-11-01T21:28:29Z</time>
      </trkpt>
      <trkpt lat="42.48713" lon="2.3247">
        <ele>1428.008</ele>
        <time>2019-11-01T21:28:49Z</time>
      </trkpt>
      <trkpt lat="42.48708" lon="2.32425">
        <ele>1435.029</ele>
        <time>2019-11-01T21:29:09Z</time>
      </trkpt>
      <trkpt lat="42.48711" lon="2.32371">
        <ele>1447.175</ele>
        <time>2019-11-01T21:29:29Z</time>
      </trkpt>
      <trkpt lat="42.48697" lon="2.3236">
        <ele>1443.27</ele>
        <time>2019-11-01T21:29:49Z</time>
      </trkpt>
      <trkpt lat="42.48671" lon="2.32374">
        <ele>1445.973</ele>
        <time>2019-11-01T21:30:09Z</time>
      </trkpt>
      <trkpt lat="42.48629" lon="2.32333">
        <ele>1457.849</ele>
        <time>2019-11-01T21:30:29Z</time>
      </trkpt>
      <trkpt lat="42.48594" lon="2.32308">
        <ele>1461.891</ele>
        <time>2019-11-01T21:30:49Z</time>
      </trkpt>
      <trkpt lat="42.48556" lon="2.32318">
        <ele>1459.687</ele>
        <time>2019-11-01T21:31:09Z</time>
      </trkpt>
      <trkpt lat="42.4855" lon="2.32301">
        <ele>1462.936</ele>
        <time>2019-11-01T21:31:29Z</time>
      </trkpt>
      <trkpt lat="42.48562" lon="2.3228">
        <ele>1469.975</ele>
        <time>2019-11-01T21:31:49Z</time>
      </trkpt>
      <trkpt lat="42.48585" lon="2.32286">
        <ele>1472.228</ele>
        <time>2019-11-01T21:32:09Z</time>
      </trkpt>
      <trkpt lat="42.48635" lon="2.32281">
        <ele>1486.22</ele>
        <time>2019-11-01T21:32:29Z</time>
      </trkpt>
      <trkpt lat="42.48641" lon="2.32261">
        <ele>1495.508</ele>
        <time>2019-11-01T21:32:49Z</time>
      </trkpt>
      <trkpt lat="42.48623" lon="2.32237">
        <ele>1504.063</ele>
        <time>2019-11-01T21:33:09Z</time>
      </trkpt>
      <trkpt lat="42.486" lon="2.32231">
        <ele>1503.079</ele>
        <time>2019-11-01T21:33:29Z</time>
      </trkpt>
      <trkpt lat="42.48554" lon="2.32198">
        <ele>1508.774</ele>
        <time>2019-11-01T21:33:49Z</time>
      </trkpt>
      <trkpt lat="42.48514" lon="2.32135">
        <ele>1523.667</ele>
        <time>2019-11-01T21:34:09Z</time>
      </trkpt>
      <trkpt lat="42.48476" lon="2.32096">
        <ele>1528.793</ele>
        <time>2019-11-01T21:34:29Z</time>
      </trkpt>
      <trkpt lat="42.48438" lon="2.32064">
        <ele>1539.055</ele>
        <time>2019-11-01T21:34:49Z</time>
      </trkpt>
      <trkpt lat="42.48388" lon="2.32011">
        <ele>1556.371</ele>
        <time>2019-11-01T21:35:09Z</time>
      </trkpt>
      <trkpt lat="42.48372" lon="2.3197">
        <ele>1566.18</ele>
        <time>2019-11-01T21:35:29Z</time>
      </trkpt>
      <trkpt lat="42.48372" lon="2.31911">
        <ele>1582.213</ele>
        <time>2019-11-01T21:35:49Z</time>
      </trkpt>
      <trkpt lat="42.48357" lon="2.31847">
        <ele>1591.743</ele>
        <time>2019-11-01T21:36:09Z</time>
      </trkpt>
      <trkpt lat="42.4833" lon="2.31817">
        <ele>1590.407</ele>
        <time>2019-11-01T21:36:29Z</time>
      </trkpt>
      <trkpt lat="42.48325" lon="2.31752">
        <ele>1606.808</ele>
        <time>2019-11-01T21:36:49Z</time>
      </trkpt>
      <trkpt lat="42.48307" lon="2.31744">
        <ele>1604.717</ele>
        <time>2019-11-01T21:37:09Z</time>
      </trkpt>
      <trkpt lat="42.48308" lon="2.31712">
        <ele>1613.863</ele>
        <time>2019-11-01T21:37:29Z</time>
      </trkpt>
      <trkpt lat="42.4828" lon="2.31743">
        <ele>1617.648</ele>
        <time>2019-11-01T21:37:49Z</time>
      </trkpt>
      <trkpt lat="42.48263" lon="2.31739">
        <ele>1627.091</ele>
        <time>2019-11-01T21:38:09Z</time>
      </trkpt>
      <trkpt lat="42.4827" lon="2.31713">
        <ele>1628.967</ele>
        <time>2019-11-01T21:38:29Z</time>
      </trkpt>
      <trkpt lat="42.48262" lon="2.31703">
        <ele>1634.969</ele>
        <time>2019-11-01T21:38:49Z</time>
      </trkpt>
      <trkpt lat="42.48276" lon="2.31641">
        <ele>1643.325</ele>
        <time>2019-11-01T21:39:09Z</time>
      </trkpt>
      <trkpt lat="42.48265" lon="2.31631">
        <ele>1651.374</ele>
        <time>2019-11-01T21:39:29Z</time>
      </trkpt>
      <trkpt lat="42.48274" lon="2.31603">
        <ele>1658.033</ele>
        <time>2019-11-01T21:39:49Z</time>
      </trkpt>
      <trkpt lat="42.48247" lon="2.31594">
        <ele>1672.123</ele>
        <time>2019-11-01T21:40:09Z</time>
      </trkpt>
      <trkpt lat="42.48258" lon="2.31562">
        <ele>1679.815</ele>
        <time>2019-11-01T21:40:29Z</time>
      </trkpt>
      <trkpt lat="42.48232" lon="2.31574">
        <ele>1685.408</ele>
        <time>2019-11-01T21:40:49Z</time>
      </trkpt>
      <trkpt lat="42.48233" lon="2.31555">
        <ele>1691.199</ele>
        <time>2019-11-01T21:41:09Z</time>
      </trkpt>
      <trkpt lat="42.48209" lon="2.31572">
        <ele>1696.295</ele>
        <time>2019-11-01T21:41:29Z</time>
      </trkpt>
      <trkpt lat="42.48228" lon="2.31529">
        <ele>1702.79</ele>
        <time>2019-11-01T21:41:49Z</time>
      </trkpt>
      <trkpt lat="42.48203" lon="2.31538">
        <ele>1708.993</ele>
        <time>2019-11-01T21:42:09Z</time>
      </trkpt>
      <trkpt lat="42.48218" lon="2.31484">
        <ele>1721.569</ele>
        <time>2019-11-01T21:42:29Z</time>
      </trkpt>
      <trkpt lat="42.48186" lon="2.3149">
        <ele>1729.551</ele>
        <time>2019-11-01T21:42:49Z</time>
      </trkpt>
      <trkpt lat="42.48203" lon="2.31456">
        <ele>1735.057</ele>
        <time>2019-11-01T21:43:09Z</time>
      </trkpt>
      <trkpt lat="42.48199" lon="2.31444">
        <ele>1740.216</ele>
        <time>2019-11-01T21:43:29Z</time>
      </trkpt>
      <trkpt lat="42.48164" lon="2.31446">
        <ele>1748.239</ele>
        <time>2019-11-01T21:43:49Z</time>
      </trkpt>
      <trkpt lat="42.48113" lon="2.31379">
        <ele>1758.901</ele>
        <time>2019-11-01T21:44:09Z</time>
      </trkpt>
      <trkpt lat="42.48084" lon="2.31368">
        <ele>1754.221</ele>
        <time>2019-11-01T21:44:29Z</time>
      </trkpt>
      <trkpt lat="42.48084" lon="2.31312">
        <ele>1749.408</ele>
        <time>2019-11-01T21:44:49Z</time>
      </trkpt>
      <trkpt lat="42.4807" lon="2.31216">
        <ele>1739.019</ele>
        <time>2019-11-01T21:45:09Z</time>
      </trkpt>
      <trkpt lat="42.48031" lon="2.3126">
        <ele>1728.145</ele>
        <time>2019-11-01T21:45:29Z</time>
      </trkpt>
      <trkpt lat="42.48037" lon="2.31219">
        <ele>1723.24</ele>
        <time>2019-11-01T21:45:49Z</time>
      </trkpt>
      <trkpt lat="42.48023" lon="2.31116">
        <ele>1704.913</ele>
        <time>2019-11-01T21:46:09Z</time>
      </trkpt>
      <trkpt lat="42.47985" lon="2.3117">
        <ele>1696.559</ele>
        <time>2019-11-01T21:46:29Z</time>
      </trkpt>
      <trkpt lat="42.47978" lon="2.31157">
        <ele>1691.451</ele>
        <time>2019-11-01T21:46:49Z</time>
      </trkpt>
      <trkpt lat="42.47982" lon="2.31137">
        <ele>1688.677</ele>
        <time>2019-11-01T21:47:09Z</time>
      </trkpt>
      <trkpt lat="42.47978" lon="2.31129">
        <ele>1685.826</ele>
        <time>2019-11-01T21:47:29Z</time>
      </trkpt>
      <trkpt lat="42.4798" lon="2.31092">
        <ele>1682.935</ele>
        <time>2019-11-01T21:47:49Z</time>
      </trkpt>
      <trkpt lat="42.47959" lon="2.31125">
        <ele>1677.386</ele>
        <time>2019-11-01T21:48:09Z</time>
      </trkpt>
      <trkpt lat="42.47947" lon="2.31029">
        <ele>1663.314</ele>
        <time>2019-11-01T21:48:29Z</time>
      </trkpt>
      <trkpt lat="42.47916" lon="2.3107">
        <ele>1651.508</ele>
        <time>2019-11-01T21:48:49Z</time>
      </trkpt>
      <trkpt lat="42.47901" lon="2.31017">
        <ele>1639.439</ele>
        <time>2019-11-01T21:49:09Z</time>
      </trkpt>
      <trkpt lat="42.47901" lon="2.30994">
        <ele>1636.995</ele>
        <time>2019-11-01T21:49:29Z</time>
      </trkpt>
      <trkpt lat="42.47893" lon="2.30971">
        <ele>1631.08</ele>
        <time>2019-11-01T21:49:49Z</time>
      </trkpt>
      <trkpt lat="42.47882" lon="2.30897">
        <ele>1618.463</ele>
        <time>2019-11-01T21:50:09Z</time>
      </trkpt>
      <trkpt lat="42.47854" lon="2.30946">
        <ele>1609.929</ele>
        <time>2019-11-01T21:50:29Z</time>
      </trkpt>
      <trkpt lat="42.47834" lon="2.30841">
        <ele>1592.271</ele>
        <time>2019-11-01T21:50:49Z</time>
      </trkpt>
      <trkpt lat="42.47817" lon="2.30879">
        <ele>1588.537</ele>
        <time>2019-11-01T21:51:09Z</time>
      </trkpt>
      <trkpt lat="42.47829" lon="2.30818">
        <ele>1589.646</ele>
        <time>2020-12-28T09:19:15Z</time>
      </trkpt>
      <trkpt lat="42.47783" lon="2.30697">
        <ele>1566.261</ele>
        <time>2020-12-28T09:19:35Z</time>
      </trkpt>
      <trkpt lat="42.47774" lon="2.30649">
        <ele>1560.121</ele>
        <time>2020-12-28T09:19:55Z</time>
      </trkpt>
      <trkpt lat="42.47767" lon="2.30754">
        <ele>1562.013</ele>
        <time>2020-12-28T09:20:15Z</time>
      </trkpt>
      <trkpt lat="42.47749" lon="2.30767">
        <ele>1557.008</ele>
        <time>2020-12-28T09:20:35Z</time>
      </trkpt>
      <trkpt lat="42.47737" lon="2.30751">
        <ele>1550.832</ele>
        <time>2019-11-01T21:53:09Z</time>
      </trkpt>
      <trkpt lat="42.47729" lon="2.30709">
        <ele>1545.748</ele>
        <time>2019-11-01T21:53:29Z</time>
      </trkpt>
      <trkpt lat="42.47717" lon="2.30689">
        <ele>1540.733</ele>
        <time>2019-11-01T21:53:49Z</time>
      </trkpt>
      <trkpt lat="42.47716" lon="2.30666">
        <ele>1538.866</ele>
        <time>2019-11-01T21:54:09Z</time>
      </trkpt>
      <trkpt lat="42.47704" lon="2.30645">
        <ele>1533.522</ele>
        <time>2019-11-01T21:54:29Z</time>
      </trkpt>
      <trkpt lat="42.47692" lon="2.30639">
        <ele>1529.824</ele>
        <time>2019-11-01T21:54:49Z</time>
      </trkpt>
      <trkpt lat="42.47692" lon="2.30589">
        <ele>1526.53</ele>
        <time>2019-11-01T21:55:09Z</time>
      </trkpt>
      <trkpt lat="42.47678" lon="2.30546">
        <ele>1516.989</ele>
        <time>2019-11-01T21:55:29Z</time>
      </trkpt>
      <trkpt lat="42.47673" lon="2.30512">
        <ele>1510.678</ele>
        <time>2019-11-01T21:55:49Z</time>
      </trkpt>
      <trkpt lat="42.47673" lon="2.30476">
        <ele>1504.733</ele>
        <time>2019-11-01T21:56:09Z</time>
      </trkpt>
      <trkpt lat="42.47662" lon="2.30444">
        <ele>1496.526</ele>
        <time>2019-11-01T21:56:29Z</time>
      </trkpt>
      <trkpt lat="42.47656" lon="2.3043">
        <ele>1494.508</ele>
        <time>2019-11-01T21:56:49Z</time>
      </trkpt>
      <trkpt lat="42.47647" lon="2.30388">
        <ele>1489.083</ele>
        <time>2019-11-01T21:57:09Z</time>
      </trkpt>
      <trkpt lat="42.47652" lon="2.30375">
        <ele>1488.029</ele>
        <time>2019-11-01T21:57:29Z</time>
      </trkpt>
      <trkpt lat="42.47645" lon="2.30362">
        <ele>1484.664</ele>
        <time>2019-11-01T21:57:49Z</time>
      </trkpt>
      <trkpt lat="42.47661" lon="2.30307">
        <ele>1474.987</ele>
        <time>2019-11-01T21:58:09Z</time>
      </trkpt>
      <trkpt lat="42.47696" lon="2.30245">
        <ele>1460.543</ele>
        <time>2019-11-01T21:58:29Z</time>
      </trkpt>
      <trkpt lat="42.47684" lon="2.3024">
        <ele>1459.975</ele>
        <time>2019-11-01T21:58:49Z</time>
      </trkpt>
      <trkpt lat="42.47644" lon="2.30255">
        <ele>1463.741</ele>
        <time>2019-11-01T21:59:09Z</time>
      </trkpt>
      <trkpt lat="42.47615" lon="2.30278">
        <ele>1468.64</ele>
        <time>2019-11-01T21:59:29Z</time>
      </trkpt>
      <trkpt lat="42.47601" lon="2.303">
        <ele>1469.481</ele>
        <time>2019-11-01T21:59:49Z</time>
      </trkpt>
      <trkpt lat="42.47586" lon="2.30303">
        <ele>1469.961</ele>
        <time>2019-11-01T22:00:09Z</time>
      </trkpt>
      <trkpt lat="42.47457" lon="2.30133">
        <ele>1493.317</ele>
        <time>2019-11-01T22:00:29Z</time>
      </trkpt>
      <trkpt lat="42.47426" lon="2.30112">
        <ele>1495.808</ele>
        <time>2019-11-01T22:00:49Z</time>
      </trkpt>
      <trkpt lat="42.47407" lon="2.30107">
        <ele>1498.084</ele>
        <time>2019-11-01T22:01:09Z</time>
      </trkpt>
      <trkpt lat="42.4737" lon="2.30075">
        <ele>1501.33</ele>
        <time>2019-11-01T22:01:29Z</time>
      </trkpt>
      <trkpt lat="42.47375" lon="2.30062">
        <ele>1500.595</ele>
        <time>2019-11-01T22:01:49Z</time>
      </trkpt>
      <trkpt lat="42.47377" lon="2.30036">
        <ele>1503.128</ele>
        <time>2019-11-01T22:02:09Z</time>
      </trkpt>
      <trkpt lat="42.47358" lon="2.30006">
        <ele>1509.454</ele>
        <time>2019-11-01T22:02:29Z</time>
      </trkpt>
      <trkpt lat="42.47332" lon="2.29949">
        <ele>1521.046</ele>
        <time>2019-11-01T22:02:49Z</time>
      </trkpt>
      <trkpt lat="42.47315" lon="2.29904">
        <ele>1531.152</ele>
        <time>2019-11-01T22:03:09Z</time>
      </trkpt>
      <trkpt lat="42.47304" lon="2.29882">
        <ele>1536.451</ele>
        <time>2019-11-01T22:03:29Z</time>
      </trkpt>
      <trkpt lat="42.47311" lon="2.29871">
        <ele>1539.586</ele>
        <time>2019-11-01T22:03:49Z</time>
      </trkpt>
      <trkpt lat="42.47299" lon="2.29858">
        <ele>1541.46</ele>
        <time>2019-11-01T22:04:09Z</time>
      </trkpt>
      <trkpt lat="42.47298" lon="2.29839">
        <ele>1546.026</ele>
        <time>2019-11-01T22:04:29Z</time>
      </trkpt>
      <trkpt lat="42.47276" lon="2.29815">
        <ele>1551.708</ele>
        <time>2019-11-01T22:04:49Z</time>
      </trkpt>
      <trkpt lat="42.47287" lon="2.29793">
        <ele>1557.514</ele>
        <time>2019-11-01T22:05:09Z</time>
      </trkpt>
      <trkpt lat="42.4726" lon="2.29791">
        <ele>1558.43</ele>
        <time>2019-11-01T22:05:29Z</time>
      </trkpt>
      <trkpt lat="42.4723" lon="2.29764">
        <ele>1565.095</ele>
        <time>2019-11-01T22:05:49Z</time>
      </trkpt>
      <trkpt lat="42.472" lon="2.29714">
        <ele>1576.198</ele>
        <time>2019-11-01T22:06:09Z</time>
      </trkpt>
      <trkpt lat="42.47168" lon="2.29695">
        <ele>1578.874</ele>
        <time>2019-11-01T22:06:29Z</time>
      </trkpt>
      <trkpt lat="42.47137" lon="2.29642">
        <ele>1589.926</ele>
        <time>2019-11-01T22:06:49Z</time>
      </trkpt>
      <trkpt lat="42.47105" lon="2.29619">
        <ele>1594.482</ele>
        <time>2019-11-01T22:07:09Z</time>
      </trkpt>
      <trkpt lat="42.47085" lon="2.29583">
        <ele>1602.181</ele>
        <time>2019-11-01T22:07:29Z</time>
      </trkpt>
      <trkpt lat="42.47065" lon="2.29566">
        <ele>1605.075</ele>
        <time>2019-11-01T22:07:49Z</time>
      </trkpt>
      <trkpt lat="42.47061" lon="2.29553">
        <ele>1616.428</ele>
        <time>2020-12-28T09:35:55Z</time>
      </trkpt>
      <trkpt lat="42.47045" lon="2.29548">
        <ele>1609.02</ele>
        <time>2019-11-01T22:08:29Z</time>
      </trkpt>
      <trkpt lat="42.47007" lon="2.29531">
        <ele>1613.308</ele>
        <time>2019-11-01T22:08:49Z</time>
      </trkpt>
      <trkpt lat="42.46966" lon="2.29531">
        <ele>1614.583</ele>
        <time>2019-11-01T22:09:09Z</time>
      </trkpt>
      <trkpt lat="42.46916" lon="2.29486">
        <ele>1626.599</ele>
        <time>2019-11-01T22:09:29Z</time>
      </trkpt>
      <trkpt lat="42.46896" lon="2.2946">
        <ele>1632.424</ele>
        <time>2019-11-01T22:09:49Z</time>
      </trkpt>
      <trkpt lat="42.46872" lon="2.2945">
        <ele>1634.997</ele>
        <time>2019-11-01T22:10:09Z</time>
      </trkpt>
      <trkpt lat="42.46854" lon="2.29423">
        <ele>1645.283</ele>
        <time>2019-11-01T22:10:29Z</time>
      </trkpt>
      <trkpt lat="42.4684" lon="2.29421">
        <ele>1647.315</ele>
        <time>2019-11-01T22:10:49Z</time>
      </trkpt>
      <trkpt lat="42.46838" lon="2.294">
        <ele>1651.821</ele>
        <time>2019-11-01T22:11:09Z</time>
      </trkpt>
      <trkpt lat="42.46823" lon="2.29376">
        <ele>1657.38</ele>
        <time>2019-11-01T22:11:29Z</time>
      </trkpt>
      <trkpt lat="42.46791" lon="2.29342">
        <ele>1664.678</ele>
        <time>2019-11-01T22:11:49Z</time>
      </trkpt>
      <trkpt lat="42.46773" lon="2.29311">
        <ele>1669.333</ele>
        <time>2019-11-01T22:12:09Z</time>
      </trkpt>
      <trkpt lat="42.46752" lon="2.29295">
        <ele>1672.526</ele>
        <time>2019-11-01T22:12:29Z</time>
      </trkpt>
      <trkpt lat="42.46743" lon="2.29269">
        <ele>1677.008</ele>
        <time>2019-11-01T22:12:49Z</time>
      </trkpt>
      <trkpt lat="42.46731" lon="2.29256">
        <ele>1680.693</ele>
        <time>2019-11-01T22:13:09Z</time>
      </trkpt>
      <trkpt lat="42.46726" lon="2.29243">
        <ele>1683.699</ele>
        <time>2019-11-01T22:13:29Z</time>
      </trkpt>
      <trkpt lat="42.46702" lon="2.2921">
        <ele>1691.664</ele>
        <time>2019-11-01T22:13:49Z</time>
      </trkpt>
      <trkpt lat="42.46654" lon="2.29212">
        <ele>1708.377</ele>
        <time>2020-12-28T09:41:55Z</time>
      </trkpt>
      <trkpt lat="42.46675" lon="2.29172">
        <ele>1702.423</ele>
        <time>2019-11-01T22:14:09Z</time>
      </trkpt>
      <trkpt lat="42.46682" lon="2.29156">
        <ele>1706.265</ele>
        <time>2019-11-01T22:14:29Z</time>
      </trkpt>
      <trkpt lat="42.46676" lon="2.29141">
        <ele>1710.971</ele>
        <time>2019-11-01T22:14:49Z</time>
      </trkpt>
      <trkpt lat="42.46705" lon="2.29117">
        <ele>1720.62</ele>
        <time>2020-12-28T09:43:15Z</time>
      </trkpt>
      <trkpt lat="42.46687" lon="2.29098">
        <ele>1728.672</ele>
        <time>2020-12-28T09:43:35Z</time>
      </trkpt>
      <trkpt lat="42.46659" lon="2.291">
        <ele>1733.013</ele>
        <time>2020-12-28T09:43:55Z</time>
      </trkpt>
      <trkpt lat="42.46609" lon="2.29133">
        <ele>1730.114</ele>
        <time>2019-11-01T22:15:29Z</time>
      </trkpt>
      <trkpt lat="42.46587" lon="2.2916">
        <ele>1740.908</ele>
        <time>2020-12-28T09:44:35Z</time>
      </trkpt>
      <trkpt lat="42.46539" lon="2.29177">
        <ele>1750.333</ele>
        <time>2020-12-28T09:44:55Z</time>
      </trkpt>
      <trkpt lat="42.46525" lon="2.29161">
        <ele>1758.629</ele>
        <time>2020-12-28T09:45:15Z</time>
      </trkpt>
      <trkpt lat="42.46497" lon="2.29153">
        <ele>1767.184</ele>
        <time>2020-12-28T09:45:35Z</time>
      </trkpt>
      <trkpt lat="42.46492" lon="2.29124">
        <ele>1771.947</ele>
        <time>2020-12-28T09:45:55Z</time>
      </trkpt>
      <trkpt lat="42.46476" lon="2.29112">
        <ele>1778.833</ele>
        <time>2019-11-01T22:16:49Z</time>
      </trkpt>
      <trkpt lat="42.46453" lon="2.29078">
        <ele>1785.995</ele>
        <time>2019-11-01T22:17:09Z</time>
      </trkpt>
      <trkpt lat="42.46425" lon="2.29009">
        <ele>1795.891</ele>
        <time>2019-11-01T22:17:29Z</time>
      </trkpt>
      <trkpt lat="42.46411" lon="2.29001">
        <ele>1794.49</ele>
        <time>2019-11-01T22:17:49Z</time>
      </trkpt>
      <trkpt lat="42.46392" lon="2.28955">
        <ele>1801.021</ele>
        <time>2019-11-01T22:18:09Z</time>
      </trkpt>
      <trkpt lat="42.46369" lon="2.28948">
        <ele>1801.841</ele>
        <time>2019-11-01T22:18:29Z</time>
      </trkpt>
      <trkpt lat="42.46353" lon="2.28925">
        <ele>1804.905</ele>
        <time>2019-11-01T22:18:49Z</time>
      </trkpt>
      <trkpt lat="42.46352" lon="2.28907">
        <ele>1808.008</ele>
        <time>2019-11-01T22:19:09Z</time>
      </trkpt>
      <trkpt lat="42.4632" lon="2.28885">
        <ele>1812.168</ele>
        <time>2019-11-01T22:19:29Z</time>
      </trkpt>
      <trkpt lat="42.46315" lon="2.28871">
        <ele>1816.674</ele>
        <time>2019-11-01T22:19:49Z</time>
      </trkpt>
      <trkpt lat="42.46293" lon="2.28861">
        <ele>1820.439</ele>
        <time>2019-11-01T22:20:09Z</time>
      </trkpt>
      <trkpt lat="42.4629" lon="2.28844">
        <ele>1825.952</ele>
        <time>2019-11-01T22:20:29Z</time>
      </trkpt>
      <trkpt lat="42.46257" lon="2.28832">
        <ele>1829.388</ele>
        <time>2019-11-01T22:20:49Z</time>
      </trkpt>
      <trkpt lat="42.46257" lon="2.28823">
        <ele>1830.81</ele>
        <time>2019-11-01T22:21:09Z</time>
      </trkpt>
      <trkpt lat="42.46237" lon="2.28799">
        <ele>1835.916</ele>
        <time>2019-11-01T22:21:29Z</time>
      </trkpt>
      <trkpt lat="42.4623" lon="2.28801">
        <ele>1836.325</ele>
        <time>2019-11-01T22:21:49Z</time>
      </trkpt>
      <trkpt lat="42.46211" lon="2.28762">
        <ele>1842.163</ele>
        <time>2019-11-01T22:22:09Z</time>
      </trkpt>
      <trkpt lat="42.46204" lon="2.2871">
        <ele>1851.944</ele>
        <time>2019-11-01T22:22:29Z</time>
      </trkpt>
      <trkpt lat="42.46163" lon="2.28647">
        <ele>1869.618</ele>
        <time>2019-11-01T22:22:49Z</time>
      </trkpt>
      <trkpt lat="42.46149" lon="2.28645">
        <ele>1872.708</ele>
        <time>2019-11-01T22:23:09Z</time>
      </trkpt>
      <trkpt lat="42.46117" lon="2.28614">
        <ele>1881.932</ele>
        <time>2019-11-01T22:23:29Z</time>
      </trkpt>
      <trkpt lat="42.46087" lon="2.2859">
        <ele>1889.058</ele>
        <time>2019-11-01T22:23:49Z</time>
      </trkpt>
      <trkpt lat="42.46035" lon="2.2854">
        <ele>1901.223</ele>
        <time>2019-11-01T22:24:09Z</time>
      </trkpt>
      <trkpt lat="42.46016" lon="2.2855">
        <ele>1904.616</ele>
        <time>2019-11-01T22:24:29Z</time>
      </trkpt>
      <trkpt lat="42.45984" lon="2.28509">
        <ele>1912.462</ele>
        <time>2019-11-01T22:24:49Z</time>
      </trkpt>
      <trkpt lat="42.45967" lon="2.28462">
        <ele>1919.094</ele>
        <time>2019-11-01T22:25:09Z</time>
      </trkpt>
      <trkpt lat="42.45939" lon="2.28428">
        <ele>1925.32</ele>
        <time>2019-11-01T22:25:29Z</time>
      </trkpt>
      <trkpt lat="42.4592" lon="2.28379">
        <ele>1934.939</ele>
        <time>2019-11-01T22:25:49Z</time>
      </trkpt>
      <trkpt lat="42.45905" lon="2.28359">
        <ele>1938.682</ele>
        <time>2019-11-01T22:26:09Z</time>
      </trkpt>
      <trkpt lat="42.45889" lon="2.28341">
        <ele>1941.943</ele>
        <time>2019-11-01T22:26:29Z</time>
      </trkpt>
      <trkpt lat="42.45877" lon="2.28301">
        <ele>1948.017</ele>
        <time>2019-11-01T22:26:49Z</time>
      </trkpt>
      <trkpt lat="42.45858" lon="2.28259">
        <ele>1954.508</ele>
        <time>2019-11-01T22:27:09Z</time>
      </trkpt>
      <trkpt lat="42.45835" lon="2.28231">
        <ele>1959.754</ele>
        <time>2019-11-01T22:27:29Z</time>
      </trkpt>
      <trkpt lat="42.45813" lon="2.28163">
        <ele>1967.28</ele>
        <time>2019-11-01T22:27:49Z</time>
      </trkpt>
      <trkpt lat="42.45772" lon="2.28082">
        <ele>1983.175</ele>
        <time>2019-11-01T22:28:09Z</time>
      </trkpt>
      <trkpt lat="42.4576" lon="2.28012">
        <ele>1993.738</ele>
        <time>2019-11-01T22:28:29Z</time>
      </trkpt>
      <trkpt lat="42.45725" lon="2.27951">
        <ele>2007.544</ele>
        <time>2019-11-01T22:28:49Z</time>
      </trkpt>
      <trkpt lat="42.45712" lon="2.27892">
        <ele>2020.386</ele>
        <time>2019-11-01T22:29:09Z</time>
      </trkpt>
      <trkpt lat="42.45692" lon="2.27859">
        <ele>2029.912</ele>
        <time>2019-11-01T22:29:29Z</time>
      </trkpt>
      <trkpt lat="42.45693" lon="2.27841">
        <ele>2034.221</ele>
        <time>2019-11-01T22:29:49Z</time>
      </trkpt>
      <trkpt lat="42.45686" lon="2.27825">
        <ele>2038.826</ele>
        <time>2019-11-01T22:30:09Z</time>
      </trkpt>
      <trkpt lat="42.45681" lon="2.278">
        <ele>2046.047</ele>
        <time>2019-11-01T22:30:29Z</time>
      </trkpt>
      <trkpt lat="42.45676" lon="2.27789">
        <ele>2049.511</ele>
        <time>2019-11-01T22:30:49Z</time>
      </trkpt>
      <trkpt lat="42.45667" lon="2.27783">
        <ele>2051.508</ele>
        <time>2019-11-01T22:31:09Z</time>
      </trkpt>
      <trkpt lat="42.45662" lon="2.27772">
        <ele>2055.418</ele>
        <time>2019-11-01T22:31:29Z</time>
      </trkpt>
      <trkpt lat="42.45636" lon="2.2776">
        <ele>2060.784</ele>
        <time>2019-11-01T22:31:49Z</time>
      </trkpt>
      <trkpt lat="42.45624" lon="2.27739">
        <ele>2067.199</ele>
        <time>2019-11-01T22:32:09Z</time>
      </trkpt>
      <trkpt lat="42.45626" lon="2.27726">
        <ele>2071.722</ele>
        <time>2019-11-01T22:32:29Z</time>
      </trkpt>
      <trkpt lat="42.45623" lon="2.27706">
        <ele>2078.998</ele>
        <time>2019-11-01T22:32:49Z</time>
      </trkpt>
      <trkpt lat="42.45642" lon="2.2768">
        <ele>2089.69</ele>
        <time>2019-11-01T22:33:09Z</time>
      </trkpt>
      <trkpt lat="42.45665" lon="2.27656">
        <ele>2098.596</ele>
        <time>2019-11-01T22:33:29Z</time>
      </trkpt>
      <trkpt lat="42.45695" lon="2.27628">
        <ele>2108.435</ele>
        <time>2019-11-01T22:33:49Z</time>
      </trkpt>
      <trkpt lat="42.45723" lon="2.27613">
        <ele>2115.711</ele>
        <time>2019-11-01T22:34:09Z</time>
      </trkpt>
      <trkpt lat="42.4575" lon="2.27571">
        <ele>2136.321</ele>
        <time>2019-11-01T22:34:29Z</time>
      </trkpt>
      <trkpt lat="42.45757" lon="2.2753">
        <ele>2156.403</ele>
        <time>2019-11-01T22:34:49Z</time>
      </trkpt>
      <trkpt lat="42.45746" lon="2.27491">
        <ele>2172.708</ele>
        <time>2019-11-01T22:35:09Z</time>
      </trkpt>
      <trkpt lat="42.45749" lon="2.27469">
        <ele>2184.377</ele>
        <time>2019-11-01T22:35:29Z</time>
      </trkpt>
      <trkpt lat="42.45743" lon="2.27455">
        <ele>2190.713</ele>
        <time>2019-11-01T22:35:49Z</time>
      </trkpt>
      <trkpt lat="42.45747" lon="2.27446">
        <ele>2195.958</ele>
        <time>2019-11-01T22:36:09Z</time>
      </trkpt>
      <trkpt lat="42.45736" lon="2.27436">
        <ele>2200.311</ele>
        <time>2019-11-01T22:36:29Z</time>
      </trkpt>
      <trkpt lat="42.45738" lon="2.27428">
        <ele>2204.277</ele>
        <time>2019-11-01T22:36:49Z</time>
      </trkpt>
      <trkpt lat="42.45706" lon="2.27399">
        <ele>2216.299</ele>
        <time>2019-11-01T22:37:09Z</time>
      </trkpt>
      <trkpt lat="42.45716" lon="2.2739">
        <ele>2221.055</ele>
        <time>2019-11-01T22:37:29Z</time>
      </trkpt>
      <trkpt lat="42.457" lon="2.27366">
        <ele>2232.064</ele>
        <time>2019-11-01T22:37:49Z</time>
      </trkpt>
      <trkpt lat="42.45683" lon="2.27363">
        <ele>2230.825</ele>
        <time>2019-11-01T22:38:09Z</time>
      </trkpt>
      <trkpt lat="42.45677" lon="2.27354">
        <ele>2234.026</ele>
        <time>2019-11-01T22:38:29Z</time>
      </trkpt>
      <trkpt lat="42.4568" lon="2.27328">
        <ele>2248.108</ele>
        <time>2019-11-01T22:38:49Z</time>
      </trkpt>
      <trkpt lat="42.45695" lon="2.27301">
        <ele>2265.908</ele>
        <time>2019-11-01T22:39:09Z</time>
      </trkpt>
      <trkpt lat="42.45745" lon="2.27261">
        <ele>2294.428</ele>
        <time>2019-11-01T22:39:29Z</time>
      </trkpt>
      <trkpt lat="42.45783" lon="2.27241">
        <ele>2306.034</ele>
        <time>2019-11-01T22:39:49Z</time>
      </trkpt>
      <trkpt lat="42.45808" lon="2.27236">
        <ele>2306.589</ele>
        <time>2019-11-01T22:40:09Z</time>
      </trkpt>
      <trkpt lat="42.45831" lon="2.27214">
        <ele>2310.952</ele>
        <time>2019-11-01T22:40:29Z</time>
      </trkpt>
      <trkpt lat="42.45838" lon="2.27179">
        <ele>2323.128</ele>
        <time>2019-11-01T22:40:49Z</time>
      </trkpt>
      <trkpt lat="42.45846" lon="2.27137">
        <ele>2335.92</ele>
        <time>2019-11-01T22:41:09Z</time>
      </trkpt>
      <trkpt lat="42.45871" lon="2.27112">
        <ele>2342.516</ele>
        <time>2019-11-01T22:41:29Z</time>
      </trkpt>
      <trkpt lat="42.45901" lon="2.27091">
        <ele>2343.595</ele>
        <time>2019-11-01T22:41:49Z</time>
      </trkpt>
      <trkpt lat="42.45916" lon="2.27061">
        <ele>2344.627</ele>
        <time>2019-11-01T22:42:09Z</time>
      </trkpt>
      <trkpt lat="42.45935" lon="2.26986">
        <ele>2347.168</ele>
        <time>2019-11-01T22:42:29Z</time>
      </trkpt>
      <trkpt lat="42.45959" lon="2.26945">
        <ele>2347.314</ele>
        <time>2019-11-01T22:42:49Z</time>
      </trkpt>
      <trkpt lat="42.45981" lon="2.26893">
        <ele>2348.108</ele>
        <time>2019-11-01T22:43:09Z</time>
      </trkpt>
      <trkpt lat="42.46016" lon="2.26833">
        <ele>2347.868</ele>
        <time>2019-11-01T22:43:29Z</time>
      </trkpt>
      <trkpt lat="42.46043" lon="2.26797">
        <ele>2343.984</ele>
        <time>2019-11-01T22:43:49Z</time>
      </trkpt>
      <trkpt lat="42.46063" lon="2.26725">
        <ele>2343.089</ele>
        <time>2019-11-01T22:44:09Z</time>
      </trkpt>
      <trkpt lat="42.4608" lon="2.26629">
        <ele>2341.712</ele>
        <time>2019-11-01T22:44:29Z</time>
      </trkpt>
      <trkpt lat="42.46107" lon="2.26551">
        <ele>2327.798</ele>
        <time>2019-11-01T22:44:49Z</time>
      </trkpt>
      <trkpt lat="42.46063" lon="2.26406">
        <ele>2333.89</ele>
        <time>2019-11-01T22:45:09Z</time>
      </trkpt>
      <trkpt lat="42.46055" lon="2.26337">
        <ele>2333.586</ele>
        <time>2019-11-01T22:45:29Z</time>
      </trkpt>
      <trkpt lat="42.46094" lon="2.26296">
        <ele>2328.215</ele>
        <time>2019-11-01T22:45:49Z</time>
      </trkpt>
      <trkpt lat="42.46145" lon="2.26261">
        <ele>2321.647</ele>
        <time>2019-11-01T22:46:09Z</time>
      </trkpt>
      <trkpt lat="42.46165" lon="2.26229">
        <ele>2322.129</ele>
        <time>2019-11-01T22:46:29Z</time>
      </trkpt>
      <trkpt lat="42.46199" lon="2.26181">
        <ele>2316.921</ele>
        <time>2019-11-01T22:46:49Z</time>
      </trkpt>
      <trkpt lat="42.46296" lon="2.2607">
        <ele>2302.508</ele>
        <time>2019-11-01T22:47:09Z</time>
      </trkpt>
      <trkpt lat="42.46406" lon="2.25912">
        <ele>2300.57</ele>
        <time>2019-11-01T22:47:29Z</time>
      </trkpt>
      <trkpt lat="42.46496" lon="2.2585">
        <ele>2292.416</ele>
        <time>2020-12-28T10:17:15Z</time>
      </trkpt>
      <trkpt lat="42.4653" lon="2.25844">
        <ele>2293.421</ele>
        <time>2020-12-28T10:17:35Z</time>
      </trkpt>
      <trkpt lat="42.46556" lon="2.25791">
        <ele>2288.954</ele>
        <time>2020-12-28T10:17:55Z</time>
      </trkpt>
      <trkpt lat="42.46501" lon="2.25659">
        <ele>2279.99</ele>
        <time>2019-11-01T22:48:49Z</time>
      </trkpt>
      <trkpt lat="42.46493" lon="2.25587">
        <ele>2271.972</ele>
        <time>2019-11-01T22:49:09Z</time>
      </trkpt>
      <trkpt lat="42.4645" lon="2.25516">
        <ele>2250.358</ele>
        <time>2019-11-01T22:49:29Z</time>
      </trkpt>
      <trkpt lat="42.46357" lon="2.25447">
        <ele>2209.627</ele>
        <time>2019-11-01T22:49:49Z</time>
      </trkpt>
      <trkpt lat="42.46235" lon="2.25378">
        <ele>2184.923</ele>
        <time>2019-11-01T22:50:09Z</time>
      </trkpt>
      <trkpt lat="42.46191" lon="2.25318">
        <ele>2168.383</ele>
        <time>2019-11-01T22:50:29Z</time>
      </trkpt>
      <trkpt lat="42.46221" lon="2.25291">
        <ele>2141.311</ele>
        <time>2019-11-01T22:50:49Z</time>
      </trkpt>
      <trkpt lat="42.46231" lon="2.25268">
        <ele>2128.408</ele>
        <time>2019-11-01T22:51:09Z</time>
      </trkpt>
      <trkpt lat="42.46094" lon="2.25192">
        <ele>2120.368</ele>
        <time>2020-12-28T10:20:55Z</time>
      </trkpt>
      <trkpt lat="42.46111" lon="2.2515">
        <ele>2102.774</ele>
        <time>2020-12-28T10:21:15Z</time>
      </trkpt>
      <trkpt lat="42.46168" lon="2.25135">
        <ele>2090.459</ele>
        <time>2020-12-28T10:21:35Z</time>
      </trkpt>
      <trkpt lat="42.4618" lon="2.25146">
        <ele>2089.592</ele>
        <time>2020-12-28T10:21:55Z</time>
      </trkpt>
      <trkpt lat="42.46241" lon="2.25136">
        <ele>2072.988</ele>
        <time>2020-12-28T10:22:15Z</time>
      </trkpt>
      <trkpt lat="42.46278" lon="2.25085">
        <ele>2053.23</ele>
        <time>2020-12-28T10:22:35Z</time>
      </trkpt>
      <trkpt lat="42.46308" lon="2.25069">
        <ele>2045.396</ele>
        <time>2020-12-28T10:22:55Z</time>
      </trkpt>
      <trkpt lat="42.46328" lon="2.25037">
        <ele>2033.045</ele>
        <time>2020-12-28T10:23:15Z</time>
      </trkpt>
      <trkpt lat="42.46367" lon="2.25043">
        <ele>2030.039</ele>
        <time>2020-12-28T10:23:35Z</time>
      </trkpt>
      <trkpt lat="42.46415" lon="2.24967">
        <ele>1997.701</ele>
        <time>2020-12-28T10:23:55Z</time>
      </trkpt>
      <trkpt lat="42.4644" lon="2.24904">
        <ele>1969.821</ele>
        <time>2019-11-01T22:53:09Z</time>
      </trkpt>
      <trkpt lat="42.46441" lon="2.24861">
        <ele>1969.408</ele>
        <time>2019-11-01T22:53:29Z</time>
      </trkpt>
      <trkpt lat="42.46431" lon="2.24837">
        <ele>1970.189</ele>
        <time>2019-11-01T22:53:49Z</time>
      </trkpt>
      <trkpt lat="42.46429" lon="2.24819">
        <ele>1969.145</ele>
        <time>2019-11-01T22:54:09Z</time>
      </trkpt>
      <trkpt lat="42.4642" lon="2.24793">
        <ele>1965.69</ele>
        <time>2019-11-01T22:54:29Z</time>
      </trkpt>
      <trkpt lat="42.46426" lon="2.24772">
        <ele>1960.513</ele>
        <time>2019-11-01T22:54:49Z</time>
      </trkpt>
      <trkpt lat="42.46423" lon="2.24751">
        <ele>1956.929</ele>
        <time>2019-11-01T22:55:09Z</time>
      </trkpt>
      <trkpt lat="42.46441" lon="2.24709">
        <ele>1947.821</ele>
        <time>2019-11-01T22:55:29Z</time>
      </trkpt>
      <trkpt lat="42.46469" lon="2.24672">
        <ele>1941.637</ele>
        <time>2019-11-01T22:55:49Z</time>
      </trkpt>
      <trkpt lat="42.46505" lon="2.24632">
        <ele>1934.176</ele>
        <time>2019-11-01T22:56:09Z</time>
      </trkpt>
      <trkpt lat="42.46558" lon="2.24558">
        <ele>1920.716</ele>
        <time>2019-11-01T22:56:29Z</time>
      </trkpt>
      <trkpt lat="42.46588" lon="2.24488">
        <ele>1912.376</ele>
        <time>2019-11-01T22:56:49Z</time>
      </trkpt>
      <trkpt lat="42.46633" lon="2.24332">
        <ele>1899.513</ele>
        <time>2019-11-01T22:57:09Z</time>
      </trkpt>
      <trkpt lat="42.46672" lon="2.24212">
        <ele>1867.808</ele>
        <time>2019-11-01T22:57:29Z</time>
      </trkpt>
      <trkpt lat="42.46667" lon="2.24131">
        <ele>1859.117</ele>
        <time>2019-11-01T22:57:49Z</time>
      </trkpt>
      <trkpt lat="42.46648" lon="2.24047">
        <ele>1860.873</ele>
        <time>2019-11-01T22:58:09Z</time>
      </trkpt>
      <trkpt lat="42.46617" lon="2.23992">
        <ele>1868.178</ele>
        <time>2019-11-01T22:58:29Z</time>
      </trkpt>
      <trkpt lat="42.46581" lon="2.23958">
        <ele>1870.371</ele>
        <time>2019-11-01T22:58:49Z</time>
      </trkpt>
      <trkpt lat="42.4655" lon="2.23908">
        <ele>1877.567</ele>
        <time>2019-11-01T22:59:09Z</time>
      </trkpt>
      <trkpt lat="42.46527" lon="2.23805">
        <ele>1896.269</ele>
        <time>2020-12-28T10:30:35Z</time>
      </trkpt>
      <trkpt lat="42.4649" lon="2.23631">
        <ele>1893.945</ele>
        <time>2020-12-28T10:30:55Z</time>
      </trkpt>
      <trkpt lat="42.46476" lon="2.23546">
        <ele>1891.214</ele>
        <time>2020-12-28T10:31:15Z</time>
      </trkpt>
      <trkpt lat="42.46451" lon="2.23517">
        <ele>1894.363</ele>
        <time>2020-12-28T10:31:35Z</time>
      </trkpt>
      <trkpt lat="42.46435" lon="2.23477">
        <ele>1895.944</ele>
        <time>2020-12-28T10:31:55Z</time>
      </trkpt>
      <trkpt lat="42.46397" lon="2.23424">
        <ele>1904.918</ele>
        <time>2020-12-28T10:32:15Z</time>
      </trkpt>
      <trkpt lat="42.46376" lon="2.23418">
        <ele>1908.908</ele>
        <time>2020-12-28T10:32:35Z</time>
      </trkpt>
      <trkpt lat="42.4634" lon="2.23365">
        <ele>1919.932</ele>
        <time>2020-12-28T10:32:55Z</time>
      </trkpt>
      <trkpt lat="42.46322" lon="2.2332">
        <ele>1927.558</ele>
        <time>2020-12-28T10:33:15Z</time>
      </trkpt>
      <trkpt lat="42.46275" lon="2.2327">
        <ele>1938.373</ele>
        <time>2020-12-28T10:33:35Z</time>
      </trkpt>
      <trkpt lat="42.4623" lon="2.23256">
        <ele>1944.186</ele>
        <time>2020-12-28T10:33:55Z</time>
      </trkpt>
      <trkpt lat="42.46193" lon="2.2323">
        <ele>1946.792</ele>
        <time>2020-12-28T10:34:15Z</time>
      </trkpt>
      <trkpt lat="42.46159" lon="2.23225">
        <ele>1949.364</ele>
        <time>2020-12-28T10:34:35Z</time>
      </trkpt>
      <trkpt lat="42.46137" lon="2.23161">
        <ele>1947.91</ele>
        <time>2020-12-28T10:34:55Z</time>
      </trkpt>
      <trkpt lat="42.46075" lon="2.23076">
        <ele>1943.099</ele>
        <time>2020-12-28T10:35:15Z</time>
      </trkpt>
      <trkpt lat="42.46102" lon="2.23045">
        <ele>1941.622</ele>
        <time>2020-12-28T10:35:35Z</time>
      </trkpt>
      <trkpt lat="42.46128" lon="2.22967">
        <ele>1938.262</ele>
        <time>2019-11-01T23:04:29Z</time>
      </trkpt>
      <trkpt lat="42.46243" lon="2.22872">
        <ele>1915.108</ele>
        <time>2019-11-01T23:04:49Z</time>
      </trkpt>
      <trkpt lat="42.46231" lon="2.22747">
        <ele>1902.308</ele>
        <time>2019-11-01T23:05:09Z</time>
      </trkpt>
      <trkpt lat="42.46263" lon="2.22616">
        <ele>1878.418</ele>
        <time>2019-11-01T23:05:29Z</time>
      </trkpt>
      <trkpt lat="42.46263" lon="2.22567">
        <ele>1870.444</ele>
        <time>2019-11-01T23:05:49Z</time>
      </trkpt>
      <trkpt lat="42.46278" lon="2.2252">
        <ele>1859.019</ele>
        <time>2019-11-01T23:06:09Z</time>
      </trkpt>
      <trkpt lat="42.46283" lon="2.22479">
        <ele>1853.032</ele>
        <time>2019-11-01T23:06:29Z</time>
      </trkpt>
      <trkpt lat="42.46301" lon="2.22438">
        <ele>1846.378</ele>
        <time>2019-11-01T23:06:49Z</time>
      </trkpt>
      <trkpt lat="42.46314" lon="2.22384">
        <ele>1839.59</ele>
        <time>2019-11-01T23:07:09Z</time>
      </trkpt>
      <trkpt lat="42.46346" lon="2.22341">
        <ele>1836.886</ele>
        <time>2019-11-01T23:07:29Z</time>
      </trkpt>
      <trkpt lat="42.46377" lon="2.22337">
        <ele>1835.815</ele>
        <time>2019-11-01T23:07:49Z</time>
      </trkpt>
      <trkpt lat="42.46407" lon="2.22315">
        <ele>1836.046</ele>
        <time>2019-11-01T23:08:09Z</time>
      </trkpt>
      <trkpt lat="42.46428" lon="2.2235">
        <ele>1833.688</ele>
        <time>2019-11-01T23:08:29Z</time>
      </trkpt>
      <trkpt lat="42.46459" lon="2.22355">
        <ele>1833.416</ele>
        <time>2019-11-01T23:08:49Z</time>
      </trkpt>
      <trkpt lat="42.46491" lon="2.22405">
        <ele>1830.508</ele>
        <time>2019-11-01T23:09:09Z</time>
      </trkpt>
      <trkpt lat="42.46501" lon="2.2244">
        <ele>1828.56</ele>
        <time>2019-11-01T23:09:29Z</time>
      </trkpt>
      <trkpt lat="42.46549" lon="2.22496">
        <ele>1829.636</ele>
        <time>2019-11-01T23:09:49Z</time>
      </trkpt>
      <trkpt lat="42.4658" lon="2.22506">
        <ele>1834.551</ele>
        <time>2019-11-01T23:10:09Z</time>
      </trkpt>
      <trkpt lat="42.46586" lon="2.2247">
        <ele>1840.374</ele>
        <time>2019-11-01T23:10:29Z</time>
      </trkpt>
      <trkpt lat="42.46647" lon="2.2251">
        <ele>1853.95</ele>
        <time>2019-11-01T23:10:49Z</time>
      </trkpt>
      <trkpt lat="42.46662" lon="2.22545">
        <ele>1853.232</ele>
        <time>2019-11-01T23:11:09Z</time>
      </trkpt>
      <trkpt lat="42.46694" lon="2.22555">
        <ele>1863.018</ele>
        <time>2019-11-01T23:11:29Z</time>
      </trkpt>
      <trkpt lat="42.46737" lon="2.22615">
        <ele>1877.277</ele>
        <time>2020-12-28T10:43:15Z</time>
      </trkpt>
      <trkpt lat="42.46756" lon="2.22619">
        <ele>1883.942</ele>
        <time>2020-12-28T10:43:35Z</time>
      </trkpt>
      <trkpt lat="42.46771" lon="2.22636">
        <ele>1885.622</ele>
        <time>2020-12-28T10:43:55Z</time>
      </trkpt>
      <trkpt lat="42.46776" lon="2.22672">
        <ele>1879.414</ele>
        <time>2020-12-28T10:44:15Z</time>
      </trkpt>
      <trkpt lat="42.46801" lon="2.22709">
        <ele>1881.008</ele>
        <time>2020-12-28T10:44:35Z</time>
      </trkpt>
      <trkpt lat="42.46804" lon="2.22705">
        <ele>1883.14</ele>
        <time>2020-12-28T10:44:55Z</time>
      </trkpt>
      <trkpt lat="42.46796" lon="2.22683">
        <ele>1884.916</ele>
        <time>2020-12-28T10:45:15Z</time>
      </trkpt>
      <trkpt lat="42.46793" lon="2.22652">
        <ele>1891.061</ele>
        <time>2020-12-28T10:45:35Z</time>
      </trkpt>
      <trkpt lat="42.46802" lon="2.22629">
        <ele>1899.864</ele>
        <time>2020-12-28T10:45:55Z</time>
      </trkpt>
      <trkpt lat="42.46816" lon="2.22573">
        <ele>1918.28</ele>
        <time>2020-12-28T10:46:15Z</time>
      </trkpt>
      <trkpt lat="42.46816" lon="2.22551">
        <ele>1922.512</ele>
        <time>2020-12-28T10:46:35Z</time>
      </trkpt>
      <trkpt lat="42.46807" lon="2.22541">
        <ele>1921.248</ele>
        <time>2020-12-28T10:46:55Z</time>
      </trkpt>
      <trkpt lat="42.46771" lon="2.22528">
        <ele>1911.317</ele>
        <time>2020-12-28T10:47:15Z</time>
      </trkpt>
      <trkpt lat="42.46766" lon="2.22508">
        <ele>1914.344</ele>
        <time>2020-12-28T10:47:35Z</time>
      </trkpt>
      <trkpt lat="42.46773" lon="2.22469">
        <ele>1925.805</ele>
        <time>2020-12-28T10:47:55Z</time>
      </trkpt>
      <trkpt lat="42.46766" lon="2.22438">
        <ele>1931.215</ele>
        <time>2020-12-28T10:48:15Z</time>
      </trkpt>
      <trkpt lat="42.4675" lon="2.22427">
        <ele>1928.808</ele>
        <time>2020-12-28T10:48:35Z</time>
      </trkpt>
      <trkpt lat="42.46738" lon="2.22387">
        <ele>1934.24</ele>
        <time>2020-12-28T10:48:55Z</time>
      </trkpt>
      <trkpt lat="42.46742" lon="2.22389">
        <ele>1935.676</ele>
        <time>2020-12-28T10:49:15Z</time>
      </trkpt>
      <trkpt lat="42.46751" lon="2.22407">
        <ele>1934.041</ele>
        <time>2020-12-28T10:49:35Z</time>
      </trkpt>
      <trkpt lat="42.46766" lon="2.22416">
        <ele>1936.674</ele>
        <time>2020-12-28T10:49:55Z</time>
      </trkpt>
      <trkpt lat="42.46792" lon="2.22421">
        <ele>1943.96</ele>
        <time>2020-12-28T10:50:15Z</time>
      </trkpt>
      <trkpt lat="42.468" lon="2.22433">
        <ele>1943.792</ele>
        <time>2020-12-28T10:50:35Z</time>
      </trkpt>
      <trkpt lat="42.46817" lon="2.22468">
        <ele>1940.628</ele>
        <time>2020-12-28T10:50:55Z</time>
      </trkpt>
      <trkpt lat="42.46834" lon="2.22467">
        <ele>1946.487</ele>
        <time>2020-12-28T10:51:15Z</time>
      </trkpt>
      <trkpt lat="42.46868" lon="2.22437">
        <ele>1964.668</ele>
        <time>2020-12-28T10:51:35Z</time>
      </trkpt>
      <trkpt lat="42.46879" lon="2.22438">
        <ele>1967.742</ele>
        <time>2020-12-28T10:51:55Z</time>
      </trkpt>
      <trkpt lat="42.46906" lon="2.22486">
        <ele>1966.326</ele>
        <time>2020-12-28T10:52:15Z</time>
      </trkpt>
      <trkpt lat="42.46914" lon="2.22513">
        <ele>1963.408</ele>
        <time>2020-12-28T10:52:35Z</time>
      </trkpt>
      <trkpt lat="42.46919" lon="2.22501">
        <ele>1967.792</ele>
        <time>2020-12-28T10:52:55Z</time>
      </trkpt>
      <trkpt lat="42.46916" lon="2.22462">
        <ele>1974.578</ele>
        <time>2020-12-28T10:53:15Z</time>
      </trkpt>
      <trkpt lat="42.46912" lon="2.22444">
        <ele>1977.133</ele>
        <time>2020-12-28T10:53:35Z</time>
      </trkpt>
      <trkpt lat="42.46913" lon="2.22426">
        <ele>1981.076</ele>
        <time>2020-12-28T10:53:55Z</time>
      </trkpt>
      <trkpt lat="42.46888" lon="2.22363">
        <ele>1986.432</ele>
        <time>2020-12-28T10:54:15Z</time>
      </trkpt>
      <trkpt lat="42.46876" lon="2.22356">
        <ele>1985.064</ele>
        <time>2020-12-28T10:54:35Z</time>
      </trkpt>
      <trkpt lat="42.46854" lon="2.223">
        <ele>1993.73</ele>
        <time>2020-12-28T10:54:55Z</time>
      </trkpt>
      <trkpt lat="42.46835" lon="2.2227">
        <ele>1998.579</ele>
        <time>2020-12-28T10:55:15Z</time>
      </trkpt>
      <trkpt lat="42.46801" lon="2.22249">
        <ele>1997.755</ele>
        <time>2020-12-28T10:55:35Z</time>
      </trkpt>
      <trkpt lat="42.4682" lon="2.22245">
        <ele>2004.107</ele>
        <time>2020-12-28T10:55:55Z</time>
      </trkpt>
      <trkpt lat="42.46853" lon="2.22231">
        <ele>2016.717</ele>
        <time>2020-12-28T10:56:15Z</time>
      </trkpt>
      <trkpt lat="42.46902" lon="2.22224">
        <ele>2026.308</ele>
        <time>2020-12-28T10:56:35Z</time>
      </trkpt>
      <trkpt lat="42.46919" lon="2.22225">
        <ele>2028.711</ele>
        <time>2020-12-28T10:56:55Z</time>
      </trkpt>
      <trkpt lat="42.46921" lon="2.22216">
        <ele>2032.037</ele>
        <time>2020-12-28T10:57:15Z</time>
      </trkpt>
      <trkpt lat="42.46899" lon="2.22199">
        <ele>2035.562</ele>
        <time>2020-12-28T10:57:35Z</time>
      </trkpt>
      <trkpt lat="42.46863" lon="2.22184">
        <ele>2040.295</ele>
        <time>2020-12-28T10:57:55Z</time>
      </trkpt>
      <trkpt lat="42.46847" lon="2.22183">
        <ele>2039.951</ele>
        <time>2020-12-28T10:58:15Z</time>
      </trkpt>
      <trkpt lat="42.46801" lon="2.22167">
        <ele>2040.773</ele>
        <time>2020-12-28T10:58:35Z</time>
      </trkpt>
      <trkpt lat="42.46768" lon="2.22141">
        <ele>2046.419</ele>
        <time>2020-12-28T10:58:55Z</time>
      </trkpt>
      <trkpt lat="42.46746" lon="2.22107">
        <ele>2054.868</ele>
        <time>2020-12-28T10:59:15Z</time>
      </trkpt>
      <trkpt lat="42.46721" lon="2.22083">
        <ele>2050.478</ele>
        <time>2020-12-28T10:59:35Z</time>
      </trkpt>
      <trkpt lat="42.4673" lon="2.22081">
        <ele>2056.833</ele>
        <time>2020-12-28T10:59:55Z</time>
      </trkpt>
      <trkpt lat="42.4679" lon="2.22113">
        <ele>2065.626</ele>
        <time>2020-12-28T11:00:15Z</time>
      </trkpt>
      <trkpt lat="42.46823" lon="2.22112">
        <ele>2075.208</ele>
        <time>2020-12-28T11:00:35Z</time>
      </trkpt>
      <trkpt lat="42.46862" lon="2.22094">
        <ele>2084.933</ele>
        <time>2020-12-28T11:00:55Z</time>
      </trkpt>
      <trkpt lat="42.46919" lon="2.22054">
        <ele>2092.479</ele>
        <time>2020-12-28T11:01:15Z</time>
      </trkpt>
      <trkpt lat="42.46955" lon="2.21996">
        <ele>2107.494</ele>
        <time>2020-12-28T11:01:35Z</time>
      </trkpt>
      <trkpt lat="42.46971" lon="2.21951">
        <ele>2114.817</ele>
        <time>2020-12-28T11:01:55Z</time>
      </trkpt>
      <trkpt lat="42.46979" lon="2.21938">
        <ele>2116.993</ele>
        <time>2020-12-28T11:02:15Z</time>
      </trkpt>
      <trkpt lat="42.4697" lon="2.21938">
        <ele>2117.375</ele>
        <time>2020-12-28T11:02:35Z</time>
      </trkpt>
      <trkpt lat="42.46957" lon="2.21951">
        <ele>2115.381</ele>
        <time>2020-12-28T11:02:55Z</time>
      </trkpt>
      <trkpt lat="42.4694" lon="2.21964">
        <ele>2113.78</ele>
        <time>2020-12-28T11:03:15Z</time>
      </trkpt>
      <trkpt lat="42.46934" lon="2.21957">
        <ele>2115.244</ele>
        <time>2020-12-28T11:03:35Z</time>
      </trkpt>
      <trkpt lat="42.46954" lon="2.21899">
        <ele>2124.605</ele>
        <time>2020-12-28T11:03:55Z</time>
      </trkpt>
      <trkpt lat="42.4695" lon="2.2186">
        <ele>2132.815</ele>
        <time>2019-11-01T23:16:49Z</time>
      </trkpt>
      <trkpt lat="42.46895" lon="2.21745">
        <ele>2151.208</ele>
        <time>2019-11-01T23:17:09Z</time>
      </trkpt>
      <trkpt lat="42.46872" lon="2.21715">
        <ele>2156.28</ele>
        <time>2019-11-01T23:17:29Z</time>
      </trkpt>
      <trkpt lat="42.46887" lon="2.21715">
        <ele>2157.886</ele>
        <time>2019-11-01T23:17:49Z</time>
      </trkpt>
      <trkpt lat="42.46929" lon="2.21762">
        <ele>2158.871</ele>
        <time>2019-11-01T23:18:09Z</time>
      </trkpt>
      <trkpt lat="42.46949" lon="2.21767">
        <ele>2161.944</ele>
        <time>2019-11-01T23:18:29Z</time>
      </trkpt>
      <trkpt lat="42.46996" lon="2.21727">
        <ele>2176.41</ele>
        <time>2019-11-01T23:18:49Z</time>
      </trkpt>
      <trkpt lat="42.47054" lon="2.2167">
        <ele>2190.182</ele>
        <time>2019-11-01T23:19:09Z</time>
      </trkpt>
      <trkpt lat="42.47086" lon="2.2168">
        <ele>2192.518</ele>
        <time>2019-11-01T23:19:29Z</time>
      </trkpt>
      <trkpt lat="42.47073" lon="2.21645">
        <ele>2201.857</ele>
        <time>2019-11-01T23:19:49Z</time>
      </trkpt>
      <trkpt lat="42.47048" lon="2.21642">
        <ele>2204.991</ele>
        <time>2019-11-01T23:20:09Z</time>
      </trkpt>
      <trkpt lat="42.47004" lon="2.21652">
        <ele>2207.081</ele>
        <time>2019-11-01T23:20:29Z</time>
      </trkpt>
      <trkpt lat="42.46956" lon="2.2164">
        <ele>2207.119</ele>
        <time>2019-11-01T23:20:49Z</time>
      </trkpt>
      <trkpt lat="42.4695" lon="2.2156">
        <ele>2216.108</ele>
        <time>2019-11-01T23:21:09Z</time>
      </trkpt>
      <trkpt lat="42.46971" lon="2.21595">
        <ele>2222.765</ele>
        <time>2019-11-01T23:21:29Z</time>
      </trkpt>
      <trkpt lat="42.46992" lon="2.216">
        <ele>2226.481</ele>
        <time>2019-11-01T23:21:49Z</time>
      </trkpt>
      <trkpt lat="42.47063" lon="2.21558">
        <ele>2244.416</ele>
        <time>2019-11-01T23:22:09Z</time>
      </trkpt>
      <trkpt lat="42.47116" lon="2.21527">
        <ele>2253.649</ele>
        <time>2019-11-01T23:22:29Z</time>
      </trkpt>
      <trkpt lat="42.4717" lon="2.21523">
        <ele>2261.595</ele>
        <time>2019-11-01T23:22:49Z</time>
      </trkpt>
      <trkpt lat="42.47205" lon="2.21537">
        <ele>2267.027</ele>
        <time>2019-11-01T23:23:09Z</time>
      </trkpt>
      <trkpt lat="42.47223" lon="2.21555">
        <ele>2269.393</ele>
        <time>2019-11-01T23:23:29Z</time>
      </trkpt>
      <trkpt lat="42.47207" lon="2.21508">
        <ele>2277.752</ele>
        <time>2019-11-01T23:23:49Z</time>
      </trkpt>
      <trkpt lat="42.47144" lon="2.21448">
        <ele>2292.886</ele>
        <time>2019-11-01T23:24:09Z</time>
      </trkpt>
      <trkpt lat="42.47055" lon="2.2144">
        <ele>2298.36</ele>
        <time>2019-11-01T23:24:29Z</time>
      </trkpt>
      <trkpt lat="42.47139" lon="2.21394">
        <ele>2316.426</ele>
        <time>2019-11-01T23:24:49Z</time>
      </trkpt>
      <trkpt lat="42.47199" lon="2.21387">
        <ele>2330.008</ele>
        <time>2019-11-01T23:25:09Z</time>
      </trkpt>
      <trkpt lat="42.47288" lon="2.21407">
        <ele>2343.174</ele>
        <time>2019-11-01T23:25:29Z</time>
      </trkpt>
      <trkpt lat="42.47329" lon="2.21461">
        <ele>2349.13</ele>
        <time>2019-11-01T23:25:49Z</time>
      </trkpt>
      <trkpt lat="42.47349" lon="2.21513">
        <ele>2353.035</ele>
        <time>2019-11-01T23:26:09Z</time>
      </trkpt>
      <trkpt lat="42.47342" lon="2.21419">
        <ele>2367.748</ele>
        <time>2019-11-01T23:26:29Z</time>
      </trkpt>
      <trkpt lat="42.47332" lon="2.21347">
        <ele>2378.434</ele>
        <time>2019-11-01T23:26:49Z</time>
      </trkpt>
      <trkpt lat="42.47318" lon="2.21323">
        <ele>2379.456</ele>
        <time>2019-11-01T23:27:09Z</time>
      </trkpt>
      <trkpt lat="42.47295" lon="2.21314">
        <ele>2377.532</ele>
        <time>2019-11-01T23:27:29Z</time>
      </trkpt>
      <trkpt lat="42.47278" lon="2.21293">
        <ele>2376.731</ele>
        <time>2019-11-01T23:27:49Z</time>
      </trkpt>
      <trkpt lat="42.47241" lon="2.21288">
        <ele>2371.693</ele>
        <time>2019-11-01T23:28:09Z</time>
      </trkpt>
      <trkpt lat="42.47181" lon="2.21257">
        <ele>2361.865</ele>
        <time>2019-11-01T23:28:29Z</time>
      </trkpt>
      <trkpt lat="42.47194" lon="2.21201">
        <ele>2359.521</ele>
        <time>2019-11-01T23:28:49Z</time>
      </trkpt>
      <trkpt lat="42.47192" lon="2.21178">
        <ele>2357.508</ele>
        <time>2019-11-01T23:29:09Z</time>
      </trkpt>
      <trkpt lat="42.47214" lon="2.21084">
        <ele>2340.415</ele>
        <time>2019-11-01T23:29:29Z</time>
      </trkpt>
      <trkpt lat="42.47206" lon="2.21009">
        <ele>2329.211</ele>
        <time>2019-11-01T23:29:49Z</time>
      </trkpt>
      <trkpt lat="42.47208" lon="2.20959">
        <ele>2321.616</ele>
        <time>2019-11-01T23:30:09Z</time>
      </trkpt>
      <trkpt lat="42.47208" lon="2.20926">
        <ele>2317.829</ele>
        <time>2019-11-01T23:30:29Z</time>
      </trkpt>
      <trkpt lat="42.47243" lon="2.20913">
        <ele>2304.195</ele>
        <time>2019-11-01T23:30:49Z</time>
      </trkpt>
      <trkpt lat="42.47284" lon="2.20884">
        <ele>2286.277</ele>
        <time>2019-11-01T23:31:09Z</time>
      </trkpt>
      <trkpt lat="42.47322" lon="2.20823">
        <ele>2268.023</ele>
        <time>2019-11-01T23:31:29Z</time>
      </trkpt>
      <trkpt lat="42.47359" lon="2.20779">
        <ele>2250.162</ele>
        <time>2019-11-01T23:31:49Z</time>
      </trkpt>
      <trkpt lat="42.47383" lon="2.20732">
        <ele>2237.199</ele>
        <time>2019-11-01T23:32:09Z</time>
      </trkpt>
      <trkpt lat="42.47438" lon="2.20612">
        <ele>2200.407</ele>
        <time>2019-11-01T23:32:29Z</time>
      </trkpt>
      <trkpt lat="42.47445" lon="2.2057">
        <ele>2187.727</ele>
        <time>2019-11-01T23:32:49Z</time>
      </trkpt>
      <trkpt lat="42.4745" lon="2.20474">
        <ele>2171.308</ele>
        <time>2019-11-01T23:33:09Z</time>
      </trkpt>
      <trkpt lat="42.47512" lon="2.20382">
        <ele>2134.765</ele>
        <time>2019-11-01T23:33:29Z</time>
      </trkpt>
      <trkpt lat="42.47537" lon="2.20312">
        <ele>2114.231</ele>
        <time>2019-11-01T23:33:49Z</time>
      </trkpt>
      <trkpt lat="42.47573" lon="2.20197">
        <ele>2088.876</ele>
        <time>2019-11-01T23:34:09Z</time>
      </trkpt>
      <trkpt lat="42.47581" lon="2.20099">
        <ele>2078.099</ele>
        <time>2019-11-01T23:34:29Z</time>
      </trkpt>
      <trkpt lat="42.47598" lon="2.20047">
        <ele>2074.165</ele>
        <time>2019-11-01T23:34:49Z</time>
      </trkpt>
      <trkpt lat="42.47644" lon="2.19988">
        <ele>2063.947</ele>
        <time>2019-11-01T23:35:09Z</time>
      </trkpt>
      <trkpt lat="42.47723" lon="2.19889">
        <ele>2059.053</ele>
        <time>2019-11-01T23:35:29Z</time>
      </trkpt>
      <trkpt lat="42.47815" lon="2.19835">
        <ele>2052.452</ele>
        <time>2019-11-01T23:35:49Z</time>
      </trkpt>
      <trkpt lat="42.47842" lon="2.19749">
        <ele>2032.785</ele>
        <time>2019-11-01T23:36:09Z</time>
      </trkpt>
      <trkpt lat="42.47858" lon="2.19742">
        <ele>2025.989</ele>
        <time>2019-11-01T23:36:29Z</time>
      </trkpt>
      <trkpt lat="42.47849" lon="2.19707">
        <ele>2023.717</ele>
        <time>2019-11-01T23:36:49Z</time>
      </trkpt>
      <trkpt lat="42.4785" lon="2.19643">
        <ele>2018.208</ele>
        <time>2019-11-01T23:37:09Z</time>
      </trkpt>
      <trkpt lat="42.47869" lon="2.19566">
        <ele>2011.254</ele>
        <time>2019-11-01T23:37:29Z</time>
      </trkpt>
      <trkpt lat="42.47935" lon="2.19435">
        <ele>1993.24</ele>
        <time>2019-11-01T23:37:49Z</time>
      </trkpt>
      <trkpt lat="42.47879" lon="2.19381">
        <ele>1984.245</ele>
        <time>2019-11-01T23:38:09Z</time>
      </trkpt>
      <trkpt lat="42.47868" lon="2.19359">
        <ele>1978.228</ele>
        <time>2019-11-01T23:38:29Z</time>
      </trkpt>
      <trkpt lat="42.47877" lon="2.1935">
        <ele>1973.774</ele>
        <time>2019-11-01T23:38:49Z</time>
      </trkpt>
      <trkpt lat="42.47823" lon="2.19315">
        <ele>1969.156</ele>
        <time>2019-11-01T23:39:09Z</time>
      </trkpt>
      <trkpt lat="42.47806" lon="2.19296">
        <ele>1964.652</ele>
        <time>2019-11-01T23:39:29Z</time>
      </trkpt>
      <trkpt lat="42.47804" lon="2.19284">
        <ele>1960.661</ele>
        <time>2019-11-01T23:39:49Z</time>
      </trkpt>
      <trkpt lat="42.47791" lon="2.19279">
        <ele>1961.035</ele>
        <time>2019-11-01T23:40:09Z</time>
      </trkpt>
      <trkpt lat="42.47788" lon="2.19265">
        <ele>1956.486</ele>
        <time>2019-11-01T23:40:29Z</time>
      </trkpt>
      <trkpt lat="42.4777" lon="2.19256">
        <ele>1956.314</ele>
        <time>2019-11-01T23:40:49Z</time>
      </trkpt>
      <trkpt lat="42.47769" lon="2.19248">
        <ele>1953.008</ele>
        <time>2019-11-01T23:41:09Z</time>
      </trkpt>
      <trkpt lat="42.47727" lon="2.19218">
        <ele>1943.869</ele>
        <time>2019-11-01T23:41:29Z</time>
      </trkpt>
      <trkpt lat="42.47705" lon="2.19189">
        <ele>1936.965</ele>
        <time>2019-11-01T23:41:49Z</time>
      </trkpt>
      <trkpt lat="42.47699" lon="2.19164">
        <ele>1929.38</ele>
        <time>2019-11-01T23:42:09Z</time>
      </trkpt>
      <trkpt lat="42.47678" lon="2.19136">
        <ele>1929.743</ele>
        <time>2019-11-01T23:42:29Z</time>
      </trkpt>
      <trkpt lat="42.47673" lon="2.19102">
        <ele>1920.959</ele>
        <time>2019-11-01T23:42:49Z</time>
      </trkpt>
      <trkpt lat="42.47666" lon="2.19088">
        <ele>1920.841</ele>
        <time>2019-11-01T23:43:09Z</time>
      </trkpt>
      <trkpt lat="42.47639" lon="2.19002">
        <ele>1911.547</ele>
        <time>2019-11-01T23:43:29Z</time>
      </trkpt>
      <trkpt lat="42.47631" lon="2.18923">
        <ele>1896.486</ele>
        <time>2019-11-01T23:43:49Z</time>
      </trkpt>
      <trkpt lat="42.47605" lon="2.18827">
        <ele>1885.758</ele>
        <time>2019-11-01T23:44:09Z</time>
      </trkpt>
      <trkpt lat="42.47586" lon="2.18819">
        <ele>1888.752</ele>
        <time>2019-11-01T23:44:29Z</time>
      </trkpt>
      <trkpt lat="42.47573" lon="2.18826">
        <ele>1886.717</ele>
        <time>2019-11-01T23:44:49Z</time>
      </trkpt>
      <trkpt lat="42.47569" lon="2.18839">
        <ele>1888.008</ele>
        <time>2019-11-01T23:45:09Z</time>
      </trkpt>
      <trkpt lat="42.47544" lon="2.18838">
        <ele>1874.391</ele>
        <time>2019-11-01T23:45:29Z</time>
      </trkpt>
      <trkpt lat="42.4754" lon="2.18828">
        <ele>1869.297</ele>
        <time>2019-11-01T23:45:49Z</time>
      </trkpt>
      <trkpt lat="42.4753" lon="2.18839">
        <ele>1864.172</ele>
        <time>2019-11-01T23:46:09Z</time>
      </trkpt>
      <trkpt lat="42.47528" lon="2.18827">
        <ele>1860.095</ele>
        <time>2019-11-01T23:46:29Z</time>
      </trkpt>
      <trkpt lat="42.4752" lon="2.18839">
        <ele>1858.021</ele>
        <time>2019-11-01T23:46:49Z</time>
      </trkpt>
      <trkpt lat="42.47516" lon="2.18822">
        <ele>1850.713</ele>
        <time>2019-11-01T23:47:09Z</time>
      </trkpt>
      <trkpt lat="42.47507" lon="2.1882">
        <ele>1844.239</ele>
        <time>2019-11-01T23:47:29Z</time>
      </trkpt>
      <trkpt lat="42.47506" lon="2.18802">
        <ele>1837.658</ele>
        <time>2019-11-01T23:47:49Z</time>
      </trkpt>
      <trkpt lat="42.47496" lon="2.18804">
        <ele>1833.292</ele>
        <time>2019-11-01T23:48:09Z</time>
      </trkpt>
      <trkpt lat="42.47496" lon="2.18792">
        <ele>1828.973</ele>
        <time>2019-11-01T23:48:29Z</time>
      </trkpt>
      <trkpt lat="42.47471" lon="2.18789">
        <ele>1820.82</ele>
        <time>2019-11-01T23:48:49Z</time>
      </trkpt>
      <trkpt lat="42.47471" lon="2.1878">
        <ele>1817.408</ele>
        <time>2019-11-01T23:49:09Z</time>
      </trkpt>
      <trkpt lat="42.47465" lon="2.18764">
        <ele>1811.775</ele>
        <time>2019-11-01T23:49:29Z</time>
      </trkpt>
      <trkpt lat="42.47458" lon="2.1873">
        <ele>1800.831</ele>
        <time>2019-11-01T23:49:49Z</time>
      </trkpt>
      <trkpt lat="42.47478" lon="2.18674">
        <ele>1783.376</ele>
        <time>2019-11-01T23:50:09Z</time>
      </trkpt>
      <trkpt lat="42.4748" lon="2.18643">
        <ele>1773.259</ele>
        <time>2019-11-01T23:50:29Z</time>
      </trkpt>
      <trkpt lat="42.47489" lon="2.18598">
        <ele>1760.765</ele>
        <time>2019-11-01T23:50:49Z</time>
      </trkpt>
      <trkpt lat="42.47484" lon="2.18569">
        <ele>1751.617</ele>
        <time>2019-11-01T23:51:09Z</time>
      </trkpt>
      <trkpt lat="42.47488" lon="2.18535">
        <ele>1742.273</ele>
        <time>2019-11-01T23:51:29Z</time>
      </trkpt>
      <trkpt lat="42.47523" lon="2.18469">
        <ele>1727.422</ele>
        <time>2019-11-01T23:51:49Z</time>
      </trkpt>
      <trkpt lat="42.47531" lon="2.18427">
        <ele>1718.097</ele>
        <time>2019-11-01T23:52:09Z</time>
      </trkpt>
      <trkpt lat="42.47533" lon="2.18401">
        <ele>1712.923</ele>
        <time>2019-11-01T23:52:29Z</time>
      </trkpt>
      <trkpt lat="42.47539" lon="2.18387">
        <ele>1709.525</ele>
        <time>2019-11-01T23:52:49Z</time>
      </trkpt>
      <trkpt lat="42.47539" lon="2.18369">
        <ele>1707.008</ele>
        <time>2019-11-01T23:53:09Z</time>
      </trkpt>
      <trkpt lat="42.47548" lon="2.18348">
        <ele>1703.045</ele>
        <time>2019-11-01T23:53:29Z</time>
      </trkpt>
      <trkpt lat="42.47541" lon="2.1833">
        <ele>1701.261</ele>
        <time>2019-11-01T23:53:49Z</time>
      </trkpt>
      <trkpt lat="42.47559" lon="2.18297">
        <ele>1695.766</ele>
        <time>2019-11-01T23:54:09Z</time>
      </trkpt>
      <trkpt lat="42.47556" lon="2.1826">
        <ele>1692.079</ele>
        <time>2019-11-01T23:54:29Z</time>
      </trkpt>
      <trkpt lat="42.47586" lon="2.18221">
        <ele>1689.885</ele>
        <time>2020-12-28T11:42:15Z</time>
      </trkpt>
      <trkpt lat="42.47618" lon="2.18206">
        <ele>1686.157</ele>
        <time>2020-12-28T11:42:35Z</time>
      </trkpt>
      <trkpt lat="42.47634" lon="2.18175">
        <ele>1679.893</ele>
        <time>2020-12-28T11:42:55Z</time>
      </trkpt>
      <trkpt lat="42.4763" lon="2.18166">
        <ele>1678.562</ele>
        <time>2020-12-28T11:43:15Z</time>
      </trkpt>
      <trkpt lat="42.47569" lon="2.18129">
        <ele>1672.742</ele>
        <time>2020-12-28T11:43:35Z</time>
      </trkpt>
      <trkpt lat="42.47537" lon="2.18122">
        <ele>1673.522</ele>
        <time>2020-12-28T11:43:55Z</time>
      </trkpt>
      <trkpt lat="42.47533" lon="2.18112">
        <ele>1670.514</ele>
        <time>2020-12-28T11:44:15Z</time>
      </trkpt>
      <trkpt lat="42.47372" lon="2.1811">
        <ele>1677.708</ele>
        <time>2019-11-01T23:56:29Z</time>
      </trkpt>
      <trkpt lat="42.47302" lon="2.18089">
        <ele>1683.13</ele>
        <time>2019-11-01T23:56:49Z</time>
      </trkpt>
      <trkpt lat="42.47277" lon="2.18061">
        <ele>1681.866</ele>
        <time>2019-11-01T23:57:09Z</time>
      </trkpt>
      <trkpt lat="42.4722" lon="2.18064">
        <ele>1691.971</ele>
        <time>2019-11-01T23:57:29Z</time>
      </trkpt>
      <trkpt lat="42.47202" lon="2.18033">
        <ele>1686.634</ele>
        <time>2019-11-01T23:57:49Z</time>
      </trkpt>
      <trkpt lat="42.47136" lon="2.18022">
        <ele>1692.97</ele>
        <time>2019-11-01T23:58:09Z</time>
      </trkpt>
      <trkpt lat="42.47096" lon="2.18027">
        <ele>1700.512</ele>
        <time>2019-11-01T23:58:29Z</time>
      </trkpt>
      <trkpt lat="42.47085" lon="2.17996">
        <ele>1694.238</ele>
        <time>2019-11-01T23:58:49Z</time>
      </trkpt>
      <trkpt lat="42.4703" lon="2.17973">
        <ele>1699.747</ele>
        <time>2019-11-01T23:59:09Z</time>
      </trkpt>
      <trkpt lat="42.46977" lon="2.17928">
        <ele>1704.164</ele>
        <time>2019-11-01T23:59:29Z</time>
      </trkpt>
      <trkpt lat="42.46859" lon="2.1789">
        <ele>1724.706</ele>
        <time>2019-11-01T23:59:49Z</time>
      </trkpt>
      <trkpt lat="42.46829" lon="2.17841">
        <ele>1724.016</ele>
        <time>2019-11-02T00:00:09Z</time>
      </trkpt>
      <trkpt lat="42.46718" lon="2.17846">
        <ele>1738.408</ele>
        <time>2019-11-02T00:00:29Z</time>
      </trkpt>
      <trkpt lat="42.46655" lon="2.17837">
        <ele>1742.052</ele>
        <time>2019-11-02T00:00:49Z</time>
      </trkpt>
      <trkpt lat="42.46579" lon="2.1785">
        <ele>1749.148</ele>
        <time>2019-11-02T00:01:09Z</time>
      </trkpt>
      <trkpt lat="42.46524" lon="2.17828">
        <ele>1755.223</ele>
        <time>2019-11-02T00:01:29Z</time>
      </trkpt>
      <trkpt lat="42.46515" lon="2.17846">
        <ele>1759.626</ele>
        <time>2019-11-02T00:01:49Z</time>
      </trkpt>
      <trkpt lat="42.46485" lon="2.17828">
        <ele>1764.052</ele>
        <time>2019-11-02T00:02:09Z</time>
      </trkpt>
      <trkpt lat="42.46478" lon="2.17814">
        <ele>1763.854</ele>
        <time>2019-11-02T00:02:29Z</time>
      </trkpt>
      <trkpt lat="42.46453" lon="2.17814">
        <ele>1770.19</ele>
        <time>2019-11-02T00:02:49Z</time>
      </trkpt>
      <trkpt lat="42.46435" lon="2.17789">
        <ele>1769.219</ele>
        <time>2019-11-02T00:03:09Z</time>
      </trkpt>
      <trkpt lat="42.46394" lon="2.17786">
        <ele>1777.357</ele>
        <time>2019-11-02T00:03:29Z</time>
      </trkpt>
      <trkpt lat="42.4627" lon="2.17718">
        <ele>1789.4</ele>
        <time>2019-11-02T00:03:49Z</time>
      </trkpt>
      <trkpt lat="42.46167" lon="2.17689">
        <ele>1804.22</ele>
        <time>2019-11-02T00:04:09Z</time>
      </trkpt>
      <trkpt lat="42.46126" lon="2.1765">
        <ele>1804.308</ele>
        <time>2019-11-02T00:04:29Z</time>
      </trkpt>
      <trkpt lat="42.46102" lon="2.17643">
        <ele>1806.351</ele>
        <time>2019-11-02T00:04:49Z</time>
      </trkpt>
      <trkpt lat="42.46086" lon="2.17612">
        <ele>1805.817</ele>
        <time>2019-11-02T00:05:09Z</time>
      </trkpt>
      <trkpt lat="42.46068" lon="2.17609">
        <ele>1808.642</ele>
        <time>2019-11-02T00:05:29Z</time>
      </trkpt>
      <trkpt lat="42.46056" lon="2.17576">
        <ele>1808.015</ele>
        <time>2019-11-02T00:05:49Z</time>
      </trkpt>
      <trkpt lat="42.45994" lon="2.17586">
        <ele>1810.041</ele>
        <time>2019-11-02T00:06:09Z</time>
      </trkpt>
      <trkpt lat="42.45939" lon="2.17562">
        <ele>1815.673</ele>
        <time>2019-11-02T00:06:29Z</time>
      </trkpt>
      <trkpt lat="42.45867" lon="2.17521">
        <ele>1823.589</ele>
        <time>2019-11-02T00:06:49Z</time>
      </trkpt>
      <trkpt lat="42.45834" lon="2.1749">
        <ele>1823.368</ele>
        <time>2019-11-02T00:07:09Z</time>
      </trkpt>
      <trkpt lat="42.4583" lon="2.17435">
        <ele>1829.617</ele>
        <time>2019-11-02T00:07:29Z</time>
      </trkpt>
      <trkpt lat="42.45914" lon="2.17433">
        <ele>1821.587</ele>
        <time>2019-11-02T00:07:49Z</time>
      </trkpt>
      <trkpt lat="42.45961" lon="2.17448">
        <ele>1817.615</ele>
        <time>2019-11-02T00:08:09Z</time>
      </trkpt>
      <trkpt lat="42.46039" lon="2.17487">
        <ele>1808.808</ele>
        <time>2019-11-02T00:08:29Z</time>
      </trkpt>
      <trkpt lat="42.46135" lon="2.17487">
        <ele>1804.147</ele>
        <time>2019-11-02T00:08:49Z</time>
      </trkpt>
      <trkpt lat="42.46186" lon="2.17516">
        <ele>1800.933</ele>
        <time>2019-11-02T00:09:09Z</time>
      </trkpt>
      <trkpt lat="42.46263" lon="2.17508">
        <ele>1799.128</ele>
        <time>2019-11-02T00:09:29Z</time>
      </trkpt>
      <trkpt lat="42.46316" lon="2.17526">
        <ele>1795.831</ele>
        <time>2019-11-02T00:09:49Z</time>
      </trkpt>
      <trkpt lat="42.46389" lon="2.17599">
        <ele>1787.297</ele>
        <time>2019-11-02T00:10:09Z</time>
      </trkpt>
      <trkpt lat="42.46459" lon="2.17628">
        <ele>1784.169</ele>
        <time>2019-11-02T00:10:29Z</time>
      </trkpt>
      <trkpt lat="42.4664" lon="2.17663">
        <ele>1756.125</ele>
        <time>2019-11-02T00:10:49Z</time>
      </trkpt>
      <trkpt lat="42.46747" lon="2.1765">
        <ele>1757.054</ele>
        <time>2019-11-02T00:11:09Z</time>
      </trkpt>
      <trkpt lat="42.46821" lon="2.17606">
        <ele>1772.716</ele>
        <time>2019-11-02T00:11:29Z</time>
      </trkpt>
      <trkpt lat="42.46873" lon="2.1757">
        <ele>1780.476</ele>
        <time>2019-11-02T00:11:49Z</time>
      </trkpt>
      <trkpt lat="42.46997" lon="2.1751">
        <ele>1791.313</ele>
        <time>2019-11-02T00:12:09Z</time>
      </trkpt>
      <trkpt lat="42.47081" lon="2.17454">
        <ele>1810.408</ele>
        <time>2019-11-02T00:12:29Z</time>
      </trkpt>
      <trkpt lat="42.47138" lon="2.17441">
        <ele>1821.797</ele>
        <time>2019-11-02T00:12:49Z</time>
      </trkpt>
      <trkpt lat="42.47196" lon="2.17469">
        <ele>1830.623</ele>
        <time>2019-11-02T00:13:09Z</time>
      </trkpt>
      <trkpt lat="42.47231" lon="2.17459">
        <ele>1830.098</ele>
        <time>2019-11-02T00:13:29Z</time>
      </trkpt>
      <trkpt lat="42.47274" lon="2.17422">
        <ele>1841.551</ele>
        <time>2019-11-02T00:13:49Z</time>
      </trkpt>
      <trkpt lat="42.47325" lon="2.17411">
        <ele>1837.797</ele>
        <time>2019-11-02T00:14:09Z</time>
      </trkpt>
      <trkpt lat="42.47387" lon="2.17352">
        <ele>1840.649</ele>
        <time>2019-11-02T00:14:29Z</time>
      </trkpt>
      <trkpt lat="42.47424" lon="2.17289">
        <ele>1843.165</ele>
        <time>2019-11-02T00:14:49Z</time>
      </trkpt>
      <trkpt lat="42.47446" lon="2.17209">
        <ele>1841.554</ele>
        <time>2019-11-02T00:15:09Z</time>
      </trkpt>
      <trkpt lat="42.47448" lon="2.17158">
        <ele>1846.492</ele>
        <time>2019-11-02T00:15:29Z</time>
      </trkpt>
      <trkpt lat="42.47444" lon="2.17051">
        <ele>1862.373</ele>
        <time>2019-11-02T00:15:49Z</time>
      </trkpt>
      <trkpt lat="42.47458" lon="2.16989">
        <ele>1862.12</ele>
        <time>2019-11-02T00:16:09Z</time>
      </trkpt>
      <trkpt lat="42.47462" lon="2.16892">
        <ele>1871.208</ele>
        <time>2019-11-02T00:16:29Z</time>
      </trkpt>
      <trkpt lat="42.47457" lon="2.16801">
        <ele>1869.985</ele>
        <time>2019-11-02T00:16:49Z</time>
      </trkpt>
      <trkpt lat="42.47447" lon="2.16705">
        <ele>1871.331</ele>
        <time>2019-11-02T00:17:09Z</time>
      </trkpt>
      <trkpt lat="42.47489" lon="2.16648">
        <ele>1872.546</ele>
        <time>2019-11-02T00:17:29Z</time>
      </trkpt>
      <trkpt lat="42.47518" lon="2.16549">
        <ele>1880.129</ele>
        <time>2019-11-02T00:17:49Z</time>
      </trkpt>
      <trkpt lat="42.47552" lon="2.16485">
        <ele>1875.235</ele>
        <time>2019-11-02T00:18:09Z</time>
      </trkpt>
      <trkpt lat="42.4756" lon="2.16435">
        <ele>1875.087</ele>
        <time>2019-11-02T00:18:29Z</time>
      </trkpt>
      <trkpt lat="42.4755" lon="2.16367">
        <ele>1895.843</ele>
        <time>2019-11-02T00:18:49Z</time>
      </trkpt>
      <trkpt lat="42.47568" lon="2.16339">
        <ele>1895.112</ele>
        <time>2019-11-02T00:19:09Z</time>
      </trkpt>
      <trkpt lat="42.47621" lon="2.16341">
        <ele>1890.687</ele>
        <time>2019-11-02T00:19:29Z</time>
      </trkpt>
      <trkpt lat="42.47658" lon="2.16319">
        <ele>1900.042</ele>
        <time>2019-11-02T00:19:49Z</time>
      </trkpt>
      <trkpt lat="42.47695" lon="2.16308">
        <ele>1901.526</ele>
        <time>2019-11-02T00:20:09Z</time>
      </trkpt>
      <trkpt lat="42.47781" lon="2.1623">
        <ele>1910.908</ele>
        <time>2019-11-02T00:20:29Z</time>
      </trkpt>
      <trkpt lat="42.47854" lon="2.16189">
        <ele>1912.734</ele>
        <time>2019-11-02T00:20:49Z</time>
      </trkpt>
      <trkpt lat="42.4797" lon="2.16157">
        <ele>1908.82</ele>
        <time>2019-11-02T00:21:09Z</time>
      </trkpt>
      <trkpt lat="42.47994" lon="2.1603">
        <ele>1897.655</ele>
        <time>2019-11-02T00:21:29Z</time>
      </trkpt>
      <trkpt lat="42.48023" lon="2.15936">
        <ele>1897.868</ele>
        <time>2019-11-02T00:21:49Z</time>
      </trkpt>
      <trkpt lat="42.48056" lon="2.15879">
        <ele>1897.944</ele>
        <time>2019-11-02T00:22:09Z</time>
      </trkpt>
      <trkpt lat="42.48145" lon="2.15796">
        <ele>1889.236</ele>
        <time>2019-11-02T00:22:29Z</time>
      </trkpt>
      <trkpt lat="42.48199" lon="2.15703">
        <ele>1889.062</ele>
        <time>2019-11-02T00:22:49Z</time>
      </trkpt>
      <trkpt lat="42.48278" lon="2.15617">
        <ele>1869.461</ele>
        <time>2019-11-02T00:23:09Z</time>
      </trkpt>
      <trkpt lat="42.48306" lon="2.15601">
        <ele>1859.529</ele>
        <time>2019-11-02T00:23:29Z</time>
      </trkpt>
      <trkpt lat="42.48314" lon="2.1556">
        <ele>1852.8</ele>
        <time>2019-11-02T00:23:49Z</time>
      </trkpt>
      <trkpt lat="42.4832" lon="2.15516">
        <ele>1844.72</ele>
        <time>2019-11-02T00:24:09Z</time>
      </trkpt>
      <trkpt lat="42.48337" lon="2.15484">
        <ele>1837.108</ele>
        <time>2019-11-02T00:24:29Z</time>
      </trkpt>
      <trkpt lat="42.4836" lon="2.15417">
        <ele>1830.738</ele>
        <time>2019-11-02T00:24:49Z</time>
      </trkpt>
      <trkpt lat="42.48437" lon="2.15305">
        <ele>1817.614</ele>
        <time>2019-11-02T00:25:09Z</time>
      </trkpt>
      <trkpt lat="42.48491" lon="2.1522">
        <ele>1800.299</ele>
        <time>2019-11-02T00:25:29Z</time>
      </trkpt>
      <trkpt lat="42.48515" lon="2.15168">
        <ele>1794.562</ele>
        <time>2019-11-02T00:25:49Z</time>
      </trkpt>
      <trkpt lat="42.48534" lon="2.15059">
        <ele>1779.488</ele>
        <time>2019-11-02T00:26:09Z</time>
      </trkpt>
      <trkpt lat="42.48571" lon="2.1497">
        <ele>1762.11</ele>
        <time>2019-11-02T00:26:29Z</time>
      </trkpt>
      <trkpt lat="42.48603" lon="2.14929">
        <ele>1753.116</ele>
        <time>2019-11-02T00:26:49Z</time>
      </trkpt>
      <trkpt lat="42.48657" lon="2.149">
        <ele>1738.475</ele>
        <time>2019-11-02T00:27:09Z</time>
      </trkpt>
      <trkpt lat="42.48724" lon="2.14827">
        <ele>1736.029</ele>
        <time>2019-11-02T00:27:29Z</time>
      </trkpt>
      <trkpt lat="42.48768" lon="2.14814">
        <ele>1723.4</ele>
        <time>2019-11-02T00:27:49Z</time>
      </trkpt>
      <trkpt lat="42.48787" lon="2.14778">
        <ele>1718.52</ele>
        <time>2019-11-02T00:28:09Z</time>
      </trkpt>
      <trkpt lat="42.48787" lon="2.14683">
        <ele>1703.508</ele>
        <time>2019-11-02T00:28:29Z</time>
      </trkpt>
      <trkpt lat="42.48801" lon="2.14623">
        <ele>1687.858</ele>
        <time>2019-11-02T00:28:49Z</time>
      </trkpt>
      <trkpt lat="42.48829" lon="2.14721">
        <ele>1695.274</ele>
        <time>2019-11-02T00:29:09Z</time>
      </trkpt>
      <trkpt lat="42.48862" lon="2.14758">
        <ele>1688.569</ele>
        <time>2019-11-02T00:29:29Z</time>
      </trkpt>
      <trkpt lat="42.48886" lon="2.14758">
        <ele>1678.022</ele>
        <time>2019-11-02T00:29:49Z</time>
      </trkpt>
      <trkpt lat="42.48906" lon="2.14722">
        <ele>1672.048</ele>
        <time>2019-11-02T00:30:09Z</time>
      </trkpt>
      <trkpt lat="42.48925" lon="2.14574">
        <ele>1648.86</ele>
        <time>2019-11-02T00:30:29Z</time>
      </trkpt>
      <trkpt lat="42.4906" lon="2.14482">
        <ele>1610.846</ele>
        <time>2019-11-02T00:30:49Z</time>
      </trkpt>
      <trkpt lat="42.49089" lon="2.14407">
        <ele>1596.735</ele>
        <time>2019-11-02T00:31:09Z</time>
      </trkpt>
      <trkpt lat="42.49114" lon="2.14469">
        <ele>1592.322</ele>
        <time>2019-11-02T00:31:29Z</time>
      </trkpt>
      <trkpt lat="42.49125" lon="2.14459">
        <ele>1586.662</ele>
        <time>2019-11-02T00:31:49Z</time>
      </trkpt>
      <trkpt lat="42.49107" lon="2.14399">
        <ele>1589.508</ele>
        <time>2019-11-02T00:32:09Z</time>
      </trkpt>
      <trkpt lat="42.49123" lon="2.14373">
        <ele>1582.408</ele>
        <time>2019-11-02T00:32:29Z</time>
      </trkpt>
      <trkpt lat="42.49148" lon="2.14371">
        <ele>1577.218</ele>
        <time>2019-11-02T00:32:49Z</time>
      </trkpt>
      <trkpt lat="42.49165" lon="2.14378">
        <ele>1574.054</ele>
        <time>2019-11-02T00:33:09Z</time>
      </trkpt>
      <trkpt lat="42.49165" lon="2.14348">
        <ele>1571.619</ele>
        <time>2019-11-02T00:33:29Z</time>
      </trkpt>
      <trkpt lat="42.49112" lon="2.1427">
        <ele>1562.592</ele>
        <time>2019-11-02T00:33:49Z</time>
      </trkpt>
      <trkpt lat="42.49078" lon="2.14197">
        <ele>1561.478</ele>
        <time>2019-11-02T00:34:09Z</time>
      </trkpt>
      <trkpt lat="42.49065" lon="2.14113">
        <ele>1557.11</ele>
        <time>2019-11-02T00:34:29Z</time>
      </trkpt>
      <trkpt lat="42.49107" lon="2.14108">
        <ele>1546.796</ele>
        <time>2019-11-02T00:34:49Z</time>
      </trkpt>
      <trkpt lat="42.49112" lon="2.14056">
        <ele>1539.895</ele>
        <time>2019-11-02T00:35:09Z</time>
      </trkpt>
      <trkpt lat="42.49095" lon="2.13875">
        <ele>1532.447</ele>
        <time>2019-11-02T00:35:29Z</time>
      </trkpt>
      <trkpt lat="42.49105" lon="2.13836">
        <ele>1532.129</ele>
        <time>2019-11-02T00:35:49Z</time>
      </trkpt>
      <trkpt lat="42.49159" lon="2.13781">
        <ele>1517.421</ele>
        <time>2019-11-02T00:36:09Z</time>
      </trkpt>
      <trkpt lat="42.49196" lon="2.13778">
        <ele>1511.908</ele>
        <time>2019-11-02T00:36:29Z</time>
      </trkpt>
      <trkpt lat="42.49191" lon="2.13739">
        <ele>1511.92</ele>
        <time>2019-11-02T00:36:49Z</time>
      </trkpt>
      <trkpt lat="42.49181" lon="2.13721">
        <ele>1514.166</ele>
        <time>2019-11-02T00:37:09Z</time>
      </trkpt>
      <trkpt lat="42.49193" lon="2.13693">
        <ele>1516.381</ele>
        <time>2019-11-02T00:37:29Z</time>
      </trkpt>
      <trkpt lat="42.49331" lon="2.13626">
        <ele>1521.514</ele>
        <time>2019-11-02T00:37:49Z</time>
      </trkpt>
      <trkpt lat="42.49361" lon="2.13631">
        <ele>1520.68</ele>
        <time>2019-11-02T00:38:09Z</time>
      </trkpt>
      <trkpt lat="42.49378" lon="2.13617">
        <ele>1523.262</ele>
        <time>2019-11-02T00:38:29Z</time>
      </trkpt>
      <trkpt lat="42.49354" lon="2.13569">
        <ele>1526.878</ele>
        <time>2019-11-02T00:38:49Z</time>
      </trkpt>
      <trkpt lat="42.49334" lon="2.13586">
        <ele>1527.657</ele>
        <time>2019-11-02T00:39:09Z</time>
      </trkpt>
      <trkpt lat="42.49274" lon="2.13589">
        <ele>1535.086</ele>
        <time>2019-11-02T00:39:29Z</time>
      </trkpt>
      <trkpt lat="42.49236" lon="2.13578">
        <ele>1544.76</ele>
        <time>2019-11-02T00:39:49Z</time>
      </trkpt>
      <trkpt lat="42.49147" lon="2.13576">
        <ele>1558.326</ele>
        <time>2019-11-02T00:40:09Z</time>
      </trkpt>
      <trkpt lat="42.49059" lon="2.1356">
        <ele>1568.308</ele>
        <time>2019-11-02T00:40:29Z</time>
      </trkpt>
      <trkpt lat="42.48991" lon="2.13491">
        <ele>1583.444</ele>
        <time>2019-11-02T00:40:49Z</time>
      </trkpt>
      <trkpt lat="42.48941" lon="2.13493">
        <ele>1593.71</ele>
        <time>2019-11-02T00:41:09Z</time>
      </trkpt>
      <trkpt lat="42.48865" lon="2.13464">
        <ele>1606.575</ele>
        <time>2019-11-02T00:41:29Z</time>
      </trkpt>
      <trkpt lat="42.48831" lon="2.13417">
        <ele>1616.628</ele>
        <time>2019-11-02T00:41:49Z</time>
      </trkpt>
      <trkpt lat="42.48513" lon="2.13025">
        <ele>1708.244</ele>
        <time>2019-11-02T00:42:09Z</time>
      </trkpt>
      <trkpt lat="42.48541" lon="2.12794">
        <ele>1685.366</ele>
        <time>2019-11-02T00:42:29Z</time>
      </trkpt>
      <trkpt lat="42.48524" lon="2.1273">
        <ele>1683.692</ele>
        <time>2019-11-02T00:42:49Z</time>
      </trkpt>
      <trkpt lat="42.485" lon="2.1269">
        <ele>1683.351</ele>
        <time>2019-11-02T00:43:09Z</time>
      </trkpt>
      <trkpt lat="42.48403" lon="2.12434">
        <ele>1654.852</ele>
        <time>2019-11-02T00:43:29Z</time>
      </trkpt>
      <trkpt lat="42.4837" lon="2.12399">
        <ele>1649.153</ele>
        <time>2019-11-02T00:43:49Z</time>
      </trkpt>
      <trkpt lat="42.48309" lon="2.12404">
        <ele>1654.408</ele>
        <time>2019-11-02T00:44:09Z</time>
      </trkpt>
      <trkpt lat="42.48308" lon="2.12382">
        <ele>1654.808</ele>
        <time>2019-11-02T00:44:29Z</time>
      </trkpt>
      <trkpt lat="42.48346" lon="2.12311">
        <ele>1656.141</ele>
        <time>2019-11-02T00:44:49Z</time>
      </trkpt>
      <trkpt lat="42.48365" lon="2.12227">
        <ele>1654.557</ele>
        <time>2019-11-02T00:45:09Z</time>
      </trkpt>
      <trkpt lat="42.48397" lon="2.1215">
        <ele>1647.462</ele>
        <time>2019-11-02T00:45:29Z</time>
      </trkpt>
      <trkpt lat="42.48383" lon="2.12081">
        <ele>1648.715</ele>
        <time>2019-11-02T00:45:49Z</time>
      </trkpt>
      <trkpt lat="42.48396" lon="2.11995">
        <ele>1645.371</ele>
        <time>2019-11-02T00:46:09Z</time>
      </trkpt>
      <trkpt lat="42.48399" lon="2.11933">
        <ele>1647.933</ele>
        <time>2019-11-02T00:46:29Z</time>
      </trkpt>
      <trkpt lat="42.48419" lon="2.11821">
        <ele>1648.129</ele>
        <time>2019-11-02T00:46:49Z</time>
      </trkpt>
      <trkpt lat="42.48434" lon="2.11661">
        <ele>1658.468</ele>
        <time>2019-11-02T00:47:09Z</time>
      </trkpt>
      <trkpt lat="42.48427" lon="2.11558">
        <ele>1671.614</ele>
        <time>2019-11-02T00:47:29Z</time>
      </trkpt>
      <trkpt lat="42.48429" lon="2.11446">
        <ele>1678.154</ele>
        <time>2019-11-02T00:47:49Z</time>
      </trkpt>
      <trkpt lat="42.48444" lon="2.11356">
        <ele>1682.709</ele>
        <time>2019-11-02T00:48:09Z</time>
      </trkpt>
      <trkpt lat="42.48427" lon="2.11268">
        <ele>1686.908</ele>
        <time>2019-11-02T00:48:29Z</time>
      </trkpt>
      <trkpt lat="42.48372" lon="2.11205">
        <ele>1685.987</ele>
        <time>2019-11-02T00:48:49Z</time>
      </trkpt>
      <trkpt lat="42.48324" lon="2.11121">
        <ele>1687.183</ele>
        <time>2019-11-02T00:49:09Z</time>
      </trkpt>
      <trkpt lat="42.48314" lon="2.11016">
        <ele>1690.888</ele>
        <time>2019-11-02T00:49:29Z</time>
      </trkpt>
      <trkpt lat="42.48301" lon="2.10955">
        <ele>1691.361</ele>
        <time>2019-11-02T00:49:49Z</time>
      </trkpt>
      <trkpt lat="42.48331" lon="2.10787">
        <ele>1690.047</ele>
        <time>2019-11-02T00:50:09Z</time>
      </trkpt>
      <trkpt lat="42.4835" lon="2.1074">
        <ele>1687.839</ele>
        <time>2019-11-02T00:50:29Z</time>
      </trkpt>
      <trkpt lat="42.48328" lon="2.10695">
        <ele>1690.755</ele>
        <time>2019-11-02T00:50:49Z</time>
      </trkpt>
      <trkpt lat="42.48371" lon="2.10643">
        <ele>1688.854</ele>
        <time>2019-11-02T00:51:09Z</time>
      </trkpt>
      <trkpt lat="42.48368" lon="2.10608">
        <ele>1697.549</ele>
        <time>2020-12-28T12:39:35Z</time>
      </trkpt>
      <trkpt lat="42.48156" lon="2.10546">
        <ele>1722.102</ele>
        <time>2019-11-02T00:52:09Z</time>
      </trkpt>
      <trkpt lat="42.48101" lon="2.10542">
        <ele>1730.322</ele>
        <time>2019-11-02T00:52:29Z</time>
      </trkpt>
      <trkpt lat="42.48036" lon="2.10559">
        <ele>1739.708</ele>
        <time>2019-11-02T00:52:49Z</time>
      </trkpt>
      <trkpt lat="42.47992" lon="2.10547">
        <ele>1744.73</ele>
        <time>2019-11-02T00:53:09Z</time>
      </trkpt>
      <trkpt lat="42.47886" lon="2.10486">
        <ele>1764.766</ele>
        <time>2019-11-02T00:53:29Z</time>
      </trkpt>
      <trkpt lat="42.4781" lon="2.10491">
        <ele>1775.551</ele>
        <time>2019-11-02T00:53:49Z</time>
      </trkpt>
      <trkpt lat="42.47783" lon="2.10473">
        <ele>1778.524</ele>
        <time>2019-11-02T00:54:09Z</time>
      </trkpt>
      <trkpt lat="42.47708" lon="2.10465">
        <ele>1785.02</ele>
        <time>2019-11-02T00:54:29Z</time>
      </trkpt>
      <trkpt lat="42.47652" lon="2.10486">
        <ele>1795.732</ele>
        <time>2019-11-02T00:54:49Z</time>
      </trkpt>
      <trkpt lat="42.47644" lon="2.10379">
        <ele>1787.218</ele>
        <time>2019-11-02T00:55:09Z</time>
      </trkpt>
      <trkpt lat="42.47608" lon="2.10185">
        <ele>1772.357</ele>
        <time>2019-11-02T00:55:29Z</time>
      </trkpt>
      <trkpt lat="42.47587" lon="2.10183">
        <ele>1774.216</ele>
        <time>2019-11-02T00:55:49Z</time>
      </trkpt>
      <trkpt lat="42.47449" lon="2.10017">
        <ele>1767.176</ele>
        <time>2019-11-02T00:56:09Z</time>
      </trkpt>
      <trkpt lat="42.47347" lon="2.09864">
        <ele>1757.413</ele>
        <time>2019-11-02T00:56:29Z</time>
      </trkpt>
      <trkpt lat="42.47311" lon="2.09871">
        <ele>1757.108</ele>
        <time>2019-11-02T00:56:49Z</time>
      </trkpt>
      <trkpt lat="42.47227" lon="2.09931">
        <ele>1754.527</ele>
        <time>2019-11-02T00:57:09Z</time>
      </trkpt>
      <trkpt lat="42.47175" lon="2.09933">
        <ele>1752.413</ele>
        <time>2019-11-02T00:57:29Z</time>
      </trkpt>
      <trkpt lat="42.47148" lon="2.09894">
        <ele>1751.778</ele>
        <time>2019-11-02T00:57:49Z</time>
      </trkpt>
      <trkpt lat="42.47159" lon="2.09811">
        <ele>1747.621</ele>
        <time>2019-11-02T00:58:09Z</time>
      </trkpt>
      <trkpt lat="42.47142" lon="2.0975">
        <ele>1745.567</ele>
        <time>2019-11-02T00:58:29Z</time>
      </trkpt>
      <trkpt lat="42.47135" lon="2.09621">
        <ele>1737.199</ele>
        <time>2019-11-02T00:58:49Z</time>
      </trkpt>
      <trkpt lat="42.47152" lon="2.09544">
        <ele>1728.285</ele>
        <time>2019-11-02T00:59:09Z</time>
      </trkpt>
      <trkpt lat="42.47159" lon="2.09374">
        <ele>1713.094</ele>
        <time>2019-11-02T00:59:29Z</time>
      </trkpt>
      <trkpt lat="42.47156" lon="2.09313">
        <ele>1708.951</ele>
        <time>2019-11-02T00:59:49Z</time>
      </trkpt>
      <trkpt lat="42.47199" lon="2.09109">
        <ele>1684.801</ele>
        <time>2019-11-02T01:00:09Z</time>
      </trkpt>
      <trkpt lat="42.47199" lon="2.08937">
        <ele>1665.211</ele>
        <time>2019-11-02T01:00:29Z</time>
      </trkpt>
      <trkpt lat="42.47191" lon="2.08897">
        <ele>1662.308</ele>
        <time>2020-12-28T12:48:35Z</time>
      </trkpt>
      <trkpt lat="42.4709" lon="2.08798">
        <ele>1644.951</ele>
        <time>2020-12-28T12:48:55Z</time>
      </trkpt>
      <trkpt lat="42.47062" lon="2.08781">
        <ele>1639.197</ele>
        <time>2020-12-28T12:49:15Z</time>
      </trkpt>
      <trkpt lat="42.47054" lon="2.08751">
        <ele>1634.592</ele>
        <time>2020-12-28T12:49:35Z</time>
      </trkpt>
      <trkpt lat="42.47069" lon="2.08668">
        <ele>1625.385</ele>
        <time>2020-12-28T12:49:55Z</time>
      </trkpt>
      <trkpt lat="42.47143" lon="2.08575">
        <ele>1621.361</ele>
        <time>2020-12-28T12:50:15Z</time>
      </trkpt>
      <trkpt lat="42.47169" lon="2.08492">
        <ele>1610.263</ele>
        <time>2020-12-28T12:50:35Z</time>
      </trkpt>
      <trkpt lat="42.47201" lon="2.08446">
        <ele>1609.549</ele>
        <time>2020-12-28T12:50:55Z</time>
      </trkpt>
      <trkpt lat="42.47206" lon="2.08398">
        <ele>1603.088</ele>
        <time>2020-12-28T12:51:15Z</time>
      </trkpt>
      <trkpt lat="42.47235" lon="2.08355">
        <ele>1600.148</ele>
        <time>2020-12-28T12:51:35Z</time>
      </trkpt>
      <trkpt lat="42.47264" lon="2.08329">
        <ele>1598.461</ele>
        <time>2020-12-28T12:51:55Z</time>
      </trkpt>
      <trkpt lat="42.47258" lon="2.08333">
        <ele>1598.617</ele>
        <time>2020-12-28T12:52:15Z</time>
      </trkpt>
      <trkpt lat="42.4728" lon="2.08308">
        <ele>1595.608</ele>
        <time>2020-12-28T12:52:35Z</time>
      </trkpt>
      <trkpt lat="42.47306" lon="2.08291">
        <ele>1594.72</ele>
        <time>2020-12-28T12:52:55Z</time>
      </trkpt>
      <trkpt lat="42.47211" lon="2.08308">
        <ele>1584.596</ele>
        <time>2019-11-02T01:03:49Z</time>
      </trkpt>
      <trkpt lat="42.47171" lon="2.083">
        <ele>1578.971</ele>
        <time>2019-11-02T01:04:09Z</time>
      </trkpt>
      <trkpt lat="42.47132" lon="2.08326">
        <ele>1580.484</ele>
        <time>2019-11-02T01:04:29Z</time>
      </trkpt>
      <trkpt lat="42.47022" lon="2.08317">
        <ele>1587.34</ele>
        <time>2019-11-02T01:04:49Z</time>
      </trkpt>
      <trkpt lat="42.46946" lon="2.08214">
        <ele>1600.622</ele>
        <time>2019-11-02T01:05:09Z</time>
      </trkpt>
      <trkpt lat="42.46908" lon="2.08155">
        <ele>1601.328</ele>
        <time>2019-11-02T01:05:29Z</time>
      </trkpt>
      <trkpt lat="42.46968" lon="2.08029">
        <ele>1604.867</ele>
        <time>2019-11-02T01:05:49Z</time>
      </trkpt>
      <trkpt lat="42.46963" lon="2.07953">
        <ele>1612.486</ele>
        <time>2019-11-02T01:06:09Z</time>
      </trkpt>
      <trkpt lat="42.46931" lon="2.07852">
        <ele>1623.66</ele>
        <time>2019-11-02T01:06:29Z</time>
      </trkpt>
      <trkpt lat="42.46905" lon="2.07738">
        <ele>1624.226</ele>
        <time>2019-11-02T01:06:49Z</time>
      </trkpt>
      <trkpt lat="42.46849" lon="2.07555">
        <ele>1618.408</ele>
        <time>2019-11-02T01:07:09Z</time>
      </trkpt>
      <trkpt lat="42.46778" lon="2.07458">
        <ele>1609.574</ele>
        <time>2019-11-02T01:07:29Z</time>
      </trkpt>
      <trkpt lat="42.46741" lon="2.0743">
        <ele>1603.13</ele>
        <time>2019-11-02T01:07:49Z</time>
      </trkpt>
      <trkpt lat="42.46678" lon="2.07325">
        <ele>1591.225</ele>
        <time>2019-11-02T01:08:09Z</time>
      </trkpt>
      <trkpt lat="42.46519" lon="2.07168">
        <ele>1573.478</ele>
        <time>2019-11-02T01:08:29Z</time>
      </trkpt>
      <trkpt lat="42.46438" lon="2.07153">
        <ele>1568.894</ele>
        <time>2019-11-02T01:08:49Z</time>
      </trkpt>
      <trkpt lat="42.46398" lon="2.07108">
        <ele>1571.356</ele>
        <time>2019-11-02T01:09:09Z</time>
      </trkpt>
      <trkpt lat="42.46369" lon="2.06959">
        <ele>1578.172</ele>
        <time>2019-11-02T01:09:29Z</time>
      </trkpt>
      <trkpt lat="42.46325" lon="2.06916">
        <ele>1579.761</ele>
        <time>2019-11-02T01:09:49Z</time>
      </trkpt>
      <trkpt lat="42.46282" lon="2.06899">
        <ele>1576.667</ele>
        <time>2019-11-02T01:10:09Z</time>
      </trkpt>
      <trkpt lat="42.46211" lon="2.06955">
        <ele>1571.781</ele>
        <time>2019-11-02T01:10:29Z</time>
      </trkpt>
      <trkpt lat="42.46183" lon="2.06948">
        <ele>1569.719</ele>
        <time>2019-11-02T01:10:49Z</time>
      </trkpt>
      <trkpt lat="42.46143" lon="2.06897">
        <ele>1563.608</ele>
        <time>2019-11-02T01:11:09Z</time>
      </trkpt>
      <trkpt lat="42.46081" lon="2.06853">
        <ele>1559.132</ele>
        <time>2019-11-02T01:11:29Z</time>
      </trkpt>
      <trkpt lat="42.46069" lon="2.06774">
        <ele>1554.568</ele>
        <time>2019-11-02T01:11:49Z</time>
      </trkpt>
      <trkpt lat="42.45996" lon="2.06671">
        <ele>1564.333</ele>
        <time>2019-11-02T01:12:09Z</time>
      </trkpt>
      <trkpt lat="42.45891" lon="2.066">
        <ele>1548.376</ele>
        <time>2019-11-02T01:12:29Z</time>
      </trkpt>
      <trkpt lat="42.45687" lon="2.06527">
        <ele>1507.052</ele>
        <time>2019-11-02T01:12:49Z</time>
      </trkpt>
      <trkpt lat="42.45615" lon="2.06483">
        <ele>1482.064</ele>
        <time>2019-11-02T01:13:09Z</time>
      </trkpt>
      <trkpt lat="42.45581" lon="2.06501">
        <ele>1476.99</ele>
        <time>2019-11-02T01:13:29Z</time>
      </trkpt>
      <trkpt lat="42.45566" lon="2.06524">
        <ele>1470.029</ele>
        <time>2019-11-02T01:13:49Z</time>
      </trkpt>
      <trkpt lat="42.45546" lon="2.0649">
        <ele>1460.732</ele>
        <time>2019-11-02T01:14:09Z</time>
      </trkpt>
      <trkpt lat="42.45539" lon="2.06526">
        <ele>1458.992</ele>
        <time>2019-11-02T01:14:29Z</time>
      </trkpt>
      <trkpt lat="42.45498" lon="2.06473">
        <ele>1448.011</ele>
        <time>2019-11-02T01:14:49Z</time>
      </trkpt>
      <trkpt lat="42.45512" lon="2.06456">
        <ele>1447.008</ele>
        <time>2019-11-02T01:15:09Z</time>
      </trkpt>
      <trkpt lat="42.45512" lon="2.0643">
        <ele>1443.039</ele>
        <time>2019-11-02T01:15:29Z</time>
      </trkpt>
      <trkpt lat="42.45468" lon="2.06371">
        <ele>1424.115</ele>
        <time>2019-11-02T01:15:49Z</time>
      </trkpt>
      <trkpt lat="42.45455" lon="2.06318">
        <ele>1419.07</ele>
        <time>2019-11-02T01:16:09Z</time>
      </trkpt>
      <trkpt lat="42.45457" lon="2.06191">
        <ele>1408.543</ele>
        <time>2019-11-02T01:16:29Z</time>
      </trkpt>
      <trkpt lat="42.45463" lon="2.06168">
        <ele>1413.639</ele>
        <time>2020-12-28T13:06:15Z</time>
      </trkpt>
      <trkpt lat="42.45478" lon="2.06147">
        <ele>1414.271</ele>
        <time>2020-12-28T13:06:35Z</time>
      </trkpt>
      <trkpt lat="42.45479" lon="2.06116">
        <ele>1412.437</ele>
        <time>2020-12-28T13:06:55Z</time>
      </trkpt>
      <trkpt lat="42.45464" lon="2.06099">
        <ele>1409.746</ele>
        <time>2020-12-28T13:07:15Z</time>
      </trkpt>
      <trkpt lat="42.45432" lon="2.06096">
        <ele>1405.647</ele>
        <time>2020-12-28T13:07:35Z</time>
      </trkpt>
      <trkpt lat="42.45415" lon="2.06113">
        <ele>1401.929</ele>
        <time>2019-11-02T01:17:29Z</time>
      </trkpt>
      <trkpt lat="42.45392" lon="2.0612">
        <ele>1399.621</ele>
        <time>2019-11-02T01:17:49Z</time>
      </trkpt>
      <trkpt lat="42.45377" lon="2.06072">
        <ele>1396.408</ele>
        <time>2019-11-02T01:18:09Z</time>
      </trkpt>
      <trkpt lat="42.45264" lon="2.0595">
        <ele>1381.15</ele>
        <time>2019-11-02T01:18:29Z</time>
      </trkpt>
      <trkpt lat="42.45246" lon="2.05971">
        <ele>1378.716</ele>
        <time>2019-11-02T01:18:49Z</time>
      </trkpt>
      <trkpt lat="42.45221" lon="2.05896">
        <ele>1372.331</ele>
        <time>2019-11-02T01:19:09Z</time>
      </trkpt>
      <trkpt lat="42.45162" lon="2.05834">
        <ele>1361.454</ele>
        <time>2019-11-02T01:19:29Z</time>
      </trkpt>
      <trkpt lat="42.45149" lon="2.05782">
        <ele>1360.96</ele>
        <time>2019-11-02T01:19:49Z</time>
      </trkpt>
      <trkpt lat="42.45159" lon="2.05741">
        <ele>1359.822</ele>
        <time>2019-11-02T01:20:09Z</time>
      </trkpt>
      <trkpt lat="42.45156" lon="2.05685">
        <ele>1359.888</ele>
        <time>2019-11-02T01:20:29Z</time>
      </trkpt>
      <trkpt lat="42.45169" lon="2.05636">
        <ele>1357.757</ele>
        <time>2019-11-02T01:20:49Z</time>
      </trkpt>
      <trkpt lat="42.45164" lon="2.05552">
        <ele>1356.186</ele>
        <time>2019-11-02T01:21:09Z</time>
      </trkpt>
      <trkpt lat="42.45181" lon="2.05442">
        <ele>1353.56</ele>
        <time>2019-11-02T01:21:29Z</time>
      </trkpt>
      <trkpt lat="42.45184" lon="2.05403">
        <ele>1353.926</ele>
        <time>2019-11-02T01:21:49Z</time>
      </trkpt>
      <trkpt lat="42.4522" lon="2.05229">
        <ele>1357.908</ele>
        <time>2019-11-02T01:22:09Z</time>
      </trkpt>
      <trkpt lat="42.45156" lon="2.04844">
        <ele>1361.484</ele>
        <time>2019-11-02T01:22:29Z</time>
      </trkpt>
      <trkpt lat="42.45189" lon="2.04693">
        <ele>1362.62</ele>
        <time>2019-11-02T01:22:49Z</time>
      </trkpt>
      <trkpt lat="42.4517" lon="2.04605">
        <ele>1366.895</ele>
        <time>2019-11-02T01:23:09Z</time>
      </trkpt>
      <trkpt lat="42.45141" lon="2.04551">
        <ele>1369.218</ele>
        <time>2019-11-02T01:23:29Z</time>
      </trkpt>
      <trkpt lat="42.45158" lon="2.04491">
        <ele>1372.764</ele>
        <time>2019-11-02T01:23:49Z</time>
      </trkpt>
      <trkpt lat="42.45166" lon="2.04338">
        <ele>1388.756</ele>
        <time>2019-11-02T01:24:09Z</time>
      </trkpt>
      <trkpt lat="42.45153" lon="2.04306">
        <ele>1390.042</ele>
        <time>2019-11-02T01:24:29Z</time>
      </trkpt>
      <trkpt lat="42.45134" lon="2.04291">
        <ele>1388.051</ele>
        <time>2019-11-02T01:24:49Z</time>
      </trkpt>
      <trkpt lat="42.45102" lon="2.04299">
        <ele>1388.781</ele>
        <time>2019-11-02T01:25:09Z</time>
      </trkpt>
      <trkpt lat="42.45075" lon="2.04301">
        <ele>1387.761</ele>
        <time>2019-11-02T01:25:29Z</time>
      </trkpt>
      <trkpt lat="42.45047" lon="2.04325">
        <ele>1389.717</ele>
        <time>2019-11-02T01:25:49Z</time>
      </trkpt>
      <trkpt lat="42.45018" lon="2.04318">
        <ele>1388.208</ele>
        <time>2019-11-02T01:26:09Z</time>
      </trkpt>
      <trkpt lat="42.45002" lon="2.0429">
        <ele>1383.194</ele>
        <time>2019-11-02T01:26:29Z</time>
      </trkpt>
      <trkpt lat="42.44911" lon="2.04267">
        <ele>1377.39</ele>
        <time>2019-11-02T01:26:49Z</time>
      </trkpt>
      <trkpt lat="42.4487" lon="2.04224">
        <ele>1376.395</ele>
        <time>2019-11-02T01:27:09Z</time>
      </trkpt>
      <trkpt lat="42.4486" lon="2.0417">
        <ele>1376.178</ele>
        <time>2019-11-02T01:27:29Z</time>
      </trkpt>
      <trkpt lat="42.44889" lon="2.04135">
        <ele>1375.694</ele>
        <time>2019-11-02T01:27:49Z</time>
      </trkpt>
      <trkpt lat="42.44916" lon="2.04024">
        <ele>1388.766</ele>
        <time>2019-11-02T01:28:09Z</time>
      </trkpt>
      <trkpt lat="42.44965" lon="2.03965">
        <ele>1390.972</ele>
        <time>2019-11-02T01:28:29Z</time>
      </trkpt>
      <trkpt lat="42.44954" lon="2.03909">
        <ele>1397.391</ele>
        <time>2019-11-02T01:28:49Z</time>
      </trkpt>
      <trkpt lat="42.44908" lon="2.03935">
        <ele>1399.664</ele>
        <time>2019-11-02T01:29:09Z</time>
      </trkpt>
      <trkpt lat="42.44879" lon="2.03912">
        <ele>1399.806</ele>
        <time>2019-11-02T01:29:29Z</time>
      </trkpt>
      <trkpt lat="42.44828" lon="2.03895">
        <ele>1397.816</ele>
        <time>2019-11-02T01:29:49Z</time>
      </trkpt>
      <trkpt lat="42.44688" lon="2.03759">
        <ele>1384.608</ele>
        <time>2019-11-02T01:30:09Z</time>
      </trkpt>
      <trkpt lat="42.44634" lon="2.03737">
        <ele>1378.082</ele>
        <time>2019-11-02T01:30:29Z</time>
      </trkpt>
      <trkpt lat="42.44508" lon="2.03725">
        <ele>1372.468</ele>
        <time>2019-11-02T01:30:49Z</time>
      </trkpt>
      <trkpt lat="42.4447" lon="2.03703">
        <ele>1369.973</ele>
        <time>2019-11-02T01:31:09Z</time>
      </trkpt>
      <trkpt lat="42.44366" lon="2.0358">
        <ele>1365.786</ele>
        <time>2019-11-02T01:31:29Z</time>
      </trkpt>
      <trkpt lat="42.44311" lon="2.0352">
        <ele>1365.592</ele>
        <time>2019-11-02T01:31:49Z</time>
      </trkpt>
      <trkpt lat="42.44187" lon="2.03326">
        <ele>1360.724</ele>
        <time>2019-11-02T01:32:09Z</time>
      </trkpt>
      <trkpt lat="42.44128" lon="2.03389">
        <ele>1364.86</ele>
        <time>2019-11-02T01:32:29Z</time>
      </trkpt>
      <trkpt lat="42.441" lon="2.03363">
        <ele>1364.949</ele>
        <time>2019-11-02T01:32:49Z</time>
      </trkpt>
      <trkpt lat="42.44041" lon="2.03333">
        <ele>1362.969</ele>
        <time>2019-11-02T01:33:09Z</time>
      </trkpt>
      <trkpt lat="42.44031" lon="2.03219">
        <ele>1348.904</ele>
        <time>2019-11-02T01:33:29Z</time>
      </trkpt>
      <trkpt lat="42.43951" lon="2.03216">
        <ele>1346.824</ele>
        <time>2019-11-02T01:33:49Z</time>
      </trkpt>
      <trkpt lat="42.43957" lon="2.03137">
        <ele>1342.908</ele>
        <time>2019-11-02T01:34:09Z</time>
      </trkpt>
      <trkpt lat="42.4391" lon="2.03072">
        <ele>1339.932</ele>
        <time>2019-11-02T01:34:29Z</time>
      </trkpt>
      <trkpt lat="42.43819" lon="2.03031">
        <ele>1346.948</ele>
        <time>2019-11-02T01:34:49Z</time>
      </trkpt>
      <trkpt lat="42.43811" lon="2.02989">
        <ele>1353.643</ele>
        <time>2019-11-02T01:35:09Z</time>
      </trkpt>
      <trkpt lat="42.43878" lon="2.02795">
        <ele>1372.746</ele>
        <time>2019-11-02T01:35:29Z</time>
      </trkpt>
      <trkpt lat="42.4386" lon="2.02749">
        <ele>1377.562</ele>
        <time>2019-11-02T01:35:49Z</time>
      </trkpt>
      <trkpt lat="42.43866" lon="2.02728">
        <ele>1376.564</ele>
        <time>2019-11-02T01:36:09Z</time>
      </trkpt>
      <trkpt lat="42.43851" lon="2.02653">
        <ele>1387.75</ele>
        <time>2019-11-02T01:36:29Z</time>
      </trkpt>
      <trkpt lat="42.43826" lon="2.0262">
        <ele>1392.399</ele>
        <time>2019-11-02T01:36:49Z</time>
      </trkpt>
      <trkpt lat="42.43793" lon="2.02646">
        <ele>1400.469</ele>
        <time>2019-11-02T01:37:09Z</time>
      </trkpt>
      <trkpt lat="42.43757" lon="2.02614">
        <ele>1402.904</ele>
        <time>2019-11-02T01:37:29Z</time>
      </trkpt>
      <trkpt lat="42.43656" lon="2.02485">
        <ele>1408.424</ele>
        <time>2019-11-02T01:37:49Z</time>
      </trkpt>
      <trkpt lat="42.43641" lon="2.02425">
        <ele>1407.308</ele>
        <time>2019-11-02T01:38:09Z</time>
      </trkpt>
      <trkpt lat="42.43568" lon="2.0228">
        <ele>1414.232</ele>
        <time>2019-11-02T01:38:29Z</time>
      </trkpt>
      <trkpt lat="42.43528" lon="2.0225">
        <ele>1416.958</ele>
        <time>2019-11-02T01:38:49Z</time>
      </trkpt>
      <trkpt lat="42.43465" lon="2.02091">
        <ele>1419.183</ele>
        <time>2019-11-02T01:39:09Z</time>
      </trkpt>
      <trkpt lat="42.43473" lon="2.0205">
        <ele>1415.566</ele>
        <time>2019-11-02T01:39:29Z</time>
      </trkpt>
      <trkpt lat="42.43457" lon="2.01977">
        <ele>1413.042</ele>
        <time>2019-11-02T01:39:49Z</time>
      </trkpt>
      <trkpt lat="42.43411" lon="2.01912">
        <ele>1412.894</ele>
        <time>2019-11-02T01:40:09Z</time>
      </trkpt>
      <trkpt lat="42.43399" lon="2.01865">
        <ele>1409.61</ele>
        <time>2019-11-02T01:40:29Z</time>
      </trkpt>
      <trkpt lat="42.43353" lon="2.01809">
        <ele>1408.269</ele>
        <time>2019-11-02T01:40:49Z</time>
      </trkpt>
      <trkpt lat="42.43353" lon="2.01785">
        <ele>1406.121</ele>
        <time>2019-11-02T01:41:09Z</time>
      </trkpt>
      <trkpt lat="42.43403" lon="2.01671">
        <ele>1394.441</ele>
        <time>2019-11-02T01:41:29Z</time>
      </trkpt>
      <trkpt lat="42.43414" lon="2.0162">
        <ele>1389.005</ele>
        <time>2019-11-02T01:41:49Z</time>
      </trkpt>
      <trkpt lat="42.43426" lon="2.01553">
        <ele>1380.608</ele>
        <time>2019-11-02T01:42:09Z</time>
      </trkpt>
      <trkpt lat="42.43465" lon="2.0148">
        <ele>1375.368</ele>
        <time>2019-11-02T01:42:29Z</time>
      </trkpt>
      <trkpt lat="42.43461" lon="2.0145">
        <ele>1371.594</ele>
        <time>2019-11-02T01:42:49Z</time>
      </trkpt>
      <trkpt lat="42.43415" lon="2.01488">
        <ele>1367.939</ele>
        <time>2019-11-02T01:43:09Z</time>
      </trkpt>
      <trkpt lat="42.43331" lon="2.01467">
        <ele>1359.382</ele>
        <time>2019-11-02T01:43:29Z</time>
      </trkpt>
      <trkpt lat="42.43255" lon="2.01486">
        <ele>1362.758</ele>
        <time>2019-11-02T01:43:49Z</time>
      </trkpt>
      <trkpt lat="42.43204" lon="2.01441">
        <ele>1365.35</ele>
        <time>2019-11-02T01:44:09Z</time>
      </trkpt>
      <trkpt lat="42.43185" lon="2.0137">
        <ele>1364.166</ele>
        <time>2019-11-02T01:44:29Z</time>
      </trkpt>
      <trkpt lat="42.43149" lon="2.01323">
        <ele>1366.765</ele>
        <time>2019-11-02T01:44:49Z</time>
      </trkpt>
      <trkpt lat="42.43098" lon="2.01222">
        <ele>1371.772</ele>
        <time>2019-11-02T01:45:09Z</time>
      </trkpt>
      <trkpt lat="42.43098" lon="2.01131">
        <ele>1369.313</ele>
        <time>2019-11-02T01:45:29Z</time>
      </trkpt>
      <trkpt lat="42.43061" lon="2.01056">
        <ele>1371.814</ele>
        <time>2019-11-02T01:45:49Z</time>
      </trkpt>
      <trkpt lat="42.43033" lon="2.01032">
        <ele>1375.208</ele>
        <time>2019-11-02T01:46:09Z</time>
      </trkpt>
      <trkpt lat="42.43011" lon="2.01022">
        <ele>1379.873</ele>
        <time>2019-11-02T01:46:29Z</time>
      </trkpt>
      <trkpt lat="42.42991" lon="2.00978">
        <ele>1381.449</ele>
        <time>2019-11-02T01:46:49Z</time>
      </trkpt>
      <trkpt lat="42.42985" lon="2.00895">
        <ele>1383.984</ele>
        <time>2019-11-02T01:47:09Z</time>
      </trkpt>
      <trkpt lat="42.4293" lon="2.00873">
        <ele>1383.957</ele>
        <time>2019-11-02T01:47:29Z</time>
      </trkpt>
      <trkpt lat="42.42876" lon="2.0081">
        <ele>1373.343</ele>
        <time>2019-11-02T01:47:49Z</time>
      </trkpt>
      <trkpt lat="42.42809" lon="2.00828">
        <ele>1370.475</ele>
        <time>2019-11-02T01:48:09Z</time>
      </trkpt>
      <trkpt lat="42.42784" lon="2.00744">
        <ele>1375.841</ele>
        <time>2019-11-02T01:48:29Z</time>
      </trkpt>
      <trkpt lat="42.42786" lon="2.00697">
        <ele>1373.18</ele>
        <time>2019-11-02T01:48:49Z</time>
      </trkpt>
      <trkpt lat="42.4278" lon="2.0066">
        <ele>1372.538</ele>
        <time>2019-11-02T01:49:09Z</time>
      </trkpt>
      <trkpt lat="42.42795" lon="2.00621">
        <ele>1368.57</ele>
        <time>2019-11-02T01:49:29Z</time>
      </trkpt>
      <trkpt lat="42.42799" lon="2.00559">
        <ele>1368.217</ele>
        <time>2019-11-02T01:49:49Z</time>
      </trkpt>
      <trkpt lat="42.42773" lon="2.00507">
        <ele>1371.008</ele>
        <time>2019-11-02T01:50:09Z</time>
      </trkpt>
      <trkpt lat="42.42764" lon="2.00436">
        <ele>1369.489</ele>
        <time>2019-11-02T01:50:29Z</time>
      </trkpt>
      <trkpt lat="42.42683" lon="2.00406">
        <ele>1364.185</ele>
        <time>2019-11-02T01:50:49Z</time>
      </trkpt>
      <trkpt lat="42.42662" lon="1.99982">
        <ele>1330.28</ele>
        <time>2019-11-02T01:51:09Z</time>
      </trkpt>
      <trkpt lat="42.42635" lon="1.9989">
        <ele>1326.763</ele>
        <time>2019-11-02T01:51:29Z</time>
      </trkpt>
      <trkpt lat="42.42624" lon="1.99777">
        <ele>1319.779</ele>
        <time>2019-11-02T01:51:49Z</time>
      </trkpt>
      <trkpt lat="42.42591" lon="1.99722">
        <ele>1313.031</ele>
        <time>2019-11-02T01:52:09Z</time>
      </trkpt>
      <trkpt lat="42.4256" lon="1.99537">
        <ele>1300.987</ele>
        <time>2019-11-02T01:52:29Z</time>
      </trkpt>
      <trkpt lat="42.42534" lon="1.99515">
        <ele>1297.236</ele>
        <time>2019-11-02T01:52:49Z</time>
      </trkpt>
      <trkpt lat="42.42522" lon="1.99466">
        <ele>1293.139</ele>
        <time>2019-11-02T01:53:09Z</time>
      </trkpt>
      <trkpt lat="42.4248" lon="1.99375">
        <ele>1281.301</ele>
        <time>2019-11-02T01:53:29Z</time>
      </trkpt>
      <trkpt lat="42.42479" lon="1.99336">
        <ele>1277.021</ele>
        <time>2019-11-02T01:53:49Z</time>
      </trkpt>
      <trkpt lat="42.42411" lon="1.99212">
        <ele>1271.908</ele>
        <time>2019-11-02T01:54:09Z</time>
      </trkpt>
      <trkpt lat="42.42388" lon="1.99192">
        <ele>1267.879</ele>
        <time>2019-11-02T01:54:29Z</time>
      </trkpt>
      <trkpt lat="42.4237" lon="1.99054">
        <ele>1260.225</ele>
        <time>2019-11-02T01:54:49Z</time>
      </trkpt>
      <trkpt lat="42.42342" lon="1.99024">
        <ele>1255.73</ele>
        <time>2019-11-02T01:55:09Z</time>
      </trkpt>
      <trkpt lat="42.42249" lon="1.98983">
        <ele>1263.153</ele>
        <time>2019-11-02T01:55:29Z</time>
      </trkpt>
      <trkpt lat="42.42211" lon="1.99007">
        <ele>1262.989</ele>
        <time>2019-11-02T01:55:49Z</time>
      </trkpt>
      <trkpt lat="42.42173" lon="1.99003">
        <ele>1260.211</ele>
        <time>2019-11-02T01:56:09Z</time>
      </trkpt>
      <trkpt lat="42.42137" lon="1.98966">
        <ele>1260.477</ele>
        <time>2019-11-02T01:56:29Z</time>
      </trkpt>
      <trkpt lat="42.42086" lon="1.98968">
        <ele>1262.566</ele>
        <time>2019-11-02T01:56:49Z</time>
      </trkpt>
      <trkpt lat="42.42133" lon="1.98833">
        <ele>1250.421</ele>
        <time>2019-11-02T01:57:09Z</time>
      </trkpt>
      <trkpt lat="42.42134" lon="1.98719">
        <ele>1247.641</ele>
        <time>2019-11-02T01:57:29Z</time>
      </trkpt>
      <trkpt lat="42.42156" lon="1.98658">
        <ele>1240.905</ele>
        <time>2019-11-02T01:57:49Z</time>
      </trkpt>
      <trkpt lat="42.4217" lon="1.98566">
        <ele>1236.408</ele>
        <time>2019-11-02T01:58:09Z</time>
      </trkpt>
      <trkpt lat="42.42141" lon="1.98504">
        <ele>1237.168</ele>
        <time>2019-11-02T01:58:29Z</time>
      </trkpt>
      <trkpt lat="42.42127" lon="1.98385">
        <ele>1233.334</ele>
        <time>2019-11-02T01:58:49Z</time>
      </trkpt>
      <trkpt lat="42.42131" lon="1.98314">
        <ele>1230.629</ele>
        <time>2019-11-02T01:59:09Z</time>
      </trkpt>
      <trkpt lat="42.42156" lon="1.9828">
        <ele>1228.852</ele>
        <time>2019-11-02T01:59:29Z</time>
      </trkpt>
      <trkpt lat="42.42129" lon="1.98239">
        <ele>1232.738</ele>
        <time>2019-11-02T01:59:49Z</time>
      </trkpt>
      <trkpt lat="42.42123" lon="1.98196">
        <ele>1234.56</ele>
        <time>2019-11-02T02:00:09Z</time>
      </trkpt>
      <trkpt lat="42.42107" lon="1.98179">
        <ele>1238.866</ele>
        <time>2019-11-02T02:00:29Z</time>
      </trkpt>
      <trkpt lat="42.42112" lon="1.9815">
        <ele>1234.645</ele>
        <time>2019-11-02T02:00:49Z</time>
      </trkpt>
      <trkpt lat="42.42094" lon="1.98116">
        <ele>1238.918</ele>
        <time>2019-11-02T02:01:09Z</time>
      </trkpt>
      <trkpt lat="42.42098" lon="1.98093">
        <ele>1238.098</ele>
        <time>2019-11-02T02:01:29Z</time>
      </trkpt>
      <trkpt lat="42.42103" lon="1.98014">
        <ele>1236.217</ele>
        <time>2019-11-02T02:01:49Z</time>
      </trkpt>
      <trkpt lat="42.42088" lon="1.97981">
        <ele>1238.508</ele>
        <time>2019-11-02T02:02:09Z</time>
      </trkpt>
      <trkpt lat="42.42075" lon="1.9797">
        <ele>1240.747</ele>
        <time>2019-11-02T02:02:29Z</time>
      </trkpt>
      <trkpt lat="42.4204" lon="1.97917">
        <ele>1243.973</ele>
        <time>2019-11-02T02:02:49Z</time>
      </trkpt>
      <trkpt lat="42.42025" lon="1.97864">
        <ele>1245.078</ele>
        <time>2019-11-02T02:03:09Z</time>
      </trkpt>
      <trkpt lat="42.41985" lon="1.97779">
        <ele>1243.791</ele>
        <time>2019-11-02T02:03:29Z</time>
      </trkpt>
      <trkpt lat="42.41959" lon="1.97774">
        <ele>1245.187</ele>
        <time>2019-11-02T02:03:49Z</time>
      </trkpt>
      <trkpt lat="42.41951" lon="1.97746">
        <ele>1241.989</ele>
        <time>2019-11-02T02:04:09Z</time>
      </trkpt>
      <trkpt lat="42.41878" lon="1.97751">
        <ele>1241.165</ele>
        <time>2019-11-02T02:04:29Z</time>
      </trkpt>
      <trkpt lat="42.41984" lon="1.97638">
        <ele>1237.714</ele>
        <time>2019-11-02T02:04:49Z</time>
      </trkpt>
      <trkpt lat="42.42016" lon="1.97574">
        <ele>1234.355</ele>
        <time>2019-11-02T02:05:09Z</time>
      </trkpt>
      <trkpt lat="42.4205" lon="1.97557">
        <ele>1232.407</ele>
        <time>2019-11-02T02:05:29Z</time>
      </trkpt>
      <trkpt lat="42.42083" lon="1.97591">
        <ele>1233.017</ele>
        <time>2019-11-02T02:05:49Z</time>
      </trkpt>
      <trkpt lat="42.42171" lon="1.97554">
        <ele>1230.208</ele>
        <time>2019-11-02T02:06:09Z</time>
      </trkpt>
      <trkpt lat="42.42238" lon="1.97492">
        <ele>1228.351</ele>
        <time>2019-11-02T02:06:29Z</time>
      </trkpt>
      <trkpt lat="42.42341" lon="1.9735">
        <ele>1218.737</ele>
        <time>2019-11-02T02:06:49Z</time>
      </trkpt>
      <trkpt lat="42.42398" lon="1.97292">
        <ele>1211.442</ele>
        <time>2019-11-02T02:07:09Z</time>
      </trkpt>
      <trkpt lat="42.42451" lon="1.97251">
        <ele>1204.925</ele>
        <time>2019-11-02T02:07:29Z</time>
      </trkpt>
      <trkpt lat="42.425" lon="1.97223">
        <ele>1201.051</ele>
        <time>2019-11-02T02:07:49Z</time>
      </trkpt>
      <trkpt lat="42.42622" lon="1.97096">
        <ele>1194.963</ele>
        <time>2019-11-02T02:08:09Z</time>
      </trkpt>
      <trkpt lat="42.42759" lon="1.96978">
        <ele>1185.759</ele>
        <time>2019-11-02T02:08:29Z</time>
      </trkpt>
      <trkpt lat="42.42804" lon="1.96917">
        <ele>1183.138</ele>
        <time>2019-11-02T02:08:49Z</time>
      </trkpt>
      <trkpt lat="42.42854" lon="1.96861">
        <ele>1179.544</ele>
        <time>2019-11-02T02:09:09Z</time>
      </trkpt>
      <trkpt lat="42.42974" lon="1.96691">
        <ele>1172.905</ele>
        <time>2019-11-02T02:09:29Z</time>
      </trkpt>
      <trkpt lat="42.43025" lon="1.96631">
        <ele>1170.715</ele>
        <time>2019-11-02T02:09:49Z</time>
      </trkpt>
      <trkpt lat="42.43021" lon="1.96509">
        <ele>1169.108</ele>
        <time>2019-11-02T02:10:09Z</time>
      </trkpt>
      <trkpt lat="42.43054" lon="1.96302">
        <ele>1165.04</ele>
        <time>2019-11-02T02:10:29Z</time>
      </trkpt>
      <trkpt lat="42.43084" lon="1.96194">
        <ele>1163.086</ele>
        <time>2019-11-02T02:10:49Z</time>
      </trkpt>
      <trkpt lat="42.43099" lon="1.96091">
        <ele>1162.251</ele>
        <time>2019-11-02T02:11:09Z</time>
      </trkpt>
      <trkpt lat="42.43094" lon="1.95983">
        <ele>1159.584</ele>
        <time>2019-11-02T02:11:29Z</time>
      </trkpt>
      <trkpt lat="42.43145" lon="1.95917">
        <ele>1161.29</ele>
        <time>2019-11-02T02:11:49Z</time>
      </trkpt>
      <trkpt lat="42.43211" lon="1.95661">
        <ele>1157.642</ele>
        <time>2019-11-02T02:12:09Z</time>
      </trkpt>
      <trkpt lat="42.43341" lon="1.95491">
        <ele>1157.748</ele>
        <time>2019-11-02T02:12:29Z</time>
      </trkpt>
      <trkpt lat="42.43372" lon="1.95174">
        <ele>1145.847</ele>
        <time>2019-11-02T02:12:49Z</time>
      </trkpt>
      <trkpt lat="42.43213" lon="1.95101">
        <ele>1145.478</ele>
        <time>2019-11-02T02:13:09Z</time>
      </trkpt>
      <trkpt lat="42.43175" lon="1.95092">
        <ele>1145.033</ele>
        <time>2019-11-02T02:13:29Z</time>
      </trkpt>
      <trkpt lat="42.43144" lon="1.95093">
        <ele>1145.026</ele>
        <time>2019-11-02T02:13:49Z</time>
      </trkpt>
      <trkpt lat="42.43119" lon="1.95071">
        <ele>1144.708</ele>
        <time>2019-11-02T02:14:09Z</time>
      </trkpt>
      <trkpt lat="42.43179" lon="1.94884">
        <ele>1142.423</ele>
        <time>2019-11-02T02:14:29Z</time>
      </trkpt>
      <trkpt lat="42.4333" lon="1.94559">
        <ele>1137.989</ele>
        <time>2019-11-02T02:14:49Z</time>
      </trkpt>
      <trkpt lat="42.43377" lon="1.94402">
        <ele>1142.524</ele>
        <time>2020-12-28T14:05:35Z</time>
      </trkpt>
      <trkpt lat="42.43383" lon="1.94208">
        <ele>1143.287</ele>
        <time>2020-12-28T14:05:55Z</time>
      </trkpt>
      <trkpt lat="42.43369" lon="1.94081">
        <ele>1145.583</ele>
        <time>2020-12-28T14:06:15Z</time>
      </trkpt>
      <trkpt lat="43.21645" lon="2.35102">
        <ele>107.034</ele>
        <time>2019-10-31T20:55:34Z</time>
      </trkpt>
    </trkseg>
  </trk>
</gpx>